<?xml version='1.0' encoding='UTF-8'?><gpx version="1.1" creator="JPX - https://github.com/jenetics/jpx" xmlns="http://www.topografix.com/GPX/1/1"><trk><trkseg><trkpt lat="43.791594990470465" lon="11.06517742888442"><ele>48.99999999999999</ele><time>2026-04-05T13:24:19.006Z</time></trkpt><trkpt lat="43.79152863658857" lon="11.06511525385125"><ele>49.0</ele><time>2026-04-05T13:25:06Z</time></trkpt><trkpt lat="43.79151690807545" lon="11.065002886688028"><ele>49.0</ele><time>2026-04-05T13:25:08.999Z</time></trkpt><trkpt lat="43.79150610062387" lon="11.064909246352363"><ele>49.0</ele><time>2026-04-05T13:25:10.999Z</time></trkpt><trkpt lat="43.79152965899326" lon="11.064781204106996"><ele>48.99999999999999</ele><time>2026-04-05T13:25:13.999Z</time></trkpt><trkpt lat="43.79149109155124" lon="11.064667232257124"><ele>49.0</ele><time>2026-04-05T13:25:15.999Z</time></trkpt><trkpt lat="43.79140337413571" lon="11.064579003317924"><ele>48.49999999999999</ele><time>2026-04-05T13:25:17.999Z</time></trkpt><trkpt lat="43.79129457952012" lon="11.064524783842492"><ele>48.0</ele><time>2026-04-05T13:25:19.999Z</time></trkpt><trkpt lat="43.79120586796694" lon="11.064463697181795"><ele>47.5</ele><time>2026-04-05T13:25:21.999Z</time></trkpt><trkpt lat="43.79114254916934" lon="11.064490245110662"><ele>47.0</ele><time>2026-04-05T13:25:27.999Z</time></trkpt><trkpt lat="43.79109260213753" lon="11.064582586573119"><ele>46.5</ele><time>2026-04-05T13:25:28.999Z</time></trkpt><trkpt lat="43.79106338484253" lon="11.06467036410001"><ele>46.0</ele><time>2026-04-05T13:25:29.999Z</time></trkpt><trkpt lat="43.79102032220886" lon="11.06477586936335"><ele>45.199999999999996</ele><time>2026-04-05T13:25:30.999Z</time></trkpt><trkpt lat="43.79096846536929" lon="11.064872741761015"><ele>44.4</ele><time>2026-04-05T13:25:31.999Z</time></trkpt><trkpt lat="43.790919714133885" lon="11.064992162145161"><ele>43.6</ele><time>2026-04-05T13:25:32.999Z</time></trkpt><trkpt lat="43.790866788509" lon="11.065121329629694"><ele>42.8</ele><time>2026-04-05T13:25:33.999Z</time></trkpt><trkpt lat="43.7908281122076" lon="11.065254715931465"><ele>42.0</ele><time>2026-04-05T13:25:34.999Z</time></trkpt><trkpt lat="43.790778462521146" lon="11.065383422335149"><ele>42.0</ele><time>2026-04-05T13:25:35.999Z</time></trkpt><trkpt lat="43.79070429490126" lon="11.065521137119532"><ele>42.0</ele><time>2026-04-05T13:25:36.999Z</time></trkpt><trkpt lat="43.79065264773908" lon="11.065648167276935"><ele>42.0</ele><time>2026-04-05T13:25:37.999Z</time></trkpt><trkpt lat="43.7906047152317" lon="11.065763844473146"><ele>42.0</ele><time>2026-04-05T13:25:38.999Z</time></trkpt><trkpt lat="43.79055499483733" lon="11.065882966310062"><ele>42.0</ele><time>2026-04-05T13:25:39.999Z</time></trkpt><trkpt lat="43.79051060594097" lon="11.06598964122255"><ele>42.6</ele><time>2026-04-05T13:25:40.999Z</time></trkpt><trkpt lat="43.790468021464655" lon="11.066090661167108"><ele>43.2</ele><time>2026-04-05T13:25:41.999Z</time></trkpt><trkpt lat="43.790419649695146" lon="11.066205354445364"><ele>43.8</ele><time>2026-04-05T13:25:42.999Z</time></trkpt><trkpt lat="43.79037832686307" lon="11.066343583008454"><ele>44.4</ele><time>2026-04-05T13:25:43.999Z</time></trkpt><trkpt lat="43.79031869486241" lon="11.066472036362903"><ele>45.0</ele><time>2026-04-05T13:25:44.999Z</time></trkpt><trkpt lat="43.79027678321663" lon="11.06660900473988"><ele>45.2</ele><time>2026-04-05T13:25:45.999Z</time></trkpt><trkpt lat="43.79027449895053" lon="11.066748886114224"><ele>45.4</ele><time>2026-04-05T13:25:46.999Z</time></trkpt><trkpt lat="43.79030899652355" lon="11.066882065126382"><ele>45.599999999999994</ele><time>2026-04-05T13:25:47.999Z</time></trkpt><trkpt lat="43.79036478791479" lon="11.066988840352133"><ele>45.8</ele><time>2026-04-05T13:25:48.999Z</time></trkpt><trkpt lat="43.79043012267777" lon="11.067078710748406"><ele>46.0</ele><time>2026-04-05T13:25:49.999Z</time></trkpt><trkpt lat="43.79053222711907" lon="11.067089507527875"><ele>46.0</ele><time>2026-04-05T13:25:50.999Z</time></trkpt><trkpt lat="43.79064337849843" lon="11.067085113325904"><ele>46.0</ele><time>2026-04-05T13:25:51.999Z</time></trkpt><trkpt lat="43.790749787274606" lon="11.067072356981788"><ele>46.0</ele><time>2026-04-05T13:25:52.998Z</time></trkpt><trkpt lat="43.79083479708345" lon="11.067065136330653"><ele>46.0</ele><time>2026-04-05T13:25:53.998Z</time></trkpt><trkpt lat="43.79092344769452" lon="11.067071266465023"><ele>46.0</ele><time>2026-04-05T13:25:54.998Z</time></trkpt><trkpt lat="43.7910207554658" lon="11.067061733103"><ele>47.199999999999996</ele><time>2026-04-05T13:25:55.998Z</time></trkpt><trkpt lat="43.79113244684768" lon="11.067056444719245"><ele>48.4</ele><time>2026-04-05T13:25:56.998Z</time></trkpt><trkpt lat="43.791237279809145" lon="11.067057877237218"><ele>49.6</ele><time>2026-04-05T13:25:57.998Z</time></trkpt><trkpt lat="43.79134421772644" lon="11.067053547021773"><ele>50.8</ele><time>2026-04-05T13:25:58.998Z</time></trkpt><trkpt lat="43.79146461185425" lon="11.067061402632905"><ele>52.0</ele><time>2026-04-05T13:25:59.998Z</time></trkpt><trkpt lat="43.791584540852305" lon="11.067055149190942"><ele>52.0</ele><time>2026-04-05T13:26:00.998Z</time></trkpt><trkpt lat="43.791693280817086" lon="11.067060742710597"><ele>52.0</ele><time>2026-04-05T13:26:01.998Z</time></trkpt><trkpt lat="43.79179181264059" lon="11.067069718749867"><ele>52.0</ele><time>2026-04-05T13:26:02.998Z</time></trkpt><trkpt lat="43.79189984444598" lon="11.067075765446674"><ele>52.0</ele><time>2026-04-05T13:26:03.998Z</time></trkpt><trkpt lat="43.791994770355544" lon="11.067066600412232"><ele>52.0</ele><time>2026-04-05T13:26:04.998Z</time></trkpt><trkpt lat="43.79207506278266" lon="11.067059547913212"><ele>52.666666666666664</ele><time>2026-04-05T13:26:05.998Z</time></trkpt><trkpt lat="43.7921547208548" lon="11.067051198367333"><ele>53.33333333333333</ele><time>2026-04-05T13:26:06.998Z</time></trkpt><trkpt lat="43.7922381038012" lon="11.067053917560468"><ele>54.0</ele><time>2026-04-05T13:26:07.998Z</time></trkpt><trkpt lat="43.792329919998" lon="11.067068750507667"><ele>54.66666666666667</ele><time>2026-04-05T13:26:08.998Z</time></trkpt><trkpt lat="43.79240405798953" lon="11.06706095243649"><ele>55.333333333333336</ele><time>2026-04-05T13:26:09.998Z</time></trkpt><trkpt lat="43.79247507202535" lon="11.066992600670458"><ele>56.0</ele><time>2026-04-05T13:26:10.998Z</time></trkpt><trkpt lat="43.792533515959455" lon="11.066885078127735"><ele>56.0</ele><time>2026-04-05T13:26:11.998Z</time></trkpt><trkpt lat="43.79258209905333" lon="11.066752412974958"><ele>56.0</ele><time>2026-04-05T13:26:12.998Z</time></trkpt><trkpt lat="43.792690353694155" lon="11.066693750063115"><ele>56.0</ele><time>2026-04-05T13:26:13.998Z</time></trkpt><trkpt lat="43.79279158233491" lon="11.066651894838852"><ele>56.0</ele><time>2026-04-05T13:26:14.998Z</time></trkpt><trkpt lat="43.792908146884365" lon="11.066607757944347"><ele>55.75</ele><time>2026-04-05T13:26:15.998Z</time></trkpt><trkpt lat="43.7930159899297" lon="11.066555739072767"><ele>55.5</ele><time>2026-04-05T13:26:16.998Z</time></trkpt><trkpt lat="43.79313185608245" lon="11.066491198648551"><ele>55.25</ele><time>2026-04-05T13:26:17.998Z</time></trkpt><trkpt lat="43.793236049022326" lon="11.066430951273377"><ele>55.0</ele><time>2026-04-05T13:26:18.998Z</time></trkpt><trkpt lat="43.79333264418441" lon="11.066370590058705"><ele>55.0</ele><time>2026-04-05T13:26:19.998Z</time></trkpt><trkpt lat="43.793424735529584" lon="11.066305846777324"><ele>55.0</ele><time>2026-04-05T13:26:20.998Z</time></trkpt><trkpt lat="43.79352498348173" lon="11.066234263930912"><ele>55.0</ele><time>2026-04-05T13:26:21.998Z</time></trkpt><trkpt lat="43.793630725850164" lon="11.066147338630856"><ele>55.0</ele><time>2026-04-05T13:26:22.998Z</time></trkpt><trkpt lat="43.793741005497104" lon="11.066055018220274"><ele>53.75</ele><time>2026-04-05T13:26:24Z</time></trkpt><trkpt lat="43.793850094974175" lon="11.065964132120147"><ele>52.5</ele><time>2026-04-05T13:26:25Z</time></trkpt><trkpt lat="43.793968558900545" lon="11.0658590290529"><ele>51.25</ele><time>2026-04-05T13:26:26Z</time></trkpt><trkpt lat="43.79409289046646" lon="11.065748466780414"><ele>50.0</ele><time>2026-04-05T13:26:27Z</time></trkpt><trkpt lat="43.79421237931489" lon="11.065636161551787"><ele>50.0</ele><time>2026-04-05T13:26:28Z</time></trkpt><trkpt lat="43.79433746469257" lon="11.06552944496747"><ele>50.0</ele><time>2026-04-05T13:26:29Z</time></trkpt><trkpt lat="43.79446128834969" lon="11.065426580457718"><ele>50.0</ele><time>2026-04-05T13:26:30Z</time></trkpt><trkpt lat="43.79457405535542" lon="11.065336577189804"><ele>50.0</ele><time>2026-04-05T13:26:31Z</time></trkpt><trkpt lat="43.79467701535783" lon="11.065252488666133"><ele>49.6</ele><time>2026-04-05T13:26:32Z</time></trkpt><trkpt lat="43.79476802665101" lon="11.065176075586047"><ele>49.2</ele><time>2026-04-05T13:26:33Z</time></trkpt><trkpt lat="43.79485251376615" lon="11.06511862459163"><ele>48.8</ele><time>2026-04-05T13:26:34Z</time></trkpt><trkpt lat="43.79494083171218" lon="11.065096515615904"><ele>48.4</ele><time>2026-04-05T13:26:35Z</time></trkpt><trkpt lat="43.79502956494514" lon="11.065104146266627"><ele>48.0</ele><time>2026-04-05T13:26:36Z</time></trkpt><trkpt lat="43.795116088392774" lon="11.065085271143765"><ele>48.0</ele><time>2026-04-05T13:26:37Z</time></trkpt><trkpt lat="43.79518540653987" lon="11.065013074774557"><ele>48.0</ele><time>2026-04-05T13:26:38Z</time></trkpt><trkpt lat="43.79521829708827" lon="11.064909129415831"><ele>48.0</ele><time>2026-04-05T13:26:39Z</time></trkpt><trkpt lat="43.79523110084483" lon="11.064794719692747"><ele>48.0</ele><time>2026-04-05T13:26:40Z</time></trkpt><trkpt lat="43.79516295170691" lon="11.064658695227523"><ele>48.0</ele><time>2026-04-05T13:26:41Z</time></trkpt><trkpt lat="43.795071720306794" lon="11.064580024355603"><ele>48.25</ele><time>2026-04-05T13:26:42Z</time></trkpt><trkpt lat="43.79510228072419" lon="11.064394136641091"><ele>48.5</ele><time>2026-04-05T13:26:43Z</time></trkpt><trkpt lat="43.79512901914529" lon="11.064236381635565"><ele>48.75</ele><time>2026-04-05T13:26:44Z</time></trkpt><trkpt lat="43.79516965842087" lon="11.064077523987772"><ele>49.0</ele><time>2026-04-05T13:26:45Z</time></trkpt><trkpt lat="43.795227674240834" lon="11.063921285897798"><ele>49.0</ele><time>2026-04-05T13:26:46Z</time></trkpt><trkpt lat="43.79528383956853" lon="11.063761182502068"><ele>49.0</ele><time>2026-04-05T13:26:47Z</time></trkpt><trkpt lat="43.7953559609787" lon="11.063600851673051"><ele>49.0</ele><time>2026-04-05T13:26:48Z</time></trkpt><trkpt lat="43.795414414773816" lon="11.063429668890413"><ele>49.0</ele><time>2026-04-05T13:26:49Z</time></trkpt><trkpt lat="43.795473887257984" lon="11.06326064115416"><ele>48.75</ele><time>2026-04-05T13:26:50Z</time></trkpt><trkpt lat="43.79553709340722" lon="11.063080323827217"><ele>48.5</ele><time>2026-04-05T13:26:51Z</time></trkpt><trkpt lat="43.7955951823773" lon="11.062904301104176"><ele>48.25</ele><time>2026-04-05T13:26:52Z</time></trkpt><trkpt lat="43.795647061771405" lon="11.06272596035581"><ele>48.0</ele><time>2026-04-05T13:26:53Z</time></trkpt><trkpt lat="43.79567930307813" lon="11.062539388202214"><ele>48.5</ele><time>2026-04-05T13:26:54Z</time></trkpt><trkpt lat="43.795695718822415" lon="11.062346721094935"><ele>49.0</ele><time>2026-04-05T13:26:55Z</time></trkpt><trkpt lat="43.79569306348041" lon="11.062163779722741"><ele>49.5</ele><time>2026-04-05T13:26:56Z</time></trkpt><trkpt lat="43.79567931996956" lon="11.062000466937851"><ele>50.0</ele><time>2026-04-05T13:26:57Z</time></trkpt><trkpt lat="43.795654079368965" lon="11.061844730809806"><ele>50.0</ele><time>2026-04-05T13:26:58Z</time></trkpt><trkpt lat="43.79563232025072" lon="11.061720525060743"><ele>50.0</ele><time>2026-04-05T13:26:59Z</time></trkpt><trkpt lat="43.79561004274136" lon="11.061627876040122"><ele>50.0</ele><time>2026-04-05T13:27:00Z</time></trkpt><trkpt lat="43.79559196053385" lon="11.061499876987295"><ele>50.0</ele><time>2026-04-05T13:27:02Z</time></trkpt><trkpt lat="43.79542762105159" lon="11.061543174465248"><ele>50.0</ele><time>2026-04-05T13:27:03Z</time></trkpt><trkpt lat="43.79533852621993" lon="11.061571774177438"><ele>50.4</ele><time>2026-04-05T13:27:04Z</time></trkpt><trkpt lat="43.795254666769765" lon="11.0615675549769"><ele>50.8</ele><time>2026-04-05T13:27:04.999Z</time></trkpt><trkpt lat="43.79519353749259" lon="11.061490928263266"><ele>51.2</ele><time>2026-04-05T13:27:05.999Z</time></trkpt><trkpt lat="43.795120074594585" lon="11.06139936036017"><ele>51.6</ele><time>2026-04-05T13:27:06.999Z</time></trkpt><trkpt lat="43.79504650966372" lon="11.061284579365225"><ele>52.0</ele><time>2026-04-05T13:27:07.999Z</time></trkpt><trkpt lat="43.79497408514168" lon="11.061164627500034"><ele>52.0</ele><time>2026-04-05T13:27:08.999Z</time></trkpt><trkpt lat="43.79488871472461" lon="11.061040190641574"><ele>52.0</ele><time>2026-04-05T13:27:09.999Z</time></trkpt><trkpt lat="43.79482937397674" lon="11.060899231111232"><ele>52.0</ele><time>2026-04-05T13:27:10.999Z</time></trkpt><trkpt lat="43.79477826879805" lon="11.060757449874556"><ele>52.0</ele><time>2026-04-05T13:27:11.999Z</time></trkpt><trkpt lat="43.794731916865935" lon="11.060615313592814"><ele>54.25</ele><time>2026-04-05T13:27:12.999Z</time></trkpt><trkpt lat="43.794665386641185" lon="11.06047473893829"><ele>56.5</ele><time>2026-04-05T13:27:13.999Z</time></trkpt><trkpt lat="43.79456522114329" lon="11.060354006901573"><ele>58.75</ele><time>2026-04-05T13:27:14.999Z</time></trkpt><trkpt lat="43.794484609236065" lon="11.060251444610373"><ele>61.0</ele><time>2026-04-05T13:27:15.999Z</time></trkpt><trkpt lat="43.79441409542882" lon="11.060161654965244"><ele>60.99999999999999</ele><time>2026-04-05T13:27:16.999Z</time></trkpt><trkpt lat="43.79435752214692" lon="11.060089406706892"><ele>61.0</ele><time>2026-04-05T13:27:17.999Z</time></trkpt><trkpt lat="43.79431411612403" lon="11.06002400207615"><ele>61.0</ele><time>2026-04-05T13:27:18.999Z</time></trkpt><trkpt lat="43.7942701563531" lon="11.059950942580764"><ele>61.0</ele><time>2026-04-05T13:27:19.999Z</time></trkpt><trkpt lat="43.794205067758625" lon="11.059854557112669"><ele>60.99999999999999</ele><time>2026-04-05T13:27:20.999Z</time></trkpt><trkpt lat="43.794120325821076" lon="11.05975974723422"><ele>61.0</ele><time>2026-04-05T13:27:21.999Z</time></trkpt><trkpt lat="43.79404572505666" lon="11.0596635797042"><ele>61.75</ele><time>2026-04-05T13:27:22.999Z</time></trkpt><trkpt lat="43.79397381366937" lon="11.059538669875128"><ele>62.5</ele><time>2026-04-05T13:27:23.999Z</time></trkpt><trkpt lat="43.793899528544635" lon="11.05939879180736"><ele>63.25</ele><time>2026-04-05T13:27:24.999Z</time></trkpt><trkpt lat="43.79382890687637" lon="11.059252967301354"><ele>64.0</ele><time>2026-04-05T13:27:25.999Z</time></trkpt><trkpt lat="43.79375879458242" lon="11.059120189828796"><ele>64.75</ele><time>2026-04-05T13:27:26.999Z</time></trkpt><trkpt lat="43.79368715621267" lon="11.058977897009848"><ele>65.5</ele><time>2026-04-05T13:27:27.999Z</time></trkpt><trkpt lat="43.79362395754119" lon="11.058845203660598"><ele>66.25</ele><time>2026-04-05T13:27:28.999Z</time></trkpt><trkpt lat="43.79356575489423" lon="11.058731039701513"><ele>67.0</ele><time>2026-04-05T13:27:29.999Z</time></trkpt><trkpt lat="43.7935041659547" lon="11.058602362689914"><ele>67.0</ele><time>2026-04-05T13:27:30.999Z</time></trkpt><trkpt lat="43.79344186156162" lon="11.058481268514067"><ele>67.0</ele><time>2026-04-05T13:27:31.999Z</time></trkpt><trkpt lat="43.79337062098873" lon="11.058352888589434"><ele>67.0</ele><time>2026-04-05T13:27:32.999Z</time></trkpt><trkpt lat="43.793307912843126" lon="11.058254133993634"><ele>67.0</ele><time>2026-04-05T13:27:33.999Z</time></trkpt><trkpt lat="43.793233255004786" lon="11.058146418901343"><ele>67.0</ele><time>2026-04-05T13:27:35.999Z</time></trkpt><trkpt lat="43.79322686175975" lon="11.058014748194593"><ele>67.75</ele><time>2026-04-05T13:27:37.999Z</time></trkpt><trkpt lat="43.79339605342525" lon="11.057922248350408"><ele>68.5</ele><time>2026-04-05T13:27:39.999Z</time></trkpt><trkpt lat="43.793484103824404" lon="11.057890888955809"><ele>69.25</ele><time>2026-04-05T13:27:40.999Z</time></trkpt><trkpt lat="43.79358157820742" lon="11.057871888442385"><ele>70.0</ele><time>2026-04-05T13:27:41.999Z</time></trkpt><trkpt lat="43.793699516863796" lon="11.057881051860825"><ele>71.75</ele><time>2026-04-05T13:27:42.999Z</time></trkpt><trkpt lat="43.79380905938196" lon="11.057891329791293"><ele>73.5</ele><time>2026-04-05T13:27:43.999Z</time></trkpt><trkpt lat="43.79391995405505" lon="11.057905948940258"><ele>75.25</ele><time>2026-04-05T13:27:44.999Z</time></trkpt><trkpt lat="43.79402299112869" lon="11.057905769509755"><ele>77.0</ele><time>2026-04-05T13:27:45.999Z</time></trkpt><trkpt lat="43.79414908947015" lon="11.057910905924528"><ele>77.0</ele><time>2026-04-05T13:27:46.999Z</time></trkpt><trkpt lat="43.79426554684461" lon="11.05790159819705"><ele>77.0</ele><time>2026-04-05T13:27:47.999Z</time></trkpt><trkpt lat="43.79437657537192" lon="11.05786669770519"><ele>77.0</ele><time>2026-04-05T13:27:48.999Z</time></trkpt><trkpt lat="43.794501844022925" lon="11.057811151555972"><ele>77.0</ele><time>2026-04-05T13:27:49.999Z</time></trkpt><trkpt lat="43.79460538024336" lon="11.057737062262625"><ele>77.0</ele><time>2026-04-05T13:27:50.999Z</time></trkpt><trkpt lat="43.79469518088301" lon="11.057640644263198"><ele>77.0</ele><time>2026-04-05T13:27:51.999Z</time></trkpt><trkpt lat="43.794765867665845" lon="11.05752789940614"><ele>77.0</ele><time>2026-04-05T13:27:52.999Z</time></trkpt><trkpt lat="43.79482495869036" lon="11.057403622681488"><ele>77.0</ele><time>2026-04-05T13:27:53.999Z</time></trkpt><trkpt lat="43.79485944832572" lon="11.057245692816341"><ele>77.0</ele><time>2026-04-05T13:27:54.999Z</time></trkpt><trkpt lat="43.794879207943204" lon="11.057065783620143"><ele>77.25</ele><time>2026-04-05T13:27:55.999Z</time></trkpt><trkpt lat="43.79489888510684" lon="11.056880479002754"><ele>77.5</ele><time>2026-04-05T13:27:56.999Z</time></trkpt><trkpt lat="43.79491611340662" lon="11.056706532883881"><ele>77.75</ele><time>2026-04-05T13:27:57.999Z</time></trkpt><trkpt lat="43.794933836024" lon="11.05653631965956"><ele>78.0</ele><time>2026-04-05T13:27:58.999Z</time></trkpt><trkpt lat="43.79494962533375" lon="11.05638705437722"><ele>78.4</ele><time>2026-04-05T13:27:59.999Z</time></trkpt><trkpt lat="43.79495641019202" lon="11.056247152929522"><ele>78.8</ele><time>2026-04-05T13:28:00.999Z</time></trkpt><trkpt lat="43.79496610359259" lon="11.056127089767418"><ele>79.2</ele><time>2026-04-05T13:28:01.999Z</time></trkpt><trkpt lat="43.79497931889008" lon="11.056000691519786"><ele>79.6</ele><time>2026-04-05T13:28:02.999Z</time></trkpt><trkpt lat="43.79499586832964" lon="11.05587346468318"><ele>80.0</ele><time>2026-04-05T13:28:03.999Z</time></trkpt><trkpt lat="43.79502204736935" lon="11.055713952424123"><ele>80.25</ele><time>2026-04-05T13:28:04.999Z</time></trkpt><trkpt lat="43.79508113818969" lon="11.055562627756947"><ele>80.5</ele><time>2026-04-05T13:28:05.998Z</time></trkpt><trkpt lat="43.79514870345598" lon="11.055418899295965"><ele>80.75</ele><time>2026-04-05T13:28:06.998Z</time></trkpt><trkpt lat="43.795230288791934" lon="11.055278468319704"><ele>81.0</ele><time>2026-04-05T13:28:07.998Z</time></trkpt><trkpt lat="43.795303524353585" lon="11.05513430605639"><ele>82.25</ele><time>2026-04-05T13:28:08.998Z</time></trkpt><trkpt lat="43.79536903414942" lon="11.05497330399892"><ele>83.5</ele><time>2026-04-05T13:28:09.998Z</time></trkpt><trkpt lat="43.79542705997995" lon="11.054808485263512"><ele>84.75</ele><time>2026-04-05T13:28:10.998Z</time></trkpt><trkpt lat="43.79547201264784" lon="11.054632275796854"><ele>86.0</ele><time>2026-04-05T13:28:11.998Z</time></trkpt><trkpt lat="43.79549972111782" lon="11.054446036436936"><ele>86.5</ele><time>2026-04-05T13:28:12.998Z</time></trkpt><trkpt lat="43.795504976674664" lon="11.05424429572177"><ele>87.0</ele><time>2026-04-05T13:28:13.998Z</time></trkpt><trkpt lat="43.79549647007915" lon="11.05404965117676"><ele>87.5</ele><time>2026-04-05T13:28:14.998Z</time></trkpt><trkpt lat="43.79550151052885" lon="11.05385580062862"><ele>88.0</ele><time>2026-04-05T13:28:15.998Z</time></trkpt><trkpt lat="43.795565638381206" lon="11.053671558240493"><ele>88.66666666666666</ele><time>2026-04-05T13:28:16.998Z</time></trkpt><trkpt lat="43.79563584101936" lon="11.053484684061322"><ele>89.33333333333333</ele><time>2026-04-05T13:28:17.998Z</time></trkpt><trkpt lat="43.795702540484065" lon="11.05329325296616"><ele>90.0</ele><time>2026-04-05T13:28:18.998Z</time></trkpt><trkpt lat="43.7957530396883" lon="11.053089254051235"><ele>91.66666666666667</ele><time>2026-04-05T13:28:19.998Z</time></trkpt><trkpt lat="43.795806654987665" lon="11.052888829731396"><ele>93.33333333333334</ele><time>2026-04-05T13:28:20.998Z</time></trkpt><trkpt lat="43.79585237491108" lon="11.052682484822007"><ele>95.0</ele><time>2026-04-05T13:28:21.998Z</time></trkpt><trkpt lat="43.79590172226289" lon="11.052483377631999"><ele>96.0</ele><time>2026-04-05T13:28:22.998Z</time></trkpt><trkpt lat="43.795942115398645" lon="11.052289979720525"><ele>97.0</ele><time>2026-04-05T13:28:23.998Z</time></trkpt><trkpt lat="43.79596251593553" lon="11.052096133153363"><ele>98.0</ele><time>2026-04-05T13:28:24.998Z</time></trkpt><trkpt lat="43.79597428031033" lon="11.051904973177432"><ele>99.0</ele><time>2026-04-05T13:28:25.998Z</time></trkpt><trkpt lat="43.79596900133279" lon="11.051711577954793"><ele>99.5</ele><time>2026-04-05T13:28:26.998Z</time></trkpt><trkpt lat="43.79599501260756" lon="11.051519664419931"><ele>100.0</ele><time>2026-04-05T13:28:27.998Z</time></trkpt><trkpt lat="43.79601743176148" lon="11.051343303192548"><ele>100.5</ele><time>2026-04-05T13:28:28.998Z</time></trkpt><trkpt lat="43.796038953303224" lon="11.051174003084753"><ele>101.0</ele><time>2026-04-05T13:28:30Z</time></trkpt><trkpt lat="43.796038976425024" lon="11.05099583544514"><ele>101.0</ele><time>2026-04-05T13:28:31Z</time></trkpt><trkpt lat="43.79605386161099" lon="11.050816898348161"><ele>101.0</ele><time>2026-04-05T13:28:32Z</time></trkpt><trkpt lat="43.79607167674072" lon="11.050642074189245"><ele>101.0</ele><time>2026-04-05T13:28:33Z</time></trkpt><trkpt lat="43.79608889422179" lon="11.050489956486729"><ele>101.0</ele><time>2026-04-05T13:28:34Z</time></trkpt><trkpt lat="43.796108525278406" lon="11.050354866405973"><ele>101.8</ele><time>2026-04-05T13:28:35Z</time></trkpt><trkpt lat="43.79612717067485" lon="11.0502411159425"><ele>102.6</ele><time>2026-04-05T13:28:36Z</time></trkpt><trkpt lat="43.796156425535976" lon="11.050100204441806"><ele>103.4</ele><time>2026-04-05T13:28:37Z</time></trkpt><trkpt lat="43.796182057842984" lon="11.049953141901572"><ele>104.2</ele><time>2026-04-05T13:28:38Z</time></trkpt><trkpt lat="43.79620739216848" lon="11.049805417538456"><ele>105.0</ele><time>2026-04-05T13:28:39Z</time></trkpt><trkpt lat="43.79623751852122" lon="11.049630531381332"><ele>105.0</ele><time>2026-04-05T13:28:40Z</time></trkpt><trkpt lat="43.796260254354934" lon="11.049459472595178"><ele>105.0</ele><time>2026-04-05T13:28:41Z</time></trkpt><trkpt lat="43.79628093113449" lon="11.049271047210528"><ele>105.0</ele><time>2026-04-05T13:28:42Z</time></trkpt><trkpt lat="43.79628621048134" lon="11.049082352676265"><ele>105.0</ele><time>2026-04-05T13:28:43Z</time></trkpt><trkpt lat="43.796259061179626" lon="11.04889457378874"><ele>105.0</ele><time>2026-04-05T13:28:44Z</time></trkpt><trkpt lat="43.79621056459192" lon="11.048704444749466"><ele>105.0</ele><time>2026-04-05T13:28:45Z</time></trkpt><trkpt lat="43.79615174113442" lon="11.048505447305223"><ele>105.0</ele><time>2026-04-05T13:28:46Z</time></trkpt><trkpt lat="43.79609937908982" lon="11.04829968495617"><ele>104.0</ele><time>2026-04-05T13:28:47Z</time></trkpt><trkpt lat="43.796056286736736" lon="11.04809424586744"><ele>103.0</ele><time>2026-04-05T13:28:48Z</time></trkpt><trkpt lat="43.796016603743816" lon="11.047876440061039"><ele>102.0</ele><time>2026-04-05T13:28:49Z</time></trkpt><trkpt lat="43.795979051798454" lon="11.047652800823826"><ele>105.66666666666666</ele><time>2026-04-05T13:28:50Z</time></trkpt><trkpt lat="43.795942725632806" lon="11.047424808908913"><ele>109.33333333333333</ele><time>2026-04-05T13:28:51Z</time></trkpt><trkpt lat="43.79591239231706" lon="11.047204930590846"><ele>113.0</ele><time>2026-04-05T13:28:52Z</time></trkpt><trkpt lat="43.79588740981727" lon="11.046977316949615"><ele>113.0</ele><time>2026-04-05T13:28:53Z</time></trkpt><trkpt lat="43.795875673301126" lon="11.046751718527432"><ele>113.0</ele><time>2026-04-05T13:28:54Z</time></trkpt><trkpt lat="43.7958818977011" lon="11.04653300410379"><ele>113.0</ele><time>2026-04-05T13:28:55Z</time></trkpt><trkpt lat="43.79591785428665" lon="11.046328492666829"><ele>113.0</ele><time>2026-04-05T13:28:56Z</time></trkpt><trkpt lat="43.795989409319915" lon="11.046127800790789"><ele>113.0</ele><time>2026-04-05T13:28:57Z</time></trkpt><trkpt lat="43.796081980890825" lon="11.04593523677312"><ele>113.0</ele><time>2026-04-05T13:28:58Z</time></trkpt><trkpt lat="43.79617980847463" lon="11.045742300413435"><ele>113.0</ele><time>2026-04-05T13:28:59Z</time></trkpt><trkpt lat="43.796279654984076" lon="11.045547788392508"><ele>113.0</ele><time>2026-04-05T13:29:00Z</time></trkpt><trkpt lat="43.79638868518289" lon="11.045369945915313"><ele>113.0</ele><time>2026-04-05T13:29:01Z</time></trkpt><trkpt lat="43.79651011079265" lon="11.045203810231724"><ele>113.0</ele><time>2026-04-05T13:29:02Z</time></trkpt><trkpt lat="43.7966343292942" lon="11.045056690823822"><ele>113.0</ele><time>2026-04-05T13:29:03Z</time></trkpt><trkpt lat="43.79674344922737" lon="11.044889369229233"><ele>113.0</ele><time>2026-04-05T13:29:04Z</time></trkpt><trkpt lat="43.79682891333156" lon="11.044692337134041"><ele>115.33333333333333</ele><time>2026-04-05T13:29:05Z</time></trkpt><trkpt lat="43.79687933442677" lon="11.04448719524479"><ele>117.66666666666666</ele><time>2026-04-05T13:29:06Z</time></trkpt><trkpt lat="43.796915813061865" lon="11.04426465661838"><ele>120.0</ele><time>2026-04-05T13:29:07Z</time></trkpt><trkpt lat="43.796926933546835" lon="11.044041258552854"><ele>121.66666666666666</ele><time>2026-04-05T13:29:08Z</time></trkpt><trkpt lat="43.796908890877646" lon="11.043814324512155"><ele>123.33333333333333</ele><time>2026-04-05T13:29:09Z</time></trkpt><trkpt lat="43.7968770480095" lon="11.04359776619201"><ele>125.0</ele><time>2026-04-05T13:29:10Z</time></trkpt><trkpt lat="43.79684373747293" lon="11.043408631887262"><ele>126.25</ele><time>2026-04-05T13:29:11Z</time></trkpt><trkpt lat="43.79681263365015" lon="11.043237876523357"><ele>127.5</ele><time>2026-04-05T13:29:12Z</time></trkpt><trkpt lat="43.796819329169" lon="11.043091471484399"><ele>128.75</ele><time>2026-04-05T13:29:12.999Z</time></trkpt><trkpt lat="43.79686026147472" lon="11.042920669280312"><ele>130.0</ele><time>2026-04-05T13:29:13.999Z</time></trkpt><trkpt lat="43.79692853112184" lon="11.042759605728483"><ele>130.0</ele><time>2026-04-05T13:29:14.999Z</time></trkpt><trkpt lat="43.79701120969745" lon="11.042623916555279"><ele>130.0</ele><time>2026-04-05T13:29:15.999Z</time></trkpt><trkpt lat="43.7971059072298" lon="11.042522432589223"><ele>130.0</ele><time>2026-04-05T13:29:16.999Z</time></trkpt><trkpt lat="43.79718956003785" lon="11.042429707436181"><ele>130.0</ele><time>2026-04-05T13:29:17.999Z</time></trkpt><trkpt lat="43.79724303585746" lon="11.042271053535012"><ele>129.25</ele><time>2026-04-05T13:29:18.999Z</time></trkpt><trkpt lat="43.7972600065074" lon="11.042083785207108"><ele>128.5</ele><time>2026-04-05T13:29:19.999Z</time></trkpt><trkpt lat="43.797255352405834" lon="11.041884959625543"><ele>127.75</ele><time>2026-04-05T13:29:20.999Z</time></trkpt><trkpt lat="43.79722745672565" lon="11.041690131849363"><ele>127.0</ele><time>2026-04-05T13:29:21.999Z</time></trkpt><trkpt lat="43.79718697370939" lon="11.041510362742839"><ele>126.5</ele><time>2026-04-05T13:29:22.999Z</time></trkpt><trkpt lat="43.797143267786474" lon="11.04134262236086"><ele>126.0</ele><time>2026-04-05T13:29:23.999Z</time></trkpt><trkpt lat="43.797109891098195" lon="11.041170612449855"><ele>125.5</ele><time>2026-04-05T13:29:24.999Z</time></trkpt><trkpt lat="43.79711469032046" lon="11.040983553727965"><ele>125.0</ele><time>2026-04-05T13:29:25.999Z</time></trkpt><trkpt lat="43.797165057784866" lon="11.040794720270522"><ele>123.75</ele><time>2026-04-05T13:29:26.999Z</time></trkpt><trkpt lat="43.79724588131807" lon="11.040624409915013"><ele>122.5</ele><time>2026-04-05T13:29:27.999Z</time></trkpt><trkpt lat="43.7973499738582" lon="11.040487813691096"><ele>121.25</ele><time>2026-04-05T13:29:28.999Z</time></trkpt><trkpt lat="43.79746482452658" lon="11.040366194129744"><ele>120.0</ele><time>2026-04-05T13:29:29.999Z</time></trkpt><trkpt lat="43.797581811026085" lon="11.04026524176993"><ele>124.25</ele><time>2026-04-05T13:29:30.999Z</time></trkpt><trkpt lat="43.79768882862101" lon="11.040175945083314"><ele>128.5</ele><time>2026-04-05T13:29:31.999Z</time></trkpt><trkpt lat="43.79777928934106" lon="11.04007011512888"><ele>132.75</ele><time>2026-04-05T13:29:32.999Z</time></trkpt><trkpt lat="43.79783806791857" lon="11.039912558544861"><ele>137.0</ele><time>2026-04-05T13:29:33.999Z</time></trkpt><trkpt lat="43.79784974584522" lon="11.039729016475249"><ele>137.0</ele><time>2026-04-05T13:29:34.999Z</time></trkpt><trkpt lat="43.79782346591683" lon="11.039538601725573"><ele>137.0</ele><time>2026-04-05T13:29:35.999Z</time></trkpt><trkpt lat="43.79775904648811" lon="11.039362914271184"><ele>137.0</ele><time>2026-04-05T13:29:36.999Z</time></trkpt><trkpt lat="43.79767692569887" lon="11.039196822895457"><ele>137.0</ele><time>2026-04-05T13:29:37.999Z</time></trkpt><trkpt lat="43.79759593644717" lon="11.039023518288326"><ele>133.0</ele><time>2026-04-05T13:29:38.999Z</time></trkpt><trkpt lat="43.79754571935251" lon="11.038823092296001"><ele>129.0</ele><time>2026-04-05T13:29:39.999Z</time></trkpt><trkpt lat="43.79752659086039" lon="11.03860539610532"><ele>125.0</ele><time>2026-04-05T13:29:40.999Z</time></trkpt><trkpt lat="43.79752181460616" lon="11.038386594554282"><ele>124.66666666666666</ele><time>2026-04-05T13:29:41.999Z</time></trkpt><trkpt lat="43.797532518864266" lon="11.038163131206678"><ele>124.33333333333334</ele><time>2026-04-05T13:29:42.999Z</time></trkpt><trkpt lat="43.79753945243006" lon="11.037940876524972"><ele>124.0</ele><time>2026-04-05T13:29:43.999Z</time></trkpt><trkpt lat="43.79754203862274" lon="11.037713411799256"><ele>124.0</ele><time>2026-04-05T13:29:44.999Z</time></trkpt><trkpt lat="43.797532929938015" lon="11.037483654397864"><ele>124.0</ele><time>2026-04-05T13:29:45.999Z</time></trkpt><trkpt lat="43.79751949655174" lon="11.037261686625826"><ele>124.0</ele><time>2026-04-05T13:29:46.999Z</time></trkpt><trkpt lat="43.797519175700785" lon="11.037053801680905"><ele>125.33333333333334</ele><time>2026-04-05T13:29:47.999Z</time></trkpt><trkpt lat="43.7975528051834" lon="11.036850599419077"><ele>126.66666666666666</ele><time>2026-04-05T13:29:48.999Z</time></trkpt><trkpt lat="43.79761017748981" lon="11.036640487885192"><ele>128.0</ele><time>2026-04-05T13:29:49.999Z</time></trkpt><trkpt lat="43.797690062780426" lon="11.036438924666538"><ele>123.66666666666666</ele><time>2026-04-05T13:29:50.999Z</time></trkpt><trkpt lat="43.797765953009474" lon="11.036226337500405"><ele>119.33333333333334</ele><time>2026-04-05T13:29:51.999Z</time></trkpt><trkpt lat="43.79781211781215" lon="11.035992150194716"><ele>115.0</ele><time>2026-04-05T13:29:52.999Z</time></trkpt><trkpt lat="43.79783658038236" lon="11.035760143479516"><ele>114.0</ele><time>2026-04-05T13:29:53.999Z</time></trkpt><trkpt lat="43.797841658632265" lon="11.035535510766053"><ele>113.0</ele><time>2026-04-05T13:29:54.999Z</time></trkpt><trkpt lat="43.79783131400312" lon="11.035320691476295"><ele>112.0</ele><time>2026-04-05T13:29:55.999Z</time></trkpt><trkpt lat="43.797784720697464" lon="11.035107465666034"><ele>111.0</ele><time>2026-04-05T13:29:56.999Z</time></trkpt><trkpt lat="43.7977221451272" lon="11.03490747180921"><ele>110.0</ele><time>2026-04-05T13:29:57.999Z</time></trkpt><trkpt lat="43.79764151533299" lon="11.034719926090911"><ele>109.0</ele><time>2026-04-05T13:29:58.999Z</time></trkpt><trkpt lat="43.797560522065154" lon="11.034549145285819"><ele>111.75</ele><time>2026-04-05T13:29:59.999Z</time></trkpt><trkpt lat="43.79748173749299" lon="11.034390758999617"><ele>114.5</ele><time>2026-04-05T13:30:00.999Z</time></trkpt><trkpt lat="43.79740823112349" lon="11.034238093479095"><ele>117.25</ele><time>2026-04-05T13:30:01.999Z</time></trkpt><trkpt lat="43.797348922259275" lon="11.0340927124875"><ele>120.0</ele><time>2026-04-05T13:30:02.999Z</time></trkpt><trkpt lat="43.797302246066025" lon="11.033949955169668"><ele>120.0</ele><time>2026-04-05T13:30:03.999Z</time></trkpt><trkpt lat="43.79727763676355" lon="11.03379448062084"><ele>120.0</ele><time>2026-04-05T13:30:04.999Z</time></trkpt><trkpt lat="43.79730348442929" lon="11.033640972566195"><ele>120.0</ele><time>2026-04-05T13:30:05.999Z</time></trkpt><trkpt lat="43.79736833586948" lon="11.033501030858272"><ele>120.0</ele><time>2026-04-05T13:30:06.999Z</time></trkpt><trkpt lat="43.797454045002375" lon="11.03336201945948"><ele>119.5</ele><time>2026-04-05T13:30:07.999Z</time></trkpt><trkpt lat="43.797539724464805" lon="11.033207145660048"><ele>119.0</ele><time>2026-04-05T13:30:08.999Z</time></trkpt><trkpt lat="43.79762834777978" lon="11.033041723505333"><ele>118.5</ele><time>2026-04-05T13:30:09.999Z</time></trkpt><trkpt lat="43.797720303137986" lon="11.032864242853375"><ele>118.0</ele><time>2026-04-05T13:30:10.999Z</time></trkpt><trkpt lat="43.79782274011652" lon="11.03268667608686"><ele>118.0</ele><time>2026-04-05T13:30:11.999Z</time></trkpt><trkpt lat="43.797936014725614" lon="11.032520762140539"><ele>118.0</ele><time>2026-04-05T13:30:12.999Z</time></trkpt><trkpt lat="43.79805528473621" lon="11.032355733849613"><ele>118.0</ele><time>2026-04-05T13:30:13.998Z</time></trkpt><trkpt lat="43.798177504040744" lon="11.032180818573876"><ele>120.66666666666667</ele><time>2026-04-05T13:30:14.998Z</time></trkpt><trkpt lat="43.79830309000689" lon="11.03201080824291"><ele>123.33333333333334</ele><time>2026-04-05T13:30:15.998Z</time></trkpt><trkpt lat="43.79843567151411" lon="11.031851575813258"><ele>126.0</ele><time>2026-04-05T13:30:16.998Z</time></trkpt><trkpt lat="43.79857952970517" lon="11.031719242237342"><ele>129.0</ele><time>2026-04-05T13:30:17.998Z</time></trkpt><trkpt lat="43.798742691885515" lon="11.031625973333623"><ele>132.0</ele><time>2026-04-05T13:30:18.998Z</time></trkpt><trkpt lat="43.79891302706958" lon="11.031569691100197"><ele>135.0</ele><time>2026-04-05T13:30:19.998Z</time></trkpt><trkpt lat="43.799091750455915" lon="11.031546438968325"><ele>135.0</ele><time>2026-04-05T13:30:20.998Z</time></trkpt><trkpt lat="43.79927009506078" lon="11.031542704090297"><ele>135.0</ele><time>2026-04-05T13:30:21.998Z</time></trkpt><trkpt lat="43.799446766760205" lon="11.031524911111667"><ele>135.0</ele><time>2026-04-05T13:30:22.998Z</time></trkpt><trkpt lat="43.7996194681832" lon="11.031492532601156"><ele>132.66666666666666</ele><time>2026-04-05T13:30:23.998Z</time></trkpt><trkpt lat="43.799783767612425" lon="11.03145238224312"><ele>130.33333333333331</ele><time>2026-04-05T13:30:24.998Z</time></trkpt><trkpt lat="43.79994939367214" lon="11.031432402549745"><ele>128.0</ele><time>2026-04-05T13:30:25.998Z</time></trkpt><trkpt lat="43.80011468618179" lon="11.03144640144723"><ele>126.66666666666666</ele><time>2026-04-05T13:30:26.998Z</time></trkpt><trkpt lat="43.80027977661185" lon="11.031483261014257"><ele>125.33333333333334</ele><time>2026-04-05T13:30:27.998Z</time></trkpt><trkpt lat="43.80043783355662" lon="11.031531927072926"><ele>124.0</ele><time>2026-04-05T13:30:28.998Z</time></trkpt><trkpt lat="43.80059286633327" lon="11.031597247308342"><ele>125.66666666666667</ele><time>2026-04-05T13:30:29.998Z</time></trkpt><trkpt lat="43.80073946096858" lon="11.03168567841073"><ele>127.33333333333334</ele><time>2026-04-05T13:30:30.998Z</time></trkpt><trkpt lat="43.80088739525521" lon="11.031782204936023"><ele>129.0</ele><time>2026-04-05T13:30:31.998Z</time></trkpt><trkpt lat="43.801029072195526" lon="11.031868320998978"><ele>129.0</ele><time>2026-04-05T13:30:32.998Z</time></trkpt><trkpt lat="43.80116719662752" lon="11.031941930843209"><ele>129.0</ele><time>2026-04-05T13:30:33.998Z</time></trkpt><trkpt lat="43.80130358507105" lon="11.032024318706165"><ele>129.0</ele><time>2026-04-05T13:30:34.998Z</time></trkpt><trkpt lat="43.8014541008418" lon="11.032040422256635"><ele>129.0</ele><time>2026-04-05T13:30:36Z</time></trkpt><trkpt lat="43.80159380866698" lon="11.032060472056733"><ele>129.0</ele><time>2026-04-05T13:30:37Z</time></trkpt><trkpt lat="43.80172474493527" lon="11.032105512401124"><ele>129.0</ele><time>2026-04-05T13:30:38Z</time></trkpt><trkpt lat="43.80184877437702" lon="11.032123877319725"><ele>129.0</ele><time>2026-04-05T13:30:39Z</time></trkpt><trkpt lat="43.801981713161126" lon="11.032124904989669"><ele>129.0</ele><time>2026-04-05T13:30:40Z</time></trkpt><trkpt lat="43.802107075432794" lon="11.032066967191275"><ele>129.25</ele><time>2026-04-05T13:30:41Z</time></trkpt><trkpt lat="43.802233170454315" lon="11.032014855559416"><ele>129.5</ele><time>2026-04-05T13:30:42Z</time></trkpt><trkpt lat="43.80236155230213" lon="11.031966529727905"><ele>129.75</ele><time>2026-04-05T13:30:43Z</time></trkpt><trkpt lat="43.802492874521384" lon="11.031926511539526"><ele>130.0</ele><time>2026-04-05T13:30:44Z</time></trkpt><trkpt lat="43.80261862303697" lon="11.031890613009782"><ele>130.5</ele><time>2026-04-05T13:30:45Z</time></trkpt><trkpt lat="43.80273598424608" lon="11.031865231872684"><ele>131.0</ele><time>2026-04-05T13:30:46Z</time></trkpt><trkpt lat="43.80286193283443" lon="11.031844361738894"><ele>131.5</ele><time>2026-04-05T13:30:47Z</time></trkpt><trkpt lat="43.802978700507666" lon="11.031822501166278"><ele>132.0</ele><time>2026-04-05T13:30:48Z</time></trkpt><trkpt lat="43.80308884701392" lon="11.031784706812143"><ele>132.0</ele><time>2026-04-05T13:30:49Z</time></trkpt><trkpt lat="43.80321006419451" lon="11.031728533624934"><ele>132.0</ele><time>2026-04-05T13:30:50Z</time></trkpt><trkpt lat="43.80333486507818" lon="11.03165963342077"><ele>132.0</ele><time>2026-04-05T13:30:51Z</time></trkpt><trkpt lat="43.80346394648568" lon="11.031585235891866"><ele>132.0</ele><time>2026-04-05T13:30:52Z</time></trkpt><trkpt lat="43.80358552825078" lon="11.031499222594796"><ele>132.25</ele><time>2026-04-05T13:30:53Z</time></trkpt><trkpt lat="43.80370700907143" lon="11.0314116937703"><ele>132.5</ele><time>2026-04-05T13:30:54Z</time></trkpt><trkpt lat="43.80382600058929" lon="11.0313287422996"><ele>132.75</ele><time>2026-04-05T13:30:55Z</time></trkpt><trkpt lat="43.803937481729506" lon="11.031248934297178"><ele>133.0</ele><time>2026-04-05T13:30:56Z</time></trkpt><trkpt lat="43.804036389914515" lon="11.031166052039234"><ele>133.0</ele><time>2026-04-05T13:30:57Z</time></trkpt><trkpt lat="43.804134716255724" lon="11.031084252039426"><ele>133.0</ele><time>2026-04-05T13:30:58Z</time></trkpt><trkpt lat="43.80423057246266" lon="11.03100604313367"><ele>133.0</ele><time>2026-04-05T13:30:59Z</time></trkpt><trkpt lat="43.80432015446087" lon="11.03091195642031"><ele>133.0</ele><time>2026-04-05T13:31:00Z</time></trkpt><trkpt lat="43.80439674502973" lon="11.030809426929725"><ele>133.0</ele><time>2026-04-05T13:31:01Z</time></trkpt><trkpt lat="43.804453727449115" lon="11.030714373659189"><ele>132.5</ele><time>2026-04-05T13:31:02Z</time></trkpt><trkpt lat="43.80450409803464" lon="11.030638631515302"><ele>132.0</ele><time>2026-04-05T13:31:03Z</time></trkpt><trkpt lat="43.804565960964155" lon="11.030601505781023"><ele>131.5</ele><time>2026-04-05T13:31:04Z</time></trkpt><trkpt lat="43.80463036570058" lon="11.030591388690398"><ele>131.0</ele><time>2026-04-05T13:31:05Z</time></trkpt><trkpt lat="43.80470798085397" lon="11.030625810770314"><ele>130.5</ele><time>2026-04-05T13:31:06Z</time></trkpt><trkpt lat="43.80474908121449" lon="11.030457755079716"><ele>130.0</ele><time>2026-04-05T13:31:08Z</time></trkpt><trkpt lat="43.804732224046674" lon="11.030337527873677"><ele>130.0</ele><time>2026-04-05T13:31:09Z</time></trkpt><trkpt lat="43.80472246667116" lon="11.030204640860376"><ele>130.0</ele><time>2026-04-05T13:31:10Z</time></trkpt><trkpt lat="43.80474242202411" lon="11.030056740224971"><ele>130.0</ele><time>2026-04-05T13:31:11Z</time></trkpt><trkpt lat="43.804767360275314" lon="11.029910515643136"><ele>130.0</ele><time>2026-04-05T13:31:12Z</time></trkpt><trkpt lat="43.80480037219469" lon="11.029772249353888"><ele>130.0</ele><time>2026-04-05T13:31:13Z</time></trkpt><trkpt lat="43.80484230013966" lon="11.029644584717417"><ele>131.4</ele><time>2026-04-05T13:31:14Z</time></trkpt><trkpt lat="43.80488313794712" lon="11.029514048696857"><ele>132.8</ele><time>2026-04-05T13:31:15Z</time></trkpt><trkpt lat="43.80492741087624" lon="11.02938494660808"><ele>134.2</ele><time>2026-04-05T13:31:16Z</time></trkpt><trkpt lat="43.804976174358806" lon="11.029257301922707"><ele>135.6</ele><time>2026-04-05T13:31:17Z</time></trkpt><trkpt lat="43.80502832501771" lon="11.029137461545512"><ele>137.0</ele><time>2026-04-05T13:31:18Z</time></trkpt><trkpt lat="43.80508558675395" lon="11.029024487205263"><ele>137.4</ele><time>2026-04-05T13:31:19Z</time></trkpt><trkpt lat="43.805146052661684" lon="11.02891284215953"><ele>137.79999999999998</ele><time>2026-04-05T13:31:20Z</time></trkpt><trkpt lat="43.80520300229038" lon="11.028793159647982"><ele>138.2</ele><time>2026-04-05T13:31:21Z</time></trkpt><trkpt lat="43.80525645887856" lon="11.028669741243762"><ele>138.6</ele><time>2026-04-05T13:31:21.999Z</time></trkpt><trkpt lat="43.80531688982781" lon="11.028548956388162"><ele>139.0</ele><time>2026-04-05T13:31:22.999Z</time></trkpt><trkpt lat="43.805374944231474" lon="11.028420161082394"><ele>138.4</ele><time>2026-04-05T13:31:23.999Z</time></trkpt><trkpt lat="43.8054466794241" lon="11.028296470827664"><ele>137.8</ele><time>2026-04-05T13:31:24.999Z</time></trkpt><trkpt lat="43.80550546003492" lon="11.028170203160284"><ele>137.2</ele><time>2026-04-05T13:31:25.999Z</time></trkpt><trkpt lat="43.805568675467825" lon="11.028046811400985"><ele>136.6</ele><time>2026-04-05T13:31:26.999Z</time></trkpt><trkpt lat="43.8056358374123" lon="11.027920874255598"><ele>136.0</ele><time>2026-04-05T13:31:27.999Z</time></trkpt><trkpt lat="43.80570408736861" lon="11.027789193178542"><ele>136.0</ele><time>2026-04-05T13:31:28.999Z</time></trkpt><trkpt lat="43.805772662814775" lon="11.027655643387815"><ele>136.0</ele><time>2026-04-05T13:31:29.999Z</time></trkpt><trkpt lat="43.8058621911304" lon="11.02752960828825"><ele>136.0</ele><time>2026-04-05T13:31:30.999Z</time></trkpt><trkpt lat="43.80597065715532" lon="11.027399552365685"><ele>136.0</ele><time>2026-04-05T13:31:31.999Z</time></trkpt><trkpt lat="43.806081091222936" lon="11.027261826115598"><ele>134.66666666666669</ele><time>2026-04-05T13:31:32.999Z</time></trkpt><trkpt lat="43.80619525281799" lon="11.027115134807959"><ele>133.33333333333334</ele><time>2026-04-05T13:31:33.999Z</time></trkpt><trkpt lat="43.80631481161338" lon="11.02696843494297"><ele>132.0</ele><time>2026-04-05T13:31:34.999Z</time></trkpt><trkpt lat="43.806431820709875" lon="11.026814829912873"><ele>132.0</ele><time>2026-04-05T13:31:35.999Z</time></trkpt><trkpt lat="43.80655168360011" lon="11.026655036091944"><ele>132.0</ele><time>2026-04-05T13:31:36.999Z</time></trkpt><trkpt lat="43.806677147428694" lon="11.026497077440878"><ele>132.0</ele><time>2026-04-05T13:31:37.999Z</time></trkpt><trkpt lat="43.80680580518083" lon="11.026340890841125"><ele>132.33333333333334</ele><time>2026-04-05T13:31:38.999Z</time></trkpt><trkpt lat="43.80693592864725" lon="11.026179884150306"><ele>132.66666666666669</ele><time>2026-04-05T13:31:39.999Z</time></trkpt><trkpt lat="43.807071066482926" lon="11.026020204305023"><ele>133.0</ele><time>2026-04-05T13:31:40.999Z</time></trkpt><trkpt lat="43.807199178984526" lon="11.025860795272237"><ele>134.33333333333334</ele><time>2026-04-05T13:31:41.999Z</time></trkpt><trkpt lat="43.80731860557795" lon="11.025692197451724"><ele>135.66666666666666</ele><time>2026-04-05T13:31:42.999Z</time></trkpt><trkpt lat="43.80741852293872" lon="11.025505041606065"><ele>137.0</ele><time>2026-04-05T13:31:43.999Z</time></trkpt><trkpt lat="43.8075011269117" lon="11.025300346929372"><ele>137.0</ele><time>2026-04-05T13:31:44.999Z</time></trkpt><trkpt lat="43.80756545805885" lon="11.025084812562103"><ele>137.0</ele><time>2026-04-05T13:31:45.999Z</time></trkpt><trkpt lat="43.80761329484509" lon="11.02487113058304"><ele>137.0</ele><time>2026-04-05T13:31:46.999Z</time></trkpt><trkpt lat="43.807661521437645" lon="11.024667171029117"><ele>136.5</ele><time>2026-04-05T13:31:47.999Z</time></trkpt><trkpt lat="43.80771953456323" lon="11.02447216361777"><ele>136.0</ele><time>2026-04-05T13:31:48.999Z</time></trkpt><trkpt lat="43.80780009399684" lon="11.024296221922972"><ele>135.5</ele><time>2026-04-05T13:31:49.999Z</time></trkpt><trkpt lat="43.80790212688239" lon="11.024150326021413"><ele>135.0</ele><time>2026-04-05T13:31:50.999Z</time></trkpt><trkpt lat="43.80802163939462" lon="11.024036594270898"><ele>135.0</ele><time>2026-04-05T13:31:51.999Z</time></trkpt><trkpt lat="43.80815151149353" lon="11.02396398602394"><ele>135.0</ele><time>2026-04-05T13:31:52.999Z</time></trkpt><trkpt lat="43.808291807336225" lon="11.023921645891086"><ele>135.0</ele><time>2026-04-05T13:31:53.999Z</time></trkpt><trkpt lat="43.808433259584376" lon="11.023855409730926"><ele>135.0</ele><time>2026-04-05T13:31:54.999Z</time></trkpt><trkpt lat="43.808570972332014" lon="11.023753938386045"><ele>139.0</ele><time>2026-04-05T13:31:55.999Z</time></trkpt><trkpt lat="43.808702461517775" lon="11.023641834500692"><ele>143.0</ele><time>2026-04-05T13:31:56.999Z</time></trkpt><trkpt lat="43.80884054018497" lon="11.02353038716082"><ele>147.0</ele><time>2026-04-05T13:31:57.999Z</time></trkpt><trkpt lat="43.8089771833968" lon="11.02340942386803"><ele>144.33333333333334</ele><time>2026-04-05T13:31:58.999Z</time></trkpt><trkpt lat="43.80909990323055" lon="11.023264286663556"><ele>141.66666666666669</ele><time>2026-04-05T13:31:59.999Z</time></trkpt><trkpt lat="43.80920088074897" lon="11.0230830200745"><ele>139.0</ele><time>2026-04-05T13:32:00.999Z</time></trkpt><trkpt lat="43.809289662497186" lon="11.022897985090513"><ele>143.66666666666669</ele><time>2026-04-05T13:32:01.999Z</time></trkpt><trkpt lat="43.80938064109381" lon="11.022707521070442"><ele>148.33333333333334</ele><time>2026-04-05T13:32:02.999Z</time></trkpt><trkpt lat="43.80947875170434" lon="11.022518575470952"><ele>153.0</ele><time>2026-04-05T13:32:03.999Z</time></trkpt><trkpt lat="43.80958788143397" lon="11.022342557763789"><ele>153.0</ele><time>2026-04-05T13:32:04.999Z</time></trkpt><trkpt lat="43.809700527756355" lon="11.022173597890296"><ele>153.0</ele><time>2026-04-05T13:32:05.999Z</time></trkpt><trkpt lat="43.80980777822957" lon="11.02200876727898"><ele>153.0</ele><time>2026-04-05T13:32:06.999Z</time></trkpt><trkpt lat="43.80990294400197" lon="11.021839864344605"><ele>153.0</ele><time>2026-04-05T13:32:07.999Z</time></trkpt><trkpt lat="43.8099844896255" lon="11.02166531092192"><ele>153.0</ele><time>2026-04-05T13:32:08.999Z</time></trkpt><trkpt lat="43.81005732717576" lon="11.021500702123594"><ele>153.0</ele><time>2026-04-05T13:32:09.999Z</time></trkpt><trkpt lat="43.81012336926062" lon="11.021352115744415"><ele>153.0</ele><time>2026-04-05T13:32:10.999Z</time></trkpt><trkpt lat="43.81019561165659" lon="11.021237629104538"><ele>150.75</ele><time>2026-04-05T13:32:11.999Z</time></trkpt><trkpt lat="43.81029266738006" lon="11.021160875510251"><ele>148.5</ele><time>2026-04-05T13:32:12.999Z</time></trkpt><trkpt lat="43.81040638396009" lon="11.021124608584097"><ele>146.25</ele><time>2026-04-05T13:32:13.999Z</time></trkpt><trkpt lat="43.8105200805721" lon="11.021117116418417"><ele>144.0</ele><time>2026-04-05T13:32:14.999Z</time></trkpt><trkpt lat="43.81062819481366" lon="11.0211432513563"><ele>144.0</ele><time>2026-04-05T13:32:15.999Z</time></trkpt><trkpt lat="43.81071457099781" lon="11.02121499794872"><ele>144.0</ele><time>2026-04-05T13:32:16.999Z</time></trkpt><trkpt lat="43.81079432614641" lon="11.021332688796603"><ele>144.0</ele><time>2026-04-05T13:32:17.999Z</time></trkpt><trkpt lat="43.8108690564669" lon="11.021458391679637"><ele>144.0</ele><time>2026-04-05T13:32:18.999Z</time></trkpt><trkpt lat="43.81094106695223" lon="11.02154624134397"><ele>144.0</ele><time>2026-04-05T13:32:19.999Z</time></trkpt><trkpt lat="43.81103292156267" lon="11.021579772862358"><ele>144.5</ele><time>2026-04-05T13:32:20.998Z</time></trkpt><trkpt lat="43.81114732750099" lon="11.021543343785389"><ele>145.0</ele><time>2026-04-05T13:32:21.998Z</time></trkpt><trkpt lat="43.81124854765961" lon="11.02146259722378"><ele>145.5</ele><time>2026-04-05T13:32:22.998Z</time></trkpt><trkpt lat="43.8113480460484" lon="11.021373593281842"><ele>146.0</ele><time>2026-04-05T13:32:23.998Z</time></trkpt><trkpt lat="43.81146301251075" lon="11.021316824169045"><ele>146.0</ele><time>2026-04-05T13:32:24.998Z</time></trkpt><trkpt lat="43.81158346596866" lon="11.021318785787008"><ele>146.0</ele><time>2026-04-05T13:32:25.998Z</time></trkpt><trkpt lat="43.811710649665365" lon="11.021365598998967"><ele>146.0</ele><time>2026-04-05T13:32:26.998Z</time></trkpt><trkpt lat="43.81184233033898" lon="11.021425837470986"><ele>146.0</ele><time>2026-04-05T13:32:27.998Z</time></trkpt><trkpt lat="43.81197223460207" lon="11.021505279146695"><ele>147.25</ele><time>2026-04-05T13:32:28.998Z</time></trkpt><trkpt lat="43.812089898792365" lon="11.021622399678568"><ele>148.5</ele><time>2026-04-05T13:32:29.998Z</time></trkpt><trkpt lat="43.812202191577065" lon="11.02175611180772"><ele>149.75</ele><time>2026-04-05T13:32:30.998Z</time></trkpt><trkpt lat="43.812317630806426" lon="11.021892047929619"><ele>151.0</ele><time>2026-04-05T13:32:31.998Z</time></trkpt><trkpt lat="43.81244162289659" lon="11.022017332579706"><ele>153.66666666666669</ele><time>2026-04-05T13:32:32.998Z</time></trkpt><trkpt lat="43.81257780647873" lon="11.022124222300075"><ele>156.33333333333334</ele><time>2026-04-05T13:32:33.998Z</time></trkpt><trkpt lat="43.81273131914878" lon="11.02219647479854"><ele>159.0</ele><time>2026-04-05T13:32:34.998Z</time></trkpt><trkpt lat="43.812891776544305" lon="11.022244496964747"><ele>160.0</ele><time>2026-04-05T13:32:35.998Z</time></trkpt><trkpt lat="43.81305406199019" lon="11.022272091268702"><ele>161.0</ele><time>2026-04-05T13:32:36.998Z</time></trkpt><trkpt lat="43.813218232813306" lon="11.022290674491352"><ele>162.0</ele><time>2026-04-05T13:32:37.998Z</time></trkpt><trkpt lat="43.813381930920244" lon="11.022307440220558"><ele>165.0</ele><time>2026-04-05T13:32:38.998Z</time></trkpt><trkpt lat="43.81353888349399" lon="11.02231180877134"><ele>168.0</ele><time>2026-04-05T13:32:39.998Z</time></trkpt><trkpt lat="43.813682652135256" lon="11.022296394572463"><ele>171.0</ele><time>2026-04-05T13:32:40.998Z</time></trkpt><trkpt lat="43.81380425186072" lon="11.022251191769703"><ele>174.0</ele><time>2026-04-05T13:32:42Z</time></trkpt><trkpt lat="43.81390115952543" lon="11.022190399113718"><ele>174.0</ele><time>2026-04-05T13:32:43Z</time></trkpt><trkpt lat="43.8139898556991" lon="11.022108575172135"><ele>174.0</ele><time>2026-04-05T13:32:44Z</time></trkpt><trkpt lat="43.814074193455454" lon="11.021997810232056"><ele>174.0</ele><time>2026-04-05T13:32:45Z</time></trkpt><trkpt lat="43.81415415989071" lon="11.021871187004354"><ele>174.0</ele><time>2026-04-05T13:32:46Z</time></trkpt><trkpt lat="43.81423578422134" lon="11.021737265588165"><ele>174.75</ele><time>2026-04-05T13:32:47Z</time></trkpt><trkpt lat="43.814312808620436" lon="11.021594801950876"><ele>175.5</ele><time>2026-04-05T13:32:48Z</time></trkpt><trkpt lat="43.814374227562084" lon="11.02143456193454"><ele>176.25</ele><time>2026-04-05T13:32:49Z</time></trkpt><trkpt lat="43.81442394350859" lon="11.021261690877935"><ele>177.0</ele><time>2026-04-05T13:32:50Z</time></trkpt><trkpt lat="43.81445710045033" lon="11.021076975919833"><ele>178.75</ele><time>2026-04-05T13:32:51Z</time></trkpt><trkpt lat="43.81447969543614" lon="11.020885341586137"><ele>180.5</ele><time>2026-04-05T13:32:52Z</time></trkpt><trkpt lat="43.814485920494484" lon="11.020694328859673"><ele>182.25</ele><time>2026-04-05T13:32:53Z</time></trkpt><trkpt lat="43.814497606074696" lon="11.02050653552918"><ele>184.0</ele><time>2026-04-05T13:32:54Z</time></trkpt><trkpt lat="43.81448103762119" lon="11.020328744599516"><ele>184.0</ele><time>2026-04-05T13:32:55Z</time></trkpt><trkpt lat="43.81445105914616" lon="11.020159155543093"><ele>184.0</ele><time>2026-04-05T13:32:56Z</time></trkpt><trkpt lat="43.814414368001785" lon="11.019996056721256"><ele>184.0</ele><time>2026-04-05T13:32:57Z</time></trkpt><trkpt lat="43.81437857117591" lon="11.019841630589363"><ele>184.0</ele><time>2026-04-05T13:32:58Z</time></trkpt><trkpt lat="43.81434471761491" lon="11.01969674645521"><ele>184.5</ele><time>2026-04-05T13:32:59Z</time></trkpt><trkpt lat="43.81430648086009" lon="11.019568625143703"><ele>185.0</ele><time>2026-04-05T13:33:00Z</time></trkpt><trkpt lat="43.814286878135924" lon="11.019455419835237"><ele>185.5</ele><time>2026-04-05T13:33:01Z</time></trkpt><trkpt lat="43.81425472429736" lon="11.019377299945077"><ele>186.0</ele><time>2026-04-05T13:33:02Z</time></trkpt><trkpt lat="43.81421211653667" lon="11.019291249122553"><ele>186.5</ele><time>2026-04-05T13:33:03Z</time></trkpt><trkpt lat="43.81414818799968" lon="11.019182692698603"><ele>187.0</ele><time>2026-04-05T13:33:04Z</time></trkpt><trkpt lat="43.81406709436412" lon="11.019069477755783"><ele>188.0</ele><time>2026-04-05T13:33:05Z</time></trkpt><trkpt lat="43.81394997632889" lon="11.018983763120765"><ele>189.0</ele><time>2026-04-05T13:33:06Z</time></trkpt><trkpt lat="43.81385642718058" lon="11.018885351068075"><ele>190.0</ele><time>2026-04-05T13:33:07Z</time></trkpt><trkpt lat="43.813764624211984" lon="11.01877348528775"><ele>191.0</ele><time>2026-04-05T13:33:08Z</time></trkpt><trkpt lat="43.81368342472953" lon="11.018640051741327"><ele>191.0</ele><time>2026-04-05T13:33:09Z</time></trkpt><trkpt lat="43.81360502510825" lon="11.018501643707678"><ele>191.0</ele><time>2026-04-05T13:33:10Z</time></trkpt><trkpt lat="43.813537144909425" lon="11.018356120027198"><ele>191.0</ele><time>2026-04-05T13:33:11Z</time></trkpt><trkpt lat="43.8134573753223" lon="11.01821426378868"><ele>191.0</ele><time>2026-04-05T13:33:12Z</time></trkpt><trkpt lat="43.81338135704633" lon="11.018077149211381"><ele>192.8</ele><time>2026-04-05T13:33:13Z</time></trkpt><trkpt lat="43.813308418698384" lon="11.017973391573213"><ele>194.60000000000002</ele><time>2026-04-05T13:33:14Z</time></trkpt><trkpt lat="43.81324307484667" lon="11.017861868047591"><ele>196.4</ele><time>2026-04-05T13:33:15Z</time></trkpt><trkpt lat="43.81315529948895" lon="11.017777976051468"><ele>198.2</ele><time>2026-04-05T13:33:16Z</time></trkpt><trkpt lat="43.81307464649566" lon="11.017673143108361"><ele>200.0</ele><time>2026-04-05T13:33:17Z</time></trkpt><trkpt lat="43.813015976531936" lon="11.01753595385073"><ele>201.83333333333334</ele><time>2026-04-05T13:33:18Z</time></trkpt><trkpt lat="43.812968362766966" lon="11.01740895716217"><ele>203.66666666666669</ele><time>2026-04-05T13:33:19Z</time></trkpt><trkpt lat="43.81291232156031" lon="11.017300918021045"><ele>205.5</ele><time>2026-04-05T13:33:20Z</time></trkpt><trkpt lat="43.812865385363146" lon="11.017209694647418"><ele>207.33333333333331</ele><time>2026-04-05T13:33:21Z</time></trkpt><trkpt lat="43.8128239703084" lon="11.017110622158983"><ele>209.16666666666666</ele><time>2026-04-05T13:33:22Z</time></trkpt><trkpt lat="43.812772716355575" lon="11.01701657299862"><ele>211.0</ele><time>2026-04-05T13:33:23Z</time></trkpt><trkpt lat="43.81271099193444" lon="11.016941169820756"><ele>210.99999999999997</ele><time>2026-04-05T13:33:24Z</time></trkpt><trkpt lat="43.81266368605316" lon="11.0168325191744"><ele>211.0</ele><time>2026-04-05T13:33:25Z</time></trkpt><trkpt lat="43.81260256339813" lon="11.016738220778599"><ele>211.0</ele><time>2026-04-05T13:33:26Z</time></trkpt><trkpt lat="43.81254492472105" lon="11.016647999889894"><ele>211.0</ele><time>2026-04-05T13:33:27Z</time></trkpt><trkpt lat="43.81248697221615" lon="11.016556209389737"><ele>210.99999999999997</ele><time>2026-04-05T13:33:27.999Z</time></trkpt><trkpt lat="43.812438722736836" lon="11.016479787428022"><ele>211.0</ele><time>2026-04-05T13:33:28.999Z</time></trkpt><trkpt lat="43.81238389513643" lon="11.016403100063206"><ele>210.66666666666666</ele><time>2026-04-05T13:33:29.999Z</time></trkpt><trkpt lat="43.812321495725584" lon="11.016334309070961"><ele>210.33333333333331</ele><time>2026-04-05T13:33:30.999Z</time></trkpt><trkpt lat="43.81225357145067" lon="11.016264444909918"><ele>210.0</ele><time>2026-04-05T13:33:31.999Z</time></trkpt><trkpt lat="43.812188449436945" lon="11.01619314550937"><ele>209.66666666666669</ele><time>2026-04-05T13:33:32.999Z</time></trkpt><trkpt lat="43.81211292700501" lon="11.016140006017944"><ele>209.33333333333334</ele><time>2026-04-05T13:33:33.999Z</time></trkpt><trkpt lat="43.81204765983463" lon="11.01604704990875"><ele>209.0</ele><time>2026-04-05T13:33:34.999Z</time></trkpt><trkpt lat="43.81197288427592" lon="11.015954722767306"><ele>209.0</ele><time>2026-04-05T13:33:35.999Z</time></trkpt><trkpt lat="43.811895606335845" lon="11.01586605927662"><ele>209.0</ele><time>2026-04-05T13:33:36.999Z</time></trkpt><trkpt lat="43.811824958095464" lon="11.01579039834149"><ele>209.0</ele><time>2026-04-05T13:33:37.999Z</time></trkpt><trkpt lat="43.81175606848193" lon="11.015714106507142"><ele>209.0</ele><time>2026-04-05T13:33:38.999Z</time></trkpt><trkpt lat="43.811698487326694" lon="11.015623874036196"><ele>209.0</ele><time>2026-04-05T13:33:39.999Z</time></trkpt><trkpt lat="43.81163052804268" lon="11.015551430964846"><ele>210.00000000000003</ele><time>2026-04-05T13:33:40.999Z</time></trkpt><trkpt lat="43.81154906631422" lon="11.015486489188449"><ele>211.0</ele><time>2026-04-05T13:33:41.999Z</time></trkpt><trkpt lat="43.81147613274751" lon="11.015416116705746"><ele>212.0</ele><time>2026-04-05T13:33:42.999Z</time></trkpt><trkpt lat="43.81140187620423" lon="11.015359358952718"><ele>213.0</ele><time>2026-04-05T13:33:43.999Z</time></trkpt><trkpt lat="43.811332684070535" lon="11.015321807863478"><ele>214.00000000000003</ele><time>2026-04-05T13:33:44.999Z</time></trkpt><trkpt lat="43.81125865108062" lon="11.015296371567388"><ele>215.0</ele><time>2026-04-05T13:33:45.999Z</time></trkpt><trkpt lat="43.81117552192518" lon="11.01525786531078"><ele>215.00000000000003</ele><time>2026-04-05T13:33:46.999Z</time></trkpt><trkpt lat="43.81109963379937" lon="11.015234854367522"><ele>215.0</ele><time>2026-04-05T13:33:47.999Z</time></trkpt><trkpt lat="43.811023409392845" lon="11.015205186388807"><ele>215.0</ele><time>2026-04-05T13:33:48.999Z</time></trkpt><trkpt lat="43.810942241773354" lon="11.01517608030342"><ele>215.0</ele><time>2026-04-05T13:33:49.999Z</time></trkpt><trkpt lat="43.81085579680297" lon="11.015142140625295"><ele>215.00000000000003</ele><time>2026-04-05T13:33:50.999Z</time></trkpt><trkpt lat="43.81076985727051" lon="11.015130146575988"><ele>215.0</ele><time>2026-04-05T13:33:51.999Z</time></trkpt><trkpt lat="43.81067574614064" lon="11.015145331635122"><ele>214.33333333333334</ele><time>2026-04-05T13:33:52.999Z</time></trkpt><trkpt lat="43.810592120119026" lon="11.015172921731658"><ele>213.66666666666669</ele><time>2026-04-05T13:33:53.999Z</time></trkpt><trkpt lat="43.81051126779033" lon="11.015193718791261"><ele>213.0</ele><time>2026-04-05T13:33:54.999Z</time></trkpt><trkpt lat="43.81043280786074" lon="11.015228458737225"><ele>212.33333333333331</ele><time>2026-04-05T13:33:55.999Z</time></trkpt><trkpt lat="43.81035241332354" lon="11.015268845922053"><ele>211.66666666666666</ele><time>2026-04-05T13:33:56.999Z</time></trkpt><trkpt lat="43.810267208293936" lon="11.015268464158776"><ele>211.0</ele><time>2026-04-05T13:33:57.999Z</time></trkpt><trkpt lat="43.81018585790183" lon="11.01523751807436"><ele>212.20000000000002</ele><time>2026-04-05T13:33:58.999Z</time></trkpt><trkpt lat="43.810098310952654" lon="11.015191034572085"><ele>213.4</ele><time>2026-04-05T13:33:59.999Z</time></trkpt><trkpt lat="43.81002184917106" lon="11.015116996043893"><ele>214.6</ele><time>2026-04-05T13:34:00.999Z</time></trkpt><trkpt lat="43.80995656191122" lon="11.015026934690964"><ele>215.8</ele><time>2026-04-05T13:34:01.999Z</time></trkpt><trkpt lat="43.80989602001164" lon="11.0149277359696"><ele>217.0</ele><time>2026-04-05T13:34:02.999Z</time></trkpt><trkpt lat="43.80984914740908" lon="11.014809863910928"><ele>217.0</ele><time>2026-04-05T13:34:03.999Z</time></trkpt><trkpt lat="43.80979859207061" lon="11.01468902040484"><ele>217.0</ele><time>2026-04-05T13:34:04.999Z</time></trkpt><trkpt lat="43.809749273649935" lon="11.01457606242576"><ele>217.0</ele><time>2026-04-05T13:34:05.999Z</time></trkpt><trkpt lat="43.80969623836819" lon="11.014473646184406"><ele>217.0</ele><time>2026-04-05T13:34:06.999Z</time></trkpt><trkpt lat="43.80963700097226" lon="11.01438662560779"><ele>217.0</ele><time>2026-04-05T13:34:07.999Z</time></trkpt><trkpt lat="43.809565846806784" lon="11.014314020720022"><ele>217.0</ele><time>2026-04-05T13:34:08.999Z</time></trkpt><trkpt lat="43.809481944468885" lon="11.0142552350084"><ele>217.0</ele><time>2026-04-05T13:34:09.999Z</time></trkpt><trkpt lat="43.80939858579356" lon="11.014207562263469"><ele>217.0</ele><time>2026-04-05T13:34:10.999Z</time></trkpt><trkpt lat="43.80931792577323" lon="11.014165623017591"><ele>217.0</ele><time>2026-04-05T13:34:11.999Z</time></trkpt><trkpt lat="43.80923077067152" lon="11.01412201899786"><ele>217.0</ele><time>2026-04-05T13:34:12.999Z</time></trkpt><trkpt lat="43.80914286553884" lon="11.014084325436762"><ele>218.8</ele><time>2026-04-05T13:34:13.999Z</time></trkpt><trkpt lat="43.809050472011975" lon="11.014042360618804"><ele>220.6</ele><time>2026-04-05T13:34:14.999Z</time></trkpt><trkpt lat="43.80895232534995" lon="11.013993322307542"><ele>222.40000000000003</ele><time>2026-04-05T13:34:15.999Z</time></trkpt><trkpt lat="43.80885563742779" lon="11.013953378483013"><ele>224.20000000000002</ele><time>2026-04-05T13:34:16.999Z</time></trkpt><trkpt lat="43.8087537047622" lon="11.013907421468998"><ele>226.0</ele><time>2026-04-05T13:34:17.999Z</time></trkpt><trkpt lat="43.80865797952372" lon="11.01384185745428"><ele>226.0</ele><time>2026-04-05T13:34:18.999Z</time></trkpt><trkpt lat="43.808554821144156" lon="11.013801738346748"><ele>226.00000000000003</ele><time>2026-04-05T13:34:19.999Z</time></trkpt><trkpt lat="43.80844758672697" lon="11.013759201956674"><ele>226.00000000000003</ele><time>2026-04-05T13:34:20.999Z</time></trkpt><trkpt lat="43.80835225742762" lon="11.013722424027593"><ele>226.0</ele><time>2026-04-05T13:34:21.999Z</time></trkpt><trkpt lat="43.80825316854119" lon="11.013698162820539"><ele>226.0</ele><time>2026-04-05T13:34:22.999Z</time></trkpt><trkpt lat="43.80816125594114" lon="11.01368211267244"><ele>225.16666666666666</ele><time>2026-04-05T13:34:23.999Z</time></trkpt><trkpt lat="43.80806969129696" lon="11.013664824866753"><ele>224.33333333333331</ele><time>2026-04-05T13:34:24.999Z</time></trkpt><trkpt lat="43.80797924304185" lon="11.01364993886043"><ele>223.5</ele><time>2026-04-05T13:34:25.998Z</time></trkpt><trkpt lat="43.80790260394371" lon="11.01362012115828"><ele>222.66666666666669</ele><time>2026-04-05T13:34:26.998Z</time></trkpt><trkpt lat="43.80782542904954" lon="11.013589727954393"><ele>221.83333333333334</ele><time>2026-04-05T13:34:27.998Z</time></trkpt><trkpt lat="43.80774696895068" lon="11.013535883915663"><ele>221.0</ele><time>2026-04-05T13:34:28.998Z</time></trkpt><trkpt lat="43.80767943811883" lon="11.0134593578001"><ele>221.50000000000003</ele><time>2026-04-05T13:34:29.998Z</time></trkpt><trkpt lat="43.80762431380039" lon="11.01337941829177"><ele>222.0</ele><time>2026-04-05T13:34:30.998Z</time></trkpt><trkpt lat="43.80758719306036" lon="11.013307538278232"><ele>222.5</ele><time>2026-04-05T13:34:31.998Z</time></trkpt><trkpt lat="43.807512032617105" lon="11.013197281546027"><ele>223.0</ele><time>2026-04-05T13:34:33.998Z</time></trkpt><trkpt lat="43.807455430214084" lon="11.013133246991607"><ele>223.50000000000003</ele><time>2026-04-05T13:34:34.998Z</time></trkpt><trkpt lat="43.807390700584385" lon="11.013065289024778"><ele>224.0</ele><time>2026-04-05T13:34:35.998Z</time></trkpt><trkpt lat="43.80730441210194" lon="11.013022036330797"><ele>224.0</ele><time>2026-04-05T13:34:36.998Z</time></trkpt><trkpt lat="43.80720830739299" lon="11.013006498324051"><ele>223.99999999999997</ele><time>2026-04-05T13:34:37.998Z</time></trkpt><trkpt lat="43.80710179091471" lon="11.013010631203883"><ele>223.99999999999997</ele><time>2026-04-05T13:34:38.998Z</time></trkpt><trkpt lat="43.806986427364265" lon="11.01302494533111"><ele>224.0</ele><time>2026-04-05T13:34:39.998Z</time></trkpt><trkpt lat="43.80686869063064" lon="11.01305234327741"><ele>224.0</ele><time>2026-04-05T13:34:40.998Z</time></trkpt><trkpt lat="43.8067474127549" lon="11.013081384603744"><ele>225.25</ele><time>2026-04-05T13:34:41.998Z</time></trkpt><trkpt lat="43.806623345007324" lon="11.013102473372358"><ele>226.5</ele><time>2026-04-05T13:34:42.998Z</time></trkpt><trkpt lat="43.80649637232503" lon="11.013120045953082"><ele>227.75</ele><time>2026-04-05T13:34:43.998Z</time></trkpt><trkpt lat="43.806364618671225" lon="11.013137298391728"><ele>229.0</ele><time>2026-04-05T13:34:44.998Z</time></trkpt><trkpt lat="43.806236623306255" lon="11.013149966866857"><ele>229.0</ele><time>2026-04-05T13:34:45.998Z</time></trkpt><trkpt lat="43.80610488566414" lon="11.013174043373915"><ele>229.0</ele><time>2026-04-05T13:34:46.998Z</time></trkpt><trkpt lat="43.80596930555416" lon="11.013191517898003"><ele>229.0</ele><time>2026-04-05T13:34:48Z</time></trkpt><trkpt lat="43.80583566320105" lon="11.013206642660718"><ele>229.0</ele><time>2026-04-05T13:34:49Z</time></trkpt><trkpt lat="43.80570587988429" lon="11.013237828826146"><ele>230.75</ele><time>2026-04-05T13:34:50Z</time></trkpt><trkpt lat="43.80558387735632" lon="11.013281017762674"><ele>232.5</ele><time>2026-04-05T13:34:51Z</time></trkpt><trkpt lat="43.80546544812968" lon="11.013315858513232"><ele>234.25</ele><time>2026-04-05T13:34:52Z</time></trkpt><trkpt lat="43.805346424031185" lon="11.013356461027008"><ele>236.0</ele><time>2026-04-05T13:34:53Z</time></trkpt><trkpt lat="43.8052143541612" lon="11.013370178417295"><ele>232.75</ele><time>2026-04-05T13:34:54Z</time></trkpt><trkpt lat="43.80507859207019" lon="11.0133695347318"><ele>229.5</ele><time>2026-04-05T13:34:55Z</time></trkpt><trkpt lat="43.80494706468245" lon="11.013377862814009"><ele>226.25</ele><time>2026-04-05T13:34:56Z</time></trkpt><trkpt lat="43.804826658692" lon="11.013381210078219"><ele>223.0</ele><time>2026-04-05T13:34:57Z</time></trkpt><trkpt lat="43.80470219098209" lon="11.013380836826977"><ele>223.0</ele><time>2026-04-05T13:34:58Z</time></trkpt><trkpt lat="43.80459206172323" lon="11.01336460611342"><ele>223.0</ele><time>2026-04-05T13:34:59Z</time></trkpt><trkpt lat="43.804507111832805" lon="11.013321104678424"><ele>223.0</ele><time>2026-04-05T13:35:00Z</time></trkpt><trkpt lat="43.804447765640234" lon="11.013250391249787"><ele>223.0</ele><time>2026-04-05T13:35:01Z</time></trkpt><trkpt lat="43.804419623030704" lon="11.01308291129727"><ele>223.0</ele><time>2026-04-05T13:35:03Z</time></trkpt><trkpt lat="43.804480178081086" lon="11.012971594492656"><ele>224.5</ele><time>2026-04-05T13:35:04Z</time></trkpt><trkpt lat="43.804549228203456" lon="11.012861605892132"><ele>226.0</ele><time>2026-04-05T13:35:05Z</time></trkpt><trkpt lat="43.80462330395348" lon="11.012731521224287"><ele>227.5</ele><time>2026-04-05T13:35:06Z</time></trkpt><trkpt lat="43.80467878623398" lon="11.012574721146528"><ele>229.0</ele><time>2026-04-05T13:35:07Z</time></trkpt><trkpt lat="43.80470420749909" lon="11.012397221436792"><ele>229.25</ele><time>2026-04-05T13:35:08Z</time></trkpt><trkpt lat="43.80472465303185" lon="11.012205421187087"><ele>229.5</ele><time>2026-04-05T13:35:09Z</time></trkpt><trkpt lat="43.804742675362924" lon="11.01200543251763"><ele>229.75</ele><time>2026-04-05T13:35:10Z</time></trkpt><trkpt lat="43.8047512861548" lon="11.011796146856751"><ele>230.0</ele><time>2026-04-05T13:35:11Z</time></trkpt><trkpt lat="43.80475758547173" lon="11.011581921646115"><ele>230.75</ele><time>2026-04-05T13:35:12Z</time></trkpt><trkpt lat="43.80475951209764" lon="11.011389270896686"><ele>231.5</ele><time>2026-04-05T13:35:13Z</time></trkpt><trkpt lat="43.80476056912423" lon="11.011213331886642"><ele>232.25</ele><time>2026-04-05T13:35:14Z</time></trkpt><trkpt lat="43.804766125494304" lon="11.011048734586847"><ele>233.0</ele><time>2026-04-05T13:35:15Z</time></trkpt><trkpt lat="43.804767271641246" lon="11.010890992685832"><ele>233.4</ele><time>2026-04-05T13:35:16Z</time></trkpt><trkpt lat="43.80476907341619" lon="11.010753173209105"><ele>233.8</ele><time>2026-04-05T13:35:17Z</time></trkpt><trkpt lat="43.804766102207175" lon="11.010620541367656"><ele>234.2</ele><time>2026-04-05T13:35:18Z</time></trkpt><trkpt lat="43.80475728078227" lon="11.010495959638027"><ele>234.6</ele><time>2026-04-05T13:35:19Z</time></trkpt><trkpt lat="43.80474910791367" lon="11.010373935368722"><ele>235.0</ele><time>2026-04-05T13:35:20Z</time></trkpt><trkpt lat="43.80473733915759" lon="11.01025004702876"><ele>235.0</ele><time>2026-04-05T13:35:21Z</time></trkpt><trkpt lat="43.80472093059114" lon="11.01013539977569"><ele>235.0</ele><time>2026-04-05T13:35:22Z</time></trkpt><trkpt lat="43.804690987069435" lon="11.010013626242216"><ele>235.0</ele><time>2026-04-05T13:35:23Z</time></trkpt><trkpt lat="43.80465115132429" lon="11.00988858122492"><ele>235.0</ele><time>2026-04-05T13:35:24Z</time></trkpt><trkpt lat="43.80459040309285" lon="11.009767990019556"><ele>235.0</ele><time>2026-04-05T13:35:25Z</time></trkpt><trkpt lat="43.80451944463365" lon="11.00965635090655"><ele>234.6</ele><time>2026-04-05T13:35:26Z</time></trkpt><trkpt lat="43.80445397647704" lon="11.009537123741866"><ele>234.2</ele><time>2026-04-05T13:35:27Z</time></trkpt><trkpt lat="43.80438337112608" lon="11.00941510992813"><ele>233.8</ele><time>2026-04-05T13:35:28Z</time></trkpt><trkpt lat="43.80431908175604" lon="11.009311915759008"><ele>233.4</ele><time>2026-04-05T13:35:29Z</time></trkpt><trkpt lat="43.80425535746382" lon="11.009209586654142"><ele>233.0</ele><time>2026-04-05T13:35:30Z</time></trkpt><trkpt lat="43.804179745184605" lon="11.009090513530156"><ele>233.0</ele><time>2026-04-05T13:35:31Z</time></trkpt><trkpt lat="43.804109513364125" lon="11.008978433493361"><ele>233.0</ele><time>2026-04-05T13:35:32Z</time></trkpt><trkpt lat="43.80404214101357" lon="11.008860996521998"><ele>233.0</ele><time>2026-04-05T13:35:33Z</time></trkpt><trkpt lat="43.803969117609014" lon="11.008750422328587"><ele>233.0</ele><time>2026-04-05T13:35:33.999Z</time></trkpt><trkpt lat="43.80389771944941" lon="11.008638092864048"><ele>233.0</ele><time>2026-04-05T13:35:34.999Z</time></trkpt><trkpt lat="43.80383157131147" lon="11.008527754440918"><ele>233.0</ele><time>2026-04-05T13:35:35.999Z</time></trkpt><trkpt lat="43.803785113294296" lon="11.008409964623063"><ele>233.0</ele><time>2026-04-05T13:35:36.999Z</time></trkpt><trkpt lat="43.803720562061635" lon="11.008295680448313"><ele>233.0</ele><time>2026-04-05T13:35:37.999Z</time></trkpt><trkpt lat="43.80368252621912" lon="11.008181897786727"><ele>233.0</ele><time>2026-04-05T13:35:38.999Z</time></trkpt><trkpt lat="43.803644578126125" lon="11.00807864707465"><ele>233.0</ele><time>2026-04-05T13:35:39.999Z</time></trkpt><trkpt lat="43.80359387138919" lon="11.00798256235057"><ele>231.4</ele><time>2026-04-05T13:35:40.999Z</time></trkpt><trkpt lat="43.80352453952084" lon="11.00788036054968"><ele>229.8</ele><time>2026-04-05T13:35:41.999Z</time></trkpt><trkpt lat="43.80345087142048" lon="11.007782729268396"><ele>228.2</ele><time>2026-04-05T13:35:42.999Z</time></trkpt><trkpt lat="43.80338398838665" lon="11.007696494366483"><ele>226.6</ele><time>2026-04-05T13:35:43.999Z</time></trkpt><trkpt lat="43.80332044979325" lon="11.00760320954832"><ele>225.0</ele><time>2026-04-05T13:35:44.999Z</time></trkpt><trkpt lat="43.803256387879685" lon="11.007515772668585"><ele>224.4</ele><time>2026-04-05T13:35:45.999Z</time></trkpt><trkpt lat="43.803170226378526" lon="11.007433059787195"><ele>223.8</ele><time>2026-04-05T13:35:46.999Z</time></trkpt><trkpt lat="43.803068649109086" lon="11.007373526193717"><ele>223.2</ele><time>2026-04-05T13:35:47.999Z</time></trkpt><trkpt lat="43.80296195535209" lon="11.007330093386294"><ele>222.6</ele><time>2026-04-05T13:35:48.999Z</time></trkpt><trkpt lat="43.8028521862297" lon="11.007305505840261"><ele>222.0</ele><time>2026-04-05T13:35:49.999Z</time></trkpt><trkpt lat="43.802739388393306" lon="11.007316792902229"><ele>224.5</ele><time>2026-04-05T13:35:50.999Z</time></trkpt><trkpt lat="43.80262510919634" lon="11.007345695616369"><ele>227.0</ele><time>2026-04-05T13:35:51.999Z</time></trkpt><trkpt lat="43.80250749667344" lon="11.007372104885087"><ele>229.5</ele><time>2026-04-05T13:35:52.999Z</time></trkpt><trkpt lat="43.802394053416954" lon="11.007396017650324"><ele>232.0</ele><time>2026-04-05T13:35:53.999Z</time></trkpt><trkpt lat="43.80228876398604" lon="11.007395686856775"><ele>232.0</ele><time>2026-04-05T13:35:54.999Z</time></trkpt><trkpt lat="43.802177739415534" lon="11.007377102441803"><ele>232.0</ele><time>2026-04-05T13:35:55.999Z</time></trkpt><trkpt lat="43.802067585706396" lon="11.007331219212787"><ele>232.0</ele><time>2026-04-05T13:35:56.999Z</time></trkpt><trkpt lat="43.80196364687187" lon="11.007263283076467"><ele>232.0</ele><time>2026-04-05T13:35:57.999Z</time></trkpt><trkpt lat="43.801865915841624" lon="11.007177830839717"><ele>230.5</ele><time>2026-04-05T13:35:58.999Z</time></trkpt><trkpt lat="43.80177554261193" lon="11.007070824032917"><ele>229.0</ele><time>2026-04-05T13:35:59.999Z</time></trkpt><trkpt lat="43.8016901509857" lon="11.006934585533767"><ele>227.5</ele><time>2026-04-05T13:36:00.999Z</time></trkpt><trkpt lat="43.80159832026605" lon="11.006802816206738"><ele>226.0</ele><time>2026-04-05T13:36:01.999Z</time></trkpt><trkpt lat="43.80151544418748" lon="11.006659000926122"><ele>223.66666666666666</ele><time>2026-04-05T13:36:02.999Z</time></trkpt><trkpt lat="43.80141872710029" lon="11.006502553011043"><ele>221.33333333333331</ele><time>2026-04-05T13:36:03.999Z</time></trkpt><trkpt lat="43.80132404893549" lon="11.006344310065247"><ele>219.0</ele><time>2026-04-05T13:36:04.999Z</time></trkpt><trkpt lat="43.80122366903612" lon="11.006175431475082"><ele>219.0</ele><time>2026-04-05T13:36:05.999Z</time></trkpt><trkpt lat="43.801126088319265" lon="11.006007700340506"><ele>219.0</ele><time>2026-04-05T13:36:06.999Z</time></trkpt><trkpt lat="43.801032516389895" lon="11.00584213978542"><ele>219.0</ele><time>2026-04-05T13:36:07.999Z</time></trkpt><trkpt lat="43.800946500432374" lon="11.005669279973636"><ele>219.0</ele><time>2026-04-05T13:36:08.999Z</time></trkpt><trkpt lat="43.80086485243881" lon="11.005496904155423"><ele>219.0</ele><time>2026-04-05T13:36:09.999Z</time></trkpt><trkpt lat="43.800786214065376" lon="11.005322221473737"><ele>219.0</ele><time>2026-04-05T13:36:10.999Z</time></trkpt><trkpt lat="43.800716164230735" lon="11.00514580216327"><ele>219.0</ele><time>2026-04-05T13:36:11.999Z</time></trkpt><trkpt lat="43.80064166502708" lon="11.004970498881097"><ele>217.5</ele><time>2026-04-05T13:36:12.999Z</time></trkpt><trkpt lat="43.80056859649462" lon="11.004793903449212"><ele>216.0</ele><time>2026-04-05T13:36:13.999Z</time></trkpt><trkpt lat="43.80049810845958" lon="11.004611375867276"><ele>214.5</ele><time>2026-04-05T13:36:14.999Z</time></trkpt><trkpt lat="43.800429948769064" lon="11.004434584770406"><ele>213.0</ele><time>2026-04-05T13:36:15.999Z</time></trkpt><trkpt lat="43.80037808231979" lon="11.004243381676377"><ele>210.5</ele><time>2026-04-05T13:36:16.999Z</time></trkpt><trkpt lat="43.800302455748174" lon="11.004072459078378"><ele>208.0</ele><time>2026-04-05T13:36:17.999Z</time></trkpt><trkpt lat="43.80023925987668" lon="11.003892626130666"><ele>205.5</ele><time>2026-04-05T13:36:18.999Z</time></trkpt><trkpt lat="43.80019124172096" lon="11.003704356880023"><ele>203.0</ele><time>2026-04-05T13:36:19.999Z</time></trkpt><trkpt lat="43.800168837901936" lon="11.003524660559478"><ele>203.8</ele><time>2026-04-05T13:36:20.999Z</time></trkpt><trkpt lat="43.80014835069326" lon="11.003351421794667"><ele>204.60000000000002</ele><time>2026-04-05T13:36:21.999Z</time></trkpt><trkpt lat="43.80012394554375" lon="11.003208666313732"><ele>205.39999999999998</ele><time>2026-04-05T13:36:22.999Z</time></trkpt><trkpt lat="43.80005362413588" lon="11.003104237099514"><ele>206.2</ele><time>2026-04-05T13:36:23.999Z</time></trkpt><trkpt lat="43.79994797482995" lon="11.00304626802011"><ele>207.0</ele><time>2026-04-05T13:36:24.999Z</time></trkpt><trkpt lat="43.79982398362702" lon="11.00303939294617"><ele>207.0</ele><time>2026-04-05T13:36:25.999Z</time></trkpt><trkpt lat="43.79969264236734" lon="11.003015712008352"><ele>207.0</ele><time>2026-04-05T13:36:26.999Z</time></trkpt><trkpt lat="43.799556472441125" lon="11.003018940256936"><ele>207.0</ele><time>2026-04-05T13:36:27.999Z</time></trkpt><trkpt lat="43.799408676507255" lon="11.00304708373347"><ele>207.0</ele><time>2026-04-05T13:36:28.999Z</time></trkpt><trkpt lat="43.799267517258215" lon="11.003090908001855"><ele>207.75</ele><time>2026-04-05T13:36:29.999Z</time></trkpt><trkpt lat="43.79912930132348" lon="11.003135769999357"><ele>208.5</ele><time>2026-04-05T13:36:30.998Z</time></trkpt><trkpt lat="43.798986684181145" lon="11.003159718118372"><ele>209.25</ele><time>2026-04-05T13:36:31.998Z</time></trkpt><trkpt lat="43.798835321586324" lon="11.003158236390224"><ele>210.0</ele><time>2026-04-05T13:36:32.998Z</time></trkpt><trkpt lat="43.79867943885292" lon="11.003137649031052"><ele>210.0</ele><time>2026-04-05T13:36:33.998Z</time></trkpt><trkpt lat="43.7985228821341" lon="11.00311895910448"><ele>210.0</ele><time>2026-04-05T13:36:34.998Z</time></trkpt><trkpt lat="43.7983752158108" lon="11.003102041103745"><ele>210.0</ele><time>2026-04-05T13:36:35.998Z</time></trkpt><trkpt lat="43.7982313808011" lon="11.00311126077911"><ele>210.0</ele><time>2026-04-05T13:36:36.998Z</time></trkpt><trkpt lat="43.79808490595665" lon="11.003079012048097"><ele>212.66666666666669</ele><time>2026-04-05T13:36:37.998Z</time></trkpt><trkpt lat="43.79792717795272" lon="11.00309172675372"><ele>215.33333333333334</ele><time>2026-04-05T13:36:38.998Z</time></trkpt><trkpt lat="43.79776816681858" lon="11.003158870720501"><ele>218.0</ele><time>2026-04-05T13:36:39.998Z</time></trkpt><trkpt lat="43.797604213761566" lon="11.003196826037163"><ele>220.75</ele><time>2026-04-05T13:36:40.998Z</time></trkpt><trkpt lat="43.79744541118443" lon="11.003264179699656"><ele>223.5</ele><time>2026-04-05T13:36:41.998Z</time></trkpt><trkpt lat="43.79730891783081" lon="11.003342132065885"><ele>226.25</ele><time>2026-04-05T13:36:42.998Z</time></trkpt><trkpt lat="43.79718359309401" lon="11.003393924497598"><ele>229.0</ele><time>2026-04-05T13:36:43.998Z</time></trkpt><trkpt lat="43.79706344472231" lon="11.003439724328112"><ele>229.0</ele><time>2026-04-05T13:36:44.998Z</time></trkpt><trkpt lat="43.796957503644904" lon="11.00345183079291"><ele>229.0</ele><time>2026-04-05T13:36:45.998Z</time></trkpt><trkpt lat="43.796849062351725" lon="11.003411048237782"><ele>229.0</ele><time>2026-04-05T13:36:46.998Z</time></trkpt><trkpt lat="43.796737376004195" lon="11.003344101589622"><ele>229.0</ele><time>2026-04-05T13:36:47.998Z</time></trkpt><trkpt lat="43.79661575410264" lon="11.003284859892297"><ele>235.75</ele><time>2026-04-05T13:36:48.998Z</time></trkpt><trkpt lat="43.79649255794526" lon="11.003212008796591"><ele>242.5</ele><time>2026-04-05T13:36:49.998Z</time></trkpt><trkpt lat="43.79636919390103" lon="11.003151538216393"><ele>249.25</ele><time>2026-04-05T13:36:50.998Z</time></trkpt><trkpt lat="43.79625606839379" lon="11.003097112543184"><ele>256.0</ele><time>2026-04-05T13:36:51.998Z</time></trkpt><trkpt lat="43.79616451855208" lon="11.003049416969466"><ele>256.0</ele><time>2026-04-05T13:36:52.998Z</time></trkpt><trkpt lat="43.796081856561024" lon="11.00299459857253"><ele>256.0</ele><time>2026-04-05T13:36:54Z</time></trkpt><trkpt lat="43.79601987452188" lon="11.002889682201975"><ele>256.0</ele><time>2026-04-05T13:36:55Z</time></trkpt><trkpt lat="43.79596282542685" lon="11.002759280110745"><ele>256.0</ele><time>2026-04-05T13:36:56Z</time></trkpt><trkpt lat="43.79589717574849" lon="11.002617069471537"><ele>256.0</ele><time>2026-04-05T13:36:57Z</time></trkpt><trkpt lat="43.795823851468114" lon="11.002480241247607"><ele>257.25</ele><time>2026-04-05T13:36:58Z</time></trkpt><trkpt lat="43.7957570167824" lon="11.002335256888468"><ele>258.5</ele><time>2026-04-05T13:36:59Z</time></trkpt><trkpt lat="43.7956858198989" lon="11.002182270866399"><ele>259.75</ele><time>2026-04-05T13:37:00Z</time></trkpt><trkpt lat="43.79561619167872" lon="11.002033010076316"><ele>261.0</ele><time>2026-04-05T13:37:01Z</time></trkpt><trkpt lat="43.795547605099514" lon="11.001891686692815"><ele>261.0</ele><time>2026-04-05T13:37:02Z</time></trkpt><trkpt lat="43.79548228142754" lon="11.001749098663065"><ele>261.0</ele><time>2026-04-05T13:37:03Z</time></trkpt><trkpt lat="43.79542261429625" lon="11.001611344287799"><ele>261.0</ele><time>2026-04-05T13:37:04Z</time></trkpt><trkpt lat="43.79535862213714" lon="11.001480402579064"><ele>261.0</ele><time>2026-04-05T13:37:05Z</time></trkpt><trkpt lat="43.795293508673716" lon="11.001347113517415"><ele>259.0</ele><time>2026-04-05T13:37:06Z</time></trkpt><trkpt lat="43.795237845539944" lon="11.001208386066732"><ele>257.0</ele><time>2026-04-05T13:37:07Z</time></trkpt><trkpt lat="43.79521420410102" lon="11.001040640678214"><ele>255.0</ele><time>2026-04-05T13:37:08Z</time></trkpt><trkpt lat="43.79521422603786" lon="11.000870262089094"><ele>253.0</ele><time>2026-04-05T13:37:09Z</time></trkpt><trkpt lat="43.795237995891" lon="11.000700143020307"><ele>250.0</ele><time>2026-04-05T13:37:10Z</time></trkpt><trkpt lat="43.79525065440505" lon="11.000528239895907"><ele>247.0</ele><time>2026-04-05T13:37:11Z</time></trkpt><trkpt lat="43.79523947068612" lon="11.00034977681346"><ele>244.0</ele><time>2026-04-05T13:37:12Z</time></trkpt><trkpt lat="43.79522738930936" lon="11.000180039974182"><ele>241.0</ele><time>2026-04-05T13:37:13Z</time></trkpt><trkpt lat="43.79523141718033" lon="11.000018612182178"><ele>240.99999999999997</ele><time>2026-04-05T13:37:14Z</time></trkpt><trkpt lat="43.795244289512134" lon="10.999863227701747"><ele>241.0</ele><time>2026-04-05T13:37:15Z</time></trkpt><trkpt lat="43.79522896741712" lon="10.999744313492464"><ele>241.0</ele><time>2026-04-05T13:37:16Z</time></trkpt><trkpt lat="43.795174814801946" lon="10.999685992831903"><ele>241.0</ele><time>2026-04-05T13:37:17Z</time></trkpt><trkpt lat="43.795096959431795" lon="10.99965616338368"><ele>240.99999999999997</ele><time>2026-04-05T13:37:18Z</time></trkpt><trkpt lat="43.79501621335657" lon="10.999734209444068"><ele>241.0</ele><time>2026-04-05T13:37:19Z</time></trkpt><trkpt lat="43.79500194550096" lon="10.999890756277267"><ele>246.60000000000002</ele><time>2026-04-05T13:37:20Z</time></trkpt><trkpt lat="43.79500274218486" lon="11.000018302793622"><ele>252.20000000000002</ele><time>2026-04-05T13:37:21Z</time></trkpt><trkpt lat="43.794991056944795" lon="11.000159658677285"><ele>257.79999999999995</ele><time>2026-04-05T13:37:22Z</time></trkpt><trkpt lat="43.79498317070185" lon="11.000308699805073"><ele>263.4</ele><time>2026-04-05T13:37:23Z</time></trkpt><trkpt lat="43.79496804657124" lon="11.000468248803339"><ele>269.0</ele><time>2026-04-05T13:37:24Z</time></trkpt><trkpt lat="43.79490458968696" lon="11.000612691557821"><ele>269.0</ele><time>2026-04-05T13:37:25Z</time></trkpt><trkpt lat="43.79480947013446" lon="11.000726640930953"><ele>269.0</ele><time>2026-04-05T13:37:26Z</time></trkpt><trkpt lat="43.79472526199575" lon="11.000868240324868"><ele>269.0</ele><time>2026-04-05T13:37:27Z</time></trkpt><trkpt lat="43.79462094387985" lon="11.000995628658044"><ele>269.0</ele><time>2026-04-05T13:37:28Z</time></trkpt><trkpt lat="43.79451618417917" lon="11.001128107387043"><ele>268.25</ele><time>2026-04-05T13:37:29Z</time></trkpt><trkpt lat="43.79441108362903" lon="11.00125012367128"><ele>267.5</ele><time>2026-04-05T13:37:30Z</time></trkpt><trkpt lat="43.794290126939394" lon="11.001365046174252"><ele>266.75</ele><time>2026-04-05T13:37:31Z</time></trkpt><trkpt lat="43.794162168544624" lon="11.001448578288619"><ele>266.0</ele><time>2026-04-05T13:37:32Z</time></trkpt><trkpt lat="43.79403805097436" lon="11.001515339185392"><ele>272.0</ele><time>2026-04-05T13:37:33Z</time></trkpt><trkpt lat="43.793916881729245" lon="11.001574408989915"><ele>278.0</ele><time>2026-04-05T13:37:34Z</time></trkpt><trkpt lat="43.79378027681414" lon="11.001613138153477"><ele>284.0</ele><time>2026-04-05T13:37:34.999Z</time></trkpt><trkpt lat="43.79363472879335" lon="11.001632923899082"><ele>290.0</ele><time>2026-04-05T13:37:35.999Z</time></trkpt><trkpt lat="43.79348338439564" lon="11.001652104244997"><ele>287.33333333333337</ele><time>2026-04-05T13:37:36.999Z</time></trkpt><trkpt lat="43.7933330577947" lon="11.001673852247693"><ele>284.6666666666667</ele><time>2026-04-05T13:37:37.999Z</time></trkpt><trkpt lat="43.793179963986255" lon="11.001681740562914"><ele>282.0</ele><time>2026-04-05T13:37:38.999Z</time></trkpt><trkpt lat="43.793030391882574" lon="11.00168094549738"><ele>291.3333333333333</ele><time>2026-04-05T13:37:39.999Z</time></trkpt><trkpt lat="43.79287653171584" lon="11.001653425981026"><ele>300.66666666666663</ele><time>2026-04-05T13:37:40.999Z</time></trkpt><trkpt lat="43.79272302438749" lon="11.001615911922448"><ele>310.0</ele><time>2026-04-05T13:37:41.999Z</time></trkpt><trkpt lat="43.792570853456404" lon="11.001592592077007"><ele>307.0</ele><time>2026-04-05T13:37:42.999Z</time></trkpt><trkpt lat="43.79242386556028" lon="11.001584393791456"><ele>304.0</ele><time>2026-04-05T13:37:43.999Z</time></trkpt><trkpt lat="43.792277476490426" lon="11.001606693799184"><ele>301.0</ele><time>2026-04-05T13:37:44.999Z</time></trkpt><trkpt lat="43.792136960151865" lon="11.001663922598542"><ele>298.0</ele><time>2026-04-05T13:37:45.999Z</time></trkpt><trkpt lat="43.792006027661756" lon="11.001757136458869"><ele>298.0</ele><time>2026-04-05T13:37:46.999Z</time></trkpt><trkpt lat="43.791886359806874" lon="11.001885666802771"><ele>298.0</ele><time>2026-04-05T13:37:47.999Z</time></trkpt><trkpt lat="43.79178305704861" lon="11.002032942251635"><ele>298.0</ele><time>2026-04-05T13:37:48.999Z</time></trkpt><trkpt lat="43.791704237881746" lon="11.002191254451594"><ele>298.0</ele><time>2026-04-05T13:37:49.999Z</time></trkpt><trkpt lat="43.79166992633522" lon="11.002370200942453"><ele>300.25</ele><time>2026-04-05T13:37:50.999Z</time></trkpt><trkpt lat="43.791668352246035" lon="11.002563484278895"><ele>302.5</ele><time>2026-04-05T13:37:51.999Z</time></trkpt><trkpt lat="43.791662818550854" lon="11.00274373693597"><ele>304.75</ele><time>2026-04-05T13:37:52.999Z</time></trkpt><trkpt lat="43.79160197975186" lon="11.002908614427808"><ele>307.0</ele><time>2026-04-05T13:37:53.999Z</time></trkpt><trkpt lat="43.79153899887108" lon="11.003080562601433"><ele>307.0</ele><time>2026-04-05T13:37:54.999Z</time></trkpt><trkpt lat="43.79145852648252" lon="11.003252177397217"><ele>307.0</ele><time>2026-04-05T13:37:55.999Z</time></trkpt><trkpt lat="43.791385449216634" lon="11.003421201856941"><ele>307.0</ele><time>2026-04-05T13:37:56.999Z</time></trkpt><trkpt lat="43.79131048264129" lon="11.003598635195193"><ele>307.0</ele><time>2026-04-05T13:37:57.999Z</time></trkpt><trkpt lat="43.79122528075393" lon="11.003757594563744"><ele>307.75</ele><time>2026-04-05T13:37:58.999Z</time></trkpt><trkpt lat="43.79112422116321" lon="11.003908452360841"><ele>308.5</ele><time>2026-04-05T13:37:59.999Z</time></trkpt><trkpt lat="43.791012156502816" lon="11.004045549849392"><ele>309.25</ele><time>2026-04-05T13:38:00.999Z</time></trkpt><trkpt lat="43.79088913922558" lon="11.004149646654374"><ele>310.0</ele><time>2026-04-05T13:38:01.999Z</time></trkpt><trkpt lat="43.79077487391509" lon="11.004275514863064"><ele>310.0</ele><time>2026-04-05T13:38:02.999Z</time></trkpt><trkpt lat="43.79064304593656" lon="11.004352425421295"><ele>310.0</ele><time>2026-04-05T13:38:03.999Z</time></trkpt><trkpt lat="43.790520617102366" lon="11.004443025082688"><ele>310.0</ele><time>2026-04-05T13:38:04.999Z</time></trkpt><trkpt lat="43.79041650659254" lon="11.004522870956498"><ele>310.0</ele><time>2026-04-05T13:38:05.999Z</time></trkpt><trkpt lat="43.7903100805504" lon="11.004593426970866"><ele>310.0</ele><time>2026-04-05T13:38:06.999Z</time></trkpt><trkpt lat="43.79020307587583" lon="11.004631446881177"><ele>310.0</ele><time>2026-04-05T13:38:07.999Z</time></trkpt><trkpt lat="43.79011806254394" lon="11.004608450717376"><ele>310.0</ele><time>2026-04-05T13:38:08.999Z</time></trkpt><trkpt lat="43.79006527673499" lon="11.00452392242305"><ele>310.0</ele><time>2026-04-05T13:38:09.999Z</time></trkpt><trkpt lat="43.79006347856917" lon="11.004400504673802"><ele>310.0</ele><time>2026-04-05T13:38:10.999Z</time></trkpt><trkpt lat="43.790106596306124" lon="11.004280380811226"><ele>310.8</ele><time>2026-04-05T13:38:11.999Z</time></trkpt><trkpt lat="43.79016961307808" lon="11.004177209806524"><ele>311.6</ele><time>2026-04-05T13:38:12.999Z</time></trkpt><trkpt lat="43.79020835172698" lon="11.004052222454085"><ele>312.4</ele><time>2026-04-05T13:38:13.999Z</time></trkpt><trkpt lat="43.790203214847025" lon="11.003898975971707"><ele>313.2</ele><time>2026-04-05T13:38:14.999Z</time></trkpt><trkpt lat="43.79017622125305" lon="11.003738303601228"><ele>314.0</ele><time>2026-04-05T13:38:15.999Z</time></trkpt><trkpt lat="43.79014898037551" lon="11.003573205962603"><ele>314.75</ele><time>2026-04-05T13:38:16.999Z</time></trkpt><trkpt lat="43.79012475717366" lon="11.003403860888314"><ele>315.5</ele><time>2026-04-05T13:38:17.999Z</time></trkpt><trkpt lat="43.790095237970064" lon="11.00323271902233"><ele>316.25</ele><time>2026-04-05T13:38:18.999Z</time></trkpt><trkpt lat="43.79006332965153" lon="11.003059198724413"><ele>317.0</ele><time>2026-04-05T13:38:19.999Z</time></trkpt><trkpt lat="43.79001009258027" lon="11.002890844310484"><ele>320.75</ele><time>2026-04-05T13:38:20.999Z</time></trkpt><trkpt lat="43.78992552577257" lon="11.00274239904464"><ele>324.5</ele><time>2026-04-05T13:38:21.999Z</time></trkpt><trkpt lat="43.78982445577798" lon="11.002620203285014"><ele>328.25</ele><time>2026-04-05T13:38:22.999Z</time></trkpt><trkpt lat="43.78972918793092" lon="11.002503659606539"><ele>332.0</ele><time>2026-04-05T13:38:23.999Z</time></trkpt><trkpt lat="43.789648141462145" lon="11.002362472178422"><ele>333.0</ele><time>2026-04-05T13:38:24.999Z</time></trkpt><trkpt lat="43.78960086516818" lon="11.002197561497939"><ele>334.0</ele><time>2026-04-05T13:38:25.999Z</time></trkpt><trkpt lat="43.789572532935594" lon="11.002044631209978"><ele>335.0</ele><time>2026-04-05T13:38:26.999Z</time></trkpt><trkpt lat="43.789569886685754" lon="11.00190583774738"><ele>336.0</ele><time>2026-04-05T13:38:27.999Z</time></trkpt><trkpt lat="43.789627078742825" lon="11.001774268961436"><ele>335.5</ele><time>2026-04-05T13:38:28.999Z</time></trkpt><trkpt lat="43.78968308357474" lon="11.001647845419273"><ele>335.0</ele><time>2026-04-05T13:38:29.999Z</time></trkpt><trkpt lat="43.78975758594841" lon="11.001524324383272"><ele>334.5</ele><time>2026-04-05T13:38:30.999Z</time></trkpt><trkpt lat="43.789843340092844" lon="11.001411615745273"><ele>334.0</ele><time>2026-04-05T13:38:31.999Z</time></trkpt><trkpt lat="43.78994930330523" lon="11.001325937928382"><ele>334.0</ele><time>2026-04-05T13:38:32.998Z</time></trkpt><trkpt lat="43.79005347595476" lon="11.001244096336851"><ele>334.0</ele><time>2026-04-05T13:38:33.998Z</time></trkpt><trkpt lat="43.79015355741745" lon="11.001158709413435"><ele>334.0</ele><time>2026-04-05T13:38:34.998Z</time></trkpt><trkpt lat="43.79022831879242" lon="11.001057829952705"><ele>334.0</ele><time>2026-04-05T13:38:35.998Z</time></trkpt><trkpt lat="43.790285895154405" lon="11.00092954809741"><ele>333.6</ele><time>2026-04-05T13:38:36.998Z</time></trkpt><trkpt lat="43.79026216854354" lon="11.00076284722795"><ele>333.2</ele><time>2026-04-05T13:38:37.998Z</time></trkpt><trkpt lat="43.79022009670983" lon="11.000608736690499"><ele>332.8</ele><time>2026-04-05T13:38:38.998Z</time></trkpt><trkpt lat="43.790180063250375" lon="11.000488131375954"><ele>332.40000000000003</ele><time>2026-04-05T13:38:39.998Z</time></trkpt><trkpt lat="43.7901698424657" lon="11.00035742146869"><ele>332.0</ele><time>2026-04-05T13:38:40.998Z</time></trkpt><trkpt lat="43.79020214388657" lon="11.000216278418259"><ele>337.40000000000003</ele><time>2026-04-05T13:38:41.998Z</time></trkpt><trkpt lat="43.79023835917065" lon="11.000081127555376"><ele>342.8</ele><time>2026-04-05T13:38:42.998Z</time></trkpt><trkpt lat="43.79027276699919" lon="10.999946573218224"><ele>348.2</ele><time>2026-04-05T13:38:43.998Z</time></trkpt><trkpt lat="43.79033413038969" lon="10.99982998758899"><ele>353.6</ele><time>2026-04-05T13:38:44.998Z</time></trkpt><trkpt lat="43.790418390453254" lon="10.999719938440562"><ele>359.0</ele><time>2026-04-05T13:38:45.998Z</time></trkpt><trkpt lat="43.79051890509449" lon="10.99961934204406"><ele>359.0</ele><time>2026-04-05T13:38:46.998Z</time></trkpt><trkpt lat="43.79059211328029" lon="10.99947201785871"><ele>359.0</ele><time>2026-04-05T13:38:47.998Z</time></trkpt><trkpt lat="43.79068033335487" lon="10.999342692409764"><ele>359.0</ele><time>2026-04-05T13:38:48.998Z</time></trkpt><trkpt lat="43.7907560555538" lon="10.999209222984696"><ele>359.0</ele><time>2026-04-05T13:38:49.998Z</time></trkpt><trkpt lat="43.79080879483254" lon="10.999090581453745"><ele>359.2</ele><time>2026-04-05T13:38:50.998Z</time></trkpt><trkpt lat="43.790832069781146" lon="10.998970381948364"><ele>359.4</ele><time>2026-04-05T13:38:51.998Z</time></trkpt><trkpt lat="43.790811327484846" lon="10.998849396825506"><ele>359.6</ele><time>2026-04-05T13:38:52.998Z</time></trkpt><trkpt lat="43.79073752794724" lon="10.998745394256852"><ele>359.8</ele><time>2026-04-05T13:38:53.998Z</time></trkpt><trkpt lat="43.79063914172332" lon="10.998670508001373"><ele>360.0</ele><time>2026-04-05T13:38:54.998Z</time></trkpt><trkpt lat="43.79053536878907" lon="10.998615345731656"><ele>360.0</ele><time>2026-04-05T13:38:55.998Z</time></trkpt><trkpt lat="43.79042334728553" lon="10.998555393390665"><ele>360.0</ele><time>2026-04-05T13:38:56.998Z</time></trkpt><trkpt lat="43.79031878674474" lon="10.998505846838954"><ele>360.0</ele><time>2026-04-05T13:38:57.998Z</time></trkpt><trkpt lat="43.79022354546975" lon="10.998462186421927"><ele>360.0</ele><time>2026-04-05T13:38:58.998Z</time></trkpt><trkpt lat="43.79013030251756" lon="10.998396687467087"><ele>360.0</ele><time>2026-04-05T13:39:00Z</time></trkpt><trkpt lat="43.79007418659471" lon="10.998284270379102"><ele>359.2</ele><time>2026-04-05T13:39:01Z</time></trkpt><trkpt lat="43.79006505084499" lon="10.998153814589761"><ele>358.4</ele><time>2026-04-05T13:39:02Z</time></trkpt><trkpt lat="43.79010035593951" lon="10.998036563644837"><ele>357.6</ele><time>2026-04-05T13:39:03Z</time></trkpt><trkpt lat="43.79019637861964" lon="10.997975658221797"><ele>356.8</ele><time>2026-04-05T13:39:04Z</time></trkpt><trkpt lat="43.79028380721885" lon="10.997892893072331"><ele>356.0</ele><time>2026-04-05T13:39:05Z</time></trkpt><trkpt lat="43.790379830431064" lon="10.997820397869505"><ele>358.4</ele><time>2026-04-05T13:39:06Z</time></trkpt><trkpt lat="43.79044788982691" lon="10.997732002955582"><ele>360.8</ele><time>2026-04-05T13:39:07Z</time></trkpt><trkpt lat="43.79047343912126" lon="10.997593464705155"><ele>363.2</ele><time>2026-04-05T13:39:08Z</time></trkpt><trkpt lat="43.79045304236458" lon="10.99744363852902"><ele>365.59999999999997</ele><time>2026-04-05T13:39:09Z</time></trkpt><trkpt lat="43.79040135837294" lon="10.997303501889668"><ele>368.0</ele><time>2026-04-05T13:39:10Z</time></trkpt><trkpt lat="43.79034491935494" lon="10.997157097316828"><ele>368.0</ele><time>2026-04-05T13:39:11Z</time></trkpt><trkpt lat="43.79029303447602" lon="10.996991956454766"><ele>368.0</ele><time>2026-04-05T13:39:12Z</time></trkpt><trkpt lat="43.790233328327155" lon="10.996825296185355"><ele>368.0</ele><time>2026-04-05T13:39:13Z</time></trkpt><trkpt lat="43.79017292438782" lon="10.99664963416613"><ele>368.0</ele><time>2026-04-05T13:39:14Z</time></trkpt><trkpt lat="43.79011072826978" lon="10.996464167769046"><ele>367.5</ele><time>2026-04-05T13:39:15Z</time></trkpt><trkpt lat="43.790046184011715" lon="10.9962842789967"><ele>367.0</ele><time>2026-04-05T13:39:16Z</time></trkpt><trkpt lat="43.7899918629757" lon="10.996096152735836"><ele>366.5</ele><time>2026-04-05T13:39:17Z</time></trkpt><trkpt lat="43.7899639001415" lon="10.995895267289194"><ele>366.0</ele><time>2026-04-05T13:39:18Z</time></trkpt><trkpt lat="43.789953727859164" lon="10.995687297759051"><ele>366.0</ele><time>2026-04-05T13:39:19Z</time></trkpt><trkpt lat="43.78994512311004" lon="10.995472955113438"><ele>366.0</ele><time>2026-04-05T13:39:20Z</time></trkpt><trkpt lat="43.78993373205071" lon="10.99526641303598"><ele>366.0</ele><time>2026-04-05T13:39:21Z</time></trkpt><trkpt lat="43.789922754660815" lon="10.99506859340342"><ele>366.0</ele><time>2026-04-05T13:39:22Z</time></trkpt><trkpt lat="43.789910685586015" lon="10.994888471837388"><ele>366.75</ele><time>2026-04-05T13:39:23Z</time></trkpt><trkpt lat="43.78989859631024" lon="10.994714892511228"><ele>367.5</ele><time>2026-04-05T13:39:24Z</time></trkpt><trkpt lat="43.78987338575743" lon="10.994551498290525"><ele>368.25</ele><time>2026-04-05T13:39:25Z</time></trkpt><trkpt lat="43.78981393429109" lon="10.994393120683906"><ele>369.0</ele><time>2026-04-05T13:39:26Z</time></trkpt><trkpt lat="43.78973323805937" lon="10.994241766955222"><ele>369.5</ele><time>2026-04-05T13:39:27Z</time></trkpt><trkpt lat="43.78966512673481" lon="10.994097952649952"><ele>370.0</ele><time>2026-04-05T13:39:28Z</time></trkpt><trkpt lat="43.78962335513049" lon="10.993954353876816"><ele>370.5</ele><time>2026-04-05T13:39:29Z</time></trkpt><trkpt lat="43.78962219744214" lon="10.993790435136477"><ele>371.0</ele><time>2026-04-05T13:39:30Z</time></trkpt><trkpt lat="43.789661725736245" lon="10.993615109820142"><ele>371.0</ele><time>2026-04-05T13:39:31Z</time></trkpt><trkpt lat="43.78971684691377" lon="10.993442922994854"><ele>371.0</ele><time>2026-04-05T13:39:32Z</time></trkpt><trkpt lat="43.78976927962901" lon="10.993264971123287"><ele>371.0</ele><time>2026-04-05T13:39:33Z</time></trkpt><trkpt lat="43.78980916819302" lon="10.993102152221242"><ele>371.0</ele><time>2026-04-05T13:39:34Z</time></trkpt><trkpt lat="43.78983632083327" lon="10.992925261371084"><ele>372.25</ele><time>2026-04-05T13:39:35Z</time></trkpt><trkpt lat="43.78982687953634" lon="10.992736028727075"><ele>373.5</ele><time>2026-04-05T13:39:36Z</time></trkpt><trkpt lat="43.789802973393826" lon="10.992555272692911"><ele>374.75</ele><time>2026-04-05T13:39:37Z</time></trkpt><trkpt lat="43.78980021615978" lon="10.992365768960953"><ele>376.0</ele><time>2026-04-05T13:39:38Z</time></trkpt><trkpt lat="43.78983112979464" lon="10.992185467288678"><ele>377.8</ele><time>2026-04-05T13:39:39Z</time></trkpt><trkpt lat="43.789858801465726" lon="10.99203744939364"><ele>379.6</ele><time>2026-04-05T13:39:40Z</time></trkpt><trkpt lat="43.78985169180663" lon="10.991909831209043"><ele>381.4</ele><time>2026-04-05T13:39:41Z</time></trkpt><trkpt lat="43.78981980853567" lon="10.991805940244326"><ele>383.2</ele><time>2026-04-05T13:39:42Z</time></trkpt><trkpt lat="43.78974432588492" lon="10.991729255002918"><ele>385.0</ele><time>2026-04-05T13:39:42.999Z</time></trkpt><trkpt lat="43.78964616762703" lon="10.9916955342664"><ele>385.2</ele><time>2026-04-05T13:39:43.999Z</time></trkpt><trkpt lat="43.78953978668885" lon="10.991665185879425"><ele>385.4</ele><time>2026-04-05T13:39:44.999Z</time></trkpt><trkpt lat="43.78944323365645" lon="10.991632954698083"><ele>385.6</ele><time>2026-04-05T13:39:45.999Z</time></trkpt><trkpt lat="43.78936561093761" lon="10.991582833827684"><ele>385.8</ele><time>2026-04-05T13:39:46.999Z</time></trkpt><trkpt lat="43.78932612437156" lon="10.991480603325792"><ele>386.0</ele><time>2026-04-05T13:39:47.999Z</time></trkpt><trkpt lat="43.78935325336723" lon="10.991348079704567"><ele>386.0</ele><time>2026-04-05T13:39:48.999Z</time></trkpt><trkpt lat="43.78937389108588" lon="10.991222082353264"><ele>386.0</ele><time>2026-04-05T13:39:49.999Z</time></trkpt><trkpt lat="43.78941153954496" lon="10.991078147651322"><ele>386.0</ele><time>2026-04-05T13:39:50.999Z</time></trkpt><trkpt lat="43.78943066331853" lon="10.990939066308247"><ele>386.0</ele><time>2026-04-05T13:39:51.999Z</time></trkpt><trkpt lat="43.78941232521716" lon="10.990821133082711"><ele>386.0</ele><time>2026-04-05T13:39:52.999Z</time></trkpt><trkpt lat="43.78935086930936" lon="10.990737120545198"><ele>389.6</ele><time>2026-04-05T13:39:53.999Z</time></trkpt><trkpt lat="43.789252270014224" lon="10.990722171973868"><ele>393.20000000000005</ele><time>2026-04-05T13:39:54.999Z</time></trkpt><trkpt lat="43.78916879944438" lon="10.990777160621416"><ele>396.79999999999995</ele><time>2026-04-05T13:39:55.999Z</time></trkpt><trkpt lat="43.78912436521469" lon="10.990896592877817"><ele>400.4</ele><time>2026-04-05T13:39:56.999Z</time></trkpt><trkpt lat="43.78909398906233" lon="10.991039712298727"><ele>404.0</ele><time>2026-04-05T13:39:57.999Z</time></trkpt><trkpt lat="43.78907135366253" lon="10.991189194526909"><ele>404.0</ele><time>2026-04-05T13:39:58.999Z</time></trkpt><trkpt lat="43.78900833164977" lon="10.991327001528823"><ele>404.0</ele><time>2026-04-05T13:39:59.999Z</time></trkpt><trkpt lat="43.78893266554745" lon="10.991450873382728"><ele>404.0</ele><time>2026-04-05T13:40:00.999Z</time></trkpt><trkpt lat="43.788867446393766" lon="10.991575133126661"><ele>404.0</ele><time>2026-04-05T13:40:01.999Z</time></trkpt><trkpt lat="43.788807615609535" lon="10.991677287358348"><ele>404.0</ele><time>2026-04-05T13:40:02.999Z</time></trkpt><trkpt lat="43.78873982857895" lon="10.991757414225079"><ele>403.25</ele><time>2026-04-05T13:40:03.999Z</time></trkpt><trkpt lat="43.78863508329629" lon="10.991784236420466"><ele>402.5</ele><time>2026-04-05T13:40:04.999Z</time></trkpt><trkpt lat="43.7885239050947" lon="10.991763384706328"><ele>401.75</ele><time>2026-04-05T13:40:05.999Z</time></trkpt><trkpt lat="43.7884058730872" lon="10.99174249094656"><ele>401.0</ele><time>2026-04-05T13:40:06.999Z</time></trkpt><trkpt lat="43.788278981046346" lon="10.99172557446157"><ele>401.0</ele><time>2026-04-05T13:40:07.999Z</time></trkpt><trkpt lat="43.78814972693433" lon="10.991707531666977"><ele>401.0</ele><time>2026-04-05T13:40:08.999Z</time></trkpt><trkpt lat="43.78802358133671" lon="10.991694295609785"><ele>401.0</ele><time>2026-04-05T13:40:09.999Z</time></trkpt><trkpt lat="43.78788566215751" lon="10.991671419255155"><ele>401.0</ele><time>2026-04-05T13:40:10.999Z</time></trkpt><trkpt lat="43.787744401915674" lon="10.991630821875166"><ele>403.75</ele><time>2026-04-05T13:40:11.999Z</time></trkpt><trkpt lat="43.787601702260446" lon="10.991607601959963"><ele>406.5</ele><time>2026-04-05T13:40:12.999Z</time></trkpt><trkpt lat="43.787459696529034" lon="10.991591362322843"><ele>409.25</ele><time>2026-04-05T13:40:13.999Z</time></trkpt><trkpt lat="43.78732093983835" lon="10.991572061192848"><ele>412.0</ele><time>2026-04-05T13:40:14.999Z</time></trkpt><trkpt lat="43.787180057327724" lon="10.991550617314141"><ele>412.0</ele><time>2026-04-05T13:40:15.999Z</time></trkpt><trkpt lat="43.787055209633145" lon="10.991521969793675"><ele>412.0</ele><time>2026-04-05T13:40:16.999Z</time></trkpt><trkpt lat="43.78694094141271" lon="10.991478817814762"><ele>412.0</ele><time>2026-04-05T13:40:17.999Z</time></trkpt><trkpt lat="43.78683424276548" lon="10.991391364008386"><ele>412.0</ele><time>2026-04-05T13:40:18.999Z</time></trkpt><trkpt lat="43.786741469762546" lon="10.99126055541062"><ele>412.5</ele><time>2026-04-05T13:40:19.999Z</time></trkpt><trkpt lat="43.78665864273073" lon="10.991119827455858"><ele>413.0</ele><time>2026-04-05T13:40:20.999Z</time></trkpt><trkpt lat="43.786563928789995" lon="10.990980243220287"><ele>413.5</ele><time>2026-04-05T13:40:21.999Z</time></trkpt><trkpt lat="43.78647759719426" lon="10.990853020273844"><ele>414.0</ele><time>2026-04-05T13:40:22.999Z</time></trkpt><trkpt lat="43.786411219187265" lon="10.99073597615545"><ele>416.6</ele><time>2026-04-05T13:40:23.999Z</time></trkpt><trkpt lat="43.78636450500449" lon="10.990626887062184"><ele>419.2</ele><time>2026-04-05T13:40:24.999Z</time></trkpt><trkpt lat="43.78634915423006" lon="10.990521196364334"><ele>421.80000000000007</ele><time>2026-04-05T13:40:25.999Z</time></trkpt><trkpt lat="43.786380039896514" lon="10.990380174289044"><ele>424.40000000000003</ele><time>2026-04-05T13:40:26.999Z</time></trkpt><trkpt lat="43.78643752834313" lon="10.99024277454804"><ele>427.0</ele><time>2026-04-05T13:40:27.999Z</time></trkpt><trkpt lat="43.78647824163752" lon="10.990081680012675"><ele>427.0</ele><time>2026-04-05T13:40:28.999Z</time></trkpt><trkpt lat="43.78652264220401" lon="10.989909715094537"><ele>427.0</ele><time>2026-04-05T13:40:29.999Z</time></trkpt><trkpt lat="43.7865660139277" lon="10.989723840619254"><ele>427.0</ele><time>2026-04-05T13:40:30.999Z</time></trkpt><trkpt lat="43.78661901732474" lon="10.989531686867288"><ele>427.0</ele><time>2026-04-05T13:40:31.999Z</time></trkpt><trkpt lat="43.786670828971275" lon="10.989336575468782"><ele>426.5</ele><time>2026-04-05T13:40:32.999Z</time></trkpt><trkpt lat="43.786714741333775" lon="10.989151163854372"><ele>426.0</ele><time>2026-04-05T13:40:33.999Z</time></trkpt><trkpt lat="43.78675318361496" lon="10.988972248720533"><ele>425.5</ele><time>2026-04-05T13:40:34.999Z</time></trkpt><trkpt lat="43.786750744645566" lon="10.988795523272707"><ele>425.0</ele><time>2026-04-05T13:40:35.999Z</time></trkpt><trkpt lat="43.78671019082386" lon="10.988616149260174"><ele>425.0</ele><time>2026-04-05T13:40:36.999Z</time></trkpt><trkpt lat="43.786665025912626" lon="10.988455583415858"><ele>425.0</ele><time>2026-04-05T13:40:37.999Z</time></trkpt><trkpt lat="43.78661603823106" lon="10.98833161148139"><ele>425.0</ele><time>2026-04-05T13:40:38.999Z</time></trkpt><trkpt lat="43.786643602973534" lon="10.988187933929362"><ele>425.0</ele><time>2026-04-05T13:40:39.998Z</time></trkpt><trkpt lat="43.7867067486054" lon="10.988061191008617"><ele>425.0</ele><time>2026-04-05T13:40:40.998Z</time></trkpt><trkpt lat="43.78677444315614" lon="10.987938707508604"><ele>424.25</ele><time>2026-04-05T13:40:41.998Z</time></trkpt><trkpt lat="43.78680882366986" lon="10.98777755529942"><ele>423.5</ele><time>2026-04-05T13:40:42.998Z</time></trkpt><trkpt lat="43.78682625001067" lon="10.987613846348333"><ele>422.75</ele><time>2026-04-05T13:40:43.998Z</time></trkpt><trkpt lat="43.78679101606659" lon="10.987470460426966"><ele>422.0</ele><time>2026-04-05T13:40:44.998Z</time></trkpt><trkpt lat="43.786697745633916" lon="10.987371683417395"><ele>423.75</ele><time>2026-04-05T13:40:45.998Z</time></trkpt><trkpt lat="43.78658821539118" lon="10.987352645481964"><ele>425.5</ele><time>2026-04-05T13:40:46.998Z</time></trkpt><trkpt lat="43.786464197630906" lon="10.98733181520689"><ele>427.25</ele><time>2026-04-05T13:40:47.998Z</time></trkpt><trkpt lat="43.78633042003662" lon="10.987338270830996"><ele>429.0</ele><time>2026-04-05T13:40:48.998Z</time></trkpt><trkpt lat="43.78619284198493" lon="10.987369524652157"><ele>429.0</ele><time>2026-04-05T13:40:49.998Z</time></trkpt><trkpt lat="43.78605488948615" lon="10.987415293489695"><ele>429.0</ele><time>2026-04-05T13:40:50.998Z</time></trkpt><trkpt lat="43.785931572919345" lon="10.98745870480422"><ele>429.0</ele><time>2026-04-05T13:40:51.998Z</time></trkpt><trkpt lat="43.78581155159191" lon="10.987473784546152"><ele>429.0</ele><time>2026-04-05T13:40:52.998Z</time></trkpt><trkpt lat="43.785684010251444" lon="10.987448063859128"><ele>426.75</ele><time>2026-04-05T13:40:53.998Z</time></trkpt><trkpt lat="43.785568484970625" lon="10.987377623002896"><ele>424.5</ele><time>2026-04-05T13:40:54.998Z</time></trkpt><trkpt lat="43.78545469062694" lon="10.98730704324979"><ele>422.25</ele><time>2026-04-05T13:40:55.998Z</time></trkpt><trkpt lat="43.785355494605184" lon="10.987193827156982"><ele>420.0</ele><time>2026-04-05T13:40:56.998Z</time></trkpt><trkpt lat="43.78527222976518" lon="10.987044670996314"><ele>420.0</ele><time>2026-04-05T13:40:57.998Z</time></trkpt><trkpt lat="43.78519195886808" lon="10.986864300288861"><ele>420.0</ele><time>2026-04-05T13:40:58.998Z</time></trkpt><trkpt lat="43.785107965529846" lon="10.986709420332499"><ele>420.0</ele><time>2026-04-05T13:40:59.998Z</time></trkpt><trkpt lat="43.78505056023973" lon="10.986552566196574"><ele>420.0</ele><time>2026-04-05T13:41:00.998Z</time></trkpt><trkpt lat="43.785001349892994" lon="10.986404677713166"><ele>420.2</ele><time>2026-04-05T13:41:01.998Z</time></trkpt><trkpt lat="43.78496755598326" lon="10.98627001220005"><ele>420.4</ele><time>2026-04-05T13:41:02.998Z</time></trkpt><trkpt lat="43.784954620657146" lon="10.98613499005643"><ele>420.6</ele><time>2026-04-05T13:41:03.998Z</time></trkpt><trkpt lat="43.784965675584054" lon="10.985993842155569"><ele>420.8</ele><time>2026-04-05T13:41:04.998Z</time></trkpt><trkpt lat="43.78502622182353" lon="10.985852971546112"><ele>421.0</ele><time>2026-04-05T13:41:06Z</time></trkpt><trkpt lat="43.785070572128774" lon="10.985687420619252"><ele>421.0</ele><time>2026-04-05T13:41:07Z</time></trkpt><trkpt lat="43.785147196900155" lon="10.98553882400728"><ele>421.0</ele><time>2026-04-05T13:41:08Z</time></trkpt><trkpt lat="43.785190545530234" lon="10.985358155384256"><ele>421.0</ele><time>2026-04-05T13:41:09Z</time></trkpt><trkpt lat="43.78521016386621" lon="10.985172031374761"><ele>421.0</ele><time>2026-04-05T13:41:10Z</time></trkpt><trkpt lat="43.78520058716089" lon="10.984966457047165"><ele>418.6666666666667</ele><time>2026-04-05T13:41:11Z</time></trkpt><trkpt lat="43.785176347497995" lon="10.984759032870917"><ele>416.33333333333337</ele><time>2026-04-05T13:41:12Z</time></trkpt><trkpt lat="43.7851543402169" lon="10.984547109008842"><ele>414.0</ele><time>2026-04-05T13:41:13Z</time></trkpt><trkpt lat="43.78513847370117" lon="10.984338381428323"><ele>413.5</ele><time>2026-04-05T13:41:14Z</time></trkpt><trkpt lat="43.785125194021745" lon="10.984140088297611"><ele>413.0</ele><time>2026-04-05T13:41:15Z</time></trkpt><trkpt lat="43.785107975717104" lon="10.983933628381825"><ele>412.5</ele><time>2026-04-05T13:41:16Z</time></trkpt><trkpt lat="43.785051902987234" lon="10.983735624188041"><ele>412.0</ele><time>2026-04-05T13:41:17Z</time></trkpt><trkpt lat="43.784943723295356" lon="10.983558025372822"><ele>412.0</ele><time>2026-04-05T13:41:18Z</time></trkpt><trkpt lat="43.7848253614057" lon="10.983375996720648"><ele>412.0</ele><time>2026-04-05T13:41:19Z</time></trkpt><trkpt lat="43.78472287244906" lon="10.983197032069572"><ele>412.0</ele><time>2026-04-05T13:41:20Z</time></trkpt><trkpt lat="43.78463780713521" lon="10.983032481589388"><ele>414.0</ele><time>2026-04-05T13:41:21Z</time></trkpt><trkpt lat="43.78454917821376" lon="10.98287286607767"><ele>416.0</ele><time>2026-04-05T13:41:22Z</time></trkpt><trkpt lat="43.78446916118048" lon="10.982725649734972"><ele>418.0</ele><time>2026-04-05T13:41:23Z</time></trkpt><trkpt lat="43.78438422143772" lon="10.982572105360445"><ele>420.0</ele><time>2026-04-05T13:41:24Z</time></trkpt><trkpt lat="43.78430658865315" lon="10.98240754702307"><ele>414.75</ele><time>2026-04-05T13:41:25Z</time></trkpt><trkpt lat="43.78423324839074" lon="10.982230775803183"><ele>409.5</ele><time>2026-04-05T13:41:26Z</time></trkpt><trkpt lat="43.784171307420856" lon="10.982050428110375"><ele>404.25</ele><time>2026-04-05T13:41:27Z</time></trkpt><trkpt lat="43.784110111723166" lon="10.981876346067816"><ele>399.0</ele><time>2026-04-05T13:41:28Z</time></trkpt><trkpt lat="43.78405329587717" lon="10.981719147307155"><ele>400.75</ele><time>2026-04-05T13:41:29Z</time></trkpt><trkpt lat="43.78400597129746" lon="10.9815550068226"><ele>402.5</ele><time>2026-04-05T13:41:30Z</time></trkpt><trkpt lat="43.78396668360205" lon="10.981371906234411"><ele>404.25</ele><time>2026-04-05T13:41:31Z</time></trkpt><trkpt lat="43.78394545143576" lon="10.981189240434796"><ele>406.0</ele><time>2026-04-05T13:41:32Z</time></trkpt><trkpt lat="43.78392869400668" lon="10.981023211727166"><ele>406.0</ele><time>2026-04-05T13:41:33Z</time></trkpt><trkpt lat="43.78392494717699" lon="10.98087159233935"><ele>406.0</ele><time>2026-04-05T13:41:34Z</time></trkpt><trkpt lat="43.783919718421664" lon="10.980721613072063"><ele>406.0</ele><time>2026-04-05T13:41:35Z</time></trkpt><trkpt lat="43.78391983023912" lon="10.980557804877625"><ele>406.0</ele><time>2026-04-05T13:41:36Z</time></trkpt><trkpt lat="43.78395277448887" lon="10.980394235840818"><ele>406.5</ele><time>2026-04-05T13:41:37Z</time></trkpt><trkpt lat="43.78401339026087" lon="10.980248398611893"><ele>407.0</ele><time>2026-04-05T13:41:38Z</time></trkpt><trkpt lat="43.78409183612765" lon="10.98011422624013"><ele>407.5</ele><time>2026-04-05T13:41:39Z</time></trkpt><trkpt lat="43.78419333518789" lon="10.980010008238635"><ele>408.0</ele><time>2026-04-05T13:41:40Z</time></trkpt><trkpt lat="43.784286400497535" lon="10.979921008761348"><ele>412.0</ele><time>2026-04-05T13:41:41Z</time></trkpt><trkpt lat="43.7843506041246" lon="10.97980358969241"><ele>416.0</ele><time>2026-04-05T13:41:42Z</time></trkpt><trkpt lat="43.78438860837198" lon="10.979656638667926"><ele>420.0</ele><time>2026-04-05T13:41:43Z</time></trkpt><trkpt lat="43.784388878802716" lon="10.97948981197223"><ele>424.0</ele><time>2026-04-05T13:41:44Z</time></trkpt><trkpt lat="43.78436228299193" lon="10.979339109108988"><ele>424.0</ele><time>2026-04-05T13:41:45Z</time></trkpt><trkpt lat="43.784349524866364" lon="10.979189696064616"><ele>424.0</ele><time>2026-04-05T13:41:46Z</time></trkpt><trkpt lat="43.78438128895493" lon="10.979038638741201"><ele>424.0</ele><time>2026-04-05T13:41:47Z</time></trkpt><trkpt lat="43.7844472621987" lon="10.978889047920635"><ele>424.0</ele><time>2026-04-05T13:41:48Z</time></trkpt><trkpt lat="43.78453390436592" lon="10.978738261009454"><ele>421.75</ele><time>2026-04-05T13:41:48.999Z</time></trkpt><trkpt lat="43.784621059516596" lon="10.97859233522313"><ele>419.5</ele><time>2026-04-05T13:41:49.999Z</time></trkpt><trkpt lat="43.784706789565384" lon="10.978456887439433"><ele>417.25</ele><time>2026-04-05T13:41:50.999Z</time></trkpt><trkpt lat="43.78480615118779" lon="10.978339695764804"><ele>415.0</ele><time>2026-04-05T13:41:51.999Z</time></trkpt><trkpt lat="43.784914502083886" lon="10.978237402000577"><ele>414.8</ele><time>2026-04-05T13:41:52.999Z</time></trkpt><trkpt lat="43.78502351947418" lon="10.978146644131016"><ele>414.6</ele><time>2026-04-05T13:41:53.999Z</time></trkpt><trkpt lat="43.78513079238547" lon="10.978079238518818"><ele>414.4</ele><time>2026-04-05T13:41:54.999Z</time></trkpt><trkpt lat="43.78523417512735" lon="10.978025235545456"><ele>414.2</ele><time>2026-04-05T13:41:55.999Z</time></trkpt><trkpt lat="43.785315648002" lon="10.977962376813759"><ele>414.0</ele><time>2026-04-05T13:41:56.999Z</time></trkpt><trkpt lat="43.7853766432409" lon="10.97785719744239"><ele>414.0</ele><time>2026-04-05T13:41:57.999Z</time></trkpt><trkpt lat="43.78539916598621" lon="10.977716476586188"><ele>414.0</ele><time>2026-04-05T13:41:58.999Z</time></trkpt><trkpt lat="43.785368382607615" lon="10.977581180371926"><ele>414.0</ele><time>2026-04-05T13:41:59.999Z</time></trkpt><trkpt lat="43.78529513725282" lon="10.977472911250459"><ele>414.0</ele><time>2026-04-05T13:42:00.999Z</time></trkpt><trkpt lat="43.78519267204798" lon="10.977409571871162"><ele>414.0</ele><time>2026-04-05T13:42:01.999Z</time></trkpt><trkpt lat="43.785081319061284" lon="10.977387555304347"><ele>408.5</ele><time>2026-04-05T13:42:02.999Z</time></trkpt><trkpt lat="43.784950186940755" lon="10.97732353790518"><ele>403.0</ele><time>2026-04-05T13:42:03.999Z</time></trkpt><trkpt lat="43.784811993890436" lon="10.97728726466428"><ele>397.5</ele><time>2026-04-05T13:42:04.999Z</time></trkpt><trkpt lat="43.7846655789666" lon="10.977257724218722"><ele>392.0</ele><time>2026-04-05T13:42:05.999Z</time></trkpt><trkpt lat="43.78450689699924" lon="10.977239488612048"><ele>388.0</ele><time>2026-04-05T13:42:06.999Z</time></trkpt><trkpt lat="43.784342133640195" lon="10.977228624338332"><ele>384.0</ele><time>2026-04-05T13:42:07.999Z</time></trkpt><trkpt lat="43.784174091384024" lon="10.977232750593132"><ele>380.0</ele><time>2026-04-05T13:42:08.999Z</time></trkpt><trkpt lat="43.784008795931086" lon="10.977250520572733"><ele>380.0</ele><time>2026-04-05T13:42:09.999Z</time></trkpt><trkpt lat="43.783858034141645" lon="10.977290583079307"><ele>380.0</ele><time>2026-04-05T13:42:10.999Z</time></trkpt><trkpt lat="43.78371608475137" lon="10.977351144319373"><ele>380.0</ele><time>2026-04-05T13:42:11.999Z</time></trkpt><trkpt lat="43.78357649155527" lon="10.977428401883795"><ele>380.5</ele><time>2026-04-05T13:42:12.999Z</time></trkpt><trkpt lat="43.783442209095526" lon="10.977491319509562"><ele>381.0</ele><time>2026-04-05T13:42:13.999Z</time></trkpt><trkpt lat="43.78331095285215" lon="10.977545303403954"><ele>381.5</ele><time>2026-04-05T13:42:14.999Z</time></trkpt><trkpt lat="43.78318292620283" lon="10.977573557563483"><ele>382.0</ele><time>2026-04-05T13:42:15.999Z</time></trkpt><trkpt lat="43.78302861870371" lon="10.977584743759872"><ele>379.0</ele><time>2026-04-05T13:42:16.999Z</time></trkpt><trkpt lat="43.78288314055983" lon="10.977561421705529"><ele>376.0</ele><time>2026-04-05T13:42:17.999Z</time></trkpt><trkpt lat="43.7827464710503" lon="10.977532145343027"><ele>373.0</ele><time>2026-04-05T13:42:18.999Z</time></trkpt><trkpt lat="43.78261729644427" lon="10.977489442785487"><ele>370.0</ele><time>2026-04-05T13:42:19.999Z</time></trkpt><trkpt lat="43.78249163295636" lon="10.977404588103301"><ele>370.0</ele><time>2026-04-05T13:42:20.999Z</time></trkpt><trkpt lat="43.78238170375181" lon="10.977296364545404"><ele>370.0</ele><time>2026-04-05T13:42:21.999Z</time></trkpt><trkpt lat="43.782266989055124" lon="10.97720940603632"><ele>370.0</ele><time>2026-04-05T13:42:22.999Z</time></trkpt><trkpt lat="43.78212866610943" lon="10.977171121167945"><ele>370.0</ele><time>2026-04-05T13:42:23.999Z</time></trkpt><trkpt lat="43.78197761553874" lon="10.977188334948789"><ele>367.3333333333333</ele><time>2026-04-05T13:42:24.999Z</time></trkpt><trkpt lat="43.781820567752526" lon="10.977234788102601"><ele>364.6666666666667</ele><time>2026-04-05T13:42:25.999Z</time></trkpt><trkpt lat="43.78166325400625" lon="10.97730023848917"><ele>362.0</ele><time>2026-04-05T13:42:26.999Z</time></trkpt><trkpt lat="43.781517111767414" lon="10.977347502889067"><ele>362.0</ele><time>2026-04-05T13:42:27.999Z</time></trkpt><trkpt lat="43.781370916424734" lon="10.977392341967983"><ele>362.0</ele><time>2026-04-05T13:42:28.999Z</time></trkpt><trkpt lat="43.78123533347494" lon="10.977439292033958"><ele>362.0</ele><time>2026-04-05T13:42:29.999Z</time></trkpt><trkpt lat="43.78110736467813" lon="10.977474292593543"><ele>362.0</ele><time>2026-04-05T13:42:30.999Z</time></trkpt><trkpt lat="43.78098419893285" lon="10.977497607819414"><ele>362.75</ele><time>2026-04-05T13:42:31.999Z</time></trkpt><trkpt lat="43.78085830073305" lon="10.977508216615144"><ele>363.5</ele><time>2026-04-05T13:42:32.999Z</time></trkpt><trkpt lat="43.780732731231346" lon="10.97750527624476"><ele>364.25</ele><time>2026-04-05T13:42:33.999Z</time></trkpt><trkpt lat="43.78061638821208" lon="10.977481252466669"><ele>365.0</ele><time>2026-04-05T13:42:34.999Z</time></trkpt><trkpt lat="43.78050061297063" lon="10.977415589240401"><ele>365.0</ele><time>2026-04-05T13:42:35.999Z</time></trkpt><trkpt lat="43.78039575928377" lon="10.977300281383531"><ele>365.0</ele><time>2026-04-05T13:42:36.999Z</time></trkpt><trkpt lat="43.78029200867626" lon="10.9771725464019"><ele>365.0</ele><time>2026-04-05T13:42:37.999Z</time></trkpt><trkpt lat="43.780193210444004" lon="10.977064905897414"><ele>365.0</ele><time>2026-04-05T13:42:38.999Z</time></trkpt><trkpt lat="43.780072610385275" lon="10.976992797676159"><ele>361.75</ele><time>2026-04-05T13:42:39.999Z</time></trkpt><trkpt lat="43.77994695544522" lon="10.976973526311415"><ele>358.5</ele><time>2026-04-05T13:42:40.999Z</time></trkpt><trkpt lat="43.77983122733073" lon="10.976999132429539"><ele>355.25</ele><time>2026-04-05T13:42:41.999Z</time></trkpt><trkpt lat="43.77971936731119" lon="10.977031532818552"><ele>352.0</ele><time>2026-04-05T13:42:42.999Z</time></trkpt><trkpt lat="43.779597927548245" lon="10.977036912715914"><ele>352.0</ele><time>2026-04-05T13:42:43.999Z</time></trkpt><trkpt lat="43.77947701122848" lon="10.97699033681847"><ele>352.0</ele><time>2026-04-05T13:42:44.999Z</time></trkpt><trkpt lat="43.779370371997004" lon="10.976906276645279"><ele>352.0</ele><time>2026-04-05T13:42:45.999Z</time></trkpt><trkpt lat="43.77928062928486" lon="10.976783247653934"><ele>352.0</ele><time>2026-04-05T13:42:46.998Z</time></trkpt><trkpt lat="43.77920490427915" lon="10.976626802702317"><ele>352.5</ele><time>2026-04-05T13:42:47.998Z</time></trkpt><trkpt lat="43.77914208598589" lon="10.976463219061792"><ele>353.0</ele><time>2026-04-05T13:42:48.998Z</time></trkpt><trkpt lat="43.77909681049155" lon="10.976302365967868"><ele>353.5</ele><time>2026-04-05T13:42:49.998Z</time></trkpt><trkpt lat="43.77908270472652" lon="10.976129510174479"><ele>354.0</ele><time>2026-04-05T13:42:50.998Z</time></trkpt><trkpt lat="43.7791011428969" lon="10.975970814400611"><ele>353.5</ele><time>2026-04-05T13:42:51.998Z</time></trkpt><trkpt lat="43.77915058567879" lon="10.975814309725834"><ele>353.0</ele><time>2026-04-05T13:42:52.998Z</time></trkpt><trkpt lat="43.77924266895718" lon="10.975682450996656"><ele>352.5</ele><time>2026-04-05T13:42:53.998Z</time></trkpt><trkpt lat="43.779336685131604" lon="10.975518926020744"><ele>352.0</ele><time>2026-04-05T13:42:54.998Z</time></trkpt><trkpt lat="43.77941930225076" lon="10.97534921860987"><ele>352.0</ele><time>2026-04-05T13:42:55.998Z</time></trkpt><trkpt lat="43.77949252543755" lon="10.975195860493974"><ele>352.0</ele><time>2026-04-05T13:42:56.998Z</time></trkpt><trkpt lat="43.779568572168984" lon="10.97504938616769"><ele>352.0</ele><time>2026-04-05T13:42:57.998Z</time></trkpt><trkpt lat="43.7796429512701" lon="10.974922964321879"><ele>352.0</ele><time>2026-04-05T13:42:58.998Z</time></trkpt><trkpt lat="43.77973140096533" lon="10.974818454212446"><ele>352.0</ele><time>2026-04-05T13:42:59.998Z</time></trkpt><trkpt lat="43.77985130276327" lon="10.97474011646801"><ele>352.0</ele><time>2026-04-05T13:43:00.998Z</time></trkpt><trkpt lat="43.779992099607725" lon="10.974678464259481"><ele>352.0</ele><time>2026-04-05T13:43:01.998Z</time></trkpt><trkpt lat="43.78013720545929" lon="10.974611028820075"><ele>352.0</ele><time>2026-04-05T13:43:02.998Z</time></trkpt><trkpt lat="43.78027906498926" lon="10.974512473146682"><ele>349.3333333333333</ele><time>2026-04-05T13:43:03.998Z</time></trkpt><trkpt lat="43.78040997910831" lon="10.974365388014798"><ele>346.6666666666667</ele><time>2026-04-05T13:43:04.998Z</time></trkpt><trkpt lat="43.78052944377097" lon="10.974182648600602"><ele>344.0</ele><time>2026-04-05T13:43:05.998Z</time></trkpt><trkpt lat="43.78064521436034" lon="10.97398872543441"><ele>344.0</ele><time>2026-04-05T13:43:06.998Z</time></trkpt><trkpt lat="43.780754483585554" lon="10.973813203039581"><ele>344.0</ele><time>2026-04-05T13:43:07.998Z</time></trkpt><trkpt lat="43.780857273805296" lon="10.97365203733703"><ele>344.0</ele><time>2026-04-05T13:43:08.998Z</time></trkpt><trkpt lat="43.780949584639345" lon="10.973512941075253"><ele>343.25</ele><time>2026-04-05T13:43:09.998Z</time></trkpt><trkpt lat="43.78103539761764" lon="10.973384611841773"><ele>342.5</ele><time>2026-04-05T13:43:10.998Z</time></trkpt><trkpt lat="43.781115270721386" lon="10.973268829472497"><ele>341.75</ele><time>2026-04-05T13:43:12Z</time></trkpt><trkpt lat="43.78122026696469" lon="10.973169024570119"><ele>341.0</ele><time>2026-04-05T13:43:13Z</time></trkpt><trkpt lat="43.781352885617366" lon="10.973109459300355"><ele>341.0</ele><time>2026-04-05T13:43:14Z</time></trkpt><trkpt lat="43.781493720509154" lon="10.973101833007766"><ele>341.0</ele><time>2026-04-05T13:43:15Z</time></trkpt><trkpt lat="43.781621168440935" lon="10.973089667272074"><ele>341.0</ele><time>2026-04-05T13:43:16Z</time></trkpt><trkpt lat="43.781744118843044" lon="10.973045447554664"><ele>341.0</ele><time>2026-04-05T13:43:17Z</time></trkpt><trkpt lat="43.78184761028775" lon="10.972936597461612"><ele>343.0</ele><time>2026-04-05T13:43:18Z</time></trkpt><trkpt lat="43.78192492644949" lon="10.972787466290146"><ele>345.0</ele><time>2026-04-05T13:43:19Z</time></trkpt><trkpt lat="43.781988034231766" lon="10.972610471614162"><ele>347.0</ele><time>2026-04-05T13:43:20Z</time></trkpt><trkpt lat="43.781966544209254" lon="10.972398832308365"><ele>349.0</ele><time>2026-04-05T13:43:21Z</time></trkpt><trkpt lat="43.78191873332555" lon="10.972186003247222"><ele>349.0</ele><time>2026-04-05T13:43:22Z</time></trkpt><trkpt lat="43.78186767140563" lon="10.971980336327293"><ele>349.0</ele><time>2026-04-05T13:43:23Z</time></trkpt><trkpt lat="43.78182226603405" lon="10.97178792342505"><ele>349.0</ele><time>2026-04-05T13:43:24Z</time></trkpt><trkpt lat="43.78177561932745" lon="10.971606500964679"><ele>349.0</ele><time>2026-04-05T13:43:25Z</time></trkpt><trkpt lat="43.78171470552026" lon="10.971441765404046"><ele>343.25</ele><time>2026-04-05T13:43:26Z</time></trkpt><trkpt lat="43.781619251982455" lon="10.97131083676937"><ele>337.5</ele><time>2026-04-05T13:43:27Z</time></trkpt><trkpt lat="43.781492561121766" lon="10.971213949427938"><ele>331.75</ele><time>2026-04-05T13:43:28Z</time></trkpt><trkpt lat="43.78136588684374" lon="10.971130841814048"><ele>326.0</ele><time>2026-04-05T13:43:29Z</time></trkpt><trkpt lat="43.78125600998271" lon="10.971013083811412"><ele>328.33333333333337</ele><time>2026-04-05T13:43:30Z</time></trkpt><trkpt lat="43.781163967132336" lon="10.97085369254443"><ele>330.6666666666667</ele><time>2026-04-05T13:43:31Z</time></trkpt><trkpt lat="43.781074912096116" lon="10.970681287718877"><ele>333.0</ele><time>2026-04-05T13:43:32Z</time></trkpt><trkpt lat="43.780981711411194" lon="10.970508151602317"><ele>327.25</ele><time>2026-04-05T13:43:33Z</time></trkpt><trkpt lat="43.780889120094486" lon="10.970358622878296"><ele>321.5</ele><time>2026-04-05T13:43:34Z</time></trkpt><trkpt lat="43.78078217772756" lon="10.970231206021023"><ele>315.75</ele><time>2026-04-05T13:43:35Z</time></trkpt><trkpt lat="43.78065687901549" lon="10.970146160643516"><ele>310.0</ele><time>2026-04-05T13:43:36Z</time></trkpt><trkpt lat="43.7805451765895" lon="10.970091724448395"><ele>310.0</ele><time>2026-04-05T13:43:37Z</time></trkpt><trkpt lat="43.78044605094819" lon="10.97003146635255"><ele>310.0</ele><time>2026-04-05T13:43:38Z</time></trkpt><trkpt lat="43.78037221053816" lon="10.969945855040887"><ele>310.0</ele><time>2026-04-05T13:43:39Z</time></trkpt><trkpt lat="43.78033655786533" lon="10.969828099491023"><ele>310.0</ele><time>2026-04-05T13:43:40Z</time></trkpt><trkpt lat="43.78034555674819" lon="10.969698485581935"><ele>310.0</ele><time>2026-04-05T13:43:41Z</time></trkpt><trkpt lat="43.78039664604503" lon="10.969569150463732"><ele>312.25</ele><time>2026-04-05T13:43:42Z</time></trkpt><trkpt lat="43.78050679263375" lon="10.969500481737747"><ele>314.5</ele><time>2026-04-05T13:43:43Z</time></trkpt><trkpt lat="43.7806218903425" lon="10.969437619751305"><ele>316.75</ele><time>2026-04-05T13:43:44Z</time></trkpt><trkpt lat="43.7807471369442" lon="10.969352029954765"><ele>319.0</ele><time>2026-04-05T13:43:45Z</time></trkpt><trkpt lat="43.780888803631356" lon="10.969279934763316"><ele>319.66666666666663</ele><time>2026-04-05T13:43:46Z</time></trkpt><trkpt lat="43.7810367424993" lon="10.9691931958055"><ele>320.3333333333333</ele><time>2026-04-05T13:43:47Z</time></trkpt><trkpt lat="43.781178430757436" lon="10.969128340844481"><ele>321.0</ele><time>2026-04-05T13:43:48Z</time></trkpt><trkpt lat="43.78130723722167" lon="10.969050299979912"><ele>321.0</ele><time>2026-04-05T13:43:49Z</time></trkpt><trkpt lat="43.78142759067463" lon="10.968985979388043"><ele>321.0</ele><time>2026-04-05T13:43:50Z</time></trkpt><trkpt lat="43.78151964521047" lon="10.968898040990352"><ele>321.0</ele><time>2026-04-05T13:43:51Z</time></trkpt><trkpt lat="43.78157392498592" lon="10.96878041039199"><ele>321.0</ele><time>2026-04-05T13:43:52Z</time></trkpt><trkpt lat="43.78158481586674" lon="10.968632036327715"><ele>321.0</ele><time>2026-04-05T13:43:53Z</time></trkpt><trkpt lat="43.78154819709217" lon="10.968485396008374"><ele>321.0</ele><time>2026-04-05T13:43:53.999Z</time></trkpt><trkpt lat="43.7814687843886" lon="10.968361130716747"><ele>321.0</ele><time>2026-04-05T13:43:54.999Z</time></trkpt><trkpt lat="43.78135553531313" lon="10.968274902052226"><ele>321.0</ele><time>2026-04-05T13:43:55.999Z</time></trkpt><trkpt lat="43.78122856662702" lon="10.968196605425657"><ele>321.0</ele><time>2026-04-05T13:43:56.999Z</time></trkpt><trkpt lat="43.78109542902229" lon="10.968099870485153"><ele>311.6666666666667</ele><time>2026-04-05T13:43:57.999Z</time></trkpt><trkpt lat="43.78096466488723" lon="10.967980734370348"><ele>302.33333333333337</ele><time>2026-04-05T13:43:58.999Z</time></trkpt><trkpt lat="43.78083418546289" lon="10.967850753703287"><ele>293.0</ele><time>2026-04-05T13:43:59.999Z</time></trkpt><trkpt lat="43.780709051857414" lon="10.967730411838394"><ele>293.0</ele><time>2026-04-05T13:44:00.999Z</time></trkpt><trkpt lat="43.780590208407524" lon="10.967614440679888"><ele>293.0</ele><time>2026-04-05T13:44:01.999Z</time></trkpt><trkpt lat="43.78047573699741" lon="10.96749977390621"><ele>293.0</ele><time>2026-04-05T13:44:02.999Z</time></trkpt><trkpt lat="43.780363288686694" lon="10.96738850152495"><ele>293.0</ele><time>2026-04-05T13:44:03.999Z</time></trkpt><trkpt lat="43.7802677006143" lon="10.967294551909447"><ele>291.0</ele><time>2026-04-05T13:44:04.999Z</time></trkpt><trkpt lat="43.7801806058989" lon="10.967207061625068"><ele>289.0</ele><time>2026-04-05T13:44:05.999Z</time></trkpt><trkpt lat="43.780108065583434" lon="10.96712078879285"><ele>287.0</ele><time>2026-04-05T13:44:06.999Z</time></trkpt><trkpt lat="43.780042810785886" lon="10.96701258069232"><ele>285.0</ele><time>2026-04-05T13:44:07.999Z</time></trkpt><trkpt lat="43.780009387293994" lon="10.966881427133854"><ele>283.0</ele><time>2026-04-05T13:44:08.999Z</time></trkpt><trkpt lat="43.78001359202705" lon="10.966735868037663"><ele>284.0</ele><time>2026-04-05T13:44:09.999Z</time></trkpt><trkpt lat="43.780059210430885" lon="10.966592070800834"><ele>285.0</ele><time>2026-04-05T13:44:10.999Z</time></trkpt><trkpt lat="43.78013212353787" lon="10.966446455534761"><ele>286.0</ele><time>2026-04-05T13:44:11.999Z</time></trkpt><trkpt lat="43.78022012541461" lon="10.966304433135399"><ele>287.0</ele><time>2026-04-05T13:44:12.999Z</time></trkpt><trkpt lat="43.78030908281683" lon="10.966144026922056"><ele>290.0</ele><time>2026-04-05T13:44:13.999Z</time></trkpt><trkpt lat="43.780392292240656" lon="10.966006156319919"><ele>293.0</ele><time>2026-04-05T13:44:14.999Z</time></trkpt><trkpt lat="43.7804712261164" lon="10.965876319592207"><ele>296.0</ele><time>2026-04-05T13:44:15.999Z</time></trkpt><trkpt lat="43.780540717587854" lon="10.965756509835286"><ele>299.0</ele><time>2026-04-05T13:44:16.999Z</time></trkpt><trkpt lat="43.780571230572455" lon="10.965639305464348"><ele>299.0</ele><time>2026-04-05T13:44:17.999Z</time></trkpt><trkpt lat="43.78055464090296" lon="10.965520332328037"><ele>299.0</ele><time>2026-04-05T13:44:18.999Z</time></trkpt><trkpt lat="43.780486858710745" lon="10.965438278427802"><ele>299.0</ele><time>2026-04-05T13:44:19.999Z</time></trkpt><trkpt lat="43.780387276749465" lon="10.965415754303098"><ele>299.0</ele><time>2026-04-05T13:44:20.999Z</time></trkpt><trkpt lat="43.780271514331275" lon="10.965427998015254"><ele>299.0</ele><time>2026-04-05T13:44:21.999Z</time></trkpt><trkpt lat="43.78016125621777" lon="10.965434356295512"><ele>294.8</ele><time>2026-04-05T13:44:22.999Z</time></trkpt><trkpt lat="43.78005361567641" lon="10.965432341081048"><ele>290.59999999999997</ele><time>2026-04-05T13:44:23.999Z</time></trkpt><trkpt lat="43.77994349070498" lon="10.965430570430197"><ele>286.4</ele><time>2026-04-05T13:44:24.999Z</time></trkpt><trkpt lat="43.77984293703666" lon="10.965416777658355"><ele>282.2</ele><time>2026-04-05T13:44:25.999Z</time></trkpt><trkpt lat="43.779738881634785" lon="10.96536310242784"><ele>278.0</ele><time>2026-04-05T13:44:26.999Z</time></trkpt><trkpt lat="43.77964695584898" lon="10.965271025980238"><ele>278.0</ele><time>2026-04-05T13:44:27.999Z</time></trkpt><trkpt lat="43.7795755785842" lon="10.965158210008227"><ele>278.0</ele><time>2026-04-05T13:44:28.999Z</time></trkpt><trkpt lat="43.779531583763614" lon="10.965024594985723"><ele>278.0</ele><time>2026-04-05T13:44:29.999Z</time></trkpt><trkpt lat="43.77950578785663" lon="10.964868392270123"><ele>278.0</ele><time>2026-04-05T13:44:30.999Z</time></trkpt><trkpt lat="43.77948716579649" lon="10.964685182134454"><ele>278.75</ele><time>2026-04-05T13:44:31.999Z</time></trkpt><trkpt lat="43.77946722523847" lon="10.964499334260621"><ele>279.5</ele><time>2026-04-05T13:44:32.999Z</time></trkpt><trkpt lat="43.77944254802375" lon="10.964326858723123"><ele>280.25</ele><time>2026-04-05T13:44:33.999Z</time></trkpt><trkpt lat="43.779420207304966" lon="10.96415950358655"><ele>281.0</ele><time>2026-04-05T13:44:34.999Z</time></trkpt><trkpt lat="43.77939503924647" lon="10.9640056067774"><ele>279.0</ele><time>2026-04-05T13:44:35.999Z</time></trkpt><trkpt lat="43.77937834174937" lon="10.963863521836167"><ele>277.0</ele><time>2026-04-05T13:44:36.999Z</time></trkpt><trkpt lat="43.779389302807886" lon="10.963730290477162"><ele>275.0</ele><time>2026-04-05T13:44:37.999Z</time></trkpt><trkpt lat="43.779436553329894" lon="10.963617793212636"><ele>273.0</ele><time>2026-04-05T13:44:38.999Z</time></trkpt><trkpt lat="43.77951018894688" lon="10.963537624867987"><ele>271.0</ele><time>2026-04-05T13:44:39.999Z</time></trkpt><trkpt lat="43.77960691417111" lon="10.963502707374849"><ele>271.0</ele><time>2026-04-05T13:44:40.999Z</time></trkpt><trkpt lat="43.77970198873939" lon="10.963560380190055"><ele>271.0</ele><time>2026-04-05T13:44:41.999Z</time></trkpt><trkpt lat="43.77977237851547" lon="10.963637533129894"><ele>271.0</ele><time>2026-04-05T13:44:42.999Z</time></trkpt><trkpt lat="43.77987071259808" lon="10.963706106829077"><ele>271.0</ele><time>2026-04-05T13:44:43.999Z</time></trkpt><trkpt lat="43.779945467120235" lon="10.96378943031357"><ele>271.0</ele><time>2026-04-05T13:44:44.999Z</time></trkpt><trkpt lat="43.78002152860518" lon="10.963865840712085"><ele>271.0</ele><time>2026-04-05T13:44:45.999Z</time></trkpt><trkpt lat="43.780096791959394" lon="10.963911041582088"><ele>271.0</ele><time>2026-04-05T13:44:46.999Z</time></trkpt><trkpt lat="43.78017043713606" lon="10.96389968860776"><ele>271.0</ele><time>2026-04-05T13:44:47.999Z</time></trkpt><trkpt lat="43.780246201715975" lon="10.963882835401655"><ele>271.0</ele><time>2026-04-05T13:44:48.999Z</time></trkpt><trkpt lat="43.7802855990874" lon="10.963737224610755"><ele>271.0</ele><time>2026-04-05T13:44:49.999Z</time></trkpt><trkpt lat="43.78028603270794" lon="10.963618101334944"><ele>271.0</ele><time>2026-04-05T13:44:50.999Z</time></trkpt><trkpt lat="43.78027506351506" lon="10.963515133636326"><ele>270.8</ele><time>2026-04-05T13:44:51.998Z</time></trkpt><trkpt lat="43.78026902214044" lon="10.963410655711064"><ele>270.6</ele><time>2026-04-05T13:44:52.998Z</time></trkpt><trkpt lat="43.78027471350869" lon="10.963285495603253"><ele>270.4</ele><time>2026-04-05T13:44:53.998Z</time></trkpt><trkpt lat="43.78030054858671" lon="10.96316344592584"><ele>270.2</ele><time>2026-04-05T13:44:54.998Z</time></trkpt><trkpt lat="43.78033946895647" lon="10.96304083792318"><ele>270.0</ele><time>2026-04-05T13:44:55.998Z</time></trkpt><trkpt lat="43.7803861235073" lon="10.962922620653034"><ele>270.0</ele><time>2026-04-05T13:44:56.998Z</time></trkpt><trkpt lat="43.78042572318183" lon="10.962792278019728"><ele>270.0</ele><time>2026-04-05T13:44:57.998Z</time></trkpt><trkpt lat="43.780436974033" lon="10.962653288014389"><ele>270.0</ele><time>2026-04-05T13:44:58.998Z</time></trkpt><trkpt lat="43.780427690008565" lon="10.962509199127895"><ele>270.0</ele><time>2026-04-05T13:44:59.998Z</time></trkpt><trkpt lat="43.78040301875603" lon="10.962375913546083"><ele>270.0</ele><time>2026-04-05T13:45:00.998Z</time></trkpt><trkpt lat="43.780380425050744" lon="10.962244961743789"><ele>267.6</ele><time>2026-04-05T13:45:01.998Z</time></trkpt><trkpt lat="43.78035631379432" lon="10.962109954542372"><ele>265.2</ele><time>2026-04-05T13:45:02.998Z</time></trkpt><trkpt lat="43.780341973560354" lon="10.961971779267344"><ele>262.8</ele><time>2026-04-05T13:45:03.998Z</time></trkpt><trkpt lat="43.780335749524376" lon="10.961838039104345"><ele>260.4</ele><time>2026-04-05T13:45:04.998Z</time></trkpt><trkpt lat="43.78034362946929" lon="10.961703852001776"><ele>258.0</ele><time>2026-04-05T13:45:05.998Z</time></trkpt><trkpt lat="43.78036092637947" lon="10.961573544193758"><ele>256.2</ele><time>2026-04-05T13:45:06.998Z</time></trkpt><trkpt lat="43.78038609523107" lon="10.961447059529652"><ele>254.4</ele><time>2026-04-05T13:45:07.998Z</time></trkpt><trkpt lat="43.78042557852722" lon="10.96133001076166"><ele>252.59999999999997</ele><time>2026-04-05T13:45:08.998Z</time></trkpt><trkpt lat="43.78048126266642" lon="10.961228027374224"><ele>250.79999999999998</ele><time>2026-04-05T13:45:09.998Z</time></trkpt><trkpt lat="43.78054228020249" lon="10.961136340368952"><ele>249.0</ele><time>2026-04-05T13:45:10.998Z</time></trkpt><trkpt lat="43.78059131497378" lon="10.961042545891189"><ele>249.0</ele><time>2026-04-05T13:45:11.998Z</time></trkpt><trkpt lat="43.78062617988413" lon="10.96094078802521"><ele>249.0</ele><time>2026-04-05T13:45:12.998Z</time></trkpt><trkpt lat="43.780643491463344" lon="10.960839747277348"><ele>249.0</ele><time>2026-04-05T13:45:13.998Z</time></trkpt><trkpt lat="43.780644428939034" lon="10.960729482743425"><ele>249.0</ele><time>2026-04-05T13:45:14.998Z</time></trkpt><trkpt lat="43.78063337107965" lon="10.960619394254879"><ele>249.0</ele><time>2026-04-05T13:45:15.998Z</time></trkpt><trkpt lat="43.78060817798841" lon="10.960511365224658"><ele>249.0</ele><time>2026-04-05T13:45:16.998Z</time></trkpt><trkpt lat="43.780556813731124" lon="10.960402811595507"><ele>246.6</ele><time>2026-04-05T13:45:18Z</time></trkpt><trkpt lat="43.78048963767451" lon="10.960311551898183"><ele>244.2</ele><time>2026-04-05T13:45:19Z</time></trkpt><trkpt lat="43.780421147898544" lon="10.96022680078309"><ele>241.79999999999998</ele><time>2026-04-05T13:45:20Z</time></trkpt><trkpt lat="43.78034900317087" lon="10.96013722220118"><ele>239.39999999999998</ele><time>2026-04-05T13:45:21Z</time></trkpt><trkpt lat="43.780277233446114" lon="10.960045639824958"><ele>237.0</ele><time>2026-04-05T13:45:22Z</time></trkpt><trkpt lat="43.780203919747755" lon="10.959949480855435"><ele>235.8</ele><time>2026-04-05T13:45:23Z</time></trkpt><trkpt lat="43.78013278707172" lon="10.959862240464911"><ele>234.6</ele><time>2026-04-05T13:45:24Z</time></trkpt><trkpt lat="43.780064673266665" lon="10.959775341883962"><ele>233.40000000000003</ele><time>2026-04-05T13:45:25Z</time></trkpt><trkpt lat="43.77999420562775" lon="10.959686480094941"><ele>232.20000000000002</ele><time>2026-04-05T13:45:26Z</time></trkpt><trkpt lat="43.779922066702234" lon="10.959597981826734"><ele>231.0</ele><time>2026-04-05T13:45:27Z</time></trkpt><trkpt lat="43.779848764681006" lon="10.959507782316816"><ele>231.0</ele><time>2026-04-05T13:45:28Z</time></trkpt><trkpt lat="43.779771678660794" lon="10.95942440435919"><ele>231.00000000000003</ele><time>2026-04-05T13:45:29Z</time></trkpt><trkpt lat="43.77968626063785" lon="10.959351838885079"><ele>231.00000000000003</ele><time>2026-04-05T13:45:30Z</time></trkpt><trkpt lat="43.77959887989473" lon="10.95929479268444"><ele>231.0</ele><time>2026-04-05T13:45:31Z</time></trkpt><trkpt lat="43.77950392049343" lon="10.959256436996503"><ele>231.0</ele><time>2026-04-05T13:45:32Z</time></trkpt><trkpt lat="43.779404180892875" lon="10.959233680404163"><ele>230.4</ele><time>2026-04-05T13:45:33Z</time></trkpt><trkpt lat="43.77929796558202" lon="10.959217571912484"><ele>229.8</ele><time>2026-04-05T13:45:34Z</time></trkpt><trkpt lat="43.779191875586214" lon="10.959204056156526"><ele>229.20000000000002</ele><time>2026-04-05T13:45:35Z</time></trkpt><trkpt lat="43.77908514585525" lon="10.959201585353092"><ele>228.60000000000002</ele><time>2026-04-05T13:45:36Z</time></trkpt><trkpt lat="43.77897679344107" lon="10.95920043553626"><ele>228.0</ele><time>2026-04-05T13:45:37Z</time></trkpt><trkpt lat="43.778864223549846" lon="10.95919994520964"><ele>228.0</ele><time>2026-04-05T13:45:38Z</time></trkpt><trkpt lat="43.77874690447429" lon="10.959196581037324"><ele>228.0</ele><time>2026-04-05T13:45:39Z</time></trkpt><trkpt lat="43.778630605041165" lon="10.95920182654642"><ele>228.0</ele><time>2026-04-05T13:45:40Z</time></trkpt><trkpt lat="43.778516445638374" lon="10.959198681591738"><ele>228.0</ele><time>2026-04-05T13:45:41Z</time></trkpt><trkpt lat="43.77840450164421" lon="10.959190756555873"><ele>226.5</ele><time>2026-04-05T13:45:42Z</time></trkpt><trkpt lat="43.778290807439575" lon="10.959170550718241"><ele>225.0</ele><time>2026-04-05T13:45:43Z</time></trkpt><trkpt lat="43.77817704553377" lon="10.959127039741324"><ele>223.5</ele><time>2026-04-05T13:45:44Z</time></trkpt><trkpt lat="43.7780645598333" lon="10.95906609827198"><ele>222.0</ele><time>2026-04-05T13:45:45Z</time></trkpt><trkpt lat="43.77796444456089" lon="10.959004313900515"><ele>222.0</ele><time>2026-04-05T13:45:46Z</time></trkpt><trkpt lat="43.77786516637161" lon="10.95896228873547"><ele>222.0</ele><time>2026-04-05T13:45:47Z</time></trkpt><trkpt lat="43.777768624086384" lon="10.958951621077238"><ele>222.0</ele><time>2026-04-05T13:45:48Z</time></trkpt><trkpt lat="43.77767708770479" lon="10.958989276876544"><ele>222.0</ele><time>2026-04-05T13:45:49Z</time></trkpt><trkpt lat="43.77759382652015" lon="10.959060497200493"><ele>222.0</ele><time>2026-04-05T13:45:50Z</time></trkpt><trkpt lat="43.777529265785326" lon="10.95914884746174"><ele>219.5</ele><time>2026-04-05T13:45:51Z</time></trkpt><trkpt lat="43.77747103852955" lon="10.959234965643882"><ele>217.0</ele><time>2026-04-05T13:45:52Z</time></trkpt><trkpt lat="43.77741229555099" lon="10.959300404955002"><ele>214.5</ele><time>2026-04-05T13:45:53Z</time></trkpt><trkpt lat="43.77734381469566" lon="10.959343232840311"><ele>212.0</ele><time>2026-04-05T13:45:54Z</time></trkpt><trkpt lat="43.777269963548264" lon="10.959356917374416"><ele>209.5</ele><time>2026-04-05T13:45:55Z</time></trkpt><trkpt lat="43.777190120043144" lon="10.959340919531153"><ele>207.0</ele><time>2026-04-05T13:45:56Z</time></trkpt><trkpt lat="43.77711933611403" lon="10.959294481356514"><ele>207.0</ele><time>2026-04-05T13:45:57Z</time></trkpt><trkpt lat="43.77705892563835" lon="10.959218856745691"><ele>207.0</ele><time>2026-04-05T13:45:58Z</time></trkpt><trkpt lat="43.77702138947216" lon="10.959128692742613"><ele>207.0</ele><time>2026-04-05T13:45:59Z</time></trkpt><trkpt lat="43.77699836451192" lon="10.959025050919953"><ele>207.0</ele><time>2026-04-05T13:46:00Z</time></trkpt><trkpt lat="43.77700507373485" lon="10.958911647078713"><ele>207.0</ele><time>2026-04-05T13:46:00.999Z</time></trkpt><trkpt lat="43.777037875514885" lon="10.958801164722303"><ele>207.0</ele><time>2026-04-05T13:46:01.999Z</time></trkpt><trkpt lat="43.77708419666425" lon="10.958693755606213"><ele>208.2</ele><time>2026-04-05T13:46:02.999Z</time></trkpt><trkpt lat="43.77713220936195" lon="10.958590327144403"><ele>209.39999999999998</ele><time>2026-04-05T13:46:03.999Z</time></trkpt><trkpt lat="43.77717967875507" lon="10.95848103296571"><ele>210.60000000000002</ele><time>2026-04-05T13:46:04.999Z</time></trkpt><trkpt lat="43.77723201646336" lon="10.958376046712376"><ele>211.8</ele><time>2026-04-05T13:46:05.999Z</time></trkpt><trkpt lat="43.77728834471007" lon="10.958265331092534"><ele>213.0</ele><time>2026-04-05T13:46:06.999Z</time></trkpt><trkpt lat="43.77733693669915" lon="10.958159660841053"><ele>213.0</ele><time>2026-04-05T13:46:07.999Z</time></trkpt><trkpt lat="43.777387473442936" lon="10.958056581591174"><ele>213.0</ele><time>2026-04-05T13:46:08.999Z</time></trkpt><trkpt lat="43.777443661773496" lon="10.957961701854272"><ele>213.0</ele><time>2026-04-05T13:46:09.999Z</time></trkpt><trkpt lat="43.77749927991752" lon="10.957865332259043"><ele>213.0</ele><time>2026-04-05T13:46:10.999Z</time></trkpt><trkpt lat="43.77756138114346" lon="10.957769972785844"><ele>213.0</ele><time>2026-04-05T13:46:11.999Z</time></trkpt><trkpt lat="43.77763555223415" lon="10.957688446251444"><ele>213.8</ele><time>2026-04-05T13:46:12.999Z</time></trkpt><trkpt lat="43.777719609934145" lon="10.957616668301856"><ele>214.60000000000002</ele><time>2026-04-05T13:46:13.999Z</time></trkpt><trkpt lat="43.7778027171352" lon="10.957566133774268"><ele>215.39999999999998</ele><time>2026-04-05T13:46:14.999Z</time></trkpt><trkpt lat="43.77788614613065" lon="10.957533082810876"><ele>216.2</ele><time>2026-04-05T13:46:15.999Z</time></trkpt><trkpt lat="43.77797960091055" lon="10.957503851212486"><ele>217.0</ele><time>2026-04-05T13:46:16.999Z</time></trkpt><trkpt lat="43.77807921536949" lon="10.957471518110664"><ele>213.5</ele><time>2026-04-05T13:46:17.999Z</time></trkpt><trkpt lat="43.77818181703616" lon="10.957438613166131"><ele>210.0</ele><time>2026-04-05T13:46:18.999Z</time></trkpt><trkpt lat="43.77829602935839" lon="10.957406164625985"><ele>206.5</ele><time>2026-04-05T13:46:19.999Z</time></trkpt><trkpt lat="43.778414825783955" lon="10.957381716912401"><ele>203.0</ele><time>2026-04-05T13:46:20.999Z</time></trkpt><trkpt lat="43.77852773136472" lon="10.957360296850341"><ele>202.25</ele><time>2026-04-05T13:46:21.999Z</time></trkpt><trkpt lat="43.77864290853743" lon="10.957342188003846"><ele>201.5</ele><time>2026-04-05T13:46:22.999Z</time></trkpt><trkpt lat="43.778758709549805" lon="10.957320260389734"><ele>200.75</ele><time>2026-04-05T13:46:23.999Z</time></trkpt><trkpt lat="43.778872171231" lon="10.957297405647953"><ele>200.0</ele><time>2026-04-05T13:46:24.999Z</time></trkpt><trkpt lat="43.77898732265259" lon="10.95726906178697"><ele>200.0</ele><time>2026-04-05T13:46:25.999Z</time></trkpt><trkpt lat="43.779101481092574" lon="10.957242319224717"><ele>200.0</ele><time>2026-04-05T13:46:26.999Z</time></trkpt><trkpt lat="43.77921679674931" lon="10.95722377954576"><ele>200.0</ele><time>2026-04-05T13:46:27.999Z</time></trkpt><trkpt lat="43.77932868239687" lon="10.957211832277896"><ele>200.0</ele><time>2026-04-05T13:46:28.999Z</time></trkpt><trkpt lat="43.77943962400023" lon="10.957220014233569"><ele>199.2</ele><time>2026-04-05T13:46:29.999Z</time></trkpt><trkpt lat="43.77955001030172" lon="10.95724084795419"><ele>198.4</ele><time>2026-04-05T13:46:30.999Z</time></trkpt><trkpt lat="43.7796477240295" lon="10.957279293142202"><ele>197.60000000000002</ele><time>2026-04-05T13:46:31.999Z</time></trkpt><trkpt lat="43.77974671128608" lon="10.95733589980079"><ele>196.8</ele><time>2026-04-05T13:46:32.999Z</time></trkpt><trkpt lat="43.7798433131721" lon="10.95738818810854"><ele>196.0</ele><time>2026-04-05T13:46:33.999Z</time></trkpt><trkpt lat="43.779935578248214" lon="10.95744084482525"><ele>195.99999999999997</ele><time>2026-04-05T13:46:34.999Z</time></trkpt><trkpt lat="43.780020233232996" lon="10.957497364042824"><ele>196.0</ele><time>2026-04-05T13:46:35.999Z</time></trkpt><trkpt lat="43.78010256741137" lon="10.957544995302483"><ele>196.0</ele><time>2026-04-05T13:46:36.999Z</time></trkpt><trkpt lat="43.78017613095429" lon="10.957534518976235"><ele>196.0</ele><time>2026-04-05T13:46:37.999Z</time></trkpt><trkpt lat="43.78023174123068" lon="10.957460500461961"><ele>195.99999999999997</ele><time>2026-04-05T13:46:38.999Z</time></trkpt><trkpt lat="43.78024740830216" lon="10.957354930808231"><ele>196.0</ele><time>2026-04-05T13:46:39.999Z</time></trkpt><trkpt lat="43.78024306731709" lon="10.957251316694125"><ele>196.8</ele><time>2026-04-05T13:46:40.999Z</time></trkpt><trkpt lat="43.78023562708465" lon="10.957121713672649"><ele>197.60000000000002</ele><time>2026-04-05T13:46:42.999Z</time></trkpt><trkpt lat="43.78025263104328" lon="10.957013699766588"><ele>198.4</ele><time>2026-04-05T13:46:44.999Z</time></trkpt><trkpt lat="43.78032906286669" lon="10.956904245717869"><ele>199.2</ele><time>2026-04-05T13:46:46.999Z</time></trkpt><trkpt lat="43.7804344965248" lon="10.956860762540646"><ele>200.0</ele><time>2026-04-05T13:46:48.999Z</time></trkpt><trkpt lat="43.78055837540892" lon="10.95692118910468"><ele>200.00000000000003</ele><time>2026-04-05T13:46:50.999Z</time></trkpt><trkpt lat="43.78063123868191" lon="10.956976554819688"><ele>200.0</ele><time>2026-04-05T13:46:51.999Z</time></trkpt><trkpt lat="43.780717060749645" lon="10.957016048076161"><ele>200.0</ele><time>2026-04-05T13:46:52.999Z</time></trkpt><trkpt lat="43.78080704317992" lon="10.957051269692567"><ele>200.0</ele><time>2026-04-05T13:46:53.999Z</time></trkpt><trkpt lat="43.780893391045865" lon="10.957088330484305"><ele>200.00000000000003</ele><time>2026-04-05T13:46:54.999Z</time></trkpt><trkpt lat="43.78097835211641" lon="10.957135159776005"><ele>200.0</ele><time>2026-04-05T13:46:55.999Z</time></trkpt><trkpt lat="43.78105718211968" lon="10.957186456462006"><ele>197.6</ele><time>2026-04-05T13:46:56.999Z</time></trkpt><trkpt lat="43.78112550821356" lon="10.957256559557583"><ele>195.2</ele><time>2026-04-05T13:46:57.999Z</time></trkpt><trkpt lat="43.78118467135563" lon="10.95733308375541"><ele>192.8</ele><time>2026-04-05T13:46:58.998Z</time></trkpt><trkpt lat="43.78122592651508" lon="10.957414145329395"><ele>190.4</ele><time>2026-04-05T13:46:59.998Z</time></trkpt><trkpt lat="43.78133862109678" lon="10.957503442576039"><ele>188.0</ele><time>2026-04-05T13:47:01.998Z</time></trkpt><trkpt lat="43.781421832352216" lon="10.957446367542126"><ele>188.0</ele><time>2026-04-05T13:47:02.998Z</time></trkpt><trkpt lat="43.78153515528224" lon="10.957362783404125"><ele>188.0</ele><time>2026-04-05T13:47:04.998Z</time></trkpt><trkpt lat="43.78158820124864" lon="10.957308855574563"><ele>188.0</ele><time>2026-04-05T13:47:05.998Z</time></trkpt><trkpt lat="43.78166663650123" lon="10.95720080214441"><ele>188.0</ele><time>2026-04-05T13:47:07.998Z</time></trkpt><trkpt lat="43.78168858672768" lon="10.957029804947977"><ele>188.0</ele><time>2026-04-05T13:47:09.998Z</time></trkpt><trkpt lat="43.78162007442584" lon="10.956968512587741"><ele>188.0</ele><time>2026-04-05T13:47:10.998Z</time></trkpt><trkpt lat="43.78157379924032" lon="10.956903908090041"><ele>188.0</ele><time>2026-04-05T13:47:11.998Z</time></trkpt><trkpt lat="43.78152486385289" lon="10.956840854549808"><ele>188.0</ele><time>2026-04-05T13:47:12.998Z</time></trkpt><trkpt lat="43.781480795127074" lon="10.956751150685106"><ele>188.0</ele><time>2026-04-05T13:47:13.998Z</time></trkpt><trkpt lat="43.7814178985014" lon="10.956673725562279"><ele>188.0</ele><time>2026-04-05T13:47:14.998Z</time></trkpt><trkpt lat="43.78135018360128" lon="10.956591428447878"><ele>188.0</ele><time>2026-04-05T13:47:15.998Z</time></trkpt><trkpt lat="43.78128074107088" lon="10.956513479793655"><ele>188.16666666666666</ele><time>2026-04-05T13:47:16.998Z</time></trkpt><trkpt lat="43.78120715318139" lon="10.9564349837658"><ele>188.33333333333331</ele><time>2026-04-05T13:47:17.998Z</time></trkpt><trkpt lat="43.7811436749078" lon="10.95635870117648"><ele>188.5</ele><time>2026-04-05T13:47:18.998Z</time></trkpt><trkpt lat="43.78108256956387" lon="10.95628764457111"><ele>188.66666666666666</ele><time>2026-04-05T13:47:19.998Z</time></trkpt><trkpt lat="43.7810164264704" lon="10.956208490824757"><ele>188.83333333333334</ele><time>2026-04-05T13:47:20.998Z</time></trkpt><trkpt lat="43.780972319791566" lon="10.956104587331552"><ele>189.0</ele><time>2026-04-05T13:47:21.998Z</time></trkpt><trkpt lat="43.78089003507218" lon="10.95603442224518"><ele>188.83333333333334</ele><time>2026-04-05T13:47:22.998Z</time></trkpt><trkpt lat="43.7808245557712" lon="10.955939881079589"><ele>188.66666666666666</ele><time>2026-04-05T13:47:24Z</time></trkpt><trkpt lat="43.780770588827615" lon="10.95585192475477"><ele>188.5</ele><time>2026-04-05T13:47:25Z</time></trkpt><trkpt lat="43.780727858596684" lon="10.955765354377588"><ele>188.33333333333331</ele><time>2026-04-05T13:47:26Z</time></trkpt><trkpt lat="43.780690662069105" lon="10.955667741635649"><ele>188.16666666666666</ele><time>2026-04-05T13:47:27Z</time></trkpt><trkpt lat="43.78065713072717" lon="10.955539367603157"><ele>188.0</ele><time>2026-04-05T13:47:29Z</time></trkpt><trkpt lat="43.780645109067805" lon="10.95539896968746"><ele>188.0</ele><time>2026-04-05T13:47:31Z</time></trkpt><trkpt lat="43.78055682318157" lon="10.955325194692124"><ele>188.0</ele><time>2026-04-05T13:47:33Z</time></trkpt><trkpt lat="43.78042848592688" lon="10.955315691671963"><ele>188.0</ele><time>2026-04-05T13:47:35Z</time></trkpt><trkpt lat="43.780360648830936" lon="10.955301739054912"><ele>188.0</ele><time>2026-04-05T13:47:36Z</time></trkpt><trkpt lat="43.78028761145472" lon="10.955301872336534"><ele>188.0</ele><time>2026-04-05T13:47:37Z</time></trkpt><trkpt lat="43.78020077993439" lon="10.955293691333962"><ele>186.16666666666666</ele><time>2026-04-05T13:47:38Z</time></trkpt><trkpt lat="43.78011545476344" lon="10.955284898302846"><ele>184.33333333333331</ele><time>2026-04-05T13:47:39Z</time></trkpt><trkpt lat="43.780035031089405" lon="10.955275331819351"><ele>182.5</ele><time>2026-04-05T13:47:40Z</time></trkpt><trkpt lat="43.77995787061101" lon="10.955268041412928"><ele>180.66666666666666</ele><time>2026-04-05T13:47:41Z</time></trkpt><trkpt lat="43.779877050040334" lon="10.955261032243236"><ele>178.83333333333334</ele><time>2026-04-05T13:47:42Z</time></trkpt><trkpt lat="43.779792851318014" lon="10.955247338443783"><ele>177.0</ele><time>2026-04-05T13:47:43Z</time></trkpt><trkpt lat="43.77970984934739" lon="10.955233305806322"><ele>177.0</ele><time>2026-04-05T13:47:44Z</time></trkpt><trkpt lat="43.77962659819" lon="10.955207802665422"><ele>177.0</ele><time>2026-04-05T13:47:45Z</time></trkpt><trkpt lat="43.77955096465511" lon="10.955169514548945"><ele>177.0</ele><time>2026-04-05T13:47:46Z</time></trkpt><trkpt lat="43.779464792266666" lon="10.95515121373964"><ele>177.0</ele><time>2026-04-05T13:47:47Z</time></trkpt><trkpt lat="43.77937737720253" lon="10.955129449168433"><ele>177.0</ele><time>2026-04-05T13:47:48Z</time></trkpt><trkpt lat="43.77929205389381" lon="10.955091810415565"><ele>177.0</ele><time>2026-04-05T13:47:49Z</time></trkpt><trkpt lat="43.77921072313827" lon="10.955066357748452"><ele>175.6</ele><time>2026-04-05T13:47:50Z</time></trkpt><trkpt lat="43.77912652004197" lon="10.955040006159145"><ele>174.2</ele><time>2026-04-05T13:47:51Z</time></trkpt><trkpt lat="43.77903848297426" lon="10.955012454741619"><ele>172.8</ele><time>2026-04-05T13:47:52Z</time></trkpt><trkpt lat="43.77894914837714" lon="10.954978077447228"><ele>171.4</ele><time>2026-04-05T13:47:53Z</time></trkpt><trkpt lat="43.77885648597781" lon="10.954953594344332"><ele>170.0</ele><time>2026-04-05T13:47:54Z</time></trkpt><trkpt lat="43.778771310601165" lon="10.954926383088429"><ele>172.0</ele><time>2026-04-05T13:47:55Z</time></trkpt><trkpt lat="43.77870071215477" lon="10.954902102024931"><ele>174.0</ele><time>2026-04-05T13:47:56Z</time></trkpt><trkpt lat="43.77862179888784" lon="10.954875513822014"><ele>176.0</ele><time>2026-04-05T13:47:57Z</time></trkpt><trkpt lat="43.77853880493101" lon="10.954852579993018"><ele>178.0</ele><time>2026-04-05T13:47:58Z</time></trkpt><trkpt lat="43.778464389114504" lon="10.954813422236352"><ele>180.0</ele><time>2026-04-05T13:47:59Z</time></trkpt><trkpt lat="43.77839409332815" lon="10.954790550632511"><ele>182.0</ele><time>2026-04-05T13:48:00Z</time></trkpt><trkpt lat="43.77831422572158" lon="10.954781966773183"><ele>182.0</ele><time>2026-04-05T13:48:01Z</time></trkpt><trkpt lat="43.77824172551494" lon="10.954738303496708"><ele>182.0</ele><time>2026-04-05T13:48:02Z</time></trkpt><trkpt lat="43.77816231270314" lon="10.954711177155014"><ele>182.0</ele><time>2026-04-05T13:48:03Z</time></trkpt><trkpt lat="43.778084492585215" lon="10.954652559545462"><ele>182.0</ele><time>2026-04-05T13:48:04Z</time></trkpt><trkpt lat="43.7780194426487" lon="10.954587729349992"><ele>182.0</ele><time>2026-04-05T13:48:05Z</time></trkpt><trkpt lat="43.77795302129305" lon="10.954503943458196"><ele>182.0</ele><time>2026-04-05T13:48:06Z</time></trkpt><trkpt lat="43.77788748723358" lon="10.954416751484326"><ele>182.0</ele><time>2026-04-05T13:48:06.999Z</time></trkpt><trkpt lat="43.77782130546081" lon="10.954327056225134"><ele>182.0</ele><time>2026-04-05T13:48:07.999Z</time></trkpt><trkpt lat="43.77776686052213" lon="10.95422959505472"><ele>182.0</ele><time>2026-04-05T13:48:08.999Z</time></trkpt><trkpt lat="43.77769439818775" lon="10.954148229805119"><ele>182.0</ele><time>2026-04-05T13:48:09.999Z</time></trkpt><trkpt lat="43.777612510003124" lon="10.954076358253294"><ele>182.0</ele><time>2026-04-05T13:48:10.999Z</time></trkpt><trkpt lat="43.777515734999874" lon="10.953982144291727"><ele>183.25</ele><time>2026-04-05T13:48:11.999Z</time></trkpt><trkpt lat="43.777399579533935" lon="10.953885305715453"><ele>184.5</ele><time>2026-04-05T13:48:12.999Z</time></trkpt><trkpt lat="43.777276815516274" lon="10.953783822981949"><ele>185.75</ele><time>2026-04-05T13:48:13.999Z</time></trkpt><trkpt lat="43.777137464921665" lon="10.953694029332713"><ele>187.0</ele><time>2026-04-05T13:48:14.999Z</time></trkpt><trkpt lat="43.7770037060976" lon="10.953571458742646"><ele>187.0</ele><time>2026-04-05T13:48:15.999Z</time></trkpt><trkpt lat="43.77686668448333" lon="10.953468471340688"><ele>187.0</ele><time>2026-04-05T13:48:16.999Z</time></trkpt><trkpt lat="43.77673815838103" lon="10.953376534644162"><ele>187.0</ele><time>2026-04-05T13:48:17.999Z</time></trkpt><trkpt lat="43.77660634188802" lon="10.95328994155481"><ele>187.0</ele><time>2026-04-05T13:48:18.999Z</time></trkpt><trkpt lat="43.776489670672085" lon="10.953206665715932"><ele>186.25</ele><time>2026-04-05T13:48:19.999Z</time></trkpt><trkpt lat="43.77637668197881" lon="10.953127403673333"><ele>185.5</ele><time>2026-04-05T13:48:20.999Z</time></trkpt><trkpt lat="43.77626591907386" lon="10.953051436591524"><ele>184.75</ele><time>2026-04-05T13:48:21.999Z</time></trkpt><trkpt lat="43.776155104085575" lon="10.952976837897618"><ele>184.0</ele><time>2026-04-05T13:48:22.999Z</time></trkpt><trkpt lat="43.7760469049474" lon="10.95290559959519"><ele>181.75</ele><time>2026-04-05T13:48:23.999Z</time></trkpt><trkpt lat="43.77594037736914" lon="10.952832812815503"><ele>179.5</ele><time>2026-04-05T13:48:24.999Z</time></trkpt><trkpt lat="43.77583116189167" lon="10.95276122606219"><ele>177.25</ele><time>2026-04-05T13:48:25.999Z</time></trkpt><trkpt lat="43.77571543220068" lon="10.952719282270658"><ele>175.0</ele><time>2026-04-05T13:48:26.999Z</time></trkpt><trkpt lat="43.775593658342856" lon="10.9527135459013"><ele>175.0</ele><time>2026-04-05T13:48:27.999Z</time></trkpt><trkpt lat="43.77546627138052" lon="10.95274427084516"><ele>175.0</ele><time>2026-04-05T13:48:28.999Z</time></trkpt><trkpt lat="43.77533993492863" lon="10.952791145839171"><ele>175.0</ele><time>2026-04-05T13:48:29.999Z</time></trkpt><trkpt lat="43.77522614468233" lon="10.952842484773084"><ele>175.0</ele><time>2026-04-05T13:48:30.999Z</time></trkpt><trkpt lat="43.77510742431225" lon="10.952881090978291"><ele>173.0</ele><time>2026-04-05T13:48:31.999Z</time></trkpt><trkpt lat="43.774977405303645" lon="10.952904936862753"><ele>171.0</ele><time>2026-04-05T13:48:32.999Z</time></trkpt><trkpt lat="43.77484526138759" lon="10.952916400753427"><ele>169.0</ele><time>2026-04-05T13:48:33.999Z</time></trkpt><trkpt lat="43.77472109658364" lon="10.952909475686225"><ele>167.0</ele><time>2026-04-05T13:48:34.999Z</time></trkpt><trkpt lat="43.77459368850522" lon="10.952884183119492"><ele>167.0</ele><time>2026-04-05T13:48:35.999Z</time></trkpt><trkpt lat="43.77446457865015" lon="10.952830676528503"><ele>167.0</ele><time>2026-04-05T13:48:36.999Z</time></trkpt><trkpt lat="43.77433710796389" lon="10.952737032204205"><ele>167.0</ele><time>2026-04-05T13:48:37.999Z</time></trkpt><trkpt lat="43.77421702326355" lon="10.952608952897736"><ele>167.0</ele><time>2026-04-05T13:48:38.999Z</time></trkpt><trkpt lat="43.774103868667034" lon="10.952462842745739"><ele>164.75</ele><time>2026-04-05T13:48:39.999Z</time></trkpt><trkpt lat="43.77399456807744" lon="10.952309876728993"><ele>162.5</ele><time>2026-04-05T13:48:40.999Z</time></trkpt><trkpt lat="43.773893381935686" lon="10.95216147907656"><ele>160.25</ele><time>2026-04-05T13:48:41.999Z</time></trkpt><trkpt lat="43.77379089506446" lon="10.952017685500724"><ele>158.0</ele><time>2026-04-05T13:48:42.999Z</time></trkpt><trkpt lat="43.7736901356344" lon="10.951878150333485"><ele>158.0</ele><time>2026-04-05T13:48:43.999Z</time></trkpt><trkpt lat="43.77358621514412" lon="10.951734797561006"><ele>158.0</ele><time>2026-04-05T13:48:44.999Z</time></trkpt><trkpt lat="43.773481656205064" lon="10.951592782845646"><ele>158.0</ele><time>2026-04-05T13:48:45.999Z</time></trkpt><trkpt lat="43.77338170062824" lon="10.951452501299881"><ele>158.0</ele><time>2026-04-05T13:48:46.999Z</time></trkpt><trkpt lat="43.77328596775098" lon="10.951315606294383"><ele>156.0</ele><time>2026-04-05T13:48:47.999Z</time></trkpt><trkpt lat="43.77318686829654" lon="10.951190073960133"><ele>154.0</ele><time>2026-04-05T13:48:48.999Z</time></trkpt><trkpt lat="43.77309504255325" lon="10.95107826013603"><ele>152.0</ele><time>2026-04-05T13:48:49.999Z</time></trkpt><trkpt lat="43.77300893020521" lon="10.950972692737441"><ele>150.0</ele><time>2026-04-05T13:48:50.999Z</time></trkpt><trkpt lat="43.77293168617828" lon="10.950866394740663"><ele>146.5</ele><time>2026-04-05T13:48:51.999Z</time></trkpt><trkpt lat="43.77287162916612" lon="10.950741845582872"><ele>143.0</ele><time>2026-04-05T13:48:52.999Z</time></trkpt><trkpt lat="43.77282251409359" lon="10.950593211361682"><ele>139.5</ele><time>2026-04-05T13:48:53.999Z</time></trkpt><trkpt lat="43.772781379248904" lon="10.950415156885985"><ele>136.0</ele><time>2026-04-05T13:48:54.999Z</time></trkpt><trkpt lat="43.772750048991206" lon="10.950227783597615"><ele>136.0</ele><time>2026-04-05T13:48:55.999Z</time></trkpt><trkpt lat="43.7727194674909" lon="10.950035542194804"><ele>136.0</ele><time>2026-04-05T13:48:56.999Z</time></trkpt><trkpt lat="43.77269027407635" lon="10.949844686581438"><ele>136.0</ele><time>2026-04-05T13:48:57.999Z</time></trkpt><trkpt lat="43.77265999339749" lon="10.949662982905927"><ele>136.0</ele><time>2026-04-05T13:48:58.999Z</time></trkpt><trkpt lat="43.772628522665215" lon="10.949499556878468"><ele>136.0</ele><time>2026-04-05T13:48:59.999Z</time></trkpt><trkpt lat="43.77257757118513" lon="10.949336472334727"><ele>136.0</ele><time>2026-04-05T13:49:00.999Z</time></trkpt><trkpt lat="43.77250724247452" lon="10.949192436716906"><ele>136.0</ele><time>2026-04-05T13:49:01.999Z</time></trkpt><trkpt lat="43.772416085651976" lon="10.949064781575373"><ele>136.0</ele><time>2026-04-05T13:49:02.999Z</time></trkpt><trkpt lat="43.77231760848638" lon="10.94895580890191"><ele>136.0</ele><time>2026-04-05T13:49:03.999Z</time></trkpt><trkpt lat="43.77221778834039" lon="10.948849953606977"><ele>136.0</ele><time>2026-04-05T13:49:04.998Z</time></trkpt><trkpt lat="43.77212161146931" lon="10.948741784528497"><ele>136.0</ele><time>2026-04-05T13:49:05.998Z</time></trkpt><trkpt lat="43.77203858296616" lon="10.94861976319594"><ele>136.0</ele><time>2026-04-05T13:49:06.998Z</time></trkpt><trkpt lat="43.7719751027253" lon="10.948465358149532"><ele>134.0</ele><time>2026-04-05T13:49:07.998Z</time></trkpt><trkpt lat="43.771931742762284" lon="10.94827823593913"><ele>132.0</ele><time>2026-04-05T13:49:08.998Z</time></trkpt><trkpt lat="43.77190060566152" lon="10.94808859742039"><ele>130.0</ele><time>2026-04-05T13:49:09.998Z</time></trkpt><trkpt lat="43.771865356078166" lon="10.94789551197235"><ele>128.0</ele><time>2026-04-05T13:49:10.998Z</time></trkpt><trkpt lat="43.77182247950507" lon="10.947704583587695"><ele>125.25</ele><time>2026-04-05T13:49:11.998Z</time></trkpt><trkpt lat="43.771761825217794" lon="10.947529386767027"><ele>122.5</ele><time>2026-04-05T13:49:12.998Z</time></trkpt><trkpt lat="43.771680276567004" lon="10.947376583655323"><ele>119.75</ele><time>2026-04-05T13:49:13.998Z</time></trkpt><trkpt lat="43.771595720625236" lon="10.947238032500929"><ele>117.0</ele><time>2026-04-05T13:49:14.998Z</time></trkpt><trkpt lat="43.77153023416688" lon="10.947094018806576"><ele>117.0</ele><time>2026-04-05T13:49:15.998Z</time></trkpt><trkpt lat="43.771502877018314" lon="10.946941801399106"><ele>117.0</ele><time>2026-04-05T13:49:16.998Z</time></trkpt><trkpt lat="43.77151613523596" lon="10.946782794387191"><ele>117.0</ele><time>2026-04-05T13:49:17.998Z</time></trkpt><trkpt lat="43.771586644925534" lon="10.946628216613911"><ele>117.0</ele><time>2026-04-05T13:49:18.998Z</time></trkpt><trkpt lat="43.77162907056874" lon="10.946453463901122"><ele>115.5</ele><time>2026-04-05T13:49:19.998Z</time></trkpt><trkpt lat="43.77166254475072" lon="10.946261105679884"><ele>114.0</ele><time>2026-04-05T13:49:20.998Z</time></trkpt><trkpt lat="43.77167584204865" lon="10.94605118907022"><ele>112.5</ele><time>2026-04-05T13:49:21.998Z</time></trkpt><trkpt lat="43.771676199334514" lon="10.945846426563925"><ele>111.0</ele><time>2026-04-05T13:49:22.998Z</time></trkpt><trkpt lat="43.77166767914152" lon="10.945651141616771"><ele>109.5</ele><time>2026-04-05T13:49:23.998Z</time></trkpt><trkpt lat="43.77164539404006" lon="10.945447687597275"><ele>108.0</ele><time>2026-04-05T13:49:24.998Z</time></trkpt><trkpt lat="43.77161222032453" lon="10.945245228539076"><ele>106.5</ele><time>2026-04-05T13:49:25.998Z</time></trkpt><trkpt lat="43.771564414182585" lon="10.945060477774561"><ele>105.0</ele><time>2026-04-05T13:49:26.998Z</time></trkpt><trkpt lat="43.77151101356237" lon="10.94488807281618"><ele>102.5</ele><time>2026-04-05T13:49:27.998Z</time></trkpt><trkpt lat="43.771440764800566" lon="10.944735706134768"><ele>100.0</ele><time>2026-04-05T13:49:28.998Z</time></trkpt><trkpt lat="43.771348796199824" lon="10.944616894489736"><ele>97.5</ele><time>2026-04-05T13:49:30Z</time></trkpt><trkpt lat="43.77125131758146" lon="10.94451704319674"><ele>95.0</ele><time>2026-04-05T13:49:31Z</time></trkpt><trkpt lat="43.77115035078389" lon="10.944425278469541"><ele>95.0</ele><time>2026-04-05T13:49:32Z</time></trkpt><trkpt lat="43.771057585264266" lon="10.944319742509176"><ele>95.0</ele><time>2026-04-05T13:49:33Z</time></trkpt><trkpt lat="43.77099133896445" lon="10.944193727220442"><ele>95.0</ele><time>2026-04-05T13:49:34Z</time></trkpt><trkpt lat="43.77095875233633" lon="10.944039515671202"><ele>95.0</ele><time>2026-04-05T13:49:35Z</time></trkpt><trkpt lat="43.770945658548676" lon="10.943858930980474"><ele>95.25</ele><time>2026-04-05T13:49:36Z</time></trkpt><trkpt lat="43.77097762307058" lon="10.943672599193853"><ele>95.5</ele><time>2026-04-05T13:49:37Z</time></trkpt><trkpt lat="43.771013633142736" lon="10.943474631493546"><ele>95.75</ele><time>2026-04-05T13:49:38Z</time></trkpt><trkpt lat="43.771042600852816" lon="10.943270167436692"><ele>96.0</ele><time>2026-04-05T13:49:39Z</time></trkpt><trkpt lat="43.771075946613124" lon="10.943064363330448"><ele>93.0</ele><time>2026-04-05T13:49:40Z</time></trkpt><trkpt lat="43.77110861214713" lon="10.942862886742185"><ele>90.0</ele><time>2026-04-05T13:49:41Z</time></trkpt><trkpt lat="43.77114214536317" lon="10.942667262176212"><ele>87.0</ele><time>2026-04-05T13:49:42Z</time></trkpt><trkpt lat="43.7711766128493" lon="10.942483241467214"><ele>84.0</ele><time>2026-04-05T13:49:43Z</time></trkpt><trkpt lat="43.77119334093637" lon="10.942308398819746"><ele>84.0</ele><time>2026-04-05T13:49:44Z</time></trkpt><trkpt lat="43.771184675762335" lon="10.942144088981614"><ele>84.0</ele><time>2026-04-05T13:49:45Z</time></trkpt><trkpt lat="43.771148607833396" lon="10.94197230659211"><ele>84.0</ele><time>2026-04-05T13:49:46Z</time></trkpt><trkpt lat="43.771080649969754" lon="10.941801685100726"><ele>84.0</ele><time>2026-04-05T13:49:47Z</time></trkpt><trkpt lat="43.77100267345509" lon="10.941638711688007"><ele>87.25</ele><time>2026-04-05T13:49:48Z</time></trkpt><trkpt lat="43.77091639931022" lon="10.9414782435916"><ele>90.5</ele><time>2026-04-05T13:49:49Z</time></trkpt><trkpt lat="43.770827156150105" lon="10.941320466562875"><ele>93.75</ele><time>2026-04-05T13:49:50Z</time></trkpt><trkpt lat="43.77073792224052" lon="10.9411610013638"><ele>97.0</ele><time>2026-04-05T13:49:51Z</time></trkpt><trkpt lat="43.770658097585894" lon="10.940997291261029"><ele>96.75</ele><time>2026-04-05T13:49:52Z</time></trkpt><trkpt lat="43.77057147927024" lon="10.940838158322972"><ele>96.5</ele><time>2026-04-05T13:49:53Z</time></trkpt><trkpt lat="43.77048595059803" lon="10.940685202364653"><ele>96.25</ele><time>2026-04-05T13:49:54Z</time></trkpt><trkpt lat="43.77039756056486" lon="10.94053483947173"><ele>96.0</ele><time>2026-04-05T13:49:55Z</time></trkpt><trkpt lat="43.770306528587426" lon="10.940389529810016"><ele>96.0</ele><time>2026-04-05T13:49:56Z</time></trkpt><trkpt lat="43.77022226855766" lon="10.940250742013594"><ele>96.0</ele><time>2026-04-05T13:49:57Z</time></trkpt><trkpt lat="43.77014221949162" lon="10.94011791392003"><ele>96.0</ele><time>2026-04-05T13:49:58Z</time></trkpt><trkpt lat="43.77006577400434" lon="10.939990512261268"><ele>96.0</ele><time>2026-04-05T13:49:59Z</time></trkpt><trkpt lat="43.7699919259548" lon="10.939870799179236"><ele>95.8</ele><time>2026-04-05T13:50:00Z</time></trkpt><trkpt lat="43.769915546077705" lon="10.939763304694385"><ele>95.6</ele><time>2026-04-05T13:50:01Z</time></trkpt><trkpt lat="43.769838255018726" lon="10.939700313541804"><ele>95.4</ele><time>2026-04-05T13:50:02Z</time></trkpt><trkpt lat="43.769741797479455" lon="10.939645341192664"><ele>95.2</ele><time>2026-04-05T13:50:03Z</time></trkpt><trkpt lat="43.76964670238273" lon="10.939570805687381"><ele>95.0</ele><time>2026-04-05T13:50:04Z</time></trkpt><trkpt lat="43.76955923914887" lon="10.93950391326369"><ele>95.0</ele><time>2026-04-05T13:50:05Z</time></trkpt><trkpt lat="43.76947428448303" lon="10.939432612359246"><ele>95.0</ele><time>2026-04-05T13:50:06Z</time></trkpt><trkpt lat="43.769395117069784" lon="10.939331216140957"><ele>95.0</ele><time>2026-04-05T13:50:07Z</time></trkpt><trkpt lat="43.769324031391314" lon="10.939203360371257"><ele>95.0</ele><time>2026-04-05T13:50:08Z</time></trkpt><trkpt lat="43.76927850183649" lon="10.939043137786753"><ele>95.0</ele><time>2026-04-05T13:50:09Z</time></trkpt><trkpt lat="43.76923850368625" lon="10.93887573848148"><ele>94.75</ele><time>2026-04-05T13:50:10Z</time></trkpt><trkpt lat="43.76920667471644" lon="10.938689361104153"><ele>94.5</ele><time>2026-04-05T13:50:11Z</time></trkpt><trkpt lat="43.76919479486019" lon="10.93848928904615"><ele>94.25</ele><time>2026-04-05T13:50:12Z</time></trkpt><trkpt lat="43.769206999058596" lon="10.938286042071857"><ele>94.0</ele><time>2026-04-05T13:50:12.999Z</time></trkpt><trkpt lat="43.7692279912907" lon="10.938079439876915"><ele>94.0</ele><time>2026-04-05T13:50:13.999Z</time></trkpt><trkpt lat="43.76924933349628" lon="10.937867143554234"><ele>94.0</ele><time>2026-04-05T13:50:14.999Z</time></trkpt><trkpt lat="43.76927392348093" lon="10.937643827977947"><ele>94.0</ele><time>2026-04-05T13:50:15.999Z</time></trkpt><trkpt lat="43.76930139633063" lon="10.937418054907253"><ele>93.66666666666666</ele><time>2026-04-05T13:50:16.999Z</time></trkpt><trkpt lat="43.76932805601096" lon="10.937191600887472"><ele>93.33333333333333</ele><time>2026-04-05T13:50:17.999Z</time></trkpt><trkpt lat="43.76935949815327" lon="10.936966274954678"><ele>93.0</ele><time>2026-04-05T13:50:18.999Z</time></trkpt><trkpt lat="43.769403879873245" lon="10.936743083939911"><ele>91.33333333333333</ele><time>2026-04-05T13:50:19.999Z</time></trkpt><trkpt lat="43.769450603511444" lon="10.93652269783169"><ele>89.66666666666666</ele><time>2026-04-05T13:50:20.999Z</time></trkpt><trkpt lat="43.7694954479831" lon="10.936302590099919"><ele>88.0</ele><time>2026-04-05T13:50:21.999Z</time></trkpt><trkpt lat="43.76952388858967" lon="10.936084653222972"><ele>89.33333333333333</ele><time>2026-04-05T13:50:22.999Z</time></trkpt><trkpt lat="43.76953267201061" lon="10.935864035402775"><ele>90.66666666666667</ele><time>2026-04-05T13:50:23.999Z</time></trkpt><trkpt lat="43.769527640508535" lon="10.935641073524863"><ele>92.0</ele><time>2026-04-05T13:50:24.999Z</time></trkpt><trkpt lat="43.769518269197185" lon="10.93542721876292"><ele>92.0</ele><time>2026-04-05T13:50:25.999Z</time></trkpt><trkpt lat="43.76950940893049" lon="10.935231333890718"><ele>92.0</ele><time>2026-04-05T13:50:26.999Z</time></trkpt><trkpt lat="43.76951165532428" lon="10.935028063280434"><ele>92.0</ele><time>2026-04-05T13:50:27.999Z</time></trkpt><trkpt lat="43.76953529552963" lon="10.934826038944047"><ele>92.0</ele><time>2026-04-05T13:50:28.999Z</time></trkpt><trkpt lat="43.76956825073602" lon="10.934611802725607"><ele>91.66666666666667</ele><time>2026-04-05T13:50:29.999Z</time></trkpt><trkpt lat="43.76961357435235" lon="10.934400638371159"><ele>91.33333333333333</ele><time>2026-04-05T13:50:30.999Z</time></trkpt><trkpt lat="43.769662158783625" lon="10.934191002838928"><ele>91.0</ele><time>2026-04-05T13:50:31.999Z</time></trkpt><trkpt lat="43.769708430267485" lon="10.933984060482954"><ele>89.33333333333333</ele><time>2026-04-05T13:50:32.999Z</time></trkpt><trkpt lat="43.76975254549748" lon="10.933780560324433"><ele>87.66666666666667</ele><time>2026-04-05T13:50:33.999Z</time></trkpt><trkpt lat="43.76981029675361" lon="10.933582562617707"><ele>86.0</ele><time>2026-04-05T13:50:34.999Z</time></trkpt><trkpt lat="43.76988778914698" lon="10.933384110874139"><ele>85.33333333333334</ele><time>2026-04-05T13:50:35.999Z</time></trkpt><trkpt lat="43.769981888680434" lon="10.933191477480415"><ele>84.66666666666667</ele><time>2026-04-05T13:50:36.999Z</time></trkpt><trkpt lat="43.770086753609135" lon="10.933006937112824"><ele>84.0</ele><time>2026-04-05T13:50:37.999Z</time></trkpt><trkpt lat="43.77019491874898" lon="10.9328317990337"><ele>83.66666666666667</ele><time>2026-04-05T13:50:38.999Z</time></trkpt><trkpt lat="43.770293635472" lon="10.932644855426515"><ele>83.33333333333334</ele><time>2026-04-05T13:50:39.999Z</time></trkpt><trkpt lat="43.770378988485916" lon="10.93244807554904"><ele>83.0</ele><time>2026-04-05T13:50:40.999Z</time></trkpt><trkpt lat="43.770452376634736" lon="10.932246818157278"><ele>83.0</ele><time>2026-04-05T13:50:41.999Z</time></trkpt><trkpt lat="43.770519149090745" lon="10.932038429037991"><ele>83.0</ele><time>2026-04-05T13:50:42.999Z</time></trkpt><trkpt lat="43.77057661020948" lon="10.931828646022984"><ele>83.0</ele><time>2026-04-05T13:50:43.999Z</time></trkpt><trkpt lat="43.77061477883407" lon="10.931621673556448"><ele>84.66666666666667</ele><time>2026-04-05T13:50:44.999Z</time></trkpt><trkpt lat="43.77063310265799" lon="10.931413738993388"><ele>86.33333333333333</ele><time>2026-04-05T13:50:45.999Z</time></trkpt><trkpt lat="43.770640227693264" lon="10.931201281337456"><ele>88.0</ele><time>2026-04-05T13:50:46.999Z</time></trkpt><trkpt lat="43.77065179137445" lon="10.93099042531149"><ele>87.25</ele><time>2026-04-05T13:50:47.999Z</time></trkpt><trkpt lat="43.770660956035734" lon="10.930791295802154"><ele>86.5</ele><time>2026-04-05T13:50:48.999Z</time></trkpt><trkpt lat="43.77067028048864" lon="10.930602539871103"><ele>85.75</ele><time>2026-04-05T13:50:49.999Z</time></trkpt><trkpt lat="43.77069169464745" lon="10.93042869863412"><ele>85.0</ele><time>2026-04-05T13:50:50.999Z</time></trkpt><trkpt lat="43.77073399955788" lon="10.930267705917782"><ele>85.0</ele><time>2026-04-05T13:50:51.999Z</time></trkpt><trkpt lat="43.77083004696957" lon="10.930151610645922"><ele>85.0</ele><time>2026-04-05T13:50:52.999Z</time></trkpt><trkpt lat="43.77093461121628" lon="10.93002038216329"><ele>85.0</ele><time>2026-04-05T13:50:53.999Z</time></trkpt><trkpt lat="43.771054858641925" lon="10.929909536938755"><ele>85.0</ele><time>2026-04-05T13:50:54.999Z</time></trkpt><trkpt lat="43.771191480429806" lon="10.929803769850718"><ele>83.33333333333333</ele><time>2026-04-05T13:50:55.999Z</time></trkpt><trkpt lat="43.771336702393754" lon="10.92971382982098"><ele>81.66666666666667</ele><time>2026-04-05T13:50:56.999Z</time></trkpt><trkpt lat="43.77147731244117" lon="10.929635364216445"><ele>80.0</ele><time>2026-04-05T13:50:57.999Z</time></trkpt><trkpt lat="43.77160997818269" lon="10.929549013289957"><ele>80.0</ele><time>2026-04-05T13:50:58.999Z</time></trkpt><trkpt lat="43.771749939002724" lon="10.929488083838603"><ele>80.0</ele><time>2026-04-05T13:50:59.999Z</time></trkpt><trkpt lat="43.77188366681607" lon="10.929407371250646"><ele>80.0</ele><time>2026-04-05T13:51:00.999Z</time></trkpt><trkpt lat="43.772012257000206" lon="10.92932022633247"><ele>80.0</ele><time>2026-04-05T13:51:01.999Z</time></trkpt><trkpt lat="43.77212711876719" lon="10.929224901278005"><ele>78.5</ele><time>2026-04-05T13:51:02.999Z</time></trkpt><trkpt lat="43.772229229824035" lon="10.929107233397119"><ele>77.0</ele><time>2026-04-05T13:51:03.999Z</time></trkpt><trkpt lat="43.77231924407953" lon="10.928958942980799"><ele>75.5</ele><time>2026-04-05T13:51:04.999Z</time></trkpt><trkpt lat="43.7723918265595" lon="10.928800912004641"><ele>74.0</ele><time>2026-04-05T13:51:05.999Z</time></trkpt><trkpt lat="43.772454367317984" lon="10.92865259522707"><ele>74.0</ele><time>2026-04-05T13:51:06.999Z</time></trkpt><trkpt lat="43.77252551650957" lon="10.9285159422318"><ele>74.0</ele><time>2026-04-05T13:51:07.999Z</time></trkpt><trkpt lat="43.77260546104009" lon="10.928405710122313"><ele>74.0</ele><time>2026-04-05T13:51:08.999Z</time></trkpt><trkpt lat="43.772702036844954" lon="10.928328176694848"><ele>74.0</ele><time>2026-04-05T13:51:09.999Z</time></trkpt><trkpt lat="43.772824513852996" lon="10.928274576569395"><ele>72.75</ele><time>2026-04-05T13:51:10.998Z</time></trkpt><trkpt lat="43.772936239316984" lon="10.928216900801775"><ele>71.5</ele><time>2026-04-05T13:51:11.998Z</time></trkpt><trkpt lat="43.773035289195974" lon="10.928128228164926"><ele>70.25</ele><time>2026-04-05T13:51:12.998Z</time></trkpt><trkpt lat="43.77312826114896" lon="10.928010454029778"><ele>69.0</ele><time>2026-04-05T13:51:13.998Z</time></trkpt><trkpt lat="43.77322156235558" lon="10.927893080947102"><ele>69.0</ele><time>2026-04-05T13:51:14.998Z</time></trkpt><trkpt lat="43.773317899333335" lon="10.927782407211252"><ele>69.0</ele><time>2026-04-05T13:51:15.998Z</time></trkpt><trkpt lat="43.77341668477177" lon="10.927668593227445"><ele>69.0</ele><time>2026-04-05T13:51:16.998Z</time></trkpt><trkpt lat="43.773514336401554" lon="10.927555890666868"><ele>69.0</ele><time>2026-04-05T13:51:17.998Z</time></trkpt><trkpt lat="43.77362651382031" lon="10.927479493324183"><ele>64.0</ele><time>2026-04-05T13:51:18.998Z</time></trkpt><trkpt lat="43.77373774039486" lon="10.927393015984363"><ele>59.0</ele><time>2026-04-05T13:51:19.998Z</time></trkpt><trkpt lat="43.77386551107337" lon="10.927366029531758"><ele>54.0</ele><time>2026-04-05T13:51:20.998Z</time></trkpt><trkpt lat="43.773998988084394" lon="10.927333920127698"><ele>49.0</ele><time>2026-04-05T13:51:21.998Z</time></trkpt><trkpt lat="43.7741416551072" lon="10.927286477827325"><ele>49.0</ele><time>2026-04-05T13:51:22.998Z</time></trkpt><trkpt lat="43.77427907201625" lon="10.92726139165029"><ele>49.0</ele><time>2026-04-05T13:51:23.998Z</time></trkpt><trkpt lat="43.7744127148577" lon="10.927225167764728"><ele>49.0</ele><time>2026-04-05T13:51:24.998Z</time></trkpt><trkpt lat="43.77454506893591" lon="10.92718124056756"><ele>49.0</ele><time>2026-04-05T13:51:25.998Z</time></trkpt><trkpt lat="43.77468394020919" lon="10.927132213163695"><ele>47.75</ele><time>2026-04-05T13:51:26.998Z</time></trkpt><trkpt lat="43.77482551787222" lon="10.927094995277114"><ele>46.5</ele><time>2026-04-05T13:51:27.998Z</time></trkpt><trkpt lat="43.774959284153134" lon="10.927070999325602"><ele>45.25</ele><time>2026-04-05T13:51:28.998Z</time></trkpt><trkpt lat="43.775096589994185" lon="10.927081062594446"><ele>44.0</ele><time>2026-04-05T13:51:29.998Z</time></trkpt><trkpt lat="43.775238362261135" lon="10.927074798139731"><ele>43.25</ele><time>2026-04-05T13:51:30.998Z</time></trkpt><trkpt lat="43.775375108431604" lon="10.92704023332171"><ele>42.5</ele><time>2026-04-05T13:51:31.998Z</time></trkpt><trkpt lat="43.775498651397044" lon="10.926986787299185"><ele>41.75</ele><time>2026-04-05T13:51:32.998Z</time></trkpt><trkpt lat="43.77561664666085" lon="10.926952469708812"><ele>41.0</ele><time>2026-04-05T13:51:33.998Z</time></trkpt><trkpt lat="43.775724963182164" lon="10.926916666027823"><ele>41.0</ele><time>2026-04-05T13:51:34.998Z</time></trkpt><trkpt lat="43.77583493881958" lon="10.92688115470064"><ele>41.0</ele><time>2026-04-05T13:51:36Z</time></trkpt><trkpt lat="43.77594553764656" lon="10.926843812991613"><ele>41.0</ele><time>2026-04-05T13:51:37Z</time></trkpt><trkpt lat="43.77605900980721" lon="10.926803140591195"><ele>41.0</ele><time>2026-04-05T13:51:38Z</time></trkpt><trkpt lat="43.77617437258004" lon="10.926769218688873"><ele>40.75</ele><time>2026-04-05T13:51:39Z</time></trkpt><trkpt lat="43.77629068252024" lon="10.92676022066032"><ele>40.5</ele><time>2026-04-05T13:51:40Z</time></trkpt><trkpt lat="43.7764096122861" lon="10.926809383380187"><ele>40.25</ele><time>2026-04-05T13:51:41Z</time></trkpt><trkpt lat="43.7765405553569" lon="10.926835319076007"><ele>40.0</ele><time>2026-04-05T13:51:42Z</time></trkpt><trkpt lat="43.77666931430904" lon="10.926881375839644"><ele>40.0</ele><time>2026-04-05T13:51:43Z</time></trkpt><trkpt lat="43.776802500625436" lon="10.926920395659907"><ele>40.0</ele><time>2026-04-05T13:51:44Z</time></trkpt><trkpt lat="43.776937983645574" lon="10.926959042715172"><ele>40.0</ele><time>2026-04-05T13:51:45Z</time></trkpt><trkpt lat="43.77707495164049" lon="10.926999665826955"><ele>40.0</ele><time>2026-04-05T13:51:46Z</time></trkpt><trkpt lat="43.777209296373364" lon="10.927043416444318"><ele>40.5</ele><time>2026-04-05T13:51:47Z</time></trkpt><trkpt lat="43.77734286301107" lon="10.927085816894122"><ele>41.0</ele><time>2026-04-05T13:51:48Z</time></trkpt><trkpt lat="43.77747710695606" lon="10.927121410391754"><ele>41.5</ele><time>2026-04-05T13:51:49Z</time></trkpt><trkpt lat="43.77761222746719" lon="10.927156944736636"><ele>42.0</ele><time>2026-04-05T13:51:50Z</time></trkpt><trkpt lat="43.777749675717935" lon="10.927187255001964"><ele>42.0</ele><time>2026-04-05T13:51:51Z</time></trkpt><trkpt lat="43.777886693666524" lon="10.92721925523622"><ele>42.0</ele><time>2026-04-05T13:51:52Z</time></trkpt><trkpt lat="43.778019810079584" lon="10.927248438543836"><ele>42.0</ele><time>2026-04-05T13:51:53Z</time></trkpt><trkpt lat="43.778152699108055" lon="10.92727616998869"><ele>42.0</ele><time>2026-04-05T13:51:54Z</time></trkpt><trkpt lat="43.778282243960824" lon="10.927329583900956"><ele>42.0</ele><time>2026-04-05T13:51:55Z</time></trkpt><trkpt lat="43.77841338130838" lon="10.927357271972479"><ele>42.0</ele><time>2026-04-05T13:51:56Z</time></trkpt><trkpt lat="43.778542815108" lon="10.927391400712823"><ele>42.0</ele><time>2026-04-05T13:51:57Z</time></trkpt><trkpt lat="43.77867074484811" lon="10.927429755368081"><ele>42.0</ele><time>2026-04-05T13:51:58Z</time></trkpt><trkpt lat="43.778795403242334" lon="10.92748636298122"><ele>42.25</ele><time>2026-04-05T13:51:59Z</time></trkpt><trkpt lat="43.77891556776591" lon="10.927559583481774"><ele>42.5</ele><time>2026-04-05T13:52:00Z</time></trkpt><trkpt lat="43.779031301128946" lon="10.92764979913085"><ele>42.75</ele><time>2026-04-05T13:52:01Z</time></trkpt><trkpt lat="43.77914833965424" lon="10.927739222182753"><ele>43.0</ele><time>2026-04-05T13:52:02Z</time></trkpt><trkpt lat="43.779269481019824" lon="10.927819045716225"><ele>43.25</ele><time>2026-04-05T13:52:03Z</time></trkpt><trkpt lat="43.779400171783436" lon="10.927882469439966"><ele>43.5</ele><time>2026-04-05T13:52:04Z</time></trkpt><trkpt lat="43.77952740426294" lon="10.927950740621512"><ele>43.75</ele><time>2026-04-05T13:52:05Z</time></trkpt><trkpt lat="43.77964645886708" lon="10.928037572154121"><ele>44.0</ele><time>2026-04-05T13:52:06Z</time></trkpt><trkpt lat="43.779763996258914" lon="10.92813735330073"><ele>44.0</ele><time>2026-04-05T13:52:07Z</time></trkpt><trkpt lat="43.77988112658783" lon="10.928239923366329"><ele>44.0</ele><time>2026-04-05T13:52:08Z</time></trkpt><trkpt lat="43.779998384781265" lon="10.92834041661926"><ele>44.0</ele><time>2026-04-05T13:52:09Z</time></trkpt><trkpt lat="43.780110570245455" lon="10.928445660075337"><ele>44.0</ele><time>2026-04-05T13:52:10Z</time></trkpt><trkpt lat="43.78022239835445" lon="10.928552720550815"><ele>44.25</ele><time>2026-04-05T13:52:11Z</time></trkpt><trkpt lat="43.78033099941938" lon="10.92866054960615"><ele>44.5</ele><time>2026-04-05T13:52:12Z</time></trkpt><trkpt lat="43.78044053908103" lon="10.928758480667582"><ele>44.75</ele><time>2026-04-05T13:52:13Z</time></trkpt><trkpt lat="43.780531162259415" lon="10.928835004683716"><ele>45.0</ele><time>2026-04-05T13:52:14Z</time></trkpt><trkpt lat="43.78060911955007" lon="10.92888523443587"><ele>45.0</ele><time>2026-04-05T13:52:15Z</time></trkpt><trkpt lat="43.780732597869" lon="10.928879369513766"><ele>45.0</ele><time>2026-04-05T13:52:17Z</time></trkpt><trkpt lat="43.78078062773804" lon="10.928775182624156"><ele>45.0</ele><time>2026-04-05T13:52:17.999Z</time></trkpt><trkpt lat="43.780823601762215" lon="10.928663556930102"><ele>45.0</ele><time>2026-04-05T13:52:18.999Z</time></trkpt><trkpt lat="43.780898629424094" lon="10.928562603985698"><ele>45.0</ele><time>2026-04-05T13:52:19.999Z</time></trkpt><trkpt lat="43.78099732518712" lon="10.928485786081627"><ele>45.25</ele><time>2026-04-05T13:52:20.999Z</time></trkpt><trkpt lat="43.78112197797943" lon="10.928458591490672"><ele>45.5</ele><time>2026-04-05T13:52:21.999Z</time></trkpt><trkpt lat="43.781245870905174" lon="10.928417272638788"><ele>45.75</ele><time>2026-04-05T13:52:22.999Z</time></trkpt><trkpt lat="43.78137821081134" lon="10.928374597641268"><ele>46.0</ele><time>2026-04-05T13:52:23.999Z</time></trkpt><trkpt lat="43.78151676375799" lon="10.928332966905844"><ele>46.25</ele><time>2026-04-05T13:52:24.999Z</time></trkpt><trkpt lat="43.781654033035814" lon="10.928291721936521"><ele>46.5</ele><time>2026-04-05T13:52:25.999Z</time></trkpt><trkpt lat="43.781785365496354" lon="10.92825226077005"><ele>46.75</ele><time>2026-04-05T13:52:26.999Z</time></trkpt><trkpt lat="43.78191128858757" lon="10.928214424930937"><ele>47.0</ele><time>2026-04-05T13:52:27.999Z</time></trkpt><trkpt lat="43.782034515047044" lon="10.928157518224635"><ele>47.0</ele><time>2026-04-05T13:52:28.999Z</time></trkpt><trkpt lat="43.78214745949854" lon="10.928129736717333"><ele>47.0</ele><time>2026-04-05T13:52:29.999Z</time></trkpt><trkpt lat="43.782259530517535" lon="10.928109647270045"><ele>47.0</ele><time>2026-04-05T13:52:30.999Z</time></trkpt><trkpt lat="43.78235951745887" lon="10.928036734772945"><ele>47.0</ele><time>2026-04-05T13:52:31.999Z</time></trkpt><trkpt lat="43.782451480034005" lon="10.927942207364618"><ele>47.0</ele><time>2026-04-05T13:52:32.999Z</time></trkpt><trkpt lat="43.78253110765404" lon="10.927809671509596"><ele>47.0</ele><time>2026-04-05T13:52:33.999Z</time></trkpt><trkpt lat="43.78261623446328" lon="10.927670685367444"><ele>47.0</ele><time>2026-04-05T13:52:34.999Z</time></trkpt><trkpt lat="43.78270462763832" lon="10.927528868404494"><ele>47.0</ele><time>2026-04-05T13:52:35.999Z</time></trkpt><trkpt lat="43.782788920983776" lon="10.927385351441702"><ele>47.75</ele><time>2026-04-05T13:52:36.999Z</time></trkpt><trkpt lat="43.782865266523345" lon="10.927248445187628"><ele>48.5</ele><time>2026-04-05T13:52:37.999Z</time></trkpt><trkpt lat="43.782927355294056" lon="10.927100142007363"><ele>49.25</ele><time>2026-04-05T13:52:38.999Z</time></trkpt><trkpt lat="43.78297620121974" lon="10.926946636689385"><ele>50.0</ele><time>2026-04-05T13:52:39.999Z</time></trkpt><trkpt lat="43.78301736912562" lon="10.926806794403037"><ele>52.4</ele><time>2026-04-05T13:52:40.999Z</time></trkpt><trkpt lat="43.78306102887096" lon="10.926699644516518"><ele>54.8</ele><time>2026-04-05T13:52:41.999Z</time></trkpt><trkpt lat="43.78310635367965" lon="10.926610632649403"><ele>57.2</ele><time>2026-04-05T13:52:42.999Z</time></trkpt><trkpt lat="43.783164660323415" lon="10.926521260234349"><ele>59.6</ele><time>2026-04-05T13:52:43.999Z</time></trkpt><trkpt lat="43.78324541852209" lon="10.926438910064883"><ele>62.0</ele><time>2026-04-05T13:52:44.999Z</time></trkpt><trkpt lat="43.78333787125836" lon="10.926346611602895"><ele>62.0</ele><time>2026-04-05T13:52:45.999Z</time></trkpt><trkpt lat="43.78343233488813" lon="10.92625806014904"><ele>62.0</ele><time>2026-04-05T13:52:46.999Z</time></trkpt><trkpt lat="43.78351768472704" lon="10.926176898918191"><ele>62.0</ele><time>2026-04-05T13:52:47.999Z</time></trkpt><trkpt lat="43.7836036297524" lon="10.926094098959087"><ele>62.0</ele><time>2026-04-05T13:52:48.999Z</time></trkpt><trkpt lat="43.783678847189755" lon="10.926034427429816"><ele>62.0</ele><time>2026-04-05T13:52:49.999Z</time></trkpt><trkpt lat="43.783741553685935" lon="10.925983538715126"><ele>58.0</ele><time>2026-04-05T13:52:50.999Z</time></trkpt><trkpt lat="43.78384859393977" lon="10.925900146826798"><ele>58.0</ele><time>2026-04-05T13:52:52.999Z</time></trkpt></trkseg><trkseg><trkpt lat="43.785656740192344" lon="10.925947092700545"><ele>74.0</ele><time>2026-04-05T14:24:26.999Z</time></trkpt><trkpt lat="43.78570008744162" lon="10.926038367676345"><ele>74.0</ele><time>2026-04-05T14:24:27.999Z</time></trkpt><trkpt lat="43.78575737957944" lon="10.926148913842557"><ele>74.0</ele><time>2026-04-05T14:24:28.999Z</time></trkpt><trkpt lat="43.78581769890261" lon="10.92626489206219"><ele>74.0</ele><time>2026-04-05T14:24:29.999Z</time></trkpt><trkpt lat="43.785837386783605" lon="10.926428285016225"><ele>74.0</ele><time>2026-04-05T14:24:30.999Z</time></trkpt><trkpt lat="43.78590892633087" lon="10.926543583389119"><ele>74.0</ele><time>2026-04-05T14:24:31.999Z</time></trkpt><trkpt lat="43.785983961720994" lon="10.926646879742473"><ele>74.0</ele><time>2026-04-05T14:24:32.999Z</time></trkpt><trkpt lat="43.78606114586866" lon="10.926743585526525"><ele>74.0</ele><time>2026-04-05T14:24:33.999Z</time></trkpt><trkpt lat="43.78613238576239" lon="10.92683043383211"><ele>74.0</ele><time>2026-04-05T14:24:34.999Z</time></trkpt><trkpt lat="43.78618531903563" lon="10.926890275561451"><ele>74.0</ele><time>2026-04-05T14:24:35.999Z</time></trkpt><trkpt lat="43.78627598054273" lon="10.926983852285852"><ele>74.5</ele><time>2026-04-05T14:24:37.999Z</time></trkpt><trkpt lat="43.78634829448615" lon="10.927001096117548"><ele>75.0</ele><time>2026-04-05T14:24:38.999Z</time></trkpt><trkpt lat="43.78642157075563" lon="10.92705748621231"><ele>75.5</ele><time>2026-04-05T14:24:39.999Z</time></trkpt><trkpt lat="43.78649364257178" lon="10.927126756440241"><ele>76.0</ele><time>2026-04-05T14:24:40.999Z</time></trkpt><trkpt lat="43.78657336027402" lon="10.927198195780527"><ele>76.5</ele><time>2026-04-05T14:24:41.999Z</time></trkpt><trkpt lat="43.78666300206163" lon="10.927267773411966"><ele>77.0</ele><time>2026-04-05T14:24:42.999Z</time></trkpt><trkpt lat="43.78675561243357" lon="10.927319592175863"><ele>76.0</ele><time>2026-04-05T14:24:43.999Z</time></trkpt><trkpt lat="43.78684783078357" lon="10.927374115123266"><ele>75.0</ele><time>2026-04-05T14:24:44.999Z</time></trkpt><trkpt lat="43.78693526210726" lon="10.927436445039058"><ele>74.0</ele><time>2026-04-05T14:24:45.999Z</time></trkpt><trkpt lat="43.78702665931245" lon="10.927483280522871"><ele>73.0</ele><time>2026-04-05T14:24:46.999Z</time></trkpt><trkpt lat="43.78712224031353" lon="10.927550765506002"><ele>72.0</ele><time>2026-04-05T14:24:47.999Z</time></trkpt><trkpt lat="43.78721725478249" lon="10.927617591203575"><ele>72.0</ele><time>2026-04-05T14:24:48.998Z</time></trkpt><trkpt lat="43.78730392900156" lon="10.927677665000193"><ele>72.0</ele><time>2026-04-05T14:24:49.998Z</time></trkpt><trkpt lat="43.787394203409455" lon="10.927734759115342"><ele>72.0</ele><time>2026-04-05T14:24:50.998Z</time></trkpt><trkpt lat="43.78748578598138" lon="10.927789051838866"><ele>72.0</ele><time>2026-04-05T14:24:51.998Z</time></trkpt><trkpt lat="43.787573946345056" lon="10.927844531648283"><ele>72.0</ele><time>2026-04-05T14:24:52.998Z</time></trkpt><trkpt lat="43.787663210857104" lon="10.927903196997544"><ele>74.0</ele><time>2026-04-05T14:24:53.998Z</time></trkpt><trkpt lat="43.78774657726542" lon="10.927956508277042"><ele>76.0</ele><time>2026-04-05T14:24:54.998Z</time></trkpt><trkpt lat="43.78782898493939" lon="10.928017739698516"><ele>78.0</ele><time>2026-04-05T14:24:55.998Z</time></trkpt><trkpt lat="43.787919883633606" lon="10.928067330685826"><ele>80.0</ele><time>2026-04-05T14:24:56.998Z</time></trkpt><trkpt lat="43.788004282675224" lon="10.928119161089642"><ele>82.0</ele><time>2026-04-05T14:24:57.998Z</time></trkpt><trkpt lat="43.78808323482292" lon="10.92816659303192"><ele>82.0</ele><time>2026-04-05T14:24:58.998Z</time></trkpt><trkpt lat="43.78816095009366" lon="10.928210004553092"><ele>82.0</ele><time>2026-04-05T14:24:59.998Z</time></trkpt><trkpt lat="43.78824103987773" lon="10.928250154847873"><ele>82.0</ele><time>2026-04-05T14:25:00.998Z</time></trkpt><trkpt lat="43.78831657149915" lon="10.928278602166333"><ele>82.0</ele><time>2026-04-05T14:25:01.998Z</time></trkpt><trkpt lat="43.78838323669841" lon="10.928298123082612"><ele>82.0</ele><time>2026-04-05T14:25:02.998Z</time></trkpt><trkpt lat="43.788501503438745" lon="10.928313136714552"><ele>82.0</ele><time>2026-04-05T14:25:05Z</time></trkpt><trkpt lat="43.78856642320167" lon="10.928321127051248"><ele>82.39999999999999</ele><time>2026-04-05T14:25:06Z</time></trkpt><trkpt lat="43.78869058771455" lon="10.928334110001247"><ele>82.8</ele><time>2026-04-05T14:25:08Z</time></trkpt><trkpt lat="43.788801802901204" lon="10.928355128895513"><ele>83.2</ele><time>2026-04-05T14:25:10Z</time></trkpt><trkpt lat="43.78890300837692" lon="10.928432365962829"><ele>83.6</ele><time>2026-04-05T14:25:12Z</time></trkpt><trkpt lat="43.788964575092216" lon="10.92848144452369"><ele>84.0</ele><time>2026-04-05T14:25:14Z</time></trkpt><trkpt lat="43.789027572318226" lon="10.928538440688436"><ele>84.0</ele><time>2026-04-05T14:25:36Z</time></trkpt><trkpt lat="43.78912325666252" lon="10.928585204617802"><ele>84.0</ele><time>2026-04-05T14:26:48.999Z</time></trkpt><trkpt lat="43.78922770862545" lon="10.928698148192696"><ele>84.0</ele><time>2026-04-05T14:26:50.999Z</time></trkpt><trkpt lat="43.78929665074599" lon="10.928772513186669"><ele>84.0</ele><time>2026-04-05T14:26:51.999Z</time></trkpt><trkpt lat="43.789368695287955" lon="10.928849410135745"><ele>84.0</ele><time>2026-04-05T14:26:52.999Z</time></trkpt><trkpt lat="43.7894386084992" lon="10.92896189828078"><ele>86.0</ele><time>2026-04-05T14:26:53.999Z</time></trkpt><trkpt lat="43.78955064794056" lon="10.9289563022303"><ele>88.0</ele><time>2026-04-05T14:26:54.999Z</time></trkpt><trkpt lat="43.789672960588646" lon="10.928980458373447"><ele>90.0</ele><time>2026-04-05T14:26:55.998Z</time></trkpt><trkpt lat="43.78977101471943" lon="10.929013320344778"><ele>92.0</ele><time>2026-04-05T14:26:56.998Z</time></trkpt><trkpt lat="43.789900801938806" lon="10.929040478724279"><ele>92.0</ele><time>2026-04-05T14:26:57.998Z</time></trkpt><trkpt lat="43.79001980626102" lon="10.929059387593538"><ele>92.0</ele><time>2026-04-05T14:26:58.998Z</time></trkpt><trkpt lat="43.790123384216265" lon="10.929075880363392"><ele>92.0</ele><time>2026-04-05T14:26:59.998Z</time></trkpt><trkpt lat="43.790224337249555" lon="10.929110589820747"><ele>92.0</ele><time>2026-04-05T14:27:00.998Z</time></trkpt><trkpt lat="43.79032393136049" lon="10.92914713823744"><ele>92.0</ele><time>2026-04-05T14:27:01.998Z</time></trkpt><trkpt lat="43.79040018765322" lon="10.929150482661528"><ele>93.0</ele><time>2026-04-05T14:27:02.998Z</time></trkpt><trkpt lat="43.79052037637995" lon="10.929212840683613"><ele>94.0</ele><time>2026-04-05T14:27:04.998Z</time></trkpt><trkpt lat="43.790609929997" lon="10.929193638026613"><ele>95.0</ele><time>2026-04-05T14:27:05.998Z</time></trkpt><trkpt lat="43.7906962148077" lon="10.929214740352371"><ele>96.0</ele><time>2026-04-05T14:27:06.998Z</time></trkpt><trkpt lat="43.790816395030795" lon="10.929223438351562"><ele>97.0</ele><time>2026-04-05T14:27:07.998Z</time></trkpt><trkpt lat="43.79093197814121" lon="10.929198203548198"><ele>97.75</ele><time>2026-04-05T14:27:08.998Z</time></trkpt><trkpt lat="43.79104644404415" lon="10.929200101838264"><ele>98.5</ele><time>2026-04-05T14:27:10Z</time></trkpt><trkpt lat="43.791172713749006" lon="10.929174580338355"><ele>99.25</ele><time>2026-04-05T14:27:11Z</time></trkpt><trkpt lat="43.7913063908242" lon="10.929147561653329"><ele>100.0</ele><time>2026-04-05T14:27:12Z</time></trkpt><trkpt lat="43.79144346952524" lon="10.929119937447638"><ele>100.0</ele><time>2026-04-05T14:27:13Z</time></trkpt><trkpt lat="43.79156836697545" lon="10.929094981194213"><ele>100.0</ele><time>2026-04-05T14:27:14Z</time></trkpt><trkpt lat="43.79168459226229" lon="10.929071757773476"><ele>100.0</ele><time>2026-04-05T14:27:15Z</time></trkpt><trkpt lat="43.79179608805347" lon="10.929033005240742"><ele>100.0</ele><time>2026-04-05T14:27:16Z</time></trkpt><trkpt lat="43.79190772001928" lon="10.92901079014859"><ele>100.0</ele><time>2026-04-05T14:27:17Z</time></trkpt><trkpt lat="43.7920269604354" lon="10.928993683531797"><ele>100.0</ele><time>2026-04-05T14:27:18Z</time></trkpt><trkpt lat="43.79213823504171" lon="10.928961001621614"><ele>100.0</ele><time>2026-04-05T14:27:19Z</time></trkpt><trkpt lat="43.79225077489152" lon="10.928902739672493"><ele>100.0</ele><time>2026-04-05T14:27:20Z</time></trkpt><trkpt lat="43.79236154178369" lon="10.928808664037525"><ele>100.0</ele><time>2026-04-05T14:27:21Z</time></trkpt><trkpt lat="43.79246402508015" lon="10.928698014824105"><ele>100.0</ele><time>2026-04-05T14:27:22Z</time></trkpt><trkpt lat="43.792574566120194" lon="10.92860028365343"><ele>100.0</ele><time>2026-04-05T14:27:23Z</time></trkpt><trkpt lat="43.79269201951543" lon="10.92851976479114"><ele>100.0</ele><time>2026-04-05T14:27:24Z</time></trkpt><trkpt lat="43.79281255715073" lon="10.928472843117454"><ele>101.0</ele><time>2026-04-05T14:27:25Z</time></trkpt><trkpt lat="43.79292710209468" lon="10.928522115295864"><ele>102.0</ele><time>2026-04-05T14:27:26Z</time></trkpt><trkpt lat="43.79305568761805" lon="10.928539331894246"><ele>103.0</ele><time>2026-04-05T14:27:27Z</time></trkpt><trkpt lat="43.79317740553546" lon="10.928549062857751"><ele>104.0</ele><time>2026-04-05T14:27:28Z</time></trkpt><trkpt lat="43.79331204182511" lon="10.928542069895677"><ele>104.0</ele><time>2026-04-05T14:27:29Z</time></trkpt><trkpt lat="43.79343970532216" lon="10.928527798003946"><ele>104.0</ele><time>2026-04-05T14:27:30Z</time></trkpt><trkpt lat="43.79356762390962" lon="10.928506493381802"><ele>104.0</ele><time>2026-04-05T14:27:31Z</time></trkpt><trkpt lat="43.79369471835922" lon="10.928484564933356"><ele>104.0</ele><time>2026-04-05T14:27:32Z</time></trkpt><trkpt lat="43.793824177286574" lon="10.928462228526678"><ele>105.5</ele><time>2026-04-05T14:27:33Z</time></trkpt><trkpt lat="43.79395250805611" lon="10.928440086765084"><ele>107.0</ele><time>2026-04-05T14:27:34Z</time></trkpt><trkpt lat="43.794075151928865" lon="10.928400173748852"><ele>108.5</ele><time>2026-04-05T14:27:35Z</time></trkpt><trkpt lat="43.79419689873436" lon="10.928391240958156"><ele>110.0</ele><time>2026-04-05T14:27:36Z</time></trkpt><trkpt lat="43.794302418514626" lon="10.928437948458491"><ele>113.0</ele><time>2026-04-05T14:27:37Z</time></trkpt><trkpt lat="43.794412543425864" lon="10.928507196242151"><ele>116.0</ele><time>2026-04-05T14:27:38Z</time></trkpt><trkpt lat="43.79451682704824" lon="10.928584697837135"><ele>119.0</ele><time>2026-04-05T14:27:39Z</time></trkpt><trkpt lat="43.794624778988016" lon="10.92866001883702"><ele>122.0</ele><time>2026-04-05T14:27:40Z</time></trkpt><trkpt lat="43.79471288448691" lon="10.92872149246674"><ele>121.99999999999999</ele><time>2026-04-05T14:27:41Z</time></trkpt><trkpt lat="43.79478705734008" lon="10.928773245036231"><ele>122.0</ele><time>2026-04-05T14:27:42Z</time></trkpt><trkpt lat="43.794851945630505" lon="10.928818519304025"><ele>122.0</ele><time>2026-04-05T14:27:43Z</time></trkpt><trkpt lat="43.794915918847266" lon="10.928863519866262"><ele>122.0</ele><time>2026-04-05T14:27:44Z</time></trkpt><trkpt lat="43.79498739548743" lon="10.928914334751825"><ele>121.99999999999999</ele><time>2026-04-05T14:27:45Z</time></trkpt><trkpt lat="43.7950594109376" lon="10.92894129337733"><ele>122.0</ele><time>2026-04-05T14:27:46Z</time></trkpt><trkpt lat="43.79512431456072" lon="10.928986059346576"><ele>123.19999999999999</ele><time>2026-04-05T14:27:47Z</time></trkpt><trkpt lat="43.79519118763156" lon="10.929047188345281"><ele>124.39999999999999</ele><time>2026-04-05T14:27:48Z</time></trkpt><trkpt lat="43.795292186564886" lon="10.929039292407094"><ele>125.60000000000001</ele><time>2026-04-05T14:27:49Z</time></trkpt><trkpt lat="43.79539553535917" lon="10.929017976363015"><ele>126.80000000000001</ele><time>2026-04-05T14:27:50Z</time></trkpt><trkpt lat="43.79550574160563" lon="10.928972842127298"><ele>128.0</ele><time>2026-04-05T14:27:51Z</time></trkpt><trkpt lat="43.795608719254666" lon="10.928908467946096"><ele>128.0</ele><time>2026-04-05T14:27:52Z</time></trkpt><trkpt lat="43.79571917378252" lon="10.928825480982033"><ele>128.0</ele><time>2026-04-05T14:27:53Z</time></trkpt><trkpt lat="43.79583641713624" lon="10.928735010729811"><ele>128.0</ele><time>2026-04-05T14:27:54Z</time></trkpt><trkpt lat="43.795930501645934" lon="10.928644230746695"><ele>128.0</ele><time>2026-04-05T14:27:55Z</time></trkpt><trkpt lat="43.79601578145762" lon="10.928564657012759"><ele>127.4</ele><time>2026-04-05T14:27:56Z</time></trkpt><trkpt lat="43.79610205916527" lon="10.928494444683853"><ele>126.80000000000001</ele><time>2026-04-05T14:27:57Z</time></trkpt><trkpt lat="43.79619789467864" lon="10.928437054432889"><ele>126.2</ele><time>2026-04-05T14:27:58Z</time></trkpt><trkpt lat="43.79630590279352" lon="10.92839511056098"><ele>125.6</ele><time>2026-04-05T14:27:59Z</time></trkpt><trkpt lat="43.796422543065226" lon="10.92838767774067"><ele>125.0</ele><time>2026-04-05T14:27:59.999Z</time></trkpt><trkpt lat="43.79653945307435" lon="10.928371485856438"><ele>125.0</ele><time>2026-04-05T14:28:00.999Z</time></trkpt><trkpt lat="43.796655965231366" lon="10.92837031555386"><ele>125.0</ele><time>2026-04-05T14:28:01.999Z</time></trkpt><trkpt lat="43.796772743110836" lon="10.928388234290882"><ele>125.0</ele><time>2026-04-05T14:28:02.999Z</time></trkpt><trkpt lat="43.796885914105495" lon="10.928428701702273"><ele>125.0</ele><time>2026-04-05T14:28:03.999Z</time></trkpt><trkpt lat="43.796990857065644" lon="10.928507674560228"><ele>129.0</ele><time>2026-04-05T14:28:04.999Z</time></trkpt><trkpt lat="43.7970957640772" lon="10.928618818789124"><ele>133.0</ele><time>2026-04-05T14:28:05.999Z</time></trkpt><trkpt lat="43.79718816146011" lon="10.928725215553142"><ele>137.0</ele><time>2026-04-05T14:28:06.999Z</time></trkpt><trkpt lat="43.79728235476517" lon="10.928800845274196"><ele>141.0</ele><time>2026-04-05T14:28:07.999Z</time></trkpt><trkpt lat="43.7973949262227" lon="10.928831238300035"><ele>141.0</ele><time>2026-04-05T14:28:08.999Z</time></trkpt><trkpt lat="43.797518517446555" lon="10.928743023119338"><ele>141.0</ele><time>2026-04-05T14:28:09.999Z</time></trkpt><trkpt lat="43.79759186122754" lon="10.928590593216626"><ele>141.0</ele><time>2026-04-05T14:28:10.999Z</time></trkpt><trkpt lat="43.797661824956435" lon="10.928461262211371"><ele>141.0</ele><time>2026-04-05T14:28:11.999Z</time></trkpt><trkpt lat="43.79775359809028" lon="10.928398992402885"><ele>138.8</ele><time>2026-04-05T14:28:12.999Z</time></trkpt><trkpt lat="43.797846723923136" lon="10.928390828364202"><ele>136.6</ele><time>2026-04-05T14:28:13.999Z</time></trkpt><trkpt lat="43.79793585991649" lon="10.928440138983833"><ele>134.4</ele><time>2026-04-05T14:28:14.999Z</time></trkpt><trkpt lat="43.79802123056966" lon="10.92853316208934"><ele>132.2</ele><time>2026-04-05T14:28:15.999Z</time></trkpt><trkpt lat="43.79811229798907" lon="10.928654252215406"><ele>130.0</ele><time>2026-04-05T14:28:16.999Z</time></trkpt><trkpt lat="43.79818322218264" lon="10.928789392311705"><ele>130.0</ele><time>2026-04-05T14:28:17.999Z</time></trkpt><trkpt lat="43.79825966894902" lon="10.928942249222345"><ele>130.0</ele><time>2026-04-05T14:28:18.999Z</time></trkpt><trkpt lat="43.798335757359524" lon="10.929092396699884"><ele>130.0</ele><time>2026-04-05T14:28:19.999Z</time></trkpt><trkpt lat="43.79842423811709" lon="10.92923026432295"><ele>130.0</ele><time>2026-04-05T14:28:20.999Z</time></trkpt><trkpt lat="43.798491904537165" lon="10.929385130713198"><ele>129.75</ele><time>2026-04-05T14:28:21.999Z</time></trkpt><trkpt lat="43.7985628740061" lon="10.92953752381437"><ele>129.5</ele><time>2026-04-05T14:28:22.999Z</time></trkpt><trkpt lat="43.79863171794847" lon="10.929690342607232"><ele>129.25</ele><time>2026-04-05T14:28:23.999Z</time></trkpt><trkpt lat="43.79869487489528" lon="10.929858201783926"><ele>129.0</ele><time>2026-04-05T14:28:24.999Z</time></trkpt><trkpt lat="43.798740676961124" lon="10.930033640751704"><ele>130.8</ele><time>2026-04-05T14:28:25.999Z</time></trkpt><trkpt lat="43.79878190631551" lon="10.930202616506843"><ele>132.60000000000002</ele><time>2026-04-05T14:28:26.999Z</time></trkpt><trkpt lat="43.798812015432304" lon="10.930352685702072"><ele>134.4</ele><time>2026-04-05T14:28:27.999Z</time></trkpt><trkpt lat="43.79884779742429" lon="10.93049043154115"><ele>136.20000000000002</ele><time>2026-04-05T14:28:28.999Z</time></trkpt><trkpt lat="43.798883733701665" lon="10.930612003472493"><ele>138.0</ele><time>2026-04-05T14:28:29.999Z</time></trkpt><trkpt lat="43.79890821377756" lon="10.930714858867464"><ele>138.0</ele><time>2026-04-05T14:28:30.999Z</time></trkpt><trkpt lat="43.79894498541596" lon="10.93085877310709"><ele>138.0</ele><time>2026-04-05T14:28:32.999Z</time></trkpt><trkpt lat="43.79896020371915" lon="10.930950903163263"><ele>138.0</ele><time>2026-04-05T14:28:34.999Z</time></trkpt><trkpt lat="43.79898085470545" lon="10.930749841536992"><ele>138.0</ele><time>2026-04-05T14:28:47.999Z</time></trkpt><trkpt lat="43.79894328698406" lon="10.930617138273997"><ele>138.0</ele><time>2026-04-05T14:28:48.999Z</time></trkpt><trkpt lat="43.79890885240992" lon="10.930479124955978"><ele>138.0</ele><time>2026-04-05T14:28:49.999Z</time></trkpt><trkpt lat="43.79886948340765" lon="10.930321206763612"><ele>138.0</ele><time>2026-04-05T14:28:50.999Z</time></trkpt><trkpt lat="43.79883360903949" lon="10.930150804751293"><ele>138.0</ele><time>2026-04-05T14:28:51.999Z</time></trkpt><trkpt lat="43.79879054011663" lon="10.929976581128665"><ele>138.0</ele><time>2026-04-05T14:28:52.999Z</time></trkpt><trkpt lat="43.79873688540455" lon="10.929789355686362"><ele>135.33333333333334</ele><time>2026-04-05T14:28:53.999Z</time></trkpt><trkpt lat="43.79866690463716" lon="10.929598783612446"><ele>132.66666666666669</ele><time>2026-04-05T14:28:54.999Z</time></trkpt><trkpt lat="43.798581259273654" lon="10.929404620006565"><ele>130.0</ele><time>2026-04-05T14:28:55.999Z</time></trkpt><trkpt lat="43.798495763209" lon="10.929223130480217"><ele>130.0</ele><time>2026-04-05T14:28:56.999Z</time></trkpt><trkpt lat="43.79839953705825" lon="10.92903984850303"><ele>130.0</ele><time>2026-04-05T14:28:57.999Z</time></trkpt><trkpt lat="43.798306277129605" lon="10.928861378498013"><ele>130.0</ele><time>2026-04-05T14:28:58.999Z</time></trkpt><trkpt lat="43.79821628478154" lon="10.928707269663528"><ele>130.0</ele><time>2026-04-05T14:28:59.999Z</time></trkpt><trkpt lat="43.798139609444526" lon="10.928587491304897"><ele>130.0</ele><time>2026-04-05T14:29:00.999Z</time></trkpt><trkpt lat="43.798053577929586" lon="10.928474199971182"><ele>130.0</ele><time>2026-04-05T14:29:01.999Z</time></trkpt><trkpt lat="43.79795820075673" lon="10.928382499306759"><ele>130.0</ele><time>2026-04-05T14:29:02.999Z</time></trkpt><trkpt lat="43.79785672743567" lon="10.928335046058159"><ele>132.2</ele><time>2026-04-05T14:29:03.998Z</time></trkpt><trkpt lat="43.79776373987368" lon="10.928353475699225"><ele>134.4</ele><time>2026-04-05T14:29:04.998Z</time></trkpt><trkpt lat="43.79766548539708" lon="10.928426654300305"><ele>136.6</ele><time>2026-04-05T14:29:05.998Z</time></trkpt><trkpt lat="43.79757520603903" lon="10.92853640682033"><ele>138.8</ele><time>2026-04-05T14:29:06.998Z</time></trkpt><trkpt lat="43.797508261006115" lon="10.928663060054966"><ele>141.0</ele><time>2026-04-05T14:29:07.998Z</time></trkpt><trkpt lat="43.797432661761384" lon="10.928759368195779"><ele>141.0</ele><time>2026-04-05T14:29:08.998Z</time></trkpt><trkpt lat="43.79733331642569" lon="10.928768869265731"><ele>141.0</ele><time>2026-04-05T14:29:09.998Z</time></trkpt><trkpt lat="43.79723670475507" lon="10.928699427145752"><ele>141.0</ele><time>2026-04-05T14:29:10.998Z</time></trkpt><trkpt lat="43.7971699417025" lon="10.928595382725835"><ele>141.0</ele><time>2026-04-05T14:29:11.998Z</time></trkpt><trkpt lat="43.797095077765064" lon="10.928528446978172"><ele>141.0</ele><time>2026-04-05T14:29:12.998Z</time></trkpt><trkpt lat="43.797032687410386" lon="10.928463205378973"><ele>141.0</ele><time>2026-04-05T14:29:13.998Z</time></trkpt><trkpt lat="43.796972981695006" lon="10.928412877013434"><ele>141.0</ele><time>2026-04-05T14:29:14.998Z</time></trkpt><trkpt lat="43.79689847986926" lon="10.92836482971491"><ele>141.0</ele><time>2026-04-05T14:29:16Z</time></trkpt><trkpt lat="43.79680535101753" lon="10.928309194038787"><ele>141.0</ele><time>2026-04-05T14:29:17Z</time></trkpt><trkpt lat="43.796693299117344" lon="10.928294120825388"><ele>141.0</ele><time>2026-04-05T14:29:18Z</time></trkpt><trkpt lat="43.796580841934606" lon="10.928285653791416"><ele>140.66666666666666</ele><time>2026-04-05T14:29:19Z</time></trkpt><trkpt lat="43.79648522980745" lon="10.928294974503045"><ele>140.33333333333334</ele><time>2026-04-05T14:29:20Z</time></trkpt><trkpt lat="43.79639263338078" lon="10.928315479278979"><ele>140.0</ele><time>2026-04-05T14:29:21Z</time></trkpt><trkpt lat="43.79631373481829" lon="10.928341571490991"><ele>139.66666666666669</ele><time>2026-04-05T14:29:22Z</time></trkpt><trkpt lat="43.79625278505055" lon="10.92836397263625"><ele>139.33333333333334</ele><time>2026-04-05T14:29:23Z</time></trkpt><trkpt lat="43.79617282898372" lon="10.928395273507807"><ele>139.0</ele><time>2026-04-05T14:29:25Z</time></trkpt><trkpt lat="43.796087403067446" lon="10.928375305117443"><ele>139.0</ele><time>2026-04-05T14:30:48.999Z</time></trkpt><trkpt lat="43.796080059481156" lon="10.928472272010833"><ele>139.0</ele><time>2026-04-05T14:30:52.999Z</time></trkpt><trkpt lat="43.79619837823815" lon="10.928474365623899"><ele>139.0</ele><time>2026-04-05T14:30:54.999Z</time></trkpt><trkpt lat="43.79627670258705" lon="10.92842269623228"><ele>139.0</ele><time>2026-04-05T14:30:55.999Z</time></trkpt><trkpt lat="43.79636813022427" lon="10.9283898724637"><ele>139.0</ele><time>2026-04-05T14:30:56.999Z</time></trkpt><trkpt lat="43.79646845265464" lon="10.928361546711741"><ele>139.5</ele><time>2026-04-05T14:30:57.999Z</time></trkpt><trkpt lat="43.796577513958475" lon="10.92837042507783"><ele>140.0</ele><time>2026-04-05T14:30:58.999Z</time></trkpt><trkpt lat="43.79669637083066" lon="10.928346739352321"><ele>140.5</ele><time>2026-04-05T14:30:59.999Z</time></trkpt><trkpt lat="43.79681975100564" lon="10.928375901879031"><ele>141.0</ele><time>2026-04-05T14:31:00.999Z</time></trkpt><trkpt lat="43.79694123324573" lon="10.92842857643548"><ele>141.0</ele><time>2026-04-05T14:31:01.999Z</time></trkpt><trkpt lat="43.797042213145474" lon="10.928555902043682"><ele>141.0</ele><time>2026-04-05T14:31:02.999Z</time></trkpt><trkpt lat="43.79713994802379" lon="10.928670561191062"><ele>141.0</ele><time>2026-04-05T14:31:03.999Z</time></trkpt><trkpt lat="43.79722808531442" lon="10.928764956407006"><ele>141.0</ele><time>2026-04-05T14:31:04.998Z</time></trkpt><trkpt lat="43.79732357731843" lon="10.928799814026382"><ele>141.0</ele><time>2026-04-05T14:31:05.998Z</time></trkpt><trkpt lat="43.79743655939368" lon="10.92880188439101"><ele>141.0</ele><time>2026-04-05T14:31:06.998Z</time></trkpt><trkpt lat="43.79752453721063" lon="10.928694508600625"><ele>141.0</ele><time>2026-04-05T14:31:07.998Z</time></trkpt><trkpt lat="43.79761189126597" lon="10.92856074409322"><ele>141.0</ele><time>2026-04-05T14:31:08.998Z</time></trkpt><trkpt lat="43.79768530152363" lon="10.928441314378968"><ele>138.8</ele><time>2026-04-05T14:31:09.998Z</time></trkpt><trkpt lat="43.79777915882005" lon="10.928394671395447"><ele>136.6</ele><time>2026-04-05T14:31:10.998Z</time></trkpt><trkpt lat="43.79787355718769" lon="10.928394971944595"><ele>134.4</ele><time>2026-04-05T14:31:11.998Z</time></trkpt><trkpt lat="43.79797180272117" lon="10.928461923194208"><ele>132.2</ele><time>2026-04-05T14:31:12.998Z</time></trkpt><trkpt lat="43.79806328211348" lon="10.928583911523644"><ele>130.0</ele><time>2026-04-05T14:31:13.998Z</time></trkpt><trkpt lat="43.79814401550854" lon="10.928723557364767"><ele>130.0</ele><time>2026-04-05T14:31:14.998Z</time></trkpt><trkpt lat="43.79822252272354" lon="10.928871198328753"><ele>130.0</ele><time>2026-04-05T14:31:15.998Z</time></trkpt><trkpt lat="43.7983087784" lon="10.929036628387498"><ele>130.0</ele><time>2026-04-05T14:31:16.998Z</time></trkpt><trkpt lat="43.79839007988422" lon="10.929204773204836"><ele>130.0</ele><time>2026-04-05T14:31:17.998Z</time></trkpt><trkpt lat="43.79847661130503" lon="10.929357240813877"><ele>129.75</ele><time>2026-04-05T14:31:18.998Z</time></trkpt><trkpt lat="43.79855471261341" lon="10.929508542813345"><ele>129.5</ele><time>2026-04-05T14:31:19.998Z</time></trkpt><trkpt lat="43.798633262496594" lon="10.929680545948703"><ele>129.25</ele><time>2026-04-05T14:31:20.998Z</time></trkpt><trkpt lat="43.79870536920812" lon="10.929867045990832"><ele>129.0</ele><time>2026-04-05T14:31:21.999Z</time></trkpt><trkpt lat="43.798753624048324" lon="10.930067314984443"><ele>132.0</ele><time>2026-04-05T14:31:22.999Z</time></trkpt><trkpt lat="43.798799102862844" lon="10.930280448766036"><ele>135.0</ele><time>2026-04-05T14:31:23.999Z</time></trkpt><trkpt lat="43.798848833343534" lon="10.930480441686202"><ele>138.0</ele><time>2026-04-05T14:31:24.999Z</time></trkpt><trkpt lat="43.798898504602285" lon="10.930668879269149"><ele>138.0</ele><time>2026-04-05T14:31:25.999Z</time></trkpt><trkpt lat="43.79894387172952" lon="10.930860705834402"><ele>138.0</ele><time>2026-04-05T14:31:26.999Z</time></trkpt><trkpt lat="43.798996001725804" lon="10.931056115167511"><ele>138.0</ele><time>2026-04-05T14:31:27.999Z</time></trkpt><trkpt lat="43.79904895383619" lon="10.931252510863262"><ele>138.0</ele><time>2026-04-05T14:31:28.999Z</time></trkpt><trkpt lat="43.79910670824964" lon="10.931437004393194"><ele>140.0</ele><time>2026-04-05T14:31:29.999Z</time></trkpt><trkpt lat="43.79919671232537" lon="10.931602982498662"><ele>142.0</ele><time>2026-04-05T14:31:30.999Z</time></trkpt><trkpt lat="43.799312772630415" lon="10.93173684174501"><ele>144.0</ele><time>2026-04-05T14:31:31.999Z</time></trkpt><trkpt lat="43.79943797439741" lon="10.93185708780857"><ele>144.0</ele><time>2026-04-05T14:31:32.999Z</time></trkpt><trkpt lat="43.79954913849087" lon="10.93199579965049"><ele>144.0</ele><time>2026-04-05T14:31:33.999Z</time></trkpt><trkpt lat="43.79966016634841" lon="10.932108609086734"><ele>144.0</ele><time>2026-04-05T14:31:34.999Z</time></trkpt><trkpt lat="43.799756873964775" lon="10.932220069432868"><ele>144.0</ele><time>2026-04-05T14:31:35.999Z</time></trkpt><trkpt lat="43.799831541111914" lon="10.932342529043046"><ele>144.0</ele><time>2026-04-05T14:31:36.999Z</time></trkpt><trkpt lat="43.79988265523698" lon="10.932497038176345"><ele>144.0</ele><time>2026-04-05T14:31:37.999Z</time></trkpt><trkpt lat="43.7998787226104" lon="10.932686058492067"><ele>144.0</ele><time>2026-04-05T14:31:38.999Z</time></trkpt><trkpt lat="43.79988267045908" lon="10.932863633699933"><ele>144.0</ele><time>2026-04-05T14:31:39.999Z</time></trkpt><trkpt lat="43.799899329946605" lon="10.933025106892421"><ele>145.4</ele><time>2026-04-05T14:31:40.999Z</time></trkpt><trkpt lat="43.79992580845724" lon="10.933177457668574"><ele>146.8</ele><time>2026-04-05T14:31:41.999Z</time></trkpt><trkpt lat="43.79995799980579" lon="10.933298219031805"><ele>148.2</ele><time>2026-04-05T14:31:42.999Z</time></trkpt><trkpt lat="43.800012929931356" lon="10.933403749564997"><ele>149.6</ele><time>2026-04-05T14:31:43.999Z</time></trkpt><trkpt lat="43.800105620387214" lon="10.933447566604872"><ele>151.0</ele><time>2026-04-05T14:31:44.999Z</time></trkpt><trkpt lat="43.800186774868116" lon="10.933463969164624"><ele>151.2</ele><time>2026-04-05T14:31:45.999Z</time></trkpt><trkpt lat="43.800277338816656" lon="10.933429497557169"><ele>151.39999999999998</ele><time>2026-04-05T14:31:46.999Z</time></trkpt><trkpt lat="43.80035790417678" lon="10.933364527580911"><ele>151.6</ele><time>2026-04-05T14:31:47.999Z</time></trkpt><trkpt lat="43.8004316756945" lon="10.933277938690141"><ele>151.79999999999998</ele><time>2026-04-05T14:31:48.999Z</time></trkpt><trkpt lat="43.800470605025524" lon="10.933142751819664"><ele>152.0</ele><time>2026-04-05T14:31:49.999Z</time></trkpt><trkpt lat="43.800482810347326" lon="10.93297642110103"><ele>153.25</ele><time>2026-04-05T14:31:50.999Z</time></trkpt><trkpt lat="43.80048698156944" lon="10.932802772311929"><ele>154.5</ele><time>2026-04-05T14:31:51.999Z</time></trkpt><trkpt lat="43.800493918543104" lon="10.932618164112677"><ele>155.75</ele><time>2026-04-05T14:31:52.999Z</time></trkpt><trkpt lat="43.80049629128906" lon="10.932426681108494"><ele>157.0</ele><time>2026-04-05T14:31:53.999Z</time></trkpt><trkpt lat="43.80050128766124" lon="10.932228461480783"><ele>157.5</ele><time>2026-04-05T14:31:54.999Z</time></trkpt><trkpt lat="43.800501873947276" lon="10.932026105495645"><ele>158.0</ele><time>2026-04-05T14:31:55.999Z</time></trkpt><trkpt lat="43.80049188764143" lon="10.931828782324233"><ele>158.5</ele><time>2026-04-05T14:31:56.999Z</time></trkpt><trkpt lat="43.8004622832732" lon="10.931644942418686"><ele>159.0</ele><time>2026-04-05T14:31:57.999Z</time></trkpt><trkpt lat="43.80040587628603" lon="10.931478050794226"><ele>159.25</ele><time>2026-04-05T14:31:58.999Z</time></trkpt><trkpt lat="43.80032171307508" lon="10.931327543478032"><ele>159.5</ele><time>2026-04-05T14:31:59.999Z</time></trkpt><trkpt lat="43.80022710122579" lon="10.931205048188788"><ele>159.75</ele><time>2026-04-05T14:32:00.999Z</time></trkpt><trkpt lat="43.800144062410766" lon="10.93109986704529"><ele>160.0</ele><time>2026-04-05T14:32:01.999Z</time></trkpt><trkpt lat="43.80007017815101" lon="10.930961051153401"><ele>156.25</ele><time>2026-04-05T14:32:02.999Z</time></trkpt><trkpt lat="43.800026044024584" lon="10.930784050837433"><ele>152.5</ele><time>2026-04-05T14:32:03.999Z</time></trkpt><trkpt lat="43.79999890229622" lon="10.930593036291011"><ele>148.75</ele><time>2026-04-05T14:32:04.999Z</time></trkpt><trkpt lat="43.799967737965105" lon="10.93040114471719"><ele>145.0</ele><time>2026-04-05T14:32:05.999Z</time></trkpt><trkpt lat="43.79995512442407" lon="10.930230041659906"><ele>145.0</ele><time>2026-04-05T14:32:06.999Z</time></trkpt><trkpt lat="43.79996703708974" lon="10.930074655362196"><ele>145.0</ele><time>2026-04-05T14:32:07.999Z</time></trkpt><trkpt lat="43.80001607589281" lon="10.929963409062816"><ele>145.0</ele><time>2026-04-05T14:32:08.999Z</time></trkpt><trkpt lat="43.80009281549022" lon="10.92991972787803"><ele>145.0</ele><time>2026-04-05T14:32:09.999Z</time></trkpt><trkpt lat="43.800184467639276" lon="10.929927509349413"><ele>145.0</ele><time>2026-04-05T14:32:10.999Z</time></trkpt><trkpt lat="43.80028018875204" lon="10.929978273746398"><ele>145.25</ele><time>2026-04-05T14:32:11.999Z</time></trkpt><trkpt lat="43.80037210422989" lon="10.930058184103393"><ele>145.5</ele><time>2026-04-05T14:32:12.999Z</time></trkpt><trkpt lat="43.800469891652845" lon="10.93015672262287"><ele>145.75</ele><time>2026-04-05T14:32:13.999Z</time></trkpt><trkpt lat="43.80056608092131" lon="10.930276709229766"><ele>146.0</ele><time>2026-04-05T14:32:14.999Z</time></trkpt><trkpt lat="43.80065200464664" lon="10.930410760997818"><ele>148.5</ele><time>2026-04-05T14:32:15.999Z</time></trkpt><trkpt lat="43.80073717375311" lon="10.930563724889664"><ele>151.0</ele><time>2026-04-05T14:32:16.999Z</time></trkpt><trkpt lat="43.800808237437316" lon="10.93072951571806"><ele>153.5</ele><time>2026-04-05T14:32:17.999Z</time></trkpt><trkpt lat="43.80089600428103" lon="10.930860885915397"><ele>156.0</ele><time>2026-04-05T14:32:18.999Z</time></trkpt><trkpt lat="43.80099898109176" lon="10.930951314502586"><ele>157.5</ele><time>2026-04-05T14:32:19.999Z</time></trkpt><trkpt lat="43.8011104664514" lon="10.93100682875024"><ele>159.0</ele><time>2026-04-05T14:32:20.999Z</time></trkpt><trkpt lat="43.801229460734326" lon="10.931025049706475"><ele>160.5</ele><time>2026-04-05T14:32:21.999Z</time></trkpt><trkpt lat="43.80132878562831" lon="10.930977854613639"><ele>162.0</ele><time>2026-04-05T14:32:22.999Z</time></trkpt><trkpt lat="43.80141260512484" lon="10.930865997278412"><ele>162.0</ele><time>2026-04-05T14:32:23.999Z</time></trkpt><trkpt lat="43.801459545388596" lon="10.930711647175865"><ele>162.0</ele><time>2026-04-05T14:32:24.999Z</time></trkpt><trkpt lat="43.801479965994965" lon="10.930538699816386"><ele>162.0</ele><time>2026-04-05T14:32:25.999Z</time></trkpt><trkpt lat="43.801478275143914" lon="10.93035608805851"><ele>162.0</ele><time>2026-04-05T14:32:26.999Z</time></trkpt><trkpt lat="43.80146930273918" lon="10.93016347701746"><ele>161.75</ele><time>2026-04-05T14:32:27.999Z</time></trkpt><trkpt lat="43.80146334473175" lon="10.929963566444236"><ele>161.5</ele><time>2026-04-05T14:32:28.999Z</time></trkpt><trkpt lat="43.80145731361863" lon="10.929757541102566"><ele>161.25</ele><time>2026-04-05T14:32:29.999Z</time></trkpt><trkpt lat="43.8014526379025" lon="10.929544118520495"><ele>161.0</ele><time>2026-04-05T14:32:30.999Z</time></trkpt><trkpt lat="43.80145242760376" lon="10.929325567620435"><ele>162.5</ele><time>2026-04-05T14:32:31.999Z</time></trkpt><trkpt lat="43.801441030789064" lon="10.929107144612864"><ele>164.0</ele><time>2026-04-05T14:32:32.999Z</time></trkpt><trkpt lat="43.8014187789669" lon="10.928914166536197"><ele>165.5</ele><time>2026-04-05T14:32:33.999Z</time></trkpt><trkpt lat="43.801395300711675" lon="10.928749355282987"><ele>167.0</ele><time>2026-04-05T14:32:34.999Z</time></trkpt><trkpt lat="43.80138764338546" lon="10.928592818308452"><ele>167.0</ele><time>2026-04-05T14:32:35.999Z</time></trkpt><trkpt lat="43.8014275105657" lon="10.928438675606177"><ele>167.0</ele><time>2026-04-05T14:32:36.999Z</time></trkpt><trkpt lat="43.80150916313335" lon="10.928312596173097"><ele>167.0</ele><time>2026-04-05T14:32:37.999Z</time></trkpt><trkpt lat="43.80160543629781" lon="10.928230226822734"><ele>167.0</ele><time>2026-04-05T14:32:38.999Z</time></trkpt><trkpt lat="43.8017184709084" lon="10.928181473268584"><ele>167.5</ele><time>2026-04-05T14:32:39.999Z</time></trkpt><trkpt lat="43.801844522992276" lon="10.928148537223274"><ele>168.0</ele><time>2026-04-05T14:32:40.999Z</time></trkpt><trkpt lat="43.80197477533984" lon="10.928130243973841"><ele>168.5</ele><time>2026-04-05T14:32:41.999Z</time></trkpt><trkpt lat="43.80210984459193" lon="10.928133075420309"><ele>169.0</ele><time>2026-04-05T14:32:42.999Z</time></trkpt><trkpt lat="43.802246133763234" lon="10.928167743176555"><ele>169.0</ele><time>2026-04-05T14:32:43.999Z</time></trkpt><trkpt lat="43.802385031845596" lon="10.928230473424884"><ele>169.0</ele><time>2026-04-05T14:32:44.999Z</time></trkpt><trkpt lat="43.80252272921271" lon="10.928299309318737"><ele>169.0</ele><time>2026-04-05T14:32:45.999Z</time></trkpt><trkpt lat="43.80266566721641" lon="10.928358672319685"><ele>169.0</ele><time>2026-04-05T14:32:46.999Z</time></trkpt><trkpt lat="43.80280823879111" lon="10.928419688195643"><ele>172.33333333333334</ele><time>2026-04-05T14:32:47.999Z</time></trkpt><trkpt lat="43.80295472091823" lon="10.928489861696505"><ele>175.66666666666666</ele><time>2026-04-05T14:32:48.999Z</time></trkpt><trkpt lat="43.80310836609084" lon="10.928557627066208"><ele>179.0</ele><time>2026-04-05T14:32:49.999Z</time></trkpt><trkpt lat="43.803255326226775" lon="10.9286246429411"><ele>179.0</ele><time>2026-04-05T14:32:50.999Z</time></trkpt><trkpt lat="43.80338478305193" lon="10.928689960724705"><ele>179.0</ele><time>2026-04-05T14:32:51.999Z</time></trkpt><trkpt lat="43.80349286322337" lon="10.928794464884945"><ele>179.0</ele><time>2026-04-05T14:32:52.998Z</time></trkpt><trkpt lat="43.803569273978106" lon="10.928926922442884"><ele>179.0</ele><time>2026-04-05T14:32:53.998Z</time></trkpt><trkpt lat="43.80362124237703" lon="10.929065367268487"><ele>177.75</ele><time>2026-04-05T14:32:54.998Z</time></trkpt><trkpt lat="43.80364019472956" lon="10.929232369857571"><ele>176.5</ele><time>2026-04-05T14:32:55.998Z</time></trkpt><trkpt lat="43.80364789939866" lon="10.92941590074406"><ele>175.25</ele><time>2026-04-05T14:32:56.998Z</time></trkpt><trkpt lat="43.80367837984561" lon="10.929594193322956"><ele>174.0</ele><time>2026-04-05T14:32:57.998Z</time></trkpt><trkpt lat="43.80372688003194" lon="10.929763540786501"><ele>174.0</ele><time>2026-04-05T14:32:58.998Z</time></trkpt><trkpt lat="43.80381330397678" lon="10.929922019160621"><ele>174.0</ele><time>2026-04-05T14:32:59.998Z</time></trkpt><trkpt lat="43.80390502707624" lon="10.93008048761059"><ele>174.0</ele><time>2026-04-05T14:33:00.998Z</time></trkpt><trkpt lat="43.804001376237025" lon="10.930233530233158"><ele>174.0</ele><time>2026-04-05T14:33:01.998Z</time></trkpt><trkpt lat="43.80411067709978" lon="10.930369977757888"><ele>175.75</ele><time>2026-04-05T14:33:02.998Z</time></trkpt><trkpt lat="43.80422896708031" lon="10.930491310529721"><ele>177.5</ele><time>2026-04-05T14:33:03.998Z</time></trkpt><trkpt lat="43.804353227619515" lon="10.930597035037328"><ele>179.25</ele><time>2026-04-05T14:33:04.998Z</time></trkpt><trkpt lat="43.80449015021567" lon="10.930696532284374"><ele>181.0</ele><time>2026-04-05T14:33:05.998Z</time></trkpt><trkpt lat="43.80462421325459" lon="10.93078970521981"><ele>181.0</ele><time>2026-04-05T14:33:06.998Z</time></trkpt><trkpt lat="43.80475888668589" lon="10.93088380072243"><ele>181.0</ele><time>2026-04-05T14:33:07.998Z</time></trkpt><trkpt lat="43.80489455175202" lon="10.93097664123203"><ele>181.0</ele><time>2026-04-05T14:33:08.998Z</time></trkpt><trkpt lat="43.805024144290215" lon="10.931054842487098"><ele>181.0</ele><time>2026-04-05T14:33:09.998Z</time></trkpt><trkpt lat="43.80516644524986" lon="10.93108869574818"><ele>188.0</ele><time>2026-04-05T14:33:10.998Z</time></trkpt><trkpt lat="43.80531652342202" lon="10.93107899889733"><ele>195.0</ele><time>2026-04-05T14:33:11.998Z</time></trkpt><trkpt lat="43.8054671725258" lon="10.931053579398533"><ele>202.0</ele><time>2026-04-05T14:33:12.998Z</time></trkpt><trkpt lat="43.80562282804144" lon="10.931075939102993"><ele>202.0</ele><time>2026-04-05T14:33:13.998Z</time></trkpt><trkpt lat="43.80576669119607" lon="10.931136832937087"><ele>202.0</ele><time>2026-04-05T14:33:14.998Z</time></trkpt><trkpt lat="43.805886947436875" lon="10.931202952593802"><ele>202.0</ele><time>2026-04-05T14:33:15.998Z</time></trkpt><trkpt lat="43.80597635080562" lon="10.931280235284381"><ele>202.0</ele><time>2026-04-05T14:33:16.998Z</time></trkpt><trkpt lat="43.8060045144033" lon="10.931425078265637"><ele>203.25</ele><time>2026-04-05T14:33:17.998Z</time></trkpt><trkpt lat="43.8060389170196" lon="10.93158473962246"><ele>204.5</ele><time>2026-04-05T14:33:18.998Z</time></trkpt><trkpt lat="43.80608758409421" lon="10.931737201735723"><ele>205.75</ele><time>2026-04-05T14:33:19.998Z</time></trkpt><trkpt lat="43.806155380820805" lon="10.931884658646837"><ele>207.0</ele><time>2026-04-05T14:33:20.998Z</time></trkpt><trkpt lat="43.80628523429114" lon="10.931953366458877"><ele>207.0</ele><time>2026-04-05T14:33:21.998Z</time></trkpt><trkpt lat="43.80639274052495" lon="10.932013212877239"><ele>207.0</ele><time>2026-04-05T14:33:22.998Z</time></trkpt><trkpt lat="43.806483576737605" lon="10.932066481270924"><ele>207.0</ele><time>2026-04-05T14:33:23.998Z</time></trkpt><trkpt lat="43.8065650094026" lon="10.932115778174184"><ele>207.0</ele><time>2026-04-05T14:33:24.998Z</time></trkpt><trkpt lat="43.806634517509764" lon="10.932133879862013"><ele>207.0</ele><time>2026-04-05T14:33:25.998Z</time></trkpt><trkpt lat="43.80671372622561" lon="10.932122658291494"><ele>207.0</ele><time>2026-04-05T14:33:26.998Z</time></trkpt><trkpt lat="43.80679737834325" lon="10.932052310104416"><ele>207.0</ele><time>2026-04-05T14:33:27.999Z</time></trkpt><trkpt lat="43.806850777428636" lon="10.931963005264354"><ele>207.0</ele><time>2026-04-05T14:33:28.999Z</time></trkpt><trkpt lat="43.80689758991185" lon="10.93186599254436"><ele>207.0</ele><time>2026-04-05T14:33:29.999Z</time></trkpt><trkpt lat="43.80691302035764" lon="10.93173011148584"><ele>207.0</ele><time>2026-04-05T14:33:30.999Z</time></trkpt><trkpt lat="43.806894865115474" lon="10.93157569251812"><ele>208.75</ele><time>2026-04-05T14:33:31.999Z</time></trkpt><trkpt lat="43.80685899313688" lon="10.931418747911502"><ele>210.5</ele><time>2026-04-05T14:33:32.999Z</time></trkpt><trkpt lat="43.80682032279848" lon="10.93125239624461"><ele>212.25</ele><time>2026-04-05T14:33:33.999Z</time></trkpt><trkpt lat="43.806788781190356" lon="10.93107987618251"><ele>214.0</ele><time>2026-04-05T14:33:34.999Z</time></trkpt><trkpt lat="43.806757506852655" lon="10.930901643439512"><ele>208.5</ele><time>2026-04-05T14:33:35.999Z</time></trkpt><trkpt lat="43.806723640017715" lon="10.930717652208541"><ele>203.0</ele><time>2026-04-05T14:33:36.999Z</time></trkpt><trkpt lat="43.80669029748557" lon="10.930531287905241"><ele>197.5</ele><time>2026-04-05T14:33:37.999Z</time></trkpt><trkpt lat="43.806658936072374" lon="10.930352279926284"><ele>192.0</ele><time>2026-04-05T14:33:38.999Z</time></trkpt><trkpt lat="43.806622238909064" lon="10.930174851683612"><ele>196.0</ele><time>2026-04-05T14:33:39.999Z</time></trkpt><trkpt lat="43.806555773668684" lon="10.930013985512467"><ele>200.0</ele><time>2026-04-05T14:33:41Z</time></trkpt><trkpt lat="43.80646807472423" lon="10.929864329437114"><ele>204.0</ele><time>2026-04-05T14:33:42Z</time></trkpt><trkpt lat="43.80638737695244" lon="10.929725028072664"><ele>208.0</ele><time>2026-04-05T14:33:43Z</time></trkpt><trkpt lat="43.80628656917909" lon="10.929586473338246"><ele>208.0</ele><time>2026-04-05T14:33:44Z</time></trkpt><trkpt lat="43.80620895465078" lon="10.929447774445048"><ele>208.0</ele><time>2026-04-05T14:33:45Z</time></trkpt><trkpt lat="43.80613110822896" lon="10.929327664402447"><ele>208.0</ele><time>2026-04-05T14:33:46Z</time></trkpt><trkpt lat="43.80607107995481" lon="10.929225472128895"><ele>208.0</ele><time>2026-04-05T14:33:47Z</time></trkpt><trkpt lat="43.80602085898303" lon="10.92913655985479"><ele>208.0</ele><time>2026-04-05T14:33:48Z</time></trkpt><trkpt lat="43.80598923417988" lon="10.929031129841027"><ele>208.4</ele><time>2026-04-05T14:33:49Z</time></trkpt><trkpt lat="43.805983697655755" lon="10.928897790863218"><ele>208.8</ele><time>2026-04-05T14:33:50Z</time></trkpt><trkpt lat="43.80601601084758" lon="10.9287547097462"><ele>209.2</ele><time>2026-04-05T14:33:51Z</time></trkpt><trkpt lat="43.80607631606882" lon="10.928621945268969"><ele>209.6</ele><time>2026-04-05T14:33:52Z</time></trkpt><trkpt lat="43.80613644762079" lon="10.928479801396865"><ele>210.0</ele><time>2026-04-05T14:33:53Z</time></trkpt><trkpt lat="43.806191547751325" lon="10.928347731266978"><ele>210.0</ele><time>2026-04-05T14:33:54Z</time></trkpt><trkpt lat="43.80624856872315" lon="10.928243302761317"><ele>210.0</ele><time>2026-04-05T14:33:55Z</time></trkpt><trkpt lat="43.80632383249419" lon="10.928171452464007"><ele>210.0</ele><time>2026-04-05T14:33:56Z</time></trkpt><trkpt lat="43.80640690702509" lon="10.92819108991669"><ele>210.0</ele><time>2026-04-05T14:33:57Z</time></trkpt><trkpt lat="43.80646016836395" lon="10.928263384456457"><ele>210.0</ele><time>2026-04-05T14:33:57.999Z</time></trkpt><trkpt lat="43.806501191961516" lon="10.928372329570038"><ele>210.0</ele><time>2026-04-05T14:33:58.999Z</time></trkpt><trkpt lat="43.806541344845805" lon="10.928501897719391"><ele>210.0</ele><time>2026-04-05T14:33:59.999Z</time></trkpt><trkpt lat="43.80658576242521" lon="10.928640184836615"><ele>210.0</ele><time>2026-04-05T14:34:00.999Z</time></trkpt><trkpt lat="43.80663482916718" lon="10.92879294635238"><ele>210.0</ele><time>2026-04-05T14:34:01.999Z</time></trkpt><trkpt lat="43.80668551670478" lon="10.928950753960171"><ele>210.0</ele><time>2026-04-05T14:34:02.999Z</time></trkpt><trkpt lat="43.806747081303676" lon="10.929092330314708"><ele>209.5</ele><time>2026-04-05T14:34:03.999Z</time></trkpt><trkpt lat="43.806799601420295" lon="10.929266284654076"><ele>209.0</ele><time>2026-04-05T14:34:04.999Z</time></trkpt><trkpt lat="43.80685644522581" lon="10.929429279893416"><ele>208.5</ele><time>2026-04-05T14:34:05.999Z</time></trkpt><trkpt lat="43.80692049128302" lon="10.929584508820573"><ele>208.0</ele><time>2026-04-05T14:34:06.999Z</time></trkpt><trkpt lat="43.807002190211016" lon="10.929730503684839"><ele>210.5</ele><time>2026-04-05T14:34:07.999Z</time></trkpt><trkpt lat="43.807089556577296" lon="10.929864801302887"><ele>213.0</ele><time>2026-04-05T14:34:08.999Z</time></trkpt><trkpt lat="43.8071832013348" lon="10.92999075366202"><ele>215.5</ele><time>2026-04-05T14:34:09.999Z</time></trkpt><trkpt lat="43.80729548164746" lon="10.930081449891238"><ele>218.0</ele><time>2026-04-05T14:34:10.999Z</time></trkpt><trkpt lat="43.80741946112188" lon="10.930156271001183"><ele>218.75</ele><time>2026-04-05T14:34:11.999Z</time></trkpt><trkpt lat="43.80755519466584" lon="10.930148925192013"><ele>219.5</ele><time>2026-04-05T14:34:12.999Z</time></trkpt><trkpt lat="43.807679025292394" lon="10.930151195888705"><ele>220.25</ele><time>2026-04-05T14:34:13.999Z</time></trkpt><trkpt lat="43.80780436399224" lon="10.930173850218768"><ele>221.0</ele><time>2026-04-05T14:34:14.999Z</time></trkpt><trkpt lat="43.80792860232366" lon="10.930242882148496"><ele>223.5</ele><time>2026-04-05T14:34:15.999Z</time></trkpt><trkpt lat="43.808039819219154" lon="10.930360097295948"><ele>226.0</ele><time>2026-04-05T14:34:16.999Z</time></trkpt><trkpt lat="43.80815465500212" lon="10.930465262527706"><ele>228.5</ele><time>2026-04-05T14:34:17.999Z</time></trkpt><trkpt lat="43.808282902277334" lon="10.930528148010145"><ele>231.0</ele><time>2026-04-05T14:34:18.999Z</time></trkpt><trkpt lat="43.80841149987111" lon="10.930555371990188"><ele>232.0</ele><time>2026-04-05T14:34:19.999Z</time></trkpt><trkpt lat="43.808532258548595" lon="10.930562553296456"><ele>233.00000000000003</ele><time>2026-04-05T14:34:20.999Z</time></trkpt><trkpt lat="43.808650759323776" lon="10.93057109448993"><ele>234.00000000000003</ele><time>2026-04-05T14:34:21.999Z</time></trkpt><trkpt lat="43.80875757849171" lon="10.930573472724372"><ele>235.0</ele><time>2026-04-05T14:34:22.999Z</time></trkpt><trkpt lat="43.80884371127893" lon="10.930530784899574"><ele>236.0</ele><time>2026-04-05T14:34:23.999Z</time></trkpt><trkpt lat="43.808909595294146" lon="10.93043246018232"><ele>236.0</ele><time>2026-04-05T14:34:24.999Z</time></trkpt><trkpt lat="43.80892751329397" lon="10.93028571742647"><ele>236.0</ele><time>2026-04-05T14:34:25.999Z</time></trkpt><trkpt lat="43.80889492141415" lon="10.930135656329975"><ele>236.0</ele><time>2026-04-05T14:34:26.999Z</time></trkpt><trkpt lat="43.80882399399982" lon="10.929992261527444"><ele>236.0</ele><time>2026-04-05T14:34:27.999Z</time></trkpt><trkpt lat="43.80876193332425" lon="10.929838988353556"><ele>237.25</ele><time>2026-04-05T14:34:28.999Z</time></trkpt><trkpt lat="43.808702188722584" lon="10.929673189019725"><ele>238.5</ele><time>2026-04-05T14:34:29.999Z</time></trkpt><trkpt lat="43.808642140025846" lon="10.929499762351522"><ele>239.75</ele><time>2026-04-05T14:34:30.999Z</time></trkpt><trkpt lat="43.808575059930256" lon="10.929323099290972"><ele>241.0</ele><time>2026-04-05T14:34:31.999Z</time></trkpt><trkpt lat="43.80851710994676" lon="10.929168185820206"><ele>241.60000000000002</ele><time>2026-04-05T14:34:32.999Z</time></trkpt><trkpt lat="43.808464694878154" lon="10.929031929193522"><ele>242.20000000000002</ele><time>2026-04-05T14:34:33.999Z</time></trkpt><trkpt lat="43.80842530044904" lon="10.928905905365468"><ele>242.79999999999998</ele><time>2026-04-05T14:34:34.999Z</time></trkpt><trkpt lat="43.808413329094215" lon="10.928778959504792"><ele>243.39999999999998</ele><time>2026-04-05T14:34:35.999Z</time></trkpt><trkpt lat="43.808450696714054" lon="10.928666631537528"><ele>244.0</ele><time>2026-04-05T14:34:36.999Z</time></trkpt><trkpt lat="43.80852461250705" lon="10.928598294208447"><ele>244.0</ele><time>2026-04-05T14:34:37.999Z</time></trkpt><trkpt lat="43.80862112376341" lon="10.928619430210546"><ele>243.99999999999997</ele><time>2026-04-05T14:34:38.999Z</time></trkpt><trkpt lat="43.80872678575293" lon="10.92864829655725"><ele>243.99999999999997</ele><time>2026-04-05T14:34:39.999Z</time></trkpt><trkpt lat="43.80884342804638" lon="10.928659795737302"><ele>244.0</ele><time>2026-04-05T14:34:40.999Z</time></trkpt><trkpt lat="43.808959633226806" lon="10.928717049178191"><ele>244.0</ele><time>2026-04-05T14:34:41.999Z</time></trkpt><trkpt lat="43.80908566748612" lon="10.92873908249082"><ele>244.0</ele><time>2026-04-05T14:34:42.999Z</time></trkpt><trkpt lat="43.809218880444796" lon="10.928712218414583"><ele>244.0</ele><time>2026-04-05T14:34:43.999Z</time></trkpt><trkpt lat="43.80933696046562" lon="10.928690724265046"><ele>244.0</ele><time>2026-04-05T14:34:44.999Z</time></trkpt><trkpt lat="43.80945042078418" lon="10.928660352810478"><ele>244.0</ele><time>2026-04-05T14:34:45.999Z</time></trkpt><trkpt lat="43.80956592841699" lon="10.928673633510744"><ele>246.2</ele><time>2026-04-05T14:34:46.999Z</time></trkpt><trkpt lat="43.80968052494544" lon="10.928693521235552"><ele>248.39999999999998</ele><time>2026-04-05T14:34:47.999Z</time></trkpt><trkpt lat="43.80979302075045" lon="10.928711754924898"><ele>250.6</ele><time>2026-04-05T14:34:48.999Z</time></trkpt><trkpt lat="43.80989211028625" lon="10.928727815747733"><ele>252.8</ele><time>2026-04-05T14:34:49.999Z</time></trkpt><trkpt lat="43.809977103483575" lon="10.92871877055426"><ele>255.0</ele><time>2026-04-05T14:34:50.999Z</time></trkpt><trkpt lat="43.81004627070702" lon="10.92862760781582"><ele>255.0</ele><time>2026-04-05T14:34:51.999Z</time></trkpt><trkpt lat="43.810083945171506" lon="10.928517935785777"><ele>255.0</ele><time>2026-04-05T14:34:52.999Z</time></trkpt><trkpt lat="43.81007864780144" lon="10.928406857436558"><ele>255.0</ele><time>2026-04-05T14:34:53.999Z</time></trkpt><trkpt lat="43.810051282508205" lon="10.928307465909043"><ele>255.0</ele><time>2026-04-05T14:34:54.999Z</time></trkpt><trkpt lat="43.81002315721446" lon="10.928208112452603"><ele>255.0</ele><time>2026-04-05T14:34:56.999Z</time></trkpt><trkpt lat="43.8099945934389" lon="10.928101040979909"><ele>255.0</ele><time>2026-04-05T14:35:52Z</time></trkpt><trkpt lat="43.81001001757537" lon="10.928015770647542"><ele>252.8</ele><time>2026-04-05T14:35:53Z</time></trkpt><trkpt lat="43.81002601568185" lon="10.927904775700123"><ele>250.6</ele><time>2026-04-05T14:35:54Z</time></trkpt><trkpt lat="43.810041261308925" lon="10.92777479767853"><ele>248.39999999999998</ele><time>2026-04-05T14:35:55Z</time></trkpt><trkpt lat="43.81007591067703" lon="10.927637459868205"><ele>246.2</ele><time>2026-04-05T14:35:56Z</time></trkpt><trkpt lat="43.81011790291502" lon="10.927488727729566"><ele>244.0</ele><time>2026-04-05T14:35:57Z</time></trkpt><trkpt lat="43.81014904481629" lon="10.92733168322621"><ele>247.6</ele><time>2026-04-05T14:35:58Z</time></trkpt><trkpt lat="43.81018010125377" lon="10.927201189270876"><ele>251.2</ele><time>2026-04-05T14:35:59Z</time></trkpt><trkpt lat="43.810214788744354" lon="10.927069225538228"><ele>254.79999999999998</ele><time>2026-04-05T14:36:00Z</time></trkpt><trkpt lat="43.81026424933438" lon="10.926956630618767"><ele>258.4</ele><time>2026-04-05T14:36:01Z</time></trkpt><trkpt lat="43.81035486715846" lon="10.926851940229575"><ele>262.0</ele><time>2026-04-05T14:36:02Z</time></trkpt><trkpt lat="43.81042127438306" lon="10.926740647873638"><ele>260.0</ele><time>2026-04-05T14:36:03Z</time></trkpt><trkpt lat="43.81049359685127" lon="10.92660997617958"><ele>258.0</ele><time>2026-04-05T14:36:04Z</time></trkpt><trkpt lat="43.81056798689222" lon="10.926493454521118"><ele>256.0</ele><time>2026-04-05T14:36:05Z</time></trkpt><trkpt lat="43.8106253423925" lon="10.926378563659213"><ele>254.0</ele><time>2026-04-05T14:36:06Z</time></trkpt><trkpt lat="43.810693924552154" lon="10.926274174193457"><ele>252.0</ele><time>2026-04-05T14:36:07Z</time></trkpt><trkpt lat="43.810756458239275" lon="10.926176014367872"><ele>252.0</ele><time>2026-04-05T14:36:08Z</time></trkpt><trkpt lat="43.810804740361824" lon="10.926079898507057"><ele>252.0</ele><time>2026-04-05T14:36:09Z</time></trkpt><trkpt lat="43.810865862949086" lon="10.92600726908236"><ele>252.0</ele><time>2026-04-05T14:36:10Z</time></trkpt><trkpt lat="43.810946519689985" lon="10.925963496078081"><ele>252.0</ele><time>2026-04-05T14:36:11Z</time></trkpt><trkpt lat="43.81103813798006" lon="10.925970105611455"><ele>252.0</ele><time>2026-04-05T14:36:12Z</time></trkpt><trkpt lat="43.81110781175867" lon="10.926094665618194"><ele>252.8</ele><time>2026-04-05T14:36:13Z</time></trkpt><trkpt lat="43.81117222768191" lon="10.92621773855114"><ele>253.6</ele><time>2026-04-05T14:36:14Z</time></trkpt><trkpt lat="43.811251956704865" lon="10.926301765537506"><ele>254.40000000000003</ele><time>2026-04-05T14:36:15Z</time></trkpt><trkpt lat="43.811342664936774" lon="10.926369184024098"><ele>255.20000000000002</ele><time>2026-04-05T14:36:16Z</time></trkpt><trkpt lat="43.81144838158987" lon="10.926390153769697"><ele>256.0</ele><time>2026-04-05T14:36:17Z</time></trkpt><trkpt lat="43.81157059444802" lon="10.926381967758983"><ele>256.0</ele><time>2026-04-05T14:36:18Z</time></trkpt><trkpt lat="43.81167423336136" lon="10.926362880288442"><ele>256.0</ele><time>2026-04-05T14:36:19Z</time></trkpt><trkpt lat="43.81176822614477" lon="10.926301175468703"><ele>256.0</ele><time>2026-04-05T14:36:20Z</time></trkpt><trkpt lat="43.81184924217906" lon="10.926215490258828"><ele>256.0</ele><time>2026-04-05T14:36:21Z</time></trkpt><trkpt lat="43.811920346412094" lon="10.926128602439126"><ele>256.0</ele><time>2026-04-05T14:36:22Z</time></trkpt><trkpt lat="43.81200914752688" lon="10.92609619267043"><ele>254.5</ele><time>2026-04-05T14:36:23Z</time></trkpt><trkpt lat="43.81210101899662" lon="10.92612597236452"><ele>253.0</ele><time>2026-04-05T14:36:24Z</time></trkpt><trkpt lat="43.812194435576664" lon="10.926216549346996"><ele>251.5</ele><time>2026-04-05T14:36:25Z</time></trkpt><trkpt lat="43.81228318663434" lon="10.926335136934672"><ele>250.0</ele><time>2026-04-05T14:36:26Z</time></trkpt><trkpt lat="43.81237308147089" lon="10.926447688672003"><ele>250.0</ele><time>2026-04-05T14:36:27Z</time></trkpt><trkpt lat="43.81247490337532" lon="10.926563571477661"><ele>250.0</ele><time>2026-04-05T14:36:28Z</time></trkpt><trkpt lat="43.81257562892983" lon="10.926692172155596"><ele>250.0</ele><time>2026-04-05T14:36:28.999Z</time></trkpt><trkpt lat="43.81268958418811" lon="10.926830486018934"><ele>250.0</ele><time>2026-04-05T14:36:29.999Z</time></trkpt><trkpt lat="43.81280009884329" lon="10.926950359765854"><ele>249.5</ele><time>2026-04-05T14:36:30.999Z</time></trkpt><trkpt lat="43.81290617735954" lon="10.927066372288174"><ele>249.0</ele><time>2026-04-05T14:36:31.999Z</time></trkpt><trkpt lat="43.813004079087435" lon="10.927209298519896"><ele>248.5</ele><time>2026-04-05T14:36:32.999Z</time></trkpt><trkpt lat="43.81308312797927" lon="10.927383177602401"><ele>248.0</ele><time>2026-04-05T14:36:33.999Z</time></trkpt><trkpt lat="43.81315353677986" lon="10.927562341543776"><ele>246.75</ele><time>2026-04-05T14:36:34.999Z</time></trkpt><trkpt lat="43.813232641827355" lon="10.927722554851933"><ele>245.5</ele><time>2026-04-05T14:36:35.999Z</time></trkpt><trkpt lat="43.813330304670224" lon="10.927862448099805"><ele>244.25</ele><time>2026-04-05T14:36:36.999Z</time></trkpt><trkpt lat="43.81342321367275" lon="10.927997358944767"><ele>243.0</ele><time>2026-04-05T14:36:37.999Z</time></trkpt><trkpt lat="43.81350430882059" lon="10.928139118931226"><ele>243.0</ele><time>2026-04-05T14:36:38.999Z</time></trkpt><trkpt lat="43.813578480325106" lon="10.928299360267259"><ele>243.0</ele><time>2026-04-05T14:36:39.999Z</time></trkpt><trkpt lat="43.813659977390806" lon="10.928450193575832"><ele>243.0</ele><time>2026-04-05T14:36:40.999Z</time></trkpt><trkpt lat="43.8137575454033" lon="10.928580774693373"><ele>243.0</ele><time>2026-04-05T14:36:41.999Z</time></trkpt><trkpt lat="43.81387303985368" lon="10.928680651681683"><ele>249.25</ele><time>2026-04-05T14:36:42.999Z</time></trkpt><trkpt lat="43.81399547351048" lon="10.928764107502394"><ele>255.5</ele><time>2026-04-05T14:36:43.999Z</time></trkpt><trkpt lat="43.814085479669366" lon="10.92888774409011"><ele>261.75</ele><time>2026-04-05T14:36:44.999Z</time></trkpt><trkpt lat="43.81419139039164" lon="10.928979841277759"><ele>268.0</ele><time>2026-04-05T14:36:45.999Z</time></trkpt><trkpt lat="43.81430836082139" lon="10.929068439438069"><ele>271.25</ele><time>2026-04-05T14:36:46.999Z</time></trkpt><trkpt lat="43.81442010853045" lon="10.92912318270096"><ele>274.5</ele><time>2026-04-05T14:36:47.999Z</time></trkpt><trkpt lat="43.814517708968694" lon="10.929180965268595"><ele>277.75</ele><time>2026-04-05T14:36:48.999Z</time></trkpt><trkpt lat="43.81461450931585" lon="10.92924921035898"><ele>281.0</ele><time>2026-04-05T14:36:49.999Z</time></trkpt><trkpt lat="43.81470854939965" lon="10.929357501481546"><ele>281.0</ele><time>2026-04-05T14:36:50.999Z</time></trkpt><trkpt lat="43.814779549365234" lon="10.92947210759379"><ele>281.0</ele><time>2026-04-05T14:36:51.999Z</time></trkpt><trkpt lat="43.814867376983" lon="10.929557314189939"><ele>281.0</ele><time>2026-04-05T14:36:52.999Z</time></trkpt><trkpt lat="43.81498703350826" lon="10.929518989128349"><ele>281.0</ele><time>2026-04-05T14:36:53.999Z</time></trkpt><trkpt lat="43.81510048178397" lon="10.929458858302675"><ele>276.25</ele><time>2026-04-05T14:36:54.999Z</time></trkpt><trkpt lat="43.8152058017003" lon="10.92943994667163"><ele>271.5</ele><time>2026-04-05T14:36:55.999Z</time></trkpt><trkpt lat="43.81531839532601" lon="10.9294940061105"><ele>266.75</ele><time>2026-04-05T14:36:56.999Z</time></trkpt><trkpt lat="43.81543044225409" lon="10.929590926478003"><ele>262.0</ele><time>2026-04-05T14:36:57.999Z</time></trkpt><trkpt lat="43.81554762339228" lon="10.929681730580834"><ele>262.0</ele><time>2026-04-05T14:36:58.999Z</time></trkpt><trkpt lat="43.81567130654805" lon="10.929779038620786"><ele>262.0</ele><time>2026-04-05T14:36:59.999Z</time></trkpt><trkpt lat="43.81579748963619" lon="10.929887085942509"><ele>262.0</ele><time>2026-04-05T14:37:00.999Z</time></trkpt><trkpt lat="43.81592290826362" lon="10.93000311724718"><ele>262.0</ele><time>2026-04-05T14:37:01.999Z</time></trkpt><trkpt lat="43.816038901385426" lon="10.93012301409439"><ele>265.75</ele><time>2026-04-05T14:37:02.999Z</time></trkpt><trkpt lat="43.81615506356489" lon="10.930224446510223"><ele>269.5</ele><time>2026-04-05T14:37:03.999Z</time></trkpt><trkpt lat="43.81627002902046" lon="10.93029901704097"><ele>273.25</ele><time>2026-04-05T14:37:04.999Z</time></trkpt><trkpt lat="43.816379663818765" lon="10.930351539268827"><ele>277.0</ele><time>2026-04-05T14:37:05.999Z</time></trkpt><trkpt lat="43.81646639710323" lon="10.930406030284088"><ele>277.0</ele><time>2026-04-05T14:37:06.999Z</time></trkpt><trkpt lat="43.81655482959411" lon="10.930427869213252"><ele>277.0</ele><time>2026-04-05T14:37:07.999Z</time></trkpt><trkpt lat="43.81663214346665" lon="10.930400133327955"><ele>277.0</ele><time>2026-04-05T14:37:08.999Z</time></trkpt><trkpt lat="43.816685179920356" lon="10.9302839346803"><ele>277.0</ele><time>2026-04-05T14:37:09.999Z</time></trkpt><trkpt lat="43.816717350218454" lon="10.93014058985082"><ele>277.0</ele><time>2026-04-05T14:37:10.999Z</time></trkpt><trkpt lat="43.8167111951944" lon="10.929994745619226"><ele>274.75</ele><time>2026-04-05T14:37:11.999Z</time></trkpt><trkpt lat="43.8166495065013" lon="10.929864566464163"><ele>272.5</ele><time>2026-04-05T14:37:12.999Z</time></trkpt><trkpt lat="43.81655778693539" lon="10.929743870039994"><ele>270.25</ele><time>2026-04-05T14:37:13.999Z</time></trkpt><trkpt lat="43.81646861510385" lon="10.929615492238643"><ele>268.0</ele><time>2026-04-05T14:37:14.999Z</time></trkpt><trkpt lat="43.81639527630307" lon="10.929457013316643"><ele>268.0</ele><time>2026-04-05T14:37:15.999Z</time></trkpt><trkpt lat="43.816338602946665" lon="10.929285259145516"><ele>268.0</ele><time>2026-04-05T14:37:16.999Z</time></trkpt><trkpt lat="43.816275396534024" lon="10.929094209179931"><ele>268.0</ele><time>2026-04-05T14:37:17.999Z</time></trkpt><trkpt lat="43.81620793475473" lon="10.928907174820601"><ele>268.0</ele><time>2026-04-05T14:37:18.999Z</time></trkpt><trkpt lat="43.81612763687752" lon="10.92871784121603"><ele>266.0</ele><time>2026-04-05T14:37:19.999Z</time></trkpt><trkpt lat="43.816030979371085" lon="10.928542996266701"><ele>264.0</ele><time>2026-04-05T14:37:20.999Z</time></trkpt><trkpt lat="43.81591999526703" lon="10.92838968526439"><ele>262.0</ele><time>2026-04-05T14:37:21.999Z</time></trkpt><trkpt lat="43.815810621159066" lon="10.928244643220877"><ele>262.0</ele><time>2026-04-05T14:37:22.999Z</time></trkpt><trkpt lat="43.815723383956666" lon="10.928080130358017"><ele>262.0</ele><time>2026-04-05T14:37:23.999Z</time></trkpt><trkpt lat="43.81565491105597" lon="10.927905955193005"><ele>262.0</ele><time>2026-04-05T14:37:24.999Z</time></trkpt><trkpt lat="43.815593752265826" lon="10.927760319395711"><ele>262.0</ele><time>2026-04-05T14:37:25.999Z</time></trkpt><trkpt lat="43.81553401338913" lon="10.92763415133512"><ele>265.0</ele><time>2026-04-05T14:37:26.999Z</time></trkpt><trkpt lat="43.815487508213224" lon="10.927515151119318"><ele>268.0</ele><time>2026-04-05T14:37:27.999Z</time></trkpt><trkpt lat="43.81547771955639" lon="10.927370323039343"><ele>271.0</ele><time>2026-04-05T14:37:28.999Z</time></trkpt><trkpt lat="43.81550283126066" lon="10.927201822974975"><ele>274.0</ele><time>2026-04-05T14:37:29.999Z</time></trkpt><trkpt lat="43.81554491625828" lon="10.927033872101298"><ele>274.0</ele><time>2026-04-05T14:37:30.999Z</time></trkpt><trkpt lat="43.815582474547625" lon="10.926877023908073"><ele>274.0</ele><time>2026-04-05T14:37:31.999Z</time></trkpt><trkpt lat="43.81561841245062" lon="10.92674284973007"><ele>274.0</ele><time>2026-04-05T14:37:32.999Z</time></trkpt><trkpt lat="43.81565613478621" lon="10.926627197266672"><ele>274.0</ele><time>2026-04-05T14:37:33.999Z</time></trkpt><trkpt lat="43.8157150134321" lon="10.926579181562209"><ele>274.0</ele><time>2026-04-05T14:37:34.999Z</time></trkpt><trkpt lat="43.8157905891044" lon="10.926568849710055"><ele>274.0</ele><time>2026-04-05T14:37:35.999Z</time></trkpt><trkpt lat="43.81587274606871" lon="10.926657713521703"><ele>274.0</ele><time>2026-04-05T14:37:36.999Z</time></trkpt><trkpt lat="43.81596735236787" lon="10.92672994483365"><ele>274.0</ele><time>2026-04-05T14:37:37.999Z</time></trkpt><trkpt lat="43.816083917344756" lon="10.926774200418647"><ele>274.0</ele><time>2026-04-05T14:37:38.999Z</time></trkpt><trkpt lat="43.81619867064597" lon="10.926791501795455"><ele>274.0</ele><time>2026-04-05T14:37:40Z</time></trkpt><trkpt lat="43.81631341555479" lon="10.926740242648014"><ele>273.4</ele><time>2026-04-05T14:37:41Z</time></trkpt><trkpt lat="43.816418031168446" lon="10.926650406757833"><ele>272.79999999999995</ele><time>2026-04-05T14:37:42Z</time></trkpt><trkpt lat="43.81652053444155" lon="10.926597614207557"><ele>272.20000000000005</ele><time>2026-04-05T14:37:43Z</time></trkpt><trkpt lat="43.81662232872048" lon="10.926590065263873"><ele>271.6</ele><time>2026-04-05T14:37:44Z</time></trkpt><trkpt lat="43.8167325696283" lon="10.926633816964921"><ele>271.0</ele><time>2026-04-05T14:37:45Z</time></trkpt><trkpt lat="43.816859560962186" lon="10.926658851086522"><ele>270.5</ele><time>2026-04-05T14:37:46Z</time></trkpt><trkpt lat="43.81698135038861" lon="10.926724989463096"><ele>270.0</ele><time>2026-04-05T14:37:47Z</time></trkpt><trkpt lat="43.81710029696602" lon="10.926770394544663"><ele>269.5</ele><time>2026-04-05T14:37:48Z</time></trkpt><trkpt lat="43.81720996362661" lon="10.926818930308032"><ele>269.0</ele><time>2026-04-05T14:37:49Z</time></trkpt><trkpt lat="43.817308649251466" lon="10.926896077021018"><ele>275.25</ele><time>2026-04-05T14:37:50Z</time></trkpt><trkpt lat="43.81739335098874" lon="10.927002706446007"><ele>281.5</ele><time>2026-04-05T14:37:51Z</time></trkpt><trkpt lat="43.81747340759764" lon="10.927116019897932"><ele>287.75</ele><time>2026-04-05T14:37:52Z</time></trkpt><trkpt lat="43.817570404952214" lon="10.927197346247903"><ele>294.0</ele><time>2026-04-05T14:37:53Z</time></trkpt><trkpt lat="43.8176702128632" lon="10.92725858881009"><ele>294.25</ele><time>2026-04-05T14:37:54Z</time></trkpt><trkpt lat="43.81778810634847" lon="10.927280095986108"><ele>294.5</ele><time>2026-04-05T14:37:55Z</time></trkpt><trkpt lat="43.81790694794975" lon="10.927283139043437"><ele>294.75</ele><time>2026-04-05T14:37:56Z</time></trkpt><trkpt lat="43.81803083533315" lon="10.92728949378211"><ele>295.0</ele><time>2026-04-05T14:37:57Z</time></trkpt><trkpt lat="43.81815348761055" lon="10.927297121567968"><ele>295.0</ele><time>2026-04-05T14:37:58Z</time></trkpt><trkpt lat="43.81825284107826" lon="10.927281581262168"><ele>295.0</ele><time>2026-04-05T14:37:59Z</time></trkpt><trkpt lat="43.81832189593165" lon="10.927210192164987"><ele>295.0</ele><time>2026-04-05T14:38:00Z</time></trkpt><trkpt lat="43.818352366279285" lon="10.92708144640724"><ele>295.0</ele><time>2026-04-05T14:38:01Z</time></trkpt><trkpt lat="43.818330867221206" lon="10.926929272816151"><ele>295.0</ele><time>2026-04-05T14:38:02Z</time></trkpt><trkpt lat="43.8182782322554" lon="10.926785496011183"><ele>293.6</ele><time>2026-04-05T14:38:03Z</time></trkpt><trkpt lat="43.81823259755412" lon="10.92663678073888"><ele>292.2</ele><time>2026-04-05T14:38:04Z</time></trkpt><trkpt lat="43.81819712179119" lon="10.926497607384594"><ele>290.8</ele><time>2026-04-05T14:38:05Z</time></trkpt><trkpt lat="43.8181602130684" lon="10.926358893252669"><ele>289.4</ele><time>2026-04-05T14:38:06Z</time></trkpt><trkpt lat="43.818135527191515" lon="10.926201874291673"><ele>288.0</ele><time>2026-04-05T14:38:07Z</time></trkpt><trkpt lat="43.81813024738895" lon="10.926036038951384"><ele>286.4</ele><time>2026-04-05T14:38:08Z</time></trkpt><trkpt lat="43.818135422525394" lon="10.925891789873328"><ele>284.8</ele><time>2026-04-05T14:38:09Z</time></trkpt><trkpt lat="43.81815109532384" lon="10.925767200210668"><ele>283.2</ele><time>2026-04-05T14:38:10Z</time></trkpt><trkpt lat="43.818193220381914" lon="10.925679450433666"><ele>281.6</ele><time>2026-04-05T14:38:11Z</time></trkpt><trkpt lat="43.818278018137356" lon="10.925626923589974"><ele>280.0</ele><time>2026-04-05T14:38:12Z</time></trkpt><trkpt lat="43.81838269298199" lon="10.925637647795526"><ele>283.5</ele><time>2026-04-05T14:38:13Z</time></trkpt><trkpt lat="43.81849449791523" lon="10.925600941151469"><ele>287.0</ele><time>2026-04-05T14:38:14Z</time></trkpt><trkpt lat="43.81862060318746" lon="10.925576776620028"><ele>290.5</ele><time>2026-04-05T14:38:15Z</time></trkpt><trkpt lat="43.81873577182599" lon="10.925510543773441"><ele>294.0</ele><time>2026-04-05T14:38:16Z</time></trkpt><trkpt lat="43.818840336093" lon="10.925426793285745"><ele>294.0</ele><time>2026-04-05T14:38:17Z</time></trkpt><trkpt lat="43.81893854294005" lon="10.925343845253858"><ele>294.0</ele><time>2026-04-05T14:38:18Z</time></trkpt><trkpt lat="43.81902900832795" lon="10.925283049154348"><ele>294.0</ele><time>2026-04-05T14:38:19Z</time></trkpt><trkpt lat="43.81912197165962" lon="10.925282848782402"><ele>294.0</ele><time>2026-04-05T14:38:20Z</time></trkpt><trkpt lat="43.819201241821865" lon="10.92527518839263"><ele>294.0</ele><time>2026-04-05T14:38:21Z</time></trkpt><trkpt lat="43.81927484703433" lon="10.925363078898966"><ele>287.75</ele><time>2026-04-05T14:38:22Z</time></trkpt><trkpt lat="43.819349588074694" lon="10.925467901711759"><ele>281.5</ele><time>2026-04-05T14:38:23Z</time></trkpt><trkpt lat="43.81943537510579" lon="10.925589013883226"><ele>275.25</ele><time>2026-04-05T14:38:24Z</time></trkpt><trkpt lat="43.819529362485405" lon="10.92570333263189"><ele>269.0</ele><time>2026-04-05T14:38:25Z</time></trkpt><trkpt lat="43.81963034043725" lon="10.92580813613066"><ele>274.25</ele><time>2026-04-05T14:38:26Z</time></trkpt><trkpt lat="43.819731709971386" lon="10.925923657569314"><ele>279.5</ele><time>2026-04-05T14:38:27Z</time></trkpt><trkpt lat="43.81981741410364" lon="10.92606843017079"><ele>284.75</ele><time>2026-04-05T14:38:28Z</time></trkpt><trkpt lat="43.8199015341908" lon="10.926237744088596"><ele>290.0</ele><time>2026-04-05T14:38:29Z</time></trkpt><trkpt lat="43.81998377342923" lon="10.92641607109765"><ele>290.0</ele><time>2026-04-05T14:38:30Z</time></trkpt><trkpt lat="43.82007505287112" lon="10.926580815059149"><ele>290.0</ele><time>2026-04-05T14:38:31Z</time></trkpt><trkpt lat="43.820153690680336" lon="10.92674955882938"><ele>290.0</ele><time>2026-04-05T14:38:32Z</time></trkpt><trkpt lat="43.820228915847835" lon="10.926911519105747"><ele>290.0</ele><time>2026-04-05T14:38:33Z</time></trkpt><trkpt lat="43.82029855208878" lon="10.927075444875438"><ele>288.0</ele><time>2026-04-05T14:38:34Z</time></trkpt><trkpt lat="43.820360259821456" lon="10.927239025042653"><ele>286.0</ele><time>2026-04-05T14:38:35Z</time></trkpt><trkpt lat="43.82041106075826" lon="10.927405299870141"><ele>284.0</ele><time>2026-04-05T14:38:36Z</time></trkpt><trkpt lat="43.8204458892619" lon="10.927576123664146"><ele>282.0</ele><time>2026-04-05T14:38:37Z</time></trkpt><trkpt lat="43.820496553041025" lon="10.927738028785063"><ele>286.75</ele><time>2026-04-05T14:38:38Z</time></trkpt><trkpt lat="43.82056666340987" lon="10.927890596579285"><ele>291.5</ele><time>2026-04-05T14:38:39Z</time></trkpt><trkpt lat="43.82063250045072" lon="10.928045885715903"><ele>296.25</ele><time>2026-04-05T14:38:39.999Z</time></trkpt><trkpt lat="43.82072140839155" lon="10.928172846663017"><ele>301.0</ele><time>2026-04-05T14:38:40.999Z</time></trkpt><trkpt lat="43.820802770132794" lon="10.928283730987438"><ele>301.0</ele><time>2026-04-05T14:38:41.999Z</time></trkpt><trkpt lat="43.820877804607726" lon="10.928384097285534"><ele>301.0</ele><time>2026-04-05T14:38:42.999Z</time></trkpt><trkpt lat="43.820961363878816" lon="10.928456935807992"><ele>301.0</ele><time>2026-04-05T14:38:43.999Z</time></trkpt><trkpt lat="43.82102319545591" lon="10.928541741460169"><ele>301.0</ele><time>2026-04-05T14:38:44.999Z</time></trkpt><trkpt lat="43.82110121308336" lon="10.92857037174618"><ele>301.0</ele><time>2026-04-05T14:38:45.999Z</time></trkpt><trkpt lat="43.82118292720014" lon="10.92854512697189"><ele>302.0</ele><time>2026-04-05T14:38:46.999Z</time></trkpt><trkpt lat="43.82126391923393" lon="10.928456590231647"><ele>303.0</ele><time>2026-04-05T14:38:47.999Z</time></trkpt><trkpt lat="43.82127764464084" lon="10.928304413577347"><ele>304.0</ele><time>2026-04-05T14:38:48.999Z</time></trkpt><trkpt lat="43.82127620289697" lon="10.928150739109963"><ele>305.0</ele><time>2026-04-05T14:38:49.999Z</time></trkpt><trkpt lat="43.82127442282335" lon="10.927995092603219"><ele>306.0</ele><time>2026-04-05T14:38:50.999Z</time></trkpt><trkpt lat="43.82127553870694" lon="10.927849426195214"><ele>306.0</ele><time>2026-04-05T14:38:51.999Z</time></trkpt><trkpt lat="43.82128980511098" lon="10.927720707900988"><ele>306.0</ele><time>2026-04-05T14:38:52.999Z</time></trkpt><trkpt lat="43.82133489401824" lon="10.927615866498698"><ele>306.0</ele><time>2026-04-05T14:38:53.999Z</time></trkpt><trkpt lat="43.82141528311311" lon="10.927567537348628"><ele>306.0</ele><time>2026-04-05T14:38:54.999Z</time></trkpt><trkpt lat="43.821518963334846" lon="10.927553013385028"><ele>306.0</ele><time>2026-04-05T14:38:55.999Z</time></trkpt><trkpt lat="43.821634230692794" lon="10.92755319608043"><ele>307.0</ele><time>2026-04-05T14:38:56.999Z</time></trkpt><trkpt lat="43.82174943964118" lon="10.927538378713546"><ele>308.0</ele><time>2026-04-05T14:38:57.999Z</time></trkpt><trkpt lat="43.821861487381355" lon="10.9275199729808"><ele>309.0</ele><time>2026-04-05T14:38:58.999Z</time></trkpt><trkpt lat="43.821962507980544" lon="10.927496721087454"><ele>310.0</ele><time>2026-04-05T14:38:59.999Z</time></trkpt><trkpt lat="43.82204977755976" lon="10.927429761894278"><ele>311.0</ele><time>2026-04-05T14:39:00.999Z</time></trkpt><trkpt lat="43.822106430920954" lon="10.927309527778903"><ele>311.0</ele><time>2026-04-05T14:39:01.999Z</time></trkpt><trkpt lat="43.82211742479569" lon="10.927159885479238"><ele>311.0</ele><time>2026-04-05T14:39:02.999Z</time></trkpt><trkpt lat="43.82208191233058" lon="10.92700125643265"><ele>311.0</ele><time>2026-04-05T14:39:03.999Z</time></trkpt><trkpt lat="43.82199756178378" lon="10.926878226043582"><ele>311.0</ele><time>2026-04-05T14:39:04.999Z</time></trkpt><trkpt lat="43.821900114631866" lon="10.926774926351202"><ele>304.5</ele><time>2026-04-05T14:39:05.999Z</time></trkpt><trkpt lat="43.82180084932219" lon="10.926663549852746"><ele>298.0</ele><time>2026-04-05T14:39:06.999Z</time></trkpt><trkpt lat="43.82170448783288" lon="10.926533670890654"><ele>291.5</ele><time>2026-04-05T14:39:07.999Z</time></trkpt><trkpt lat="43.82162989784573" lon="10.926393295846829"><ele>285.0</ele><time>2026-04-05T14:39:08.999Z</time></trkpt><trkpt lat="43.821588578278195" lon="10.926228004868053"><ele>285.0</ele><time>2026-04-05T14:39:09.999Z</time></trkpt><trkpt lat="43.82157425343773" lon="10.926042278045648"><ele>285.0</ele><time>2026-04-05T14:39:10.999Z</time></trkpt><trkpt lat="43.82157545818121" lon="10.92587750137235"><ele>285.0</ele><time>2026-04-05T14:39:11.999Z</time></trkpt><trkpt lat="43.82158713990169" lon="10.92572915780994"><ele>285.0</ele><time>2026-04-05T14:39:12.999Z</time></trkpt><trkpt lat="43.82162765247361" lon="10.925593271310962"><ele>285.6</ele><time>2026-04-05T14:39:13.999Z</time></trkpt><trkpt lat="43.821699333863805" lon="10.925460252044488"><ele>286.2</ele><time>2026-04-05T14:39:14.999Z</time></trkpt><trkpt lat="43.82178400524658" lon="10.92534797368958"><ele>286.8</ele><time>2026-04-05T14:39:15.999Z</time></trkpt><trkpt lat="43.821865205417026" lon="10.925269629841416"><ele>287.4</ele><time>2026-04-05T14:39:16.999Z</time></trkpt><trkpt lat="43.82196919224271" lon="10.92524254863006"><ele>288.0</ele><time>2026-04-05T14:39:17.999Z</time></trkpt><trkpt lat="43.82208739996224" lon="10.925243279127487"><ele>290.6</ele><time>2026-04-05T14:39:18.999Z</time></trkpt><trkpt lat="43.82220364931098" lon="10.925236590235922"><ele>293.20000000000005</ele><time>2026-04-05T14:39:19.999Z</time></trkpt><trkpt lat="43.822308959038764" lon="10.925223630379085"><ele>295.8</ele><time>2026-04-05T14:39:20.999Z</time></trkpt><trkpt lat="43.822411094196596" lon="10.925212479615954"><ele>298.40000000000003</ele><time>2026-04-05T14:39:21.999Z</time></trkpt><trkpt lat="43.82250729423477" lon="10.925235880451096"><ele>301.0</ele><time>2026-04-05T14:39:22.999Z</time></trkpt><trkpt lat="43.82257812923552" lon="10.925326383797644"><ele>296.75</ele><time>2026-04-05T14:39:23.999Z</time></trkpt><trkpt lat="43.82265482333159" lon="10.92541987579729"><ele>292.5</ele><time>2026-04-05T14:39:24.999Z</time></trkpt><trkpt lat="43.82272786982412" lon="10.925547403430095"><ele>288.25</ele><time>2026-04-05T14:39:25.999Z</time></trkpt><trkpt lat="43.82281397444291" lon="10.925667216710423"><ele>284.0</ele><time>2026-04-05T14:39:26.999Z</time></trkpt><trkpt lat="43.822887453721954" lon="10.92580895906042"><ele>288.25</ele><time>2026-04-05T14:39:27.999Z</time></trkpt><trkpt lat="43.822968909557666" lon="10.925950655813642"><ele>292.5</ele><time>2026-04-05T14:39:28.999Z</time></trkpt><trkpt lat="43.823060325409934" lon="10.926088681880419"><ele>296.75</ele><time>2026-04-05T14:39:29.999Z</time></trkpt><trkpt lat="43.82315929832566" lon="10.92622409131378"><ele>301.0</ele><time>2026-04-05T14:39:30.999Z</time></trkpt><trkpt lat="43.82327747311528" lon="10.926344915626395"><ele>301.0</ele><time>2026-04-05T14:39:31.999Z</time></trkpt><trkpt lat="43.82338740008046" lon="10.926480575631905"><ele>301.0</ele><time>2026-04-05T14:39:32.999Z</time></trkpt><trkpt lat="43.823485109872536" lon="10.92663104079452"><ele>301.0</ele><time>2026-04-05T14:39:33.999Z</time></trkpt><trkpt lat="43.82357505502518" lon="10.92678004185081"><ele>301.0</ele><time>2026-04-05T14:39:34.999Z</time></trkpt><trkpt lat="43.82366416920727" lon="10.926928625833597"><ele>302.25</ele><time>2026-04-05T14:39:35.999Z</time></trkpt><trkpt lat="43.82373879261886" lon="10.927082378624377"><ele>303.5</ele><time>2026-04-05T14:39:36.999Z</time></trkpt><trkpt lat="43.823792443098874" lon="10.927255076893626"><ele>304.75</ele><time>2026-04-05T14:39:37.999Z</time></trkpt><trkpt lat="43.82383260704153" lon="10.927433469506212"><ele>306.0</ele><time>2026-04-05T14:39:38.999Z</time></trkpt><trkpt lat="43.82388308959216" lon="10.92761037081658"><ele>306.0</ele><time>2026-04-05T14:39:39.999Z</time></trkpt><trkpt lat="43.82394260136287" lon="10.927763162738875"><ele>306.0</ele><time>2026-04-05T14:39:40.999Z</time></trkpt><trkpt lat="43.82400618972017" lon="10.927897875457441"><ele>306.0</ele><time>2026-04-05T14:39:41.999Z</time></trkpt><trkpt lat="43.824075209847216" lon="10.928014537688158"><ele>306.0</ele><time>2026-04-05T14:39:42.999Z</time></trkpt><trkpt lat="43.824152076455036" lon="10.928101743865309"><ele>306.0</ele><time>2026-04-05T14:39:43.999Z</time></trkpt><trkpt lat="43.82426520688826" lon="10.928093881918066"><ele>306.0</ele><time>2026-04-05T14:39:44.999Z</time></trkpt><trkpt lat="43.824367516529094" lon="10.928046639750526"><ele>306.0</ele><time>2026-04-05T14:39:46Z</time></trkpt><trkpt lat="43.824455703836286" lon="10.927994173321263"><ele>306.0</ele><time>2026-04-05T14:39:47Z</time></trkpt><trkpt lat="43.824550791433786" lon="10.927971138123754"><ele>306.0</ele><time>2026-04-05T14:39:48Z</time></trkpt><trkpt lat="43.824653502850474" lon="10.928002459303995"><ele>307.75</ele><time>2026-04-05T14:39:49Z</time></trkpt><trkpt lat="43.82475018699273" lon="10.9280891957702"><ele>309.5</ele><time>2026-04-05T14:39:50Z</time></trkpt><trkpt lat="43.82483341478819" lon="10.928214565845009"><ele>311.25</ele><time>2026-04-05T14:39:51Z</time></trkpt><trkpt lat="43.824929389378504" lon="10.928317000271411"><ele>313.0</ele><time>2026-04-05T14:39:52Z</time></trkpt><trkpt lat="43.82502913927836" lon="10.928448700945836"><ele>313.0</ele><time>2026-04-05T14:39:53Z</time></trkpt><trkpt lat="43.825123776043654" lon="10.928592912789366"><ele>313.0</ele><time>2026-04-05T14:39:54Z</time></trkpt><trkpt lat="43.8252091631369" lon="10.928739600232817"><ele>313.0</ele><time>2026-04-05T14:39:55Z</time></trkpt><trkpt lat="43.82529637368628" lon="10.928891516731191"><ele>313.0</ele><time>2026-04-05T14:39:56Z</time></trkpt><trkpt lat="43.825374798264654" lon="10.929053680172803"><ele>309.25</ele><time>2026-04-05T14:39:57Z</time></trkpt><trkpt lat="43.825449510242365" lon="10.929217678876702"><ele>305.5</ele><time>2026-04-05T14:39:58Z</time></trkpt><trkpt lat="43.82551411095511" lon="10.929373879036426"><ele>301.75</ele><time>2026-04-05T14:39:59Z</time></trkpt><trkpt lat="43.82557436785262" lon="10.929525067231815"><ele>298.0</ele><time>2026-04-05T14:40:00Z</time></trkpt><trkpt lat="43.82563563311962" lon="10.92966251739315"><ele>298.0</ele><time>2026-04-05T14:40:01Z</time></trkpt><trkpt lat="43.82568183352369" lon="10.929793240887161"><ele>298.0</ele><time>2026-04-05T14:40:02Z</time></trkpt><trkpt lat="43.82573312364296" lon="10.929906374138197"><ele>298.0</ele><time>2026-04-05T14:40:03Z</time></trkpt><trkpt lat="43.825805672143815" lon="10.92998070405042"><ele>298.0</ele><time>2026-04-05T14:40:04Z</time></trkpt><trkpt lat="43.825913192480975" lon="10.92999909974323"><ele>298.0</ele><time>2026-04-05T14:40:05Z</time></trkpt><trkpt lat="43.826015028404925" lon="10.929963160826022"><ele>301.75</ele><time>2026-04-05T14:40:06Z</time></trkpt><trkpt lat="43.826106572263406" lon="10.929897848173669"><ele>305.5</ele><time>2026-04-05T14:40:07Z</time></trkpt><trkpt lat="43.826171672591386" lon="10.929759810889347"><ele>309.25</ele><time>2026-04-05T14:40:08Z</time></trkpt><trkpt lat="43.8261664022387" lon="10.929566844923373"><ele>313.0</ele><time>2026-04-05T14:40:09Z</time></trkpt><trkpt lat="43.82615408116472" lon="10.929387568900658"><ele>312.5</ele><time>2026-04-05T14:40:10Z</time></trkpt><trkpt lat="43.826133865270386" lon="10.9292013904652"><ele>312.0</ele><time>2026-04-05T14:40:11Z</time></trkpt><trkpt lat="43.82611612602064" lon="10.929010874991047"><ele>311.5</ele><time>2026-04-05T14:40:12Z</time></trkpt><trkpt lat="43.82609741173266" lon="10.928811149391112"><ele>311.0</ele><time>2026-04-05T14:40:13Z</time></trkpt><trkpt lat="43.82607843386588" lon="10.928607776316225"><ele>311.0</ele><time>2026-04-05T14:40:14Z</time></trkpt><trkpt lat="43.826060700672386" lon="10.92843065318863"><ele>311.0</ele><time>2026-04-05T14:40:15Z</time></trkpt><trkpt lat="43.82604406574813" lon="10.928266860678887"><ele>311.0</ele><time>2026-04-05T14:40:16Z</time></trkpt><trkpt lat="43.82603275398769" lon="10.928126617693776"><ele>311.0</ele><time>2026-04-05T14:40:17Z</time></trkpt><trkpt lat="43.82605321114448" lon="10.927999348710463"><ele>311.0</ele><time>2026-04-05T14:40:18Z</time></trkpt><trkpt lat="43.82611592488343" lon="10.927892700724533"><ele>309.40000000000003</ele><time>2026-04-05T14:40:19Z</time></trkpt><trkpt lat="43.82620944594116" lon="10.927867157402364"><ele>307.8</ele><time>2026-04-05T14:40:20Z</time></trkpt><trkpt lat="43.82631012793557" lon="10.927857567282764"><ele>306.20000000000005</ele><time>2026-04-05T14:40:21Z</time></trkpt><trkpt lat="43.82642076629936" lon="10.927893960598894"><ele>304.6</ele><time>2026-04-05T14:40:22Z</time></trkpt><trkpt lat="43.82654305841231" lon="10.927926949806968"><ele>303.0</ele><time>2026-04-05T14:40:23Z</time></trkpt><trkpt lat="43.826672128325214" lon="10.927975460838928"><ele>303.0</ele><time>2026-04-05T14:40:24Z</time></trkpt><trkpt lat="43.826796805651796" lon="10.928042321851471"><ele>303.0</ele><time>2026-04-05T14:40:25Z</time></trkpt><trkpt lat="43.82692361259623" lon="10.928130020110032"><ele>303.0</ele><time>2026-04-05T14:40:26Z</time></trkpt><trkpt lat="43.827044501622865" lon="10.928244119701013"><ele>303.0</ele><time>2026-04-05T14:40:27Z</time></trkpt><trkpt lat="43.827155239453425" lon="10.928368053053159"><ele>307.25</ele><time>2026-04-05T14:40:28Z</time></trkpt><trkpt lat="43.827260502257644" lon="10.928487345381857"><ele>311.5</ele><time>2026-04-05T14:40:29Z</time></trkpt><trkpt lat="43.82735475381609" lon="10.928589886325552"><ele>315.75</ele><time>2026-04-05T14:40:30Z</time></trkpt><trkpt lat="43.82744484144934" lon="10.92865299813102"><ele>320.0</ele><time>2026-04-05T14:40:31Z</time></trkpt><trkpt lat="43.82753885924971" lon="10.928718127248555"><ele>320.0</ele><time>2026-04-05T14:40:32Z</time></trkpt><trkpt lat="43.82764998840114" lon="10.928751053622442"><ele>320.0</ele><time>2026-04-05T14:40:33Z</time></trkpt><trkpt lat="43.82777049254806" lon="10.928751636144915"><ele>320.0</ele><time>2026-04-05T14:40:34Z</time></trkpt><trkpt lat="43.82787775131612" lon="10.928749507472933"><ele>320.0</ele><time>2026-04-05T14:40:35Z</time></trkpt><trkpt lat="43.827973854259106" lon="10.9287342181377"><ele>320.0</ele><time>2026-04-05T14:40:36Z</time></trkpt><trkpt lat="43.828045667707" lon="10.928687831504703"><ele>320.0</ele><time>2026-04-05T14:40:37Z</time></trkpt><trkpt lat="43.82808621055714" lon="10.928573931664658"><ele>320.0</ele><time>2026-04-05T14:40:38Z</time></trkpt><trkpt lat="43.82810888603875" lon="10.928460593177824"><ele>320.0</ele><time>2026-04-05T14:40:39Z</time></trkpt><trkpt lat="43.82805471028101" lon="10.928355240532708"><ele>320.0</ele><time>2026-04-05T14:40:40Z</time></trkpt><trkpt lat="43.82797379555933" lon="10.928271742625009"><ele>320.0</ele><time>2026-04-05T14:40:41Z</time></trkpt><trkpt lat="43.82787446902099" lon="10.9281973329373"><ele>319.0</ele><time>2026-04-05T14:40:42Z</time></trkpt><trkpt lat="43.82778480804161" lon="10.928092731433216"><ele>318.0</ele><time>2026-04-05T14:40:43Z</time></trkpt><trkpt lat="43.82772467376385" lon="10.927945278731276"><ele>317.0</ele><time>2026-04-05T14:40:44Z</time></trkpt><trkpt lat="43.82769503973152" lon="10.92780215488394"><ele>316.0</ele><time>2026-04-05T14:40:45Z</time></trkpt><trkpt lat="43.82768983125161" lon="10.927643063288187"><ele>318.75</ele><time>2026-04-05T14:40:46Z</time></trkpt><trkpt lat="43.82772737189536" lon="10.927484684997285"><ele>321.5</ele><time>2026-04-05T14:40:47Z</time></trkpt><trkpt lat="43.82777202443781" lon="10.927337114435677"><ele>324.25</ele><time>2026-04-05T14:40:48Z</time></trkpt><trkpt lat="43.82779367454579" lon="10.927185666801863"><ele>327.0</ele><time>2026-04-05T14:40:49Z</time></trkpt><trkpt lat="43.82775983201332" lon="10.927035713815426"><ele>327.0</ele><time>2026-04-05T14:40:50Z</time></trkpt><trkpt lat="43.827681452256215" lon="10.926926070569307"><ele>327.0</ele><time>2026-04-05T14:40:51Z</time></trkpt><trkpt lat="43.827589918651356" lon="10.926841730198086"><ele>327.0</ele><time>2026-04-05T14:40:51.999Z</time></trkpt><trkpt lat="43.827520726983266" lon="10.926743033579177"><ele>327.0</ele><time>2026-04-05T14:40:52.999Z</time></trkpt><trkpt lat="43.827501817635785" lon="10.926609834670789"><ele>327.0</ele><time>2026-04-05T14:40:53.999Z</time></trkpt><trkpt lat="43.82742288569942" lon="10.926473108260167"><ele>321.25</ele><time>2026-04-05T14:40:54.999Z</time></trkpt><trkpt lat="43.82753711175925" lon="10.926296234063495"><ele>315.5</ele><time>2026-04-05T14:40:55.999Z</time></trkpt><trkpt lat="43.827498940529374" lon="10.926147723266853"><ele>309.75</ele><time>2026-04-05T14:40:56.999Z</time></trkpt><trkpt lat="43.82742677277174" lon="10.926019919555799"><ele>304.0</ele><time>2026-04-05T14:40:57.999Z</time></trkpt><trkpt lat="43.82734610094192" lon="10.925935369436319"><ele>305.5</ele><time>2026-04-05T14:40:58.999Z</time></trkpt><trkpt lat="43.82726662755942" lon="10.925863343483607"><ele>307.0</ele><time>2026-04-05T14:40:59.999Z</time></trkpt><trkpt lat="43.82720912030803" lon="10.925783252565925"><ele>308.5</ele><time>2026-04-05T14:41:00.999Z</time></trkpt><trkpt lat="43.827177392015194" lon="10.925702428771228"><ele>310.0</ele><time>2026-04-05T14:41:01.999Z</time></trkpt><trkpt lat="43.8271700811729" lon="10.925598841187833"><ele>311.5</ele><time>2026-04-05T14:41:02.999Z</time></trkpt><trkpt lat="43.827209189865236" lon="10.925517167106333"><ele>313.0</ele><time>2026-04-05T14:41:03.999Z</time></trkpt><trkpt lat="43.82728623175651" lon="10.925432062533398"><ele>313.0</ele><time>2026-04-05T14:41:04.999Z</time></trkpt><trkpt lat="43.82736627441029" lon="10.925351095996511"><ele>313.0</ele><time>2026-04-05T14:41:05.999Z</time></trkpt><trkpt lat="43.82744031231388" lon="10.925244236952523"><ele>313.0</ele><time>2026-04-05T14:41:06.999Z</time></trkpt><trkpt lat="43.82749813248039" lon="10.925100481251398"><ele>313.0</ele><time>2026-04-05T14:41:07.999Z</time></trkpt><trkpt lat="43.82753970103647" lon="10.924943981025104"><ele>313.0</ele><time>2026-04-05T14:41:08.999Z</time></trkpt><trkpt lat="43.82755008366019" lon="10.924771141442964"><ele>313.25</ele><time>2026-04-05T14:41:09.999Z</time></trkpt><trkpt lat="43.82753682111357" lon="10.924611410087563"><ele>313.5</ele><time>2026-04-05T14:41:10.999Z</time></trkpt><trkpt lat="43.82749647083798" lon="10.924437555000958"><ele>313.75</ele><time>2026-04-05T14:41:11.999Z</time></trkpt><trkpt lat="43.827455905350696" lon="10.924281047816269"><ele>314.0</ele><time>2026-04-05T14:41:12.999Z</time></trkpt><trkpt lat="43.827431363869856" lon="10.924130422856097"><ele>313.2</ele><time>2026-04-05T14:41:13.999Z</time></trkpt><trkpt lat="43.82743391266433" lon="10.923998829507912"><ele>312.4</ele><time>2026-04-05T14:41:14.999Z</time></trkpt><trkpt lat="43.82747761701154" lon="10.92389111790455"><ele>311.6</ele><time>2026-04-05T14:41:15.999Z</time></trkpt><trkpt lat="43.82755875783033" lon="10.92383430631504"><ele>310.8</ele><time>2026-04-05T14:41:16.999Z</time></trkpt><trkpt lat="43.82765657939921" lon="10.923855206015903"><ele>310.0</ele><time>2026-04-05T14:41:17.999Z</time></trkpt><trkpt lat="43.82774407484289" lon="10.923905964760829"><ele>309.25</ele><time>2026-04-05T14:41:18.999Z</time></trkpt><trkpt lat="43.82784229185481" lon="10.92396710391837"><ele>308.5</ele><time>2026-04-05T14:41:19.999Z</time></trkpt><trkpt lat="43.82792175937313" lon="10.924080784883126"><ele>307.75</ele><time>2026-04-05T14:41:20.999Z</time></trkpt><trkpt lat="43.82801230567311" lon="10.924194504414569"><ele>307.0</ele><time>2026-04-05T14:41:21.999Z</time></trkpt><trkpt lat="43.82810438256849" lon="10.924308013691139"><ele>309.25</ele><time>2026-04-05T14:41:22.999Z</time></trkpt><trkpt lat="43.82820551027584" lon="10.924421487178073"><ele>311.5</ele><time>2026-04-05T14:41:23.999Z</time></trkpt><trkpt lat="43.82831167092996" lon="10.92453308895078"><ele>313.75</ele><time>2026-04-05T14:41:24.999Z</time></trkpt><trkpt lat="43.82843240918941" lon="10.924626197551275"><ele>316.0</ele><time>2026-04-05T14:41:25.999Z</time></trkpt><trkpt lat="43.82854096678729" lon="10.92474535677508"><ele>316.0</ele><time>2026-04-05T14:41:26.999Z</time></trkpt><trkpt lat="43.82865778076742" lon="10.924853575051152"><ele>316.0</ele><time>2026-04-05T14:41:27.999Z</time></trkpt><trkpt lat="43.828776575901166" lon="10.924959178396266"><ele>316.0</ele><time>2026-04-05T14:41:28.999Z</time></trkpt><trkpt lat="43.82889978642522" lon="10.92506551280089"><ele>316.0</ele><time>2026-04-05T14:41:29.999Z</time></trkpt><trkpt lat="43.82902137517107" lon="10.925178885841225"><ele>317.75</ele><time>2026-04-05T14:41:30.999Z</time></trkpt><trkpt lat="43.82914812670907" lon="10.92528654864625"><ele>319.5</ele><time>2026-04-05T14:41:31.999Z</time></trkpt><trkpt lat="43.82927721032262" lon="10.9253976982279"><ele>321.25</ele><time>2026-04-05T14:41:32.999Z</time></trkpt><trkpt lat="43.82939570349564" lon="10.925492330442335"><ele>323.0</ele><time>2026-04-05T14:41:33.999Z</time></trkpt><trkpt lat="43.82950076692901" lon="10.9255585630544"><ele>323.0</ele><time>2026-04-05T14:41:34.999Z</time></trkpt><trkpt lat="43.829622069965275" lon="10.925602508874492"><ele>323.0</ele><time>2026-04-05T14:41:35.999Z</time></trkpt><trkpt lat="43.829738166148516" lon="10.925650453204431"><ele>323.0</ele><time>2026-04-05T14:41:36.999Z</time></trkpt><trkpt lat="43.82983967940447" lon="10.92575100999662"><ele>323.0</ele><time>2026-04-05T14:41:37.999Z</time></trkpt><trkpt lat="43.82990576704752" lon="10.925915500019778"><ele>324.25</ele><time>2026-04-05T14:41:38.999Z</time></trkpt><trkpt lat="43.82998954464262" lon="10.926068405968246"><ele>325.5</ele><time>2026-04-05T14:41:39.999Z</time></trkpt><trkpt lat="43.83006939565952" lon="10.926233240675465"><ele>326.75</ele><time>2026-04-05T14:41:40.999Z</time></trkpt><trkpt lat="43.83018269774708" lon="10.926370590447837"><ele>328.0</ele><time>2026-04-05T14:41:41.999Z</time></trkpt><trkpt lat="43.830313011243454" lon="10.926491183733798"><ele>328.0</ele><time>2026-04-05T14:41:42.999Z</time></trkpt><trkpt lat="43.83044105691685" lon="10.926615454783013"><ele>328.0</ele><time>2026-04-05T14:41:43.999Z</time></trkpt><trkpt lat="43.83056635993139" lon="10.926742304038191"><ele>328.0</ele><time>2026-04-05T14:41:44.999Z</time></trkpt><trkpt lat="43.83069664657604" lon="10.926872634212899"><ele>332.0</ele><time>2026-04-05T14:41:45.999Z</time></trkpt><trkpt lat="43.83084229680861" lon="10.926991525943171"><ele>336.0</ele><time>2026-04-05T14:41:46.999Z</time></trkpt><trkpt lat="43.83099774495376" lon="10.927076693482602"><ele>340.0</ele><time>2026-04-05T14:41:47.999Z</time></trkpt><trkpt lat="43.83115464172978" lon="10.927118830354306"><ele>340.0</ele><time>2026-04-05T14:41:48.999Z</time></trkpt><trkpt lat="43.831300702146905" lon="10.927150047859872"><ele>340.0</ele><time>2026-04-05T14:41:49.999Z</time></trkpt><trkpt lat="43.831420621470876" lon="10.927191168753398"><ele>340.0</ele><time>2026-04-05T14:41:50.999Z</time></trkpt><trkpt lat="43.83152845909234" lon="10.927255015229349"><ele>340.0</ele><time>2026-04-05T14:41:52Z</time></trkpt><trkpt lat="43.83163785691005" lon="10.927362308800475"><ele>340.0</ele><time>2026-04-05T14:41:53Z</time></trkpt><trkpt lat="43.83172179553318" lon="10.927514417581195"><ele>340.0</ele><time>2026-04-05T14:41:54Z</time></trkpt><trkpt lat="43.83180413268969" lon="10.927679620726536"><ele>340.0</ele><time>2026-04-05T14:41:55Z</time></trkpt><trkpt lat="43.831891055615145" lon="10.92784174669854"><ele>340.0</ele><time>2026-04-05T14:41:56Z</time></trkpt><trkpt lat="43.83197447889139" lon="10.927997997559586"><ele>340.0</ele><time>2026-04-05T14:41:57Z</time></trkpt><trkpt lat="43.832046097298345" lon="10.928153553910818"><ele>340.0</ele><time>2026-04-05T14:41:58Z</time></trkpt><trkpt lat="43.83214815177798" lon="10.928287190014096"><ele>340.0</ele><time>2026-04-05T14:41:59Z</time></trkpt><trkpt lat="43.832277058939404" lon="10.928388731021755"><ele>340.0</ele><time>2026-04-05T14:42:00Z</time></trkpt><trkpt lat="43.832415162239386" lon="10.928480343366607"><ele>342.0</ele><time>2026-04-05T14:42:01Z</time></trkpt><trkpt lat="43.83255312585581" lon="10.928577220149267"><ele>344.0</ele><time>2026-04-05T14:42:02Z</time></trkpt><trkpt lat="43.832687438595705" lon="10.92867625626148"><ele>346.0</ele><time>2026-04-05T14:42:03Z</time></trkpt><trkpt lat="43.8328149053139" lon="10.928775058777271"><ele>346.0</ele><time>2026-04-05T14:42:04Z</time></trkpt><trkpt lat="43.832914647904936" lon="10.928916904963495"><ele>346.0</ele><time>2026-04-05T14:42:05Z</time></trkpt><trkpt lat="43.83300531014469" lon="10.929058454949518"><ele>346.0</ele><time>2026-04-05T14:42:06Z</time></trkpt><trkpt lat="43.83309388635654" lon="10.929224387539396"><ele>346.0</ele><time>2026-04-05T14:42:07Z</time></trkpt><trkpt lat="43.833168102704974" lon="10.92941506287266"><ele>349.0</ele><time>2026-04-05T14:42:08Z</time></trkpt><trkpt lat="43.83323265015816" lon="10.929594695477359"><ele>352.0</ele><time>2026-04-05T14:42:09Z</time></trkpt><trkpt lat="43.83327324552757" lon="10.929770762179427"><ele>355.0</ele><time>2026-04-05T14:42:10Z</time></trkpt><trkpt lat="43.83329070697857" lon="10.929941040105033"><ele>358.0</ele><time>2026-04-05T14:42:11Z</time></trkpt><trkpt lat="43.83330598207053" lon="10.930092288096267"><ele>360.0</ele><time>2026-04-05T14:42:12Z</time></trkpt><trkpt lat="43.833353493342045" lon="10.930211684261938"><ele>362.0</ele><time>2026-04-05T14:42:13Z</time></trkpt><trkpt lat="43.83344679598343" lon="10.930274130519681"><ele>364.0</ele><time>2026-04-05T14:42:14Z</time></trkpt><trkpt lat="43.83354817008111" lon="10.930273886277462"><ele>366.0</ele><time>2026-04-05T14:42:15Z</time></trkpt><trkpt lat="43.83364834890081" lon="10.930139550270116"><ele>368.0</ele><time>2026-04-05T14:42:16Z</time></trkpt><trkpt lat="43.833701955277235" lon="10.929987920121361"><ele>368.0</ele><time>2026-04-05T14:42:17Z</time></trkpt><trkpt lat="43.833761034593536" lon="10.92983253814711"><ele>368.0</ele><time>2026-04-05T14:42:18Z</time></trkpt><trkpt lat="43.83382174248971" lon="10.929706505402725"><ele>368.0</ele><time>2026-04-05T14:42:19Z</time></trkpt><trkpt lat="43.83391330652208" lon="10.929629655241863"><ele>368.0</ele><time>2026-04-05T14:42:20Z</time></trkpt><trkpt lat="43.8340339176352" lon="10.92964274447689"><ele>368.0</ele><time>2026-04-05T14:42:21Z</time></trkpt><trkpt lat="43.834150539920984" lon="10.92961837466728"><ele>368.0</ele><time>2026-04-05T14:42:22Z</time></trkpt><trkpt lat="43.834260496594894" lon="10.929571498452125"><ele>368.0</ele><time>2026-04-05T14:42:23Z</time></trkpt><trkpt lat="43.83434907855991" lon="10.92946207613399"><ele>368.0</ele><time>2026-04-05T14:42:24Z</time></trkpt><trkpt lat="43.83439277998121" lon="10.9293095180099"><ele>371.0</ele><time>2026-04-05T14:42:25Z</time></trkpt><trkpt lat="43.83438634947258" lon="10.929124866029882"><ele>374.0</ele><time>2026-04-05T14:42:26Z</time></trkpt><trkpt lat="43.83436290793839" lon="10.928937311065408"><ele>377.0</ele><time>2026-04-05T14:42:27Z</time></trkpt><trkpt lat="43.83435790624285" lon="10.928745178170493"><ele>380.0</ele><time>2026-04-05T14:42:28Z</time></trkpt><trkpt lat="43.83435450079372" lon="10.928540153878053"><ele>380.5</ele><time>2026-04-05T14:42:29Z</time></trkpt><trkpt lat="43.834349544094614" lon="10.928339758010152"><ele>381.0</ele><time>2026-04-05T14:42:30Z</time></trkpt><trkpt lat="43.83434397514502" lon="10.928138808453644"><ele>381.5</ele><time>2026-04-05T14:42:31Z</time></trkpt><trkpt lat="43.83434172257588" lon="10.927938248814838"><ele>382.0</ele><time>2026-04-05T14:42:32Z</time></trkpt><trkpt lat="43.83433837933556" lon="10.927743941809887"><ele>380.5</ele><time>2026-04-05T14:42:33Z</time></trkpt><trkpt lat="43.83431381273267" lon="10.927557935495406"><ele>379.0</ele><time>2026-04-05T14:42:34Z</time></trkpt><trkpt lat="43.83426376702782" lon="10.927378894868722"><ele>377.5</ele><time>2026-04-05T14:42:35Z</time></trkpt><trkpt lat="43.83419858910761" lon="10.927224662832355"><ele>376.0</ele><time>2026-04-05T14:42:36Z</time></trkpt><trkpt lat="43.834129442251374" lon="10.927083991767876"><ele>370.0</ele><time>2026-04-05T14:42:37Z</time></trkpt><trkpt lat="43.834070295101" lon="10.926952139470428"><ele>364.0</ele><time>2026-04-05T14:42:38Z</time></trkpt><trkpt lat="43.83403544838925" lon="10.926827616565424"><ele>358.0</ele><time>2026-04-05T14:42:39Z</time></trkpt><trkpt lat="43.83404723300787" lon="10.926722928995803"><ele>352.0</ele><time>2026-04-05T14:42:40Z</time></trkpt><trkpt lat="43.83409891029034" lon="10.9266199308684"><ele>346.0</ele><time>2026-04-05T14:42:41Z</time></trkpt><trkpt lat="43.834205585555964" lon="10.92657572243515"><ele>348.25</ele><time>2026-04-05T14:42:42Z</time></trkpt><trkpt lat="43.83431583077214" lon="10.926528686384554"><ele>350.5</ele><time>2026-04-05T14:42:43Z</time></trkpt><trkpt lat="43.83443546421099" lon="10.926500699510699"><ele>352.75</ele><time>2026-04-05T14:42:44Z</time></trkpt><trkpt lat="43.83455556960366" lon="10.9264706367811"><ele>355.0</ele><time>2026-04-05T14:42:45Z</time></trkpt><trkpt lat="43.834676978358395" lon="10.926442891727456"><ele>355.0</ele><time>2026-04-05T14:42:46Z</time></trkpt><trkpt lat="43.83480114675864" lon="10.926464312957512"><ele>355.0</ele><time>2026-04-05T14:42:47Z</time></trkpt><trkpt lat="43.83493307982662" lon="10.926488749044843"><ele>355.0</ele><time>2026-04-05T14:42:48Z</time></trkpt><trkpt lat="43.83507055907546" lon="10.926526039862146"><ele>355.0</ele><time>2026-04-05T14:42:49Z</time></trkpt><trkpt lat="43.83521629206352" lon="10.926547679958299"><ele>352.75</ele><time>2026-04-05T14:42:50Z</time></trkpt><trkpt lat="43.83534043649113" lon="10.926604152775463"><ele>350.5</ele><time>2026-04-05T14:42:51Z</time></trkpt><trkpt lat="43.83545449958369" lon="10.92664457506362"><ele>348.25</ele><time>2026-04-05T14:42:52Z</time></trkpt><trkpt lat="43.83556049820965" lon="10.926719843977276"><ele>346.0</ele><time>2026-04-05T14:42:53Z</time></trkpt><trkpt lat="43.83564927291044" lon="10.926827443034034"><ele>353.25</ele><time>2026-04-05T14:42:54Z</time></trkpt><trkpt lat="43.83575467432234" lon="10.926942256419562"><ele>360.5</ele><time>2026-04-05T14:42:54.999Z</time></trkpt><trkpt lat="43.83583828522668" lon="10.927057621120918"><ele>367.75</ele><time>2026-04-05T14:42:55.999Z</time></trkpt><trkpt lat="43.83591783320603" lon="10.927161005558906"><ele>375.0</ele><time>2026-04-05T14:42:56.999Z</time></trkpt><trkpt lat="43.8359844177254" lon="10.927256597517998"><ele>375.0</ele><time>2026-04-05T14:42:57.999Z</time></trkpt><trkpt lat="43.836056564927716" lon="10.927327779596636"><ele>375.0</ele><time>2026-04-05T14:42:58.999Z</time></trkpt><trkpt lat="43.836130329381675" lon="10.927349774545139"><ele>375.0</ele><time>2026-04-05T14:42:59.999Z</time></trkpt><trkpt lat="43.83620298608405" lon="10.927316075789685"><ele>375.0</ele><time>2026-04-05T14:43:00.999Z</time></trkpt><trkpt lat="43.836281977603726" lon="10.927219443029193"><ele>375.0</ele><time>2026-04-05T14:43:01.999Z</time></trkpt><trkpt lat="43.83634053890195" lon="10.927083957308335"><ele>375.0</ele><time>2026-04-05T14:43:02.999Z</time></trkpt><trkpt lat="43.836406667526184" lon="10.926956632962547"><ele>375.0</ele><time>2026-04-05T14:43:03.999Z</time></trkpt><trkpt lat="43.83649532048592" lon="10.926852877584617"><ele>375.0</ele><time>2026-04-05T14:43:04.999Z</time></trkpt><trkpt lat="43.83659916580706" lon="10.926764950241743"><ele>375.0</ele><time>2026-04-05T14:43:05.999Z</time></trkpt><trkpt lat="43.83671351827594" lon="10.926671371481975"><ele>375.0</ele><time>2026-04-05T14:43:06.999Z</time></trkpt><trkpt lat="43.836826192389346" lon="10.926574385833668"><ele>375.0</ele><time>2026-04-05T14:43:07.999Z</time></trkpt><trkpt lat="43.83692939128077" lon="10.92648073464417"><ele>375.0</ele><time>2026-04-05T14:43:08.999Z</time></trkpt><trkpt lat="43.83702574975458" lon="10.926398752947447"><ele>375.0</ele><time>2026-04-05T14:43:09.999Z</time></trkpt><trkpt lat="43.83710133178305" lon="10.92630038877795"><ele>375.0</ele><time>2026-04-05T14:43:10.999Z</time></trkpt><trkpt lat="43.83713224799829" lon="10.926172091232484"><ele>375.0</ele><time>2026-04-05T14:43:11.999Z</time></trkpt><trkpt lat="43.83711188059587" lon="10.926028842493446"><ele>375.0</ele><time>2026-04-05T14:43:12.999Z</time></trkpt><trkpt lat="43.83705449959592" lon="10.92588558174076"><ele>375.0</ele><time>2026-04-05T14:43:13.999Z</time></trkpt><trkpt lat="43.83698334165547" lon="10.925767641907344"><ele>375.0</ele><time>2026-04-05T14:43:14.999Z</time></trkpt><trkpt lat="43.83692599760732" lon="10.925650121863406"><ele>372.4</ele><time>2026-04-05T14:43:15.999Z</time></trkpt><trkpt lat="43.83687705258644" lon="10.925539102277805"><ele>369.8</ele><time>2026-04-05T14:43:16.999Z</time></trkpt><trkpt lat="43.8368268666694" lon="10.92542983897331"><ele>367.20000000000005</ele><time>2026-04-05T14:43:17.999Z</time></trkpt><trkpt lat="43.836771754349414" lon="10.925323562611554"><ele>364.6</ele><time>2026-04-05T14:43:18.999Z</time></trkpt><trkpt lat="43.83672402660495" lon="10.925216060103631"><ele>362.0</ele><time>2026-04-05T14:43:19.999Z</time></trkpt><trkpt lat="43.836695228935646" lon="10.925111567569006"><ele>359.40000000000003</ele><time>2026-04-05T14:43:20.999Z</time></trkpt><trkpt lat="43.83668197714959" lon="10.924995491850025"><ele>356.8</ele><time>2026-04-05T14:43:21.999Z</time></trkpt><trkpt lat="43.8366812828286" lon="10.924864693687622"><ele>354.2</ele><time>2026-04-05T14:43:22.999Z</time></trkpt><trkpt lat="43.83669819170255" lon="10.9247393504728"><ele>351.6</ele><time>2026-04-05T14:43:23.999Z</time></trkpt><trkpt lat="43.83671928513636" lon="10.924616514228365"><ele>349.0</ele><time>2026-04-05T14:43:24.999Z</time></trkpt><trkpt lat="43.83674254700259" lon="10.924494854616523"><ele>349.0</ele><time>2026-04-05T14:43:25.999Z</time></trkpt><trkpt lat="43.83675941270459" lon="10.924372708571056"><ele>349.0</ele><time>2026-04-05T14:43:26.999Z</time></trkpt><trkpt lat="43.8367813176634" lon="10.92425573860405"><ele>349.0</ele><time>2026-04-05T14:43:27.999Z</time></trkpt><trkpt lat="43.83678411520307" lon="10.924135431954848"><ele>349.0</ele><time>2026-04-05T14:43:28.999Z</time></trkpt><trkpt lat="43.83675664461849" lon="10.924014778122569"><ele>349.0</ele><time>2026-04-05T14:43:29.999Z</time></trkpt><trkpt lat="43.836710768291844" lon="10.923913721476112"><ele>349.0</ele><time>2026-04-05T14:43:30.999Z</time></trkpt><trkpt lat="43.83664001209229" lon="10.923833469921036"><ele>350.2</ele><time>2026-04-05T14:43:31.999Z</time></trkpt><trkpt lat="43.83655133301274" lon="10.923774962603503"><ele>351.4</ele><time>2026-04-05T14:43:32.999Z</time></trkpt><trkpt lat="43.836458186337" lon="10.923725757946565"><ele>352.6</ele><time>2026-04-05T14:43:33.999Z</time></trkpt><trkpt lat="43.83637119148986" lon="10.92366928813591"><ele>353.8</ele><time>2026-04-05T14:43:34.999Z</time></trkpt><trkpt lat="43.83627962096795" lon="10.923618301842136"><ele>355.0</ele><time>2026-04-05T14:43:35.999Z</time></trkpt><trkpt lat="43.8361909595286" lon="10.923572901046747"><ele>355.0</ele><time>2026-04-05T14:43:36.999Z</time></trkpt><trkpt lat="43.836106607578394" lon="10.923527139589504"><ele>355.0</ele><time>2026-04-05T14:43:37.999Z</time></trkpt><trkpt lat="43.83602213652194" lon="10.92348796405426"><ele>355.0</ele><time>2026-04-05T14:43:38.999Z</time></trkpt><trkpt lat="43.835948415125095" lon="10.923434406598494"><ele>355.0</ele><time>2026-04-05T14:43:39.999Z</time></trkpt><trkpt lat="43.83586906213204" lon="10.923385916854576"><ele>355.0</ele><time>2026-04-05T14:43:40.999Z</time></trkpt><trkpt lat="43.83579832031552" lon="10.923341871234694"><ele>355.0</ele><time>2026-04-05T14:43:41.999Z</time></trkpt><trkpt lat="43.835723804076935" lon="10.923289007574342"><ele>354.8333333333333</ele><time>2026-04-05T14:43:42.999Z</time></trkpt><trkpt lat="43.835649210859415" lon="10.92323982520987"><ele>354.66666666666663</ele><time>2026-04-05T14:43:43.999Z</time></trkpt><trkpt lat="43.83558964567951" lon="10.923162235127556"><ele>354.5</ele><time>2026-04-05T14:43:44.999Z</time></trkpt><trkpt lat="43.83553907591593" lon="10.923070043050819"><ele>354.3333333333333</ele><time>2026-04-05T14:43:45.999Z</time></trkpt><trkpt lat="43.835495561560414" lon="10.922972162575537"><ele>354.1666666666667</ele><time>2026-04-05T14:43:46.999Z</time></trkpt><trkpt lat="43.83546695602025" lon="10.922863091202503"><ele>354.0</ele><time>2026-04-05T14:43:47.999Z</time></trkpt><trkpt lat="43.83544889270033" lon="10.922747870493968"><ele>354.0</ele><time>2026-04-05T14:43:48.999Z</time></trkpt><trkpt lat="43.835429747991384" lon="10.922627585659107"><ele>354.0</ele><time>2026-04-05T14:43:49.999Z</time></trkpt><trkpt lat="43.835418634809365" lon="10.922509927441267"><ele>354.0</ele><time>2026-04-05T14:43:50.999Z</time></trkpt><trkpt lat="43.835395479303564" lon="10.922389947710391"><ele>354.0</ele><time>2026-04-05T14:43:51.999Z</time></trkpt><trkpt lat="43.83538402859678" lon="10.922261368348073"><ele>354.0</ele><time>2026-04-05T14:43:52.999Z</time></trkpt><trkpt lat="43.83535423234784" lon="10.922139520036758"><ele>353.0</ele><time>2026-04-05T14:43:53.999Z</time></trkpt><trkpt lat="43.835311552979476" lon="10.922015995571877"><ele>352.0</ele><time>2026-04-05T14:43:54.999Z</time></trkpt><trkpt lat="43.83526340935272" lon="10.921894548480688"><ele>351.0</ele><time>2026-04-05T14:43:55.999Z</time></trkpt><trkpt lat="43.83520848339599" lon="10.921779027906448"><ele>350.0</ele><time>2026-04-05T14:43:56.999Z</time></trkpt><trkpt lat="43.83515646732628" lon="10.921671796720442"><ele>349.0</ele><time>2026-04-05T14:43:58Z</time></trkpt><trkpt lat="43.83510315421561" lon="10.921561959902743"><ele>349.0</ele><time>2026-04-05T14:43:59Z</time></trkpt><trkpt lat="43.835045498664634" lon="10.921456968662786"><ele>349.0</ele><time>2026-04-05T14:44:00Z</time></trkpt><trkpt lat="43.83499130316216" lon="10.921352750653217"><ele>349.0</ele><time>2026-04-05T14:44:01Z</time></trkpt><trkpt lat="43.834937600212214" lon="10.921244457496755"><ele>349.0</ele><time>2026-04-05T14:44:02Z</time></trkpt><trkpt lat="43.83487764230927" lon="10.92112717896975"><ele>349.0</ele><time>2026-04-05T14:44:03Z</time></trkpt><trkpt lat="43.83482258649995" lon="10.921014562085686"><ele>349.0</ele><time>2026-04-05T14:44:04Z</time></trkpt><trkpt lat="43.83476574860904" lon="10.920905765657402"><ele>349.0</ele><time>2026-04-05T14:44:05Z</time></trkpt><trkpt lat="43.83471302787495" lon="10.920795799009767"><ele>349.0</ele><time>2026-04-05T14:44:06Z</time></trkpt><trkpt lat="43.83466232050536" lon="10.920686544024885"><ele>349.0</ele><time>2026-04-05T14:44:07Z</time></trkpt><trkpt lat="43.83461290227412" lon="10.920593676385426"><ele>349.0</ele><time>2026-04-05T14:44:08Z</time></trkpt><trkpt lat="43.83456478804256" lon="10.92050992500238"><ele>349.0</ele><time>2026-04-05T14:44:09Z</time></trkpt><trkpt lat="43.83450310151357" lon="10.920375570479267"><ele>351.0</ele><time>2026-04-05T14:44:11Z</time></trkpt><trkpt lat="43.83443638174357" lon="10.920233965884968"><ele>353.0</ele><time>2026-04-05T14:44:13Z</time></trkpt><trkpt lat="43.83441033475966" lon="10.920150998702127"><ele>355.0</ele><time>2026-04-05T14:44:14Z</time></trkpt><trkpt lat="43.83438727791682" lon="10.91997171755853"><ele>357.0</ele><time>2026-04-05T14:44:16Z</time></trkpt><trkpt lat="43.834393570704464" lon="10.91987333330715"><ele>359.0</ele><time>2026-04-05T14:44:17Z</time></trkpt><trkpt lat="43.83440503971524" lon="10.919774687501329"><ele>359.8571428571429</ele><time>2026-04-05T14:44:18Z</time></trkpt><trkpt lat="43.83442205647419" lon="10.91967259813353"><ele>360.7142857142857</ele><time>2026-04-05T14:44:19Z</time></trkpt><trkpt lat="43.83444606034294" lon="10.919571029488447"><ele>361.57142857142856</ele><time>2026-04-05T14:44:20Z</time></trkpt><trkpt lat="43.83447774197704" lon="10.919479634272129"><ele>362.42857142857144</ele><time>2026-04-05T14:44:21Z</time></trkpt><trkpt lat="43.83451738524241" lon="10.919395045774708"><ele>363.2857142857143</ele><time>2026-04-05T14:44:22Z</time></trkpt><trkpt lat="43.83456492081045" lon="10.919320157940291"><ele>364.14285714285717</ele><time>2026-04-05T14:44:23Z</time></trkpt><trkpt lat="43.834616542619266" lon="10.919261372693692"><ele>365.0</ele><time>2026-04-05T14:44:24Z</time></trkpt><trkpt lat="43.83469444333348" lon="10.91920226712784"><ele>363.0</ele><time>2026-04-05T14:44:26Z</time></trkpt><trkpt lat="43.83478020227683" lon="10.919153935672394"><ele>361.0</ele><time>2026-04-05T14:44:28Z</time></trkpt><trkpt lat="43.83486621197186" lon="10.91909148069796"><ele>359.0</ele><time>2026-04-05T14:44:30Z</time></trkpt><trkpt lat="43.83493154120309" lon="10.919033229905228"><ele>357.0</ele><time>2026-04-05T14:44:32Z</time></trkpt><trkpt lat="43.835010885202514" lon="10.918981170287148"><ele>355.0</ele><time>2026-04-05T14:44:35Z</time></trkpt><trkpt lat="43.83509198629792" lon="10.918929033741485"><ele>353.0</ele><time>2026-04-05T14:44:38Z</time></trkpt><trkpt lat="43.83515342764313" lon="10.918877671077489"><ele>353.0</ele><time>2026-04-05T14:44:40Z</time></trkpt><trkpt lat="43.835222480131506" lon="10.918851962873747"><ele>353.0</ele><time>2026-04-05T14:44:42Z</time></trkpt><trkpt lat="43.835271909018324" lon="10.918794691919143"><ele>353.0</ele><time>2026-04-05T14:44:44Z</time></trkpt><trkpt lat="43.83534211655462" lon="10.91878002095906"><ele>353.0</ele><time>2026-04-05T14:44:47Z</time></trkpt><trkpt lat="43.835399196458745" lon="10.918731384685813"><ele>353.0</ele><time>2026-04-05T14:44:50Z</time></trkpt><trkpt lat="43.83533881240419" lon="10.918831607136124"><ele>353.0</ele><time>2026-04-05T14:44:57.999Z</time></trkpt><trkpt lat="43.83517618887003" lon="10.918882123441849"><ele>352.5</ele><time>2026-04-05T14:44:58.999Z</time></trkpt><trkpt lat="43.834974621413544" lon="10.918840589953732"><ele>352.0</ele><time>2026-04-05T14:44:59.999Z</time></trkpt><trkpt lat="43.83487090614188" lon="10.918909630999499"><ele>351.5</ele><time>2026-04-05T14:45:00.999Z</time></trkpt><trkpt lat="43.83475796818454" lon="10.918977049213465"><ele>351.0</ele><time>2026-04-05T14:45:01.999Z</time></trkpt><trkpt lat="43.83464209156807" lon="10.919042262217022"><ele>351.0</ele><time>2026-04-05T14:45:02.999Z</time></trkpt><trkpt lat="43.83453035508949" lon="10.919101752063538"><ele>351.0</ele><time>2026-04-05T14:45:03.999Z</time></trkpt><trkpt lat="43.83440916328636" lon="10.919162102568423"><ele>351.0</ele><time>2026-04-05T14:45:04.999Z</time></trkpt><trkpt lat="43.834295932460975" lon="10.91921492902824"><ele>351.0</ele><time>2026-04-05T14:45:05.999Z</time></trkpt><trkpt lat="43.83418629033298" lon="10.919283370900681"><ele>348.6</ele><time>2026-04-05T14:45:06.999Z</time></trkpt><trkpt lat="43.83408133209033" lon="10.919352765065963"><ele>346.20000000000005</ele><time>2026-04-05T14:45:07.999Z</time></trkpt><trkpt lat="43.8339958373905" lon="10.919447200174588"><ele>343.79999999999995</ele><time>2026-04-05T14:45:08.999Z</time></trkpt><trkpt lat="43.83393510695411" lon="10.919543896956494"><ele>341.4</ele><time>2026-04-05T14:45:09.999Z</time></trkpt><trkpt lat="43.83388052364335" lon="10.919619436190926"><ele>339.0</ele><time>2026-04-05T14:45:10.999Z</time></trkpt><trkpt lat="43.83380278979714" lon="10.919657492335382"><ele>339.0</ele><time>2026-04-05T14:45:11.999Z</time></trkpt><trkpt lat="43.83370984535835" lon="10.919636362535822"><ele>339.0</ele><time>2026-04-05T14:45:12.999Z</time></trkpt><trkpt lat="43.83361649974023" lon="10.91955449766417"><ele>339.0</ele><time>2026-04-05T14:45:13.999Z</time></trkpt><trkpt lat="43.83351169310148" lon="10.919451163837866"><ele>339.0</ele><time>2026-04-05T14:45:14.999Z</time></trkpt><trkpt lat="43.83339020557941" lon="10.919357778673621"><ele>335.5</ele><time>2026-04-05T14:45:15.999Z</time></trkpt><trkpt lat="43.833265697035536" lon="10.919256227385187"><ele>332.0</ele><time>2026-04-05T14:45:16.999Z</time></trkpt><trkpt lat="43.83314845730898" lon="10.919159970605172"><ele>328.5</ele><time>2026-04-05T14:45:17.999Z</time></trkpt><trkpt lat="43.83303587103201" lon="10.919066069184343"><ele>325.0</ele><time>2026-04-05T14:45:18.999Z</time></trkpt><trkpt lat="43.83292009328879" lon="10.918988788847289"><ele>325.0</ele><time>2026-04-05T14:45:19.999Z</time></trkpt><trkpt lat="43.832793605932544" lon="10.918949493476893"><ele>325.0</ele><time>2026-04-05T14:45:20.999Z</time></trkpt><trkpt lat="43.832670684213646" lon="10.9189301216922"><ele>325.0</ele><time>2026-04-05T14:45:21.999Z</time></trkpt><trkpt lat="43.83254727432614" lon="10.918925970821705"><ele>325.0</ele><time>2026-04-05T14:45:22.999Z</time></trkpt><trkpt lat="43.83242586655998" lon="10.918919760101293"><ele>324.0</ele><time>2026-04-05T14:45:23.999Z</time></trkpt><trkpt lat="43.832314099540824" lon="10.91891734053756"><ele>323.0</ele><time>2026-04-05T14:45:24.999Z</time></trkpt><trkpt lat="43.832211343989925" lon="10.918888286259383"><ele>322.0</ele><time>2026-04-05T14:45:25.999Z</time></trkpt><trkpt lat="43.83211799958077" lon="10.918802849006454"><ele>321.0</ele><time>2026-04-05T14:45:26.999Z</time></trkpt><trkpt lat="43.83206528812581" lon="10.918667034497162"><ele>320.0</ele><time>2026-04-05T14:45:27.999Z</time></trkpt><trkpt lat="43.83204996795683" lon="10.918492064559798"><ele>319.0</ele><time>2026-04-05T14:45:28.999Z</time></trkpt><trkpt lat="43.83207008181808" lon="10.918320716724576"><ele>318.0</ele><time>2026-04-05T14:45:29.999Z</time></trkpt><trkpt lat="43.832136472175556" lon="10.918178830133984"><ele>317.0</ele><time>2026-04-05T14:45:30.999Z</time></trkpt><trkpt lat="43.832254189065466" lon="10.918063007278848"><ele>316.0</ele><time>2026-04-05T14:45:31.999Z</time></trkpt><trkpt lat="43.832373770315996" lon="10.91797458677337"><ele>316.0</ele><time>2026-04-05T14:45:32.999Z</time></trkpt><trkpt lat="43.83247678717217" lon="10.917896797981838"><ele>316.0</ele><time>2026-04-05T14:45:33.999Z</time></trkpt><trkpt lat="43.832580536510264" lon="10.917829339669892"><ele>316.0</ele><time>2026-04-05T14:45:34.999Z</time></trkpt><trkpt lat="43.832688468646005" lon="10.91779213165876"><ele>316.0</ele><time>2026-04-05T14:45:35.999Z</time></trkpt><trkpt lat="43.83281001046362" lon="10.9178080024755"><ele>315.2</ele><time>2026-04-05T14:45:36.999Z</time></trkpt><trkpt lat="43.83292279793814" lon="10.91786718772142"><ele>314.40000000000003</ele><time>2026-04-05T14:45:37.999Z</time></trkpt><trkpt lat="43.83302499396209" lon="10.917931137979757"><ele>313.6</ele><time>2026-04-05T14:45:38.999Z</time></trkpt><trkpt lat="43.8331223149947" lon="10.917973103721646"><ele>312.8</ele><time>2026-04-05T14:45:39.999Z</time></trkpt><trkpt lat="43.833200258362005" lon="10.91797281342415"><ele>312.0</ele><time>2026-04-05T14:45:40.999Z</time></trkpt><trkpt lat="43.833263407847326" lon="10.917914502571943"><ele>312.0</ele><time>2026-04-05T14:45:41.999Z</time></trkpt><trkpt lat="43.833294154961905" lon="10.917818714134544"><ele>312.0</ele><time>2026-04-05T14:45:42.999Z</time></trkpt><trkpt lat="43.83327794184702" lon="10.917714582387427"><ele>312.0</ele><time>2026-04-05T14:45:43.999Z</time></trkpt><trkpt lat="43.833209224754604" lon="10.917642417709772"><ele>312.0</ele><time>2026-04-05T14:45:44.999Z</time></trkpt><trkpt lat="43.83311424673872" lon="10.917603561903563"><ele>312.0</ele><time>2026-04-05T14:45:45.999Z</time></trkpt><trkpt lat="43.833008634670925" lon="10.917563442586955"><ele>312.0</ele><time>2026-04-05T14:45:46.999Z</time></trkpt><trkpt lat="43.83290719168021" lon="10.917479486318335"><ele>309.2</ele><time>2026-04-05T14:45:47.999Z</time></trkpt><trkpt lat="43.832815464287" lon="10.917380164928426"><ele>306.4</ele><time>2026-04-05T14:45:48.999Z</time></trkpt><trkpt lat="43.83272953037949" lon="10.917305664761091"><ele>303.6</ele><time>2026-04-05T14:45:49.999Z</time></trkpt><trkpt lat="43.83263403620146" lon="10.9172857235245"><ele>300.8</ele><time>2026-04-05T14:45:50.999Z</time></trkpt><trkpt lat="43.83253461077422" lon="10.917316320598328"><ele>298.0</ele><time>2026-04-05T14:45:51.999Z</time></trkpt><trkpt lat="43.83244827491931" lon="10.917385330718844"><ele>298.0</ele><time>2026-04-05T14:45:52.999Z</time></trkpt><trkpt lat="43.832360304616266" lon="10.917446976032647"><ele>298.0</ele><time>2026-04-05T14:45:53.999Z</time></trkpt><trkpt lat="43.8322437475021" lon="10.917438769493423"><ele>298.0</ele><time>2026-04-05T14:45:54.999Z</time></trkpt><trkpt lat="43.832120366499986" lon="10.917366889821164"><ele>298.0</ele><time>2026-04-05T14:45:55.999Z</time></trkpt><trkpt lat="43.831999391916426" lon="10.917258358269502"><ele>298.0</ele><time>2026-04-05T14:45:56.999Z</time></trkpt><trkpt lat="43.831881285485125" lon="10.917132614545134"><ele>298.0</ele><time>2026-04-05T14:45:57.999Z</time></trkpt><trkpt lat="43.83176457674251" lon="10.916985289458877"><ele>298.0</ele><time>2026-04-05T14:45:58.999Z</time></trkpt><trkpt lat="43.831637630222886" lon="10.916839326394966"><ele>294.0</ele><time>2026-04-05T14:45:59.999Z</time></trkpt><trkpt lat="43.831516585845485" lon="10.916710667390104"><ele>290.0</ele><time>2026-04-05T14:46:00.998Z</time></trkpt><trkpt lat="43.831397477820516" lon="10.916592658128655"><ele>286.0</ele><time>2026-04-05T14:46:01.998Z</time></trkpt><trkpt lat="43.831284161862705" lon="10.916467322565214"><ele>282.0</ele><time>2026-04-05T14:46:02.998Z</time></trkpt><trkpt lat="43.83117121087397" lon="10.916345292653537"><ele>282.0</ele><time>2026-04-05T14:46:04Z</time></trkpt><trkpt lat="43.83104005446919" lon="10.9162473371721"><ele>282.0</ele><time>2026-04-05T14:46:05Z</time></trkpt><trkpt lat="43.83089434171265" lon="10.916174385980419"><ele>282.0</ele><time>2026-04-05T14:46:06Z</time></trkpt><trkpt lat="43.8307523437857" lon="10.916128469599023"><ele>283.0</ele><time>2026-04-05T14:46:07Z</time></trkpt><trkpt lat="43.830618479148015" lon="10.916071802967783"><ele>284.0</ele><time>2026-04-05T14:46:08Z</time></trkpt><trkpt lat="43.83049090866912" lon="10.915969080220673"><ele>285.0</ele><time>2026-04-05T14:46:09Z</time></trkpt><trkpt lat="43.83036657764993" lon="10.915844446345675"><ele>286.0</ele><time>2026-04-05T14:46:10Z</time></trkpt><trkpt lat="43.830249448079776" lon="10.915714618945026"><ele>283.5</ele><time>2026-04-05T14:46:11Z</time></trkpt><trkpt lat="43.830145238722224" lon="10.915579635161427"><ele>281.0</ele><time>2026-04-05T14:46:12Z</time></trkpt><trkpt lat="43.83005129927007" lon="10.915443906592376"><ele>278.5</ele><time>2026-04-05T14:46:13Z</time></trkpt><trkpt lat="43.82996645122407" lon="10.915307724039657"><ele>276.0</ele><time>2026-04-05T14:46:14Z</time></trkpt><trkpt lat="43.829881882855894" lon="10.915197557897033"><ele>276.0</ele><time>2026-04-05T14:46:15Z</time></trkpt><trkpt lat="43.82976399429962" lon="10.915142325889702"><ele>276.0</ele><time>2026-04-05T14:46:16Z</time></trkpt><trkpt lat="43.82962723359466" lon="10.915134124802591"><ele>276.0</ele><time>2026-04-05T14:46:17Z</time></trkpt><trkpt lat="43.82950115458976" lon="10.915145324758607"><ele>276.0</ele><time>2026-04-05T14:46:18Z</time></trkpt><trkpt lat="43.82937648810572" lon="10.915129408296936"><ele>274.5</ele><time>2026-04-05T14:46:19Z</time></trkpt><trkpt lat="43.8292558473387" lon="10.91507504704826"><ele>273.0</ele><time>2026-04-05T14:46:20Z</time></trkpt><trkpt lat="43.82914006787934" lon="10.915015634631846"><ele>271.5</ele><time>2026-04-05T14:46:21Z</time></trkpt><trkpt lat="43.829030310142755" lon="10.914955486852955"><ele>270.0</ele><time>2026-04-05T14:46:22Z</time></trkpt><trkpt lat="43.82892655747457" lon="10.914878811511336"><ele>268.4</ele><time>2026-04-05T14:46:23Z</time></trkpt><trkpt lat="43.828842005540324" lon="10.914788622012713"><ele>266.8</ele><time>2026-04-05T14:46:24Z</time></trkpt><trkpt lat="43.828772310241405" lon="10.9147067399655"><ele>265.2</ele><time>2026-04-05T14:46:25Z</time></trkpt><trkpt lat="43.82870419120357" lon="10.914650432421643"><ele>263.6</ele><time>2026-04-05T14:46:26Z</time></trkpt><trkpt lat="43.82862212831785" lon="10.914550842741129"><ele>262.0</ele><time>2026-04-05T14:46:27Z</time></trkpt><trkpt lat="43.82854469913472" lon="10.914741332587871"><ele>262.0</ele><time>2026-04-05T14:46:28Z</time></trkpt><trkpt lat="43.828495012958896" lon="10.914833283320656"><ele>262.0</ele><time>2026-04-05T14:46:29Z</time></trkpt><trkpt lat="43.8285120854159" lon="10.914994669621317"><ele>262.0</ele><time>2026-04-05T14:46:30Z</time></trkpt><trkpt lat="43.828586511107076" lon="10.915111757372415"><ele>262.0</ele><time>2026-04-05T14:46:31Z</time></trkpt><trkpt lat="43.82862562023292" lon="10.915237376502658"><ele>262.0</ele><time>2026-04-05T14:46:32Z</time></trkpt><trkpt lat="43.82866862428472" lon="10.915354357916756"><ele>264.0</ele><time>2026-04-05T14:46:33Z</time></trkpt><trkpt lat="43.82867610561854" lon="10.915488974889202"><ele>266.0</ele><time>2026-04-05T14:46:34Z</time></trkpt><trkpt lat="43.82864635760661" lon="10.915643244653946"><ele>268.0</ele><time>2026-04-05T14:46:35Z</time></trkpt><trkpt lat="43.82856943445644" lon="10.915773236630844"><ele>270.0</ele><time>2026-04-05T14:46:36Z</time></trkpt><trkpt lat="43.828455362303856" lon="10.91585562194617"><ele>265.75</ele><time>2026-04-05T14:46:37Z</time></trkpt><trkpt lat="43.82832781398107" lon="10.915906043539376"><ele>261.5</ele><time>2026-04-05T14:46:38Z</time></trkpt><trkpt lat="43.828221293610035" lon="10.915974703146336"><ele>257.25</ele><time>2026-04-05T14:46:39Z</time></trkpt><trkpt lat="43.82812583668382" lon="10.91607692742094"><ele>253.0</ele><time>2026-04-05T14:46:40Z</time></trkpt><trkpt lat="43.82804809952914" lon="10.916207162759775"><ele>253.0</ele><time>2026-04-05T14:46:41Z</time></trkpt><trkpt lat="43.82800769887557" lon="10.916381835364083"><ele>253.0</ele><time>2026-04-05T14:46:42Z</time></trkpt><trkpt lat="43.828036945480214" lon="10.916589815792547"><ele>253.0</ele><time>2026-04-05T14:46:43Z</time></trkpt><trkpt lat="43.82804651604805" lon="10.916784339236102"><ele>253.0</ele><time>2026-04-05T14:46:44Z</time></trkpt><trkpt lat="43.828080448580394" lon="10.916961879170971"><ele>251.49999999999997</ele><time>2026-04-05T14:46:45Z</time></trkpt><trkpt lat="43.82811336483374" lon="10.917115023508703"><ele>250.0</ele><time>2026-04-05T14:46:46Z</time></trkpt><trkpt lat="43.82813355980536" lon="10.917227109071447"><ele>248.5</ele><time>2026-04-05T14:46:47Z</time></trkpt><trkpt lat="43.82813691666664" lon="10.91732376652631"><ele>247.0</ele><time>2026-04-05T14:46:48Z</time></trkpt><trkpt lat="43.82810006045913" lon="10.9174133544386"><ele>245.49999999999997</ele><time>2026-04-05T14:46:49Z</time></trkpt><trkpt lat="43.82800350409526" lon="10.917449510172954"><ele>244.0</ele><time>2026-04-05T14:46:50Z</time></trkpt><trkpt lat="43.82787281180906" lon="10.917429733141894"><ele>244.0</ele><time>2026-04-05T14:46:51Z</time></trkpt><trkpt lat="43.82775419676951" lon="10.917383882677644"><ele>243.99999999999997</ele><time>2026-04-05T14:46:52Z</time></trkpt><trkpt lat="43.82765495727939" lon="10.91732410377221"><ele>243.99999999999997</ele><time>2026-04-05T14:46:53Z</time></trkpt><trkpt lat="43.82758782055666" lon="10.917229557828037"><ele>244.0</ele><time>2026-04-05T14:46:54Z</time></trkpt><trkpt lat="43.82756360857616" lon="10.917113808889281"><ele>244.0</ele><time>2026-04-05T14:46:55Z</time></trkpt><trkpt lat="43.82758808589953" lon="10.916988065223558"><ele>246.25</ele><time>2026-04-05T14:46:55.999Z</time></trkpt><trkpt lat="43.8276420280534" lon="10.916850146147654"><ele>248.5</ele><time>2026-04-05T14:46:56.999Z</time></trkpt><trkpt lat="43.827676268546625" lon="10.916691037889755"><ele>250.75</ele><time>2026-04-05T14:46:57.999Z</time></trkpt><trkpt lat="43.82766620576805" lon="10.916518264479121"><ele>253.0</ele><time>2026-04-05T14:46:58.999Z</time></trkpt><trkpt lat="43.8276401598389" lon="10.916361078994985"><ele>247.4</ele><time>2026-04-05T14:46:59.999Z</time></trkpt><trkpt lat="43.82761256179403" lon="10.91620872624239"><ele>241.8</ele><time>2026-04-05T14:47:00.999Z</time></trkpt><trkpt lat="43.82756959845286" lon="10.916076063621935"><ele>236.2</ele><time>2026-04-05T14:47:01.999Z</time></trkpt><trkpt lat="43.82749092748984" lon="10.915976855962402"><ele>230.6</ele><time>2026-04-05T14:47:02.999Z</time></trkpt><trkpt lat="43.82737919290408" lon="10.915933983680265"><ele>225.0</ele><time>2026-04-05T14:47:03.999Z</time></trkpt><trkpt lat="43.82726042213761" lon="10.915949060323506"><ele>225.0</ele><time>2026-04-05T14:47:04.999Z</time></trkpt><trkpt lat="43.82714379546837" lon="10.915988178583373"><ele>225.0</ele><time>2026-04-05T14:47:05.999Z</time></trkpt><trkpt lat="43.827029510736004" lon="10.91601975910299"><ele>225.0</ele><time>2026-04-05T14:47:06.999Z</time></trkpt><trkpt lat="43.826913245045354" lon="10.916025936189776"><ele>225.0</ele><time>2026-04-05T14:47:07.999Z</time></trkpt><trkpt lat="43.82679093884869" lon="10.915990468675673"><ele>223.0</ele><time>2026-04-05T14:47:08.999Z</time></trkpt><trkpt lat="43.826670131344734" lon="10.915910028493292"><ele>221.0</ele><time>2026-04-05T14:47:09.999Z</time></trkpt><trkpt lat="43.82656609262526" lon="10.915805085578985"><ele>219.0</ele><time>2026-04-05T14:47:10.999Z</time></trkpt><trkpt lat="43.82647331502629" lon="10.915686362815675"><ele>217.0</ele><time>2026-04-05T14:47:11.999Z</time></trkpt><trkpt lat="43.826412149819866" lon="10.915539395444341"><ele>217.0</ele><time>2026-04-05T14:47:12.999Z</time></trkpt><trkpt lat="43.826396788182336" lon="10.915366515072826"><ele>217.0</ele><time>2026-04-05T14:47:13.999Z</time></trkpt><trkpt lat="43.826423809658536" lon="10.915182085605293"><ele>217.0</ele><time>2026-04-05T14:47:14.999Z</time></trkpt><trkpt lat="43.826452928662384" lon="10.915014547800713"><ele>217.0</ele><time>2026-04-05T14:47:15.999Z</time></trkpt><trkpt lat="43.826468539409" lon="10.914856518619766"><ele>218.25</ele><time>2026-04-05T14:47:16.999Z</time></trkpt><trkpt lat="43.82644357027092" lon="10.914696842816635"><ele>219.5</ele><time>2026-04-05T14:47:17.999Z</time></trkpt><trkpt lat="43.82638313505015" lon="10.914547761508643"><ele>220.75</ele><time>2026-04-05T14:47:18.999Z</time></trkpt><trkpt lat="43.82628358473945" lon="10.91443535869525"><ele>222.0</ele><time>2026-04-05T14:47:19.999Z</time></trkpt><trkpt lat="43.826167533349576" lon="10.914356021650464"><ele>222.0</ele><time>2026-04-05T14:47:20.999Z</time></trkpt><trkpt lat="43.826034019967764" lon="10.91431195627422"><ele>222.0</ele><time>2026-04-05T14:47:21.999Z</time></trkpt><trkpt lat="43.82590471030465" lon="10.914282914078953"><ele>222.0</ele><time>2026-04-05T14:47:22.999Z</time></trkpt><trkpt lat="43.825780580774925" lon="10.914264468373593"><ele>222.0</ele><time>2026-04-05T14:47:23.999Z</time></trkpt><trkpt lat="43.82565091100182" lon="10.91424186289596"><ele>218.5</ele><time>2026-04-05T14:47:24.999Z</time></trkpt><trkpt lat="43.825522218893646" lon="10.914207597367012"><ele>215.0</ele><time>2026-04-05T14:47:25.999Z</time></trkpt><trkpt lat="43.825398261353605" lon="10.914150898288442"><ele>211.5</ele><time>2026-04-05T14:47:26.999Z</time></trkpt><trkpt lat="43.825277328683114" lon="10.914078512604732"><ele>208.0</ele><time>2026-04-05T14:47:27.999Z</time></trkpt><trkpt lat="43.82516262302532" lon="10.9139945474704"><ele>203.25</ele><time>2026-04-05T14:47:28.999Z</time></trkpt><trkpt lat="43.82505450107797" lon="10.913895709618576"><ele>198.5</ele><time>2026-04-05T14:47:29.999Z</time></trkpt><trkpt lat="43.82494953559196" lon="10.91380071249425"><ele>193.75</ele><time>2026-04-05T14:47:30.999Z</time></trkpt><trkpt lat="43.82484320558203" lon="10.913712863464193"><ele>189.0</ele><time>2026-04-05T14:47:31.999Z</time></trkpt><trkpt lat="43.824743292665055" lon="10.9136306566913"><ele>189.0</ele><time>2026-04-05T14:47:32.999Z</time></trkpt><trkpt lat="43.82464372524375" lon="10.913552161546228"><ele>189.0</ele><time>2026-04-05T14:47:33.999Z</time></trkpt><trkpt lat="43.82454353629896" lon="10.913469980036156"><ele>189.0</ele><time>2026-04-05T14:47:34.999Z</time></trkpt><trkpt lat="43.82444593520146" lon="10.913388922397042"><ele>189.0</ele><time>2026-04-05T14:47:35.999Z</time></trkpt><trkpt lat="43.82434880130813" lon="10.913315120570084"><ele>188.6</ele><time>2026-04-05T14:47:36.999Z</time></trkpt><trkpt lat="43.82427335153334" lon="10.913229598072478"><ele>188.2</ele><time>2026-04-05T14:47:37.999Z</time></trkpt><trkpt lat="43.82421762101349" lon="10.913112994046196"><ele>187.79999999999998</ele><time>2026-04-05T14:47:38.999Z</time></trkpt><trkpt lat="43.82420475396203" lon="10.912982197622988"><ele>187.39999999999998</ele><time>2026-04-05T14:47:39.999Z</time></trkpt><trkpt lat="43.824244693983864" lon="10.912846681105625"><ele>187.0</ele><time>2026-04-05T14:47:40.999Z</time></trkpt><trkpt lat="43.82432057413857" lon="10.912752906454065"><ele>188.39999999999998</ele><time>2026-04-05T14:47:41.999Z</time></trkpt><trkpt lat="43.824406517120494" lon="10.912697564987962"><ele>189.79999999999998</ele><time>2026-04-05T14:47:42.999Z</time></trkpt><trkpt lat="43.8245180356658" lon="10.912724173837132"><ele>191.2</ele><time>2026-04-05T14:47:43.999Z</time></trkpt><trkpt lat="43.82464469839009" lon="10.912722581618974"><ele>192.6</ele><time>2026-04-05T14:47:44.999Z</time></trkpt><trkpt lat="43.82475859252282" lon="10.912734255038142"><ele>194.0</ele><time>2026-04-05T14:47:45.999Z</time></trkpt><trkpt lat="43.82487348375348" lon="10.91271400363112"><ele>194.0</ele><time>2026-04-05T14:47:46.999Z</time></trkpt><trkpt lat="43.824979898775226" lon="10.91265915748353"><ele>194.0</ele><time>2026-04-05T14:47:47.999Z</time></trkpt><trkpt lat="43.82507315284622" lon="10.91256293527679"><ele>194.0</ele><time>2026-04-05T14:47:48.999Z</time></trkpt><trkpt lat="43.825146116790776" lon="10.912422877271192"><ele>194.0</ele><time>2026-04-05T14:47:49.999Z</time></trkpt><trkpt lat="43.82519378954678" lon="10.912253756707916"><ele>195.5</ele><time>2026-04-05T14:47:50.999Z</time></trkpt><trkpt lat="43.8252187661379" lon="10.912079794499295"><ele>197.0</ele><time>2026-04-05T14:47:51.999Z</time></trkpt><trkpt lat="43.82521326959376" lon="10.91190925351418"><ele>198.5</ele><time>2026-04-05T14:47:52.999Z</time></trkpt><trkpt lat="43.82517692186303" lon="10.911740730281842"><ele>200.0</ele><time>2026-04-05T14:47:53.999Z</time></trkpt><trkpt lat="43.825105021466186" lon="10.911589030557144"><ele>192.0</ele><time>2026-04-05T14:47:54.999Z</time></trkpt><trkpt lat="43.825011140566495" lon="10.91146107716131"><ele>184.0</ele><time>2026-04-05T14:47:55.999Z</time></trkpt><trkpt lat="43.824905113991996" lon="10.91134518672202"><ele>176.0</ele><time>2026-04-05T14:47:56.999Z</time></trkpt><trkpt lat="43.82479603150163" lon="10.911219225527503"><ele>168.0</ele><time>2026-04-05T14:47:57.998Z</time></trkpt><trkpt lat="43.824690536695456" lon="10.91108363438628"><ele>168.0</ele><time>2026-04-05T14:47:58.998Z</time></trkpt><trkpt lat="43.82458377374716" lon="10.910946629468327"><ele>168.0</ele><time>2026-04-05T14:47:59.998Z</time></trkpt><trkpt lat="43.82447564359396" lon="10.910813826356653"><ele>168.0</ele><time>2026-04-05T14:48:00.998Z</time></trkpt><trkpt lat="43.82435873156265" lon="10.910691945270516"><ele>168.0</ele><time>2026-04-05T14:48:01.998Z</time></trkpt><trkpt lat="43.82422873528144" lon="10.91058172724804"><ele>163.33333333333334</ele><time>2026-04-05T14:48:02.998Z</time></trkpt><trkpt lat="43.82409477452236" lon="10.910476081375625"><ele>158.66666666666669</ele><time>2026-04-05T14:48:03.998Z</time></trkpt><trkpt lat="43.82395447763351" lon="10.910374722447155"><ele>154.0</ele><time>2026-04-05T14:48:04.998Z</time></trkpt><trkpt lat="43.8238164414228" lon="10.910277363366685"><ele>154.0</ele><time>2026-04-05T14:48:05.998Z</time></trkpt><trkpt lat="43.8236794624482" lon="10.910183269899084"><ele>154.0</ele><time>2026-04-05T14:48:06.998Z</time></trkpt><trkpt lat="43.82354455478818" lon="10.910085610536157"><ele>154.0</ele><time>2026-04-05T14:48:07.998Z</time></trkpt><trkpt lat="43.823413322944226" lon="10.9099880255102"><ele>152.0</ele><time>2026-04-05T14:48:08.998Z</time></trkpt><trkpt lat="43.82328657411121" lon="10.909889905583093"><ele>150.0</ele><time>2026-04-05T14:48:10Z</time></trkpt><trkpt lat="43.823154121739634" lon="10.909795265643636"><ele>148.0</ele><time>2026-04-05T14:48:11Z</time></trkpt><trkpt lat="43.823023275415224" lon="10.909706964195385"><ele>146.0</ele><time>2026-04-05T14:48:12Z</time></trkpt><trkpt lat="43.822896862295735" lon="10.909617897186846"><ele>146.0</ele><time>2026-04-05T14:48:13Z</time></trkpt><trkpt lat="43.822769224515895" lon="10.909532148551602"><ele>146.0</ele><time>2026-04-05T14:48:14Z</time></trkpt><trkpt lat="43.8226352335071" lon="10.90944455521757"><ele>146.0</ele><time>2026-04-05T14:48:15Z</time></trkpt><trkpt lat="43.8225111722622" lon="10.90935300686625"><ele>146.0</ele><time>2026-04-05T14:48:16Z</time></trkpt><trkpt lat="43.822388525324506" lon="10.909256674794877"><ele>144.0</ele><time>2026-04-05T14:48:17Z</time></trkpt><trkpt lat="43.82226790148551" lon="10.909164143044483"><ele>142.0</ele><time>2026-04-05T14:48:18Z</time></trkpt><trkpt lat="43.82214592826662" lon="10.909084936393945"><ele>140.0</ele><time>2026-04-05T14:48:19Z</time></trkpt><trkpt lat="43.82202099614855" lon="10.909006305007438"><ele>138.0</ele><time>2026-04-05T14:48:20Z</time></trkpt><trkpt lat="43.821905692262966" lon="10.908914540098175"><ele>133.0</ele><time>2026-04-05T14:48:21Z</time></trkpt><trkpt lat="43.82181167643852" lon="10.908797660458273"><ele>128.0</ele><time>2026-04-05T14:48:22Z</time></trkpt><trkpt lat="43.8217375580483" lon="10.908638862922926"><ele>123.0</ele><time>2026-04-05T14:48:23Z</time></trkpt><trkpt lat="43.82167950807891" lon="10.908452149296638"><ele>118.0</ele><time>2026-04-05T14:48:24Z</time></trkpt><trkpt lat="43.82163631527945" lon="10.908249375414204"><ele>118.0</ele><time>2026-04-05T14:48:25Z</time></trkpt><trkpt lat="43.82159331616855" lon="10.908055850867848"><ele>118.0</ele><time>2026-04-05T14:48:26Z</time></trkpt><trkpt lat="43.82154403156879" lon="10.907869635236793"><ele>118.0</ele><time>2026-04-05T14:48:27Z</time></trkpt><trkpt lat="43.821493053194985" lon="10.907684862293468"><ele>118.0</ele><time>2026-04-05T14:48:28Z</time></trkpt><trkpt lat="43.8214425182131" lon="10.907501642295957"><ele>118.0</ele><time>2026-04-05T14:48:29Z</time></trkpt><trkpt lat="43.82138893463568" lon="10.907323250769524"><ele>118.0</ele><time>2026-04-05T14:48:30Z</time></trkpt><trkpt lat="43.82131160184637" lon="10.90715097513874"><ele>118.0</ele><time>2026-04-05T14:48:31Z</time></trkpt><trkpt lat="43.82121987934692" lon="10.907006425783432"><ele>118.0</ele><time>2026-04-05T14:48:32Z</time></trkpt><trkpt lat="43.8211174081572" lon="10.90689872357458"><ele>118.0</ele><time>2026-04-05T14:48:33Z</time></trkpt><trkpt lat="43.821013956525974" lon="10.906813677320805"><ele>118.0</ele><time>2026-04-05T14:48:34Z</time></trkpt><trkpt lat="43.82090748809815" lon="10.906738345488298"><ele>118.0</ele><time>2026-04-05T14:48:35Z</time></trkpt><trkpt lat="43.820810213794566" lon="10.906649476959512"><ele>118.0</ele><time>2026-04-05T14:48:36Z</time></trkpt><trkpt lat="43.8207319445447" lon="10.906538567477254"><ele>115.5</ele><time>2026-04-05T14:48:37Z</time></trkpt><trkpt lat="43.8206766426248" lon="10.906395498200787"><ele>113.0</ele><time>2026-04-05T14:48:38Z</time></trkpt><trkpt lat="43.820636649099" lon="10.906237284093132"><ele>110.5</ele><time>2026-04-05T14:48:39Z</time></trkpt><trkpt lat="43.820617689903635" lon="10.906075546903987"><ele>108.0</ele><time>2026-04-05T14:48:40Z</time></trkpt><trkpt lat="43.82060708741" lon="10.905920813967679"><ele>109.75</ele><time>2026-04-05T14:48:41Z</time></trkpt><trkpt lat="43.82057580090759" lon="10.905770106901912"><ele>111.5</ele><time>2026-04-05T14:48:42Z</time></trkpt><trkpt lat="43.8205128514367" lon="10.905629026915136"><ele>113.25</ele><time>2026-04-05T14:48:43Z</time></trkpt><trkpt lat="43.820433095950236" lon="10.905498754646823"><ele>115.0</ele><time>2026-04-05T14:48:44Z</time></trkpt><trkpt lat="43.820345395992845" lon="10.905379495928806"><ele>115.0</ele><time>2026-04-05T14:48:45Z</time></trkpt><trkpt lat="43.82026394350962" lon="10.905259409921962"><ele>115.0</ele><time>2026-04-05T14:48:46Z</time></trkpt><trkpt lat="43.820195264801384" lon="10.905126914035748"><ele>115.0</ele><time>2026-04-05T14:48:47Z</time></trkpt><trkpt lat="43.82014413234954" lon="10.904985312856201"><ele>115.0</ele><time>2026-04-05T14:48:48Z</time></trkpt><trkpt lat="43.82011554630915" lon="10.90483156398033"><ele>112.2</ele><time>2026-04-05T14:48:49Z</time></trkpt><trkpt lat="43.82011379079803" lon="10.904679363275065"><ele>109.4</ele><time>2026-04-05T14:48:50Z</time></trkpt><trkpt lat="43.82011380483429" lon="10.904537349033939"><ele>106.6</ele><time>2026-04-05T14:48:51Z</time></trkpt><trkpt lat="43.820093206870006" lon="10.904386531035891"><ele>103.8</ele><time>2026-04-05T14:48:52Z</time></trkpt><trkpt lat="43.820047358903786" lon="10.904241594364866"><ele>101.0</ele><time>2026-04-05T14:48:53Z</time></trkpt><trkpt lat="43.81999235514088" lon="10.904100964007245"><ele>101.0</ele><time>2026-04-05T14:48:54Z</time></trkpt><trkpt lat="43.81993247785428" lon="10.903967928202249"><ele>101.0</ele><time>2026-04-05T14:48:55Z</time></trkpt><trkpt lat="43.819868545155835" lon="10.903836736500633"><ele>101.0</ele><time>2026-04-05T14:48:56Z</time></trkpt><trkpt lat="43.81980417200019" lon="10.903703101409167"><ele>101.0</ele><time>2026-04-05T14:48:57Z</time></trkpt><trkpt lat="43.81974088117881" lon="10.903567229072097"><ele>101.0</ele><time>2026-04-05T14:48:58Z</time></trkpt><trkpt lat="43.81968663537286" lon="10.903431412383568"><ele>101.0</ele><time>2026-04-05T14:48:59Z</time></trkpt><trkpt lat="43.819634052706895" lon="10.903306784099264"><ele>101.0</ele><time>2026-04-05T14:48:59.999Z</time></trkpt><trkpt lat="43.81957937783217" lon="10.903180918832085"><ele>101.0</ele><time>2026-04-05T14:49:00.999Z</time></trkpt><trkpt lat="43.81952157334805" lon="10.903049312094856"><ele>101.0</ele><time>2026-04-05T14:49:01.999Z</time></trkpt><trkpt lat="43.81946287640273" lon="10.902916811521708"><ele>100.75</ele><time>2026-04-05T14:49:02.999Z</time></trkpt><trkpt lat="43.81939857180635" lon="10.902782580623656"><ele>100.5</ele><time>2026-04-05T14:49:03.999Z</time></trkpt><trkpt lat="43.8193262236735" lon="10.902652231529972"><ele>100.25</ele><time>2026-04-05T14:49:04.999Z</time></trkpt><trkpt lat="43.819250008626675" lon="10.902528706706239"><ele>100.0</ele><time>2026-04-05T14:49:05.999Z</time></trkpt><trkpt lat="43.8191664549369" lon="10.902407144858499"><ele>98.0</ele><time>2026-04-05T14:49:06.999Z</time></trkpt><trkpt lat="43.81908365490558" lon="10.902291438628625"><ele>96.0</ele><time>2026-04-05T14:49:07.999Z</time></trkpt><trkpt lat="43.81899849452661" lon="10.902170077722118"><ele>94.0</ele><time>2026-04-05T14:49:08.999Z</time></trkpt><trkpt lat="43.81891309248912" lon="10.902050835085694"><ele>92.0</ele><time>2026-04-05T14:49:09.999Z</time></trkpt><trkpt lat="43.81883256284608" lon="10.90193715933914"><ele>92.0</ele><time>2026-04-05T14:49:10.999Z</time></trkpt><trkpt lat="43.81875513091275" lon="10.90182632813905"><ele>92.0</ele><time>2026-04-05T14:49:11.999Z</time></trkpt><trkpt lat="43.81867396123604" lon="10.901706563527789"><ele>92.0</ele><time>2026-04-05T14:49:12.999Z</time></trkpt><trkpt lat="43.81859983937879" lon="10.90158551639522"><ele>92.0</ele><time>2026-04-05T14:49:13.999Z</time></trkpt><trkpt lat="43.81853263522199" lon="10.901454143220036"><ele>90.25</ele><time>2026-04-05T14:49:14.999Z</time></trkpt><trkpt lat="43.818471340673476" lon="10.901320246146266"><ele>88.5</ele><time>2026-04-05T14:49:15.999Z</time></trkpt><trkpt lat="43.81841245597582" lon="10.90117968036758"><ele>86.75</ele><time>2026-04-05T14:49:16.999Z</time></trkpt><trkpt lat="43.81835675747493" lon="10.901037526817449"><ele>85.0</ele><time>2026-04-05T14:49:17.999Z</time></trkpt><trkpt lat="43.81829818155632" lon="10.90089520229278"><ele>85.0</ele><time>2026-04-05T14:49:18.999Z</time></trkpt><trkpt lat="43.81823643738804" lon="10.900747359158839"><ele>85.0</ele><time>2026-04-05T14:49:19.999Z</time></trkpt><trkpt lat="43.81817372697946" lon="10.900597139002098"><ele>85.0</ele><time>2026-04-05T14:49:20.999Z</time></trkpt><trkpt lat="43.818108962733035" lon="10.900442537916867"><ele>85.0</ele><time>2026-04-05T14:49:21.999Z</time></trkpt><trkpt lat="43.818046138429644" lon="10.900293086340307"><ele>85.0</ele><time>2026-04-05T14:49:22.999Z</time></trkpt><trkpt lat="43.8179860055775" lon="10.9001391380659"><ele>85.0</ele><time>2026-04-05T14:49:23.999Z</time></trkpt><trkpt lat="43.817922944773365" lon="10.899994218104252"><ele>85.0</ele><time>2026-04-05T14:49:24.999Z</time></trkpt><trkpt lat="43.81786364046094" lon="10.899851814982748"><ele>85.0</ele><time>2026-04-05T14:49:25.999Z</time></trkpt><trkpt lat="43.81780861908673" lon="10.899703623284116"><ele>85.25</ele><time>2026-04-05T14:49:26.999Z</time></trkpt><trkpt lat="43.81775808940811" lon="10.899552361480595"><ele>85.5</ele><time>2026-04-05T14:49:27.999Z</time></trkpt><trkpt lat="43.81771854338354" lon="10.899397028363458"><ele>85.75</ele><time>2026-04-05T14:49:28.999Z</time></trkpt><trkpt lat="43.817682726798985" lon="10.899236930713963"><ele>86.0</ele><time>2026-04-05T14:49:29.999Z</time></trkpt><trkpt lat="43.81764320824927" lon="10.899071038414947"><ele>84.0</ele><time>2026-04-05T14:49:30.999Z</time></trkpt><trkpt lat="43.81759986188529" lon="10.898908613161735"><ele>82.0</ele><time>2026-04-05T14:49:31.999Z</time></trkpt><trkpt lat="43.817563798197654" lon="10.89874434724204"><ele>80.0</ele><time>2026-04-05T14:49:32.999Z</time></trkpt><trkpt lat="43.81753408881528" lon="10.898577533545646"><ele>78.0</ele><time>2026-04-05T14:49:33.999Z</time></trkpt><trkpt lat="43.81750847205097" lon="10.898410167268603"><ele>78.0</ele><time>2026-04-05T14:49:34.999Z</time></trkpt><trkpt lat="43.8174869845851" lon="10.898240110137323"><ele>78.0</ele><time>2026-04-05T14:49:35.999Z</time></trkpt><trkpt lat="43.817471361809076" lon="10.898063894813426"><ele>78.0</ele><time>2026-04-05T14:49:36.999Z</time></trkpt><trkpt lat="43.81745718185246" lon="10.897886000112372"><ele>78.0</ele><time>2026-04-05T14:49:37.999Z</time></trkpt><trkpt lat="43.81742829969515" lon="10.89771110251546"><ele>77.25</ele><time>2026-04-05T14:49:38.999Z</time></trkpt><trkpt lat="43.81738804374212" lon="10.897549125956953"><ele>76.5</ele><time>2026-04-05T14:49:39.999Z</time></trkpt><trkpt lat="43.817345451292155" lon="10.897402041652573"><ele>75.75</ele><time>2026-04-05T14:49:40.999Z</time></trkpt><trkpt lat="43.81730358834295" lon="10.897258295729376"><ele>75.0</ele><time>2026-04-05T14:49:41.999Z</time></trkpt><trkpt lat="43.8172614167083" lon="10.89712844102891"><ele>75.0</ele><time>2026-04-05T14:49:42.999Z</time></trkpt><trkpt lat="43.81721875367133" lon="10.897005221144818"><ele>75.0</ele><time>2026-04-05T14:49:43.999Z</time></trkpt><trkpt lat="43.81718413968736" lon="10.896885152442792"><ele>75.0</ele><time>2026-04-05T14:49:44.999Z</time></trkpt><trkpt lat="43.81714914788747" lon="10.896772678983561"><ele>75.0</ele><time>2026-04-05T14:49:45.999Z</time></trkpt><trkpt lat="43.81711635570502" lon="10.896660564480266"><ele>75.0</ele><time>2026-04-05T14:49:46.999Z</time></trkpt><trkpt lat="43.81708806173652" lon="10.896557355444232"><ele>75.0</ele><time>2026-04-05T14:49:47.999Z</time></trkpt><trkpt lat="43.81706900339934" lon="10.89646373564166"><ele>74.0</ele><time>2026-04-05T14:49:48.999Z</time></trkpt><trkpt lat="43.81705948796224" lon="10.896377008928585"><ele>73.0</ele><time>2026-04-05T14:49:49.999Z</time></trkpt><trkpt lat="43.817067961913985" lon="10.896284610911259"><ele>72.0</ele><time>2026-04-05T14:49:50.999Z</time></trkpt><trkpt lat="43.81708519936908" lon="10.896193823232068"><ele>71.0</ele><time>2026-04-05T14:49:51.999Z</time></trkpt><trkpt lat="43.81701562604977" lon="10.89609268034276"><ele>70.0</ele><time>2026-04-05T14:49:53.999Z</time></trkpt><trkpt lat="43.816920466637896" lon="10.896190438474381"><ele>69.0</ele><time>2026-04-05T14:49:55.999Z</time></trkpt><trkpt lat="43.81689668752373" lon="10.896290585991437"><ele>69.0</ele><time>2026-04-05T14:49:56.999Z</time></trkpt><trkpt lat="43.816914691335455" lon="10.896431973769532"><ele>69.0</ele><time>2026-04-05T14:49:58.999Z</time></trkpt><trkpt lat="43.817009588194416" lon="10.896434767546154"><ele>69.0</ele><time>2026-04-05T14:50:00.998Z</time></trkpt><trkpt lat="43.81706055125081" lon="10.896348636991684"><ele>69.0</ele><time>2026-04-05T14:50:01.998Z</time></trkpt><trkpt lat="43.81708257833697" lon="10.896257532309559"><ele>69.0</ele><time>2026-04-05T14:50:02.998Z</time></trkpt><trkpt lat="43.81704992718248" lon="10.89607218096617"><ele>69.0</ele><time>2026-04-05T14:50:04.998Z</time></trkpt><trkpt lat="43.81700510976241" lon="10.895961093726864"><ele>69.0</ele><time>2026-04-05T14:50:05.998Z</time></trkpt><trkpt lat="43.81696671453729" lon="10.895836220644401"><ele>69.0</ele><time>2026-04-05T14:50:06.998Z</time></trkpt><trkpt lat="43.81694103071118" lon="10.895716387208857"><ele>69.0</ele><time>2026-04-05T14:50:07.998Z</time></trkpt><trkpt lat="43.8169108410603" lon="10.895605536445151"><ele>69.0</ele><time>2026-04-05T14:50:08.998Z</time></trkpt><trkpt lat="43.81686638768562" lon="10.895514545904097"><ele>69.0</ele><time>2026-04-05T14:50:09.998Z</time></trkpt><trkpt lat="43.81680650405913" lon="10.895439456154605"><ele>68.2</ele><time>2026-04-05T14:50:10.998Z</time></trkpt><trkpt lat="43.816722398622005" lon="10.89538548758273"><ele>67.4</ele><time>2026-04-05T14:50:11.998Z</time></trkpt><trkpt lat="43.81663367511351" lon="10.895353748685839"><ele>66.6</ele><time>2026-04-05T14:50:12.998Z</time></trkpt><trkpt lat="43.81654054275459" lon="10.89533761078577"><ele>65.8</ele><time>2026-04-05T14:50:13.998Z</time></trkpt><trkpt lat="43.816446511166745" lon="10.895309601481424"><ele>65.0</ele><time>2026-04-05T14:50:14.998Z</time></trkpt><trkpt lat="43.81635361181064" lon="10.895274281667989"><ele>65.0</ele><time>2026-04-05T14:50:16Z</time></trkpt><trkpt lat="43.81627038860295" lon="10.895249590175021"><ele>65.0</ele><time>2026-04-05T14:50:17Z</time></trkpt><trkpt lat="43.816193626525404" lon="10.895229418680204"><ele>65.0</ele><time>2026-04-05T14:50:18Z</time></trkpt><trkpt lat="43.816110417941026" lon="10.895193233606348"><ele>65.0</ele><time>2026-04-05T14:50:19Z</time></trkpt><trkpt lat="43.81603158523705" lon="10.895154539236083"><ele>65.0</ele><time>2026-04-05T14:50:20Z</time></trkpt><trkpt lat="43.81595746265672" lon="10.895119911162958"><ele>65.0</ele><time>2026-04-05T14:50:21Z</time></trkpt><trkpt lat="43.81587850498952" lon="10.895074469686321"><ele>64.83333333333334</ele><time>2026-04-05T14:50:22Z</time></trkpt><trkpt lat="43.815801230940934" lon="10.895019071388845"><ele>64.66666666666667</ele><time>2026-04-05T14:50:23Z</time></trkpt><trkpt lat="43.81572867902847" lon="10.894961234219618"><ele>64.5</ele><time>2026-04-05T14:50:24Z</time></trkpt><trkpt lat="43.815669464408074" lon="10.894910687439793"><ele>64.33333333333333</ele><time>2026-04-05T14:50:25Z</time></trkpt><trkpt lat="43.81561207932428" lon="10.894861762416705"><ele>64.16666666666666</ele><time>2026-04-05T14:50:26Z</time></trkpt><trkpt lat="43.81555535664339" lon="10.894807894490846"><ele>64.0</ele><time>2026-04-05T14:50:27Z</time></trkpt><trkpt lat="43.81545813995744" lon="10.894711955470488"><ele>64.0</ele><time>2026-04-05T14:50:29Z</time></trkpt><trkpt lat="43.815376975028784" lon="10.89464371483404"><ele>64.0</ele><time>2026-04-05T14:50:31Z</time></trkpt><trkpt lat="43.81529253410481" lon="10.894547322948595"><ele>64.0</ele><time>2026-04-05T14:50:33Z</time></trkpt><trkpt lat="43.815232463187066" lon="10.894491025569264"><ele>64.0</ele><time>2026-04-05T14:50:34Z</time></trkpt><trkpt lat="43.815164197405494" lon="10.89442174865417"><ele>64.0</ele><time>2026-04-05T14:50:35Z</time></trkpt><trkpt lat="43.8150913137037" lon="10.894338861417937"><ele>64.25</ele><time>2026-04-05T14:50:36Z</time></trkpt><trkpt lat="43.815010504796" lon="10.894243757792928"><ele>64.5</ele><time>2026-04-05T14:50:37Z</time></trkpt><trkpt lat="43.81492446930283" lon="10.894146896807507"><ele>64.75</ele><time>2026-04-05T14:50:38Z</time></trkpt><trkpt lat="43.81483710143356" lon="10.89404693633302"><ele>65.0</ele><time>2026-04-05T14:50:39Z</time></trkpt><trkpt lat="43.814740074551274" lon="10.893939416326749"><ele>65.0</ele><time>2026-04-05T14:50:40Z</time></trkpt><trkpt lat="43.814640700692514" lon="10.893821003427526"><ele>65.0</ele><time>2026-04-05T14:50:41Z</time></trkpt><trkpt lat="43.814538472319974" lon="10.89370519335919"><ele>65.0</ele><time>2026-04-05T14:50:42Z</time></trkpt><trkpt lat="43.81443399041026" lon="10.89359005193705"><ele>65.0</ele><time>2026-04-05T14:50:43Z</time></trkpt><trkpt lat="43.814335228018244" lon="10.893478102670132"><ele>64.5</ele><time>2026-04-05T14:50:44Z</time></trkpt><trkpt lat="43.81423226556507" lon="10.893370463236428"><ele>64.0</ele><time>2026-04-05T14:50:45Z</time></trkpt><trkpt lat="43.81413903668598" lon="10.893262469722966"><ele>63.5</ele><time>2026-04-05T14:50:46Z</time></trkpt><trkpt lat="43.81404610568466" lon="10.893153433385644"><ele>63.0</ele><time>2026-04-05T14:50:47Z</time></trkpt><trkpt lat="43.813954699728356" lon="10.89305029779137"><ele>63.0</ele><time>2026-04-05T14:50:48Z</time></trkpt><trkpt lat="43.81386163782861" lon="10.892951118708346"><ele>63.0</ele><time>2026-04-05T14:50:49Z</time></trkpt><trkpt lat="43.81376582438231" lon="10.892843388129826"><ele>63.0</ele><time>2026-04-05T14:50:50Z</time></trkpt><trkpt lat="43.813671120735826" lon="10.89273424637564"><ele>63.0</ele><time>2026-04-05T14:50:51Z</time></trkpt><trkpt lat="43.813584215823845" lon="10.89263166077291"><ele>63.4</ele><time>2026-04-05T14:50:52Z</time></trkpt><trkpt lat="43.813496969702435" lon="10.892536726918523"><ele>63.8</ele><time>2026-04-05T14:50:53Z</time></trkpt><trkpt lat="43.8134193396431" lon="10.892449998441396"><ele>64.2</ele><time>2026-04-05T14:50:54Z</time></trkpt><trkpt lat="43.81334792160653" lon="10.892371533593337"><ele>64.6</ele><time>2026-04-05T14:50:55Z</time></trkpt><trkpt lat="43.81328675558032" lon="10.892310924074545"><ele>65.0</ele><time>2026-04-05T14:50:56Z</time></trkpt><trkpt lat="43.813223117032614" lon="10.892254277345785"><ele>65.0</ele><time>2026-04-05T14:50:57Z</time></trkpt><trkpt lat="43.81316208121104" lon="10.892209538851688"><ele>65.0</ele><time>2026-04-05T14:50:58Z</time></trkpt><trkpt lat="43.81309612595002" lon="10.892191923640784"><ele>65.0</ele><time>2026-04-05T14:50:59Z</time></trkpt><trkpt lat="43.81302343633239" lon="10.892220846090838"><ele>65.0</ele><time>2026-04-05T14:51:00Z</time></trkpt><trkpt lat="43.81295233766731" lon="10.892287756174897"><ele>65.0</ele><time>2026-04-05T14:51:01Z</time></trkpt><trkpt lat="43.81289587322303" lon="10.892375023137609"><ele>65.0</ele><time>2026-04-05T14:51:02Z</time></trkpt><trkpt lat="43.812859669373616" lon="10.892461893918487"><ele>65.0</ele><time>2026-04-05T14:51:03Z</time></trkpt><trkpt lat="43.81280090647483" lon="10.892511913760561"><ele>65.0</ele><time>2026-04-05T14:51:04.999Z</time></trkpt><trkpt lat="43.812715666497084" lon="10.892492694277585"><ele>65.0</ele><time>2026-04-05T14:51:06.999Z</time></trkpt><trkpt lat="43.81266549015439" lon="10.892400586789964"><ele>65.0</ele><time>2026-04-05T14:51:07.999Z</time></trkpt><trkpt lat="43.812598990270196" lon="10.89231581707352"><ele>65.0</ele><time>2026-04-05T14:51:08.999Z</time></trkpt><trkpt lat="43.8125275817081" lon="10.892224860727648"><ele>65.0</ele><time>2026-04-05T14:51:09.999Z</time></trkpt><trkpt lat="43.81244529360526" lon="10.892127124485455"><ele>64.0</ele><time>2026-04-05T14:51:10.999Z</time></trkpt><trkpt lat="43.81237099708668" lon="10.89202932082484"><ele>63.0</ele><time>2026-04-05T14:51:11.999Z</time></trkpt><trkpt lat="43.81229059444354" lon="10.891930764175896"><ele>62.0</ele><time>2026-04-05T14:51:12.999Z</time></trkpt><trkpt lat="43.81221705599474" lon="10.891831586683697"><ele>61.0</ele><time>2026-04-05T14:51:13.999Z</time></trkpt><trkpt lat="43.812147204390584" lon="10.891734632486614"><ele>60.0</ele><time>2026-04-05T14:51:14.999Z</time></trkpt><trkpt lat="43.8120743437153" lon="10.891640569943"><ele>60.0</ele><time>2026-04-05T14:51:15.999Z</time></trkpt><trkpt lat="43.811999609694716" lon="10.89154471678265"><ele>60.0</ele><time>2026-04-05T14:51:16.999Z</time></trkpt><trkpt lat="43.811919905480174" lon="10.891450985638867"><ele>60.0</ele><time>2026-04-05T14:51:17.999Z</time></trkpt><trkpt lat="43.811841770882516" lon="10.8913591469418"><ele>60.0</ele><time>2026-04-05T14:51:18.999Z</time></trkpt><trkpt lat="43.81176474773053" lon="10.89126202063896"><ele>60.0</ele><time>2026-04-05T14:51:19.999Z</time></trkpt><trkpt lat="43.8116860870086" lon="10.89116890750639"><ele>59.4</ele><time>2026-04-05T14:51:20.999Z</time></trkpt><trkpt lat="43.811605573307546" lon="10.891074070962286"><ele>58.8</ele><time>2026-04-05T14:51:21.999Z</time></trkpt><trkpt lat="43.81152681229503" lon="10.890983747822597"><ele>58.2</ele><time>2026-04-05T14:51:22.999Z</time></trkpt><trkpt lat="43.811451218978085" lon="10.890888410944685"><ele>57.6</ele><time>2026-04-05T14:51:23.999Z</time></trkpt><trkpt lat="43.81137872297181" lon="10.890804171886309"><ele>57.0</ele><time>2026-04-05T14:51:24.999Z</time></trkpt><trkpt lat="43.8113174159294" lon="10.890731849271216"><ele>57.0</ele><time>2026-04-05T14:51:25.999Z</time></trkpt><trkpt lat="43.81125360177693" lon="10.890630891046685"><ele>57.0</ele><time>2026-04-05T14:51:27.999Z</time></trkpt><trkpt lat="43.81113450893495" lon="10.890735848218693"><ele>57.0</ele><time>2026-04-05T14:51:29.999Z</time></trkpt><trkpt lat="43.811091831645015" lon="10.890834997882113"><ele>57.0</ele><time>2026-04-05T14:51:30.999Z</time></trkpt><trkpt lat="43.81104420786882" lon="10.890943608051058"><ele>57.0</ele><time>2026-04-05T14:51:31.999Z</time></trkpt><trkpt lat="43.810990984341956" lon="10.891067482052115"><ele>55.8</ele><time>2026-04-05T14:51:32.999Z</time></trkpt><trkpt lat="43.81092673748592" lon="10.891185590487655"><ele>54.6</ele><time>2026-04-05T14:51:33.999Z</time></trkpt><trkpt lat="43.81086613332305" lon="10.891305629909757"><ele>53.4</ele><time>2026-04-05T14:51:34.999Z</time></trkpt><trkpt lat="43.81080410540797" lon="10.89144454545532"><ele>52.199999999999996</ele><time>2026-04-05T14:51:35.999Z</time></trkpt><trkpt lat="43.8107463986724" lon="10.891587943433159"><ele>51.0</ele><time>2026-04-05T14:51:36.999Z</time></trkpt><trkpt lat="43.81068018170349" lon="10.891730746351302"><ele>50.5</ele><time>2026-04-05T14:51:37.999Z</time></trkpt><trkpt lat="43.810617118922664" lon="10.891873835828369"><ele>50.0</ele><time>2026-04-05T14:51:38.999Z</time></trkpt><trkpt lat="43.810552976151115" lon="10.892019950052452"><ele>49.5</ele><time>2026-04-05T14:51:39.999Z</time></trkpt><trkpt lat="43.81048443251057" lon="10.892170081009606"><ele>49.0</ele><time>2026-04-05T14:51:40.999Z</time></trkpt><trkpt lat="43.81041587695281" lon="10.892314693065087"><ele>49.0</ele><time>2026-04-05T14:51:41.999Z</time></trkpt><trkpt lat="43.81034273492816" lon="10.892461450510678"><ele>49.0</ele><time>2026-04-05T14:51:42.999Z</time></trkpt><trkpt lat="43.81027324256262" lon="10.892609065510786"><ele>49.0</ele><time>2026-04-05T14:51:43.999Z</time></trkpt><trkpt lat="43.81020267054532" lon="10.892758443448443"><ele>49.0</ele><time>2026-04-05T14:51:44.999Z</time></trkpt><trkpt lat="43.810131449470354" lon="10.892904224211781"><ele>48.5</ele><time>2026-04-05T14:51:45.999Z</time></trkpt><trkpt lat="43.81006344254282" lon="10.893041211288267"><ele>48.0</ele><time>2026-04-05T14:51:46.999Z</time></trkpt><trkpt lat="43.80999667973116" lon="10.893181453410904"><ele>47.5</ele><time>2026-04-05T14:51:47.999Z</time></trkpt><trkpt lat="43.80992981876296" lon="10.893324597255905"><ele>47.0</ele><time>2026-04-05T14:51:48.999Z</time></trkpt><trkpt lat="43.80986266872495" lon="10.89346548262491"><ele>47.0</ele><time>2026-04-05T14:51:49.999Z</time></trkpt><trkpt lat="43.8097958692368" lon="10.893605004976187"><ele>47.0</ele><time>2026-04-05T14:51:50.999Z</time></trkpt><trkpt lat="43.80972892446488" lon="10.89374416682738"><ele>47.0</ele><time>2026-04-05T14:51:51.999Z</time></trkpt><trkpt lat="43.809663183442325" lon="10.893885664696755"><ele>47.0</ele><time>2026-04-05T14:51:52.999Z</time></trkpt><trkpt lat="43.80959406791493" lon="10.894027710921254"><ele>47.0</ele><time>2026-04-05T14:51:53.999Z</time></trkpt><trkpt lat="43.809528124842565" lon="10.894174010615806"><ele>47.0</ele><time>2026-04-05T14:51:54.999Z</time></trkpt><trkpt lat="43.80945012454278" lon="10.89430966399481"><ele>47.0</ele><time>2026-04-05T14:51:55.999Z</time></trkpt><trkpt lat="43.80937923409677" lon="10.894459784557574"><ele>47.0</ele><time>2026-04-05T14:51:56.999Z</time></trkpt><trkpt lat="43.80930835574447" lon="10.894609938166845"><ele>47.0</ele><time>2026-04-05T14:51:57.999Z</time></trkpt><trkpt lat="43.80925954362383" lon="10.894782419353147"><ele>47.0</ele><time>2026-04-05T14:51:58.999Z</time></trkpt><trkpt lat="43.809190859975516" lon="10.894930503129073"><ele>47.0</ele><time>2026-04-05T14:51:59.999Z</time></trkpt><trkpt lat="43.809122772767836" lon="10.895088124203255"><ele>47.0</ele><time>2026-04-05T14:52:00.999Z</time></trkpt><trkpt lat="43.809050587857804" lon="10.895241221670886"><ele>46.75</ele><time>2026-04-05T14:52:01.998Z</time></trkpt><trkpt lat="43.80897709659247" lon="10.895391347086218"><ele>46.5</ele><time>2026-04-05T14:52:02.998Z</time></trkpt><trkpt lat="43.80890628753536" lon="10.895541491146364"><ele>46.25</ele><time>2026-04-05T14:52:03.998Z</time></trkpt><trkpt lat="43.808834801777174" lon="10.8956959191371"><ele>46.0</ele><time>2026-04-05T14:52:04.998Z</time></trkpt><trkpt lat="43.80875858714124" lon="10.89584523266134"><ele>46.75</ele><time>2026-04-05T14:52:05.998Z</time></trkpt><trkpt lat="43.80866456316008" lon="10.895978312494226"><ele>47.5</ele><time>2026-04-05T14:52:06.998Z</time></trkpt><trkpt lat="43.808583090625184" lon="10.896125357340733"><ele>48.25</ele><time>2026-04-05T14:52:07.998Z</time></trkpt><trkpt lat="43.80849059152488" lon="10.89626920622435"><ele>49.0</ele><time>2026-04-05T14:52:08.998Z</time></trkpt><trkpt lat="43.80839149117486" lon="10.896408778102817"><ele>49.75</ele><time>2026-04-05T14:52:09.998Z</time></trkpt><trkpt lat="43.808286586556704" lon="10.896541155702742"><ele>50.5</ele><time>2026-04-05T14:52:10.998Z</time></trkpt><trkpt lat="43.80817713069842" lon="10.896659059249476"><ele>51.25</ele><time>2026-04-05T14:52:11.998Z</time></trkpt><trkpt lat="43.80806299801551" lon="10.896771109801241"><ele>52.0</ele><time>2026-04-05T14:52:12.998Z</time></trkpt><trkpt lat="43.80794435308733" lon="10.89687184959443"><ele>53.0</ele><time>2026-04-05T14:52:13.998Z</time></trkpt><trkpt lat="43.807825528015464" lon="10.896982450697978"><ele>54.0</ele><time>2026-04-05T14:52:14.998Z</time></trkpt><trkpt lat="43.80769085020016" lon="10.897050387341423"><ele>55.0</ele><time>2026-04-05T14:52:15.998Z</time></trkpt><trkpt lat="43.80756214029769" lon="10.897132327187226"><ele>56.0</ele><time>2026-04-05T14:52:16.998Z</time></trkpt><trkpt lat="43.807436148209426" lon="10.897212996071342"><ele>57.0</ele><time>2026-04-05T14:52:17.998Z</time></trkpt><trkpt lat="43.8073138464961" lon="10.897285863504578"><ele>58.0</ele><time>2026-04-05T14:52:18.998Z</time></trkpt><trkpt lat="43.807196575303216" lon="10.897355801854538"><ele>59.0</ele><time>2026-04-05T14:52:19.998Z</time></trkpt><trkpt lat="43.80707518305822" lon="10.89743448130929"><ele>60.0</ele><time>2026-04-05T14:52:20.998Z</time></trkpt><trkpt lat="43.80694963199476" lon="10.897511497969413"><ele>60.5</ele><time>2026-04-05T14:52:22Z</time></trkpt><trkpt lat="43.80682430025318" lon="10.897591289927115"><ele>61.0</ele><time>2026-04-05T14:52:23Z</time></trkpt><trkpt lat="43.8066970127494" lon="10.897669223726234"><ele>61.5</ele><time>2026-04-05T14:52:24Z</time></trkpt><trkpt lat="43.806571409005485" lon="10.897750170492264"><ele>62.0</ele><time>2026-04-05T14:52:25Z</time></trkpt><trkpt lat="43.80645037817299" lon="10.897826760502769"><ele>62.0</ele><time>2026-04-05T14:52:26Z</time></trkpt><trkpt lat="43.80633113908489" lon="10.897905578803561"><ele>62.0</ele><time>2026-04-05T14:52:27Z</time></trkpt><trkpt lat="43.80621369715454" lon="10.897981074799496"><ele>62.0</ele><time>2026-04-05T14:52:28Z</time></trkpt><trkpt lat="43.806102222595825" lon="10.89804569804278"><ele>62.0</ele><time>2026-04-05T14:52:29Z</time></trkpt><trkpt lat="43.80599923456338" lon="10.898114441061566"><ele>61.5</ele><time>2026-04-05T14:52:30Z</time></trkpt><trkpt lat="43.805895876261424" lon="10.898183434780659"><ele>61.0</ele><time>2026-04-05T14:52:31Z</time></trkpt><trkpt lat="43.80578120611552" lon="10.898242588287202"><ele>60.5</ele><time>2026-04-05T14:52:32Z</time></trkpt><trkpt lat="43.80565974852716" lon="10.898275009482076"><ele>60.0</ele><time>2026-04-05T14:52:33Z</time></trkpt><trkpt lat="43.80554256788583" lon="10.898311237936847"><ele>60.0</ele><time>2026-04-05T14:52:34Z</time></trkpt><trkpt lat="43.80543038077308" lon="10.89834102651798"><ele>60.0</ele><time>2026-04-05T14:52:35Z</time></trkpt><trkpt lat="43.805313306481274" lon="10.898364592643079"><ele>60.0</ele><time>2026-04-05T14:52:36Z</time></trkpt><trkpt lat="43.80519694344323" lon="10.898386126667155"><ele>60.0</ele><time>2026-04-05T14:52:37Z</time></trkpt><trkpt lat="43.80508230570143" lon="10.898413933106859"><ele>58.75</ele><time>2026-04-05T14:52:38Z</time></trkpt><trkpt lat="43.80496516173979" lon="10.898437252360864"><ele>57.5</ele><time>2026-04-05T14:52:39Z</time></trkpt><trkpt lat="43.80485416424276" lon="10.898459258925186"><ele>56.25</ele><time>2026-04-05T14:52:40Z</time></trkpt><trkpt lat="43.80473946791889" lon="10.898498572194574"><ele>55.0</ele><time>2026-04-05T14:52:41Z</time></trkpt><trkpt lat="43.80462385266117" lon="10.898554018022717"><ele>55.0</ele><time>2026-04-05T14:52:42Z</time></trkpt><trkpt lat="43.80451758236176" lon="10.898596048866764"><ele>55.0</ele><time>2026-04-05T14:52:43Z</time></trkpt><trkpt lat="43.80440631957779" lon="10.898640424190546"><ele>55.0</ele><time>2026-04-05T14:52:44Z</time></trkpt><trkpt lat="43.804290429397305" lon="10.89868839193019"><ele>55.0</ele><time>2026-04-05T14:52:45Z</time></trkpt><trkpt lat="43.804175622477906" lon="10.89874317173331"><ele>55.5</ele><time>2026-04-05T14:52:46Z</time></trkpt><trkpt lat="43.804059248367174" lon="10.898810483621677"><ele>56.0</ele><time>2026-04-05T14:52:47Z</time></trkpt><trkpt lat="43.80394191226586" lon="10.898899854111551"><ele>56.5</ele><time>2026-04-05T14:52:48Z</time></trkpt><trkpt lat="43.803823819092806" lon="10.89899278126156"><ele>57.0</ele><time>2026-04-05T14:52:49Z</time></trkpt><trkpt lat="43.803700787328665" lon="10.899083675281673"><ele>57.0</ele><time>2026-04-05T14:52:50Z</time></trkpt><trkpt lat="43.803572557326184" lon="10.899174635801579"><ele>57.0</ele><time>2026-04-05T14:52:51Z</time></trkpt><trkpt lat="43.803440624228294" lon="10.899265209024566"><ele>57.0</ele><time>2026-04-05T14:52:52Z</time></trkpt><trkpt lat="43.80330351594244" lon="10.899362751317614"><ele>57.0</ele><time>2026-04-05T14:52:53Z</time></trkpt><trkpt lat="43.803156707135564" lon="10.899457439287826"><ele>55.0</ele><time>2026-04-05T14:52:54Z</time></trkpt><trkpt lat="43.80300483305563" lon="10.899543224031309"><ele>53.0</ele><time>2026-04-05T14:52:55Z</time></trkpt><trkpt lat="43.80286422311197" lon="10.899623677854086"><ele>51.0</ele><time>2026-04-05T14:52:56Z</time></trkpt><trkpt lat="43.8027179061837" lon="10.899699420139632"><ele>51.66666666666667</ele><time>2026-04-05T14:52:57Z</time></trkpt><trkpt lat="43.802571555886644" lon="10.899771913469227"><ele>52.333333333333336</ele><time>2026-04-05T14:52:58Z</time></trkpt><trkpt lat="43.802427991468875" lon="10.899843823125403"><ele>53.0</ele><time>2026-04-05T14:52:59Z</time></trkpt><trkpt lat="43.80229215130919" lon="10.899921212935292"><ele>53.0</ele><time>2026-04-05T14:53:00Z</time></trkpt><trkpt lat="43.802163909208055" lon="10.90001817610703"><ele>53.0</ele><time>2026-04-05T14:53:01Z</time></trkpt><trkpt lat="43.802039260838" lon="10.900127969311932"><ele>53.0</ele><time>2026-04-05T14:53:02Z</time></trkpt><trkpt lat="43.801923533065825" lon="10.90028198140758"><ele>49.0</ele><time>2026-04-05T14:53:03Z</time></trkpt><trkpt lat="43.801811357597735" lon="10.900461931682118"><ele>45.0</ele><time>2026-04-05T14:53:04Z</time></trkpt><trkpt lat="43.80170598137724" lon="10.900662573764377"><ele>41.0</ele><time>2026-04-05T14:53:05Z</time></trkpt><trkpt lat="43.80160823055369" lon="10.900881375288844"><ele>41.666666666666664</ele><time>2026-04-05T14:53:06Z</time></trkpt><trkpt lat="43.8015026416849" lon="10.901104476779482"><ele>42.333333333333336</ele><time>2026-04-05T14:53:06.999Z</time></trkpt><trkpt lat="43.801399208680756" lon="10.901332839877583"><ele>43.0</ele><time>2026-04-05T14:53:07.999Z</time></trkpt><trkpt lat="43.80129795592753" lon="10.901564619943379"><ele>42.333333333333336</ele><time>2026-04-05T14:53:08.999Z</time></trkpt><trkpt lat="43.80120114439582" lon="10.901787915153264"><ele>41.666666666666664</ele><time>2026-04-05T14:53:09.999Z</time></trkpt><trkpt lat="43.801099735341005" lon="10.901997215656392"><ele>41.0</ele><time>2026-04-05T14:53:10.999Z</time></trkpt><trkpt lat="43.801008243689665" lon="10.902196360718797"><ele>42.25</ele><time>2026-04-05T14:53:11.999Z</time></trkpt><trkpt lat="43.80092528861153" lon="10.90237420186601"><ele>43.5</ele><time>2026-04-05T14:53:12.999Z</time></trkpt><trkpt lat="43.80082854150762" lon="10.90253419853383"><ele>44.75</ele><time>2026-04-05T14:53:13.999Z</time></trkpt><trkpt lat="43.80072084213891" lon="10.902666227294409"><ele>46.0</ele><time>2026-04-05T14:53:14.999Z</time></trkpt><trkpt lat="43.80060452413231" lon="10.902786014297842"><ele>46.0</ele><time>2026-04-05T14:53:15.999Z</time></trkpt><trkpt lat="43.8004803454501" lon="10.902894700105483"><ele>46.0</ele><time>2026-04-05T14:53:16.999Z</time></trkpt><trkpt lat="43.80035057408431" lon="10.903000039927756"><ele>46.0</ele><time>2026-04-05T14:53:17.999Z</time></trkpt><trkpt lat="43.80021522117325" lon="10.903103438805116"><ele>47.333333333333336</ele><time>2026-04-05T14:53:18.999Z</time></trkpt><trkpt lat="43.80007845715475" lon="10.903206761577245"><ele>48.66666666666667</ele><time>2026-04-05T14:53:19.999Z</time></trkpt><trkpt lat="43.79994187783188" lon="10.903316015608192"><ele>50.0</ele><time>2026-04-05T14:53:20.999Z</time></trkpt><trkpt lat="43.79980515522115" lon="10.903424822249931"><ele>50.66666666666667</ele><time>2026-04-05T14:53:21.999Z</time></trkpt><trkpt lat="43.79966713150961" lon="10.903535014457061"><ele>51.33333333333333</ele><time>2026-04-05T14:53:22.999Z</time></trkpt><trkpt lat="43.79952826608265" lon="10.90364322689254"><ele>52.0</ele><time>2026-04-05T14:53:23.999Z</time></trkpt><trkpt lat="43.799394502626626" lon="10.90374819997405"><ele>50.0</ele><time>2026-04-05T14:53:24.999Z</time></trkpt><trkpt lat="43.799263909331984" lon="10.903846023818712"><ele>48.0</ele><time>2026-04-05T14:53:25.999Z</time></trkpt><trkpt lat="43.79913739852933" lon="10.903941568341907"><ele>46.0</ele><time>2026-04-05T14:53:26.999Z</time></trkpt><trkpt lat="43.79902027269917" lon="10.904051815717752"><ele>44.0</ele><time>2026-04-05T14:53:27.999Z</time></trkpt><trkpt lat="43.79893480963341" lon="10.904208444615183"><ele>44.75</ele><time>2026-04-05T14:53:28.999Z</time></trkpt><trkpt lat="43.798866786971665" lon="10.904381929266204"><ele>45.5</ele><time>2026-04-05T14:53:29.999Z</time></trkpt><trkpt lat="43.79884020647465" lon="10.904577926533838"><ele>46.25</ele><time>2026-04-05T14:53:30.999Z</time></trkpt><trkpt lat="43.79881440759196" lon="10.904785055151587"><ele>47.0</ele><time>2026-04-05T14:53:31.999Z</time></trkpt><trkpt lat="43.79881100760633" lon="10.904983071994268"><ele>47.25</ele><time>2026-04-05T14:53:32.999Z</time></trkpt><trkpt lat="43.79880764388118" lon="10.905175496986994"><ele>47.5</ele><time>2026-04-05T14:53:33.999Z</time></trkpt><trkpt lat="43.798797191229156" lon="10.90535083845212"><ele>47.75</ele><time>2026-04-05T14:53:34.999Z</time></trkpt><trkpt lat="43.798775594147365" lon="10.905511918395998"><ele>48.0</ele><time>2026-04-05T14:53:35.999Z</time></trkpt><trkpt lat="43.79870339289871" lon="10.905644477235056"><ele>48.0</ele><time>2026-04-05T14:53:36.999Z</time></trkpt><trkpt lat="43.79860427404238" lon="10.90575396838282"><ele>48.0</ele><time>2026-04-05T14:53:37.999Z</time></trkpt><trkpt lat="43.798482352589886" lon="10.905834456616956"><ele>48.0</ele><time>2026-04-05T14:53:38.999Z</time></trkpt><trkpt lat="43.798354746404584" lon="10.90590746217641"><ele>48.0</ele><time>2026-04-05T14:53:39.999Z</time></trkpt><trkpt lat="43.79822571596797" lon="10.905984595896564"><ele>47.0</ele><time>2026-04-05T14:53:40.999Z</time></trkpt><trkpt lat="43.79809497193249" lon="10.906064326684291"><ele>46.0</ele><time>2026-04-05T14:53:41.999Z</time></trkpt><trkpt lat="43.797966105686655" lon="10.906142135534362"><ele>45.0</ele><time>2026-04-05T14:53:42.999Z</time></trkpt><trkpt lat="43.79783691149985" lon="10.906212844577102"><ele>44.0</ele><time>2026-04-05T14:53:43.999Z</time></trkpt><trkpt lat="43.797706053689495" lon="10.90628465557702"><ele>46.0</ele><time>2026-04-05T14:53:44.999Z</time></trkpt><trkpt lat="43.797572447940716" lon="10.906364814544673"><ele>48.0</ele><time>2026-04-05T14:53:45.999Z</time></trkpt><trkpt lat="43.79743889147993" lon="10.906440449020094"><ele>50.0</ele><time>2026-04-05T14:53:46.999Z</time></trkpt><trkpt lat="43.797303246829664" lon="10.906503294135547"><ele>52.0</ele><time>2026-04-05T14:53:47.999Z</time></trkpt><trkpt lat="43.79716149757029" lon="10.906544684609427"><ele>52.0</ele><time>2026-04-05T14:53:48.999Z</time></trkpt><trkpt lat="43.79701667539951" lon="10.906556332233409"><ele>52.0</ele><time>2026-04-05T14:53:49.999Z</time></trkpt><trkpt lat="43.79687475997248" lon="10.906533106114061"><ele>52.0</ele><time>2026-04-05T14:53:50.999Z</time></trkpt><trkpt lat="43.796732960896136" lon="10.906503267129349"><ele>52.0</ele><time>2026-04-05T14:53:51.999Z</time></trkpt><trkpt lat="43.796591497500216" lon="10.9064594495833"><ele>53.0</ele><time>2026-04-05T14:53:52.999Z</time></trkpt><trkpt lat="43.796446056584905" lon="10.906414413974833"><ele>54.0</ele><time>2026-04-05T14:53:53.999Z</time></trkpt><trkpt lat="43.79630280487156" lon="10.9063693444324"><ele>55.0</ele><time>2026-04-05T14:53:54.999Z</time></trkpt><trkpt lat="43.796158078829684" lon="10.906321137264188"><ele>56.0</ele><time>2026-04-05T14:53:55.999Z</time></trkpt><trkpt lat="43.79600950222114" lon="10.906275317009566"><ele>54.75</ele><time>2026-04-05T14:53:56.999Z</time></trkpt><trkpt lat="43.7958642114747" lon="10.906241294250483"><ele>53.5</ele><time>2026-04-05T14:53:57.999Z</time></trkpt><trkpt lat="43.79571543749363" lon="10.906226718359969"><ele>52.25</ele><time>2026-04-05T14:53:58.999Z</time></trkpt><trkpt lat="43.79556378670718" lon="10.90624003231759"><ele>51.0</ele><time>2026-04-05T14:53:59.999Z</time></trkpt><trkpt lat="43.795409122890135" lon="10.906282930364938"><ele>51.0</ele><time>2026-04-05T14:54:00.999Z</time></trkpt><trkpt lat="43.79525627828871" lon="10.906342390270463"><ele>51.0</ele><time>2026-04-05T14:54:01.999Z</time></trkpt><trkpt lat="43.79510138579268" lon="10.906409545919987"><ele>51.0</ele><time>2026-04-05T14:54:02.999Z</time></trkpt><trkpt lat="43.79493594825559" lon="10.906474911178316"><ele>49.333333333333336</ele><time>2026-04-05T14:54:03.998Z</time></trkpt><trkpt lat="43.7947686074518" lon="10.906544070013828"><ele>47.66666666666667</ele><time>2026-04-05T14:54:04.998Z</time></trkpt><trkpt lat="43.7946087906647" lon="10.906624749402342"><ele>46.0</ele><time>2026-04-05T14:54:05.998Z</time></trkpt><trkpt lat="43.79445075177631" lon="10.90670617452736"><ele>44.66666666666667</ele><time>2026-04-05T14:54:06.998Z</time></trkpt><trkpt lat="43.79430450350049" lon="10.906815444298147"><ele>43.333333333333336</ele><time>2026-04-05T14:54:07.998Z</time></trkpt><trkpt lat="43.7941755377264" lon="10.906941591042655"><ele>42.0</ele><time>2026-04-05T14:54:08.998Z</time></trkpt><trkpt lat="43.79405494343006" lon="10.90707372112109"><ele>42.0</ele><time>2026-04-05T14:54:09.998Z</time></trkpt><trkpt lat="43.7939610510757" lon="10.90725574677642"><ele>42.0</ele><time>2026-04-05T14:54:10.998Z</time></trkpt><trkpt lat="43.79389639110078" lon="10.907465381997413"><ele>42.0</ele><time>2026-04-05T14:54:11.998Z</time></trkpt><trkpt lat="43.79384429265713" lon="10.907675596789954"><ele>43.666666666666664</ele><time>2026-04-05T14:54:12.998Z</time></trkpt><trkpt lat="43.793795491772514" lon="10.907886870589149"><ele>45.33333333333333</ele><time>2026-04-05T14:54:13.998Z</time></trkpt><trkpt lat="43.79374670989381" lon="10.908098237084983"><ele>47.0</ele><time>2026-04-05T14:54:14.998Z</time></trkpt><trkpt lat="43.79370082970319" lon="10.908318955450982"><ele>47.666666666666664</ele><time>2026-04-05T14:54:15.998Z</time></trkpt><trkpt lat="43.79366844927258" lon="10.908547982422112"><ele>48.33333333333333</ele><time>2026-04-05T14:54:16.998Z</time></trkpt><trkpt lat="43.79365588739862" lon="10.908785227864922"><ele>49.0</ele><time>2026-04-05T14:54:17.998Z</time></trkpt><trkpt lat="43.79365411848083" lon="10.909020729499348"><ele>50.0</ele><time>2026-04-05T14:54:18.998Z</time></trkpt><trkpt lat="43.79369574866777" lon="10.909246547810747"><ele>51.0</ele><time>2026-04-05T14:54:19.998Z</time></trkpt><trkpt lat="43.793693546688324" lon="10.909466936217749"><ele>52.0</ele><time>2026-04-05T14:54:20.998Z</time></trkpt><trkpt lat="43.79366745305754" lon="10.909694245593297"><ele>52.0</ele><time>2026-04-05T14:54:21.998Z</time></trkpt><trkpt lat="43.79360804436939" lon="10.909916578780974"><ele>52.0</ele><time>2026-04-05T14:54:22.998Z</time></trkpt><trkpt lat="43.79349898618592" lon="10.910107990771762"><ele>52.0</ele><time>2026-04-05T14:54:23.998Z</time></trkpt><trkpt lat="43.79338855312293" lon="10.910289848199088"><ele>52.666666666666664</ele><time>2026-04-05T14:54:24.998Z</time></trkpt><trkpt lat="43.793271158082085" lon="10.910470954215523"><ele>53.33333333333333</ele><time>2026-04-05T14:54:25.998Z</time></trkpt><trkpt lat="43.793133604646506" lon="10.910629383701687"><ele>54.0</ele><time>2026-04-05T14:54:26.998Z</time></trkpt><trkpt lat="43.79299335649441" lon="10.91079071128567"><ele>54.66666666666667</ele><time>2026-04-05T14:54:28Z</time></trkpt><trkpt lat="43.792843945559035" lon="10.910935676991818"><ele>55.333333333333336</ele><time>2026-04-05T14:54:29Z</time></trkpt><trkpt lat="43.7927063776464" lon="10.911094834518451"><ele>56.0</ele><time>2026-04-05T14:54:30Z</time></trkpt><trkpt lat="43.79258034001992" lon="10.911269338762251"><ele>56.0</ele><time>2026-04-05T14:54:31Z</time></trkpt><trkpt lat="43.79244373140325" lon="10.911422636541031"><ele>56.0</ele><time>2026-04-05T14:54:32Z</time></trkpt><trkpt lat="43.79230931800045" lon="10.911572018989181"><ele>56.0</ele><time>2026-04-05T14:54:33Z</time></trkpt><trkpt lat="43.79218304655161" lon="10.911716741985575"><ele>56.333333333333336</ele><time>2026-04-05T14:54:34Z</time></trkpt><trkpt lat="43.79206044912059" lon="10.911857003924576"><ele>56.66666666666667</ele><time>2026-04-05T14:54:35Z</time></trkpt><trkpt lat="43.79193546022544" lon="10.91200207830423"><ele>57.0</ele><time>2026-04-05T14:54:36Z</time></trkpt><trkpt lat="43.79180230543853" lon="10.912125973457787"><ele>57.5</ele><time>2026-04-05T14:54:37Z</time></trkpt><trkpt lat="43.7916905872077" lon="10.912274638342629"><ele>58.0</ele><time>2026-04-05T14:54:38Z</time></trkpt><trkpt lat="43.791580907416815" lon="10.912396996355698"><ele>58.5</ele><time>2026-04-05T14:54:39Z</time></trkpt><trkpt lat="43.79148456021223" lon="10.912507116097983"><ele>59.0</ele><time>2026-04-05T14:54:40Z</time></trkpt><trkpt lat="43.791397399360896" lon="10.912611457257283"><ele>59.0</ele><time>2026-04-05T14:54:41Z</time></trkpt><trkpt lat="43.791318643794035" lon="10.912698498243866"><ele>59.00000000000001</ele><time>2026-04-05T14:54:42Z</time></trkpt><trkpt lat="43.79124739161127" lon="10.912778012349564"><ele>59.00000000000001</ele><time>2026-04-05T14:54:43Z</time></trkpt><trkpt lat="43.791186900603876" lon="10.912847849092408"><ele>59.0</ele><time>2026-04-05T14:54:44Z</time></trkpt><trkpt lat="43.79113551488811" lon="10.912905154399873"><ele>59.0</ele><time>2026-04-05T14:54:45Z</time></trkpt><trkpt lat="43.79104748342069" lon="10.913010324074186"><ele>58.833333333333336</ele><time>2026-04-05T14:54:47Z</time></trkpt><trkpt lat="43.79098951990306" lon="10.913079460220196"><ele>58.66666666666667</ele><time>2026-04-05T14:54:48Z</time></trkpt><trkpt lat="43.790932137007225" lon="10.91314523957139"><ele>58.5</ele><time>2026-04-05T14:54:49Z</time></trkpt><trkpt lat="43.790869088027165" lon="10.913219669108418"><ele>58.33333333333333</ele><time>2026-04-05T14:54:50Z</time></trkpt><trkpt lat="43.790805810270435" lon="10.913290515609432"><ele>58.166666666666664</ele><time>2026-04-05T14:54:51Z</time></trkpt><trkpt lat="43.79074412526063" lon="10.913355549534867"><ele>58.0</ele><time>2026-04-05T14:54:52Z</time></trkpt><trkpt lat="43.79068348440145" lon="10.913418689663462"><ele>59.2</ele><time>2026-04-05T14:54:53Z</time></trkpt><trkpt lat="43.79062260064786" lon="10.91348618698514"><ele>60.4</ele><time>2026-04-05T14:54:54Z</time></trkpt><trkpt lat="43.79055732292783" lon="10.913564763683802"><ele>61.60000000000001</ele><time>2026-04-05T14:54:55Z</time></trkpt><trkpt lat="43.79048712183897" lon="10.91364703321955"><ele>62.800000000000004</ele><time>2026-04-05T14:54:56Z</time></trkpt><trkpt lat="43.79040726954455" lon="10.913738121549347"><ele>64.0</ele><time>2026-04-05T14:54:57Z</time></trkpt><trkpt lat="43.79032816370026" lon="10.913825048498623"><ele>64.0</ele><time>2026-04-05T14:54:58Z</time></trkpt><trkpt lat="43.790245576612485" lon="10.913916688041189"><ele>64.0</ele><time>2026-04-05T14:54:59Z</time></trkpt><trkpt lat="43.790161218623666" lon="10.914017005275907"><ele>64.0</ele><time>2026-04-05T14:55:00Z</time></trkpt><trkpt lat="43.79007345840076" lon="10.914119864106734"><ele>64.0</ele><time>2026-04-05T14:55:01Z</time></trkpt><trkpt lat="43.789979887111535" lon="10.914224455406869"><ele>62.0</ele><time>2026-04-05T14:55:02Z</time></trkpt><trkpt lat="43.789879205143905" lon="10.914337687426269"><ele>60.0</ele><time>2026-04-05T14:55:03Z</time></trkpt><trkpt lat="43.789776959690755" lon="10.914456642851302"><ele>58.0</ele><time>2026-04-05T14:55:04Z</time></trkpt><trkpt lat="43.789677391522986" lon="10.914568367593924"><ele>56.0</ele><time>2026-04-05T14:55:05Z</time></trkpt><trkpt lat="43.789574386527484" lon="10.914678554418298"><ele>56.0</ele><time>2026-04-05T14:55:06Z</time></trkpt><trkpt lat="43.78947292861054" lon="10.914784382291508"><ele>56.0</ele><time>2026-04-05T14:55:07Z</time></trkpt><trkpt lat="43.78936522717942" lon="10.914880150231667"><ele>56.0</ele><time>2026-04-05T14:55:08Z</time></trkpt><trkpt lat="43.78924414686038" lon="10.914961933245017"><ele>56.0</ele><time>2026-04-05T14:55:09Z</time></trkpt><trkpt lat="43.789123660851054" lon="10.915021339302726"><ele>53.5</ele><time>2026-04-05T14:55:10Z</time></trkpt><trkpt lat="43.78899050042909" lon="10.91507162109978"><ele>51.0</ele><time>2026-04-05T14:55:11Z</time></trkpt><trkpt lat="43.78884598420565" lon="10.915108462073148"><ele>48.5</ele><time>2026-04-05T14:55:12Z</time></trkpt><trkpt lat="43.78870074071741" lon="10.915137681452098"><ele>46.0</ele><time>2026-04-05T14:55:12.999Z</time></trkpt><trkpt lat="43.788557257677645" lon="10.915148554363906"><ele>45.75</ele><time>2026-04-05T14:55:13.999Z</time></trkpt><trkpt lat="43.78841518435676" lon="10.9151423166102"><ele>45.5</ele><time>2026-04-05T14:55:14.999Z</time></trkpt><trkpt lat="43.78827356851316" lon="10.915124465015076"><ele>45.25</ele><time>2026-04-05T14:55:15.999Z</time></trkpt><trkpt lat="43.78813175180558" lon="10.915088362848012"><ele>45.0</ele><time>2026-04-05T14:55:16.999Z</time></trkpt><trkpt lat="43.787986067179965" lon="10.915037286755828"><ele>44.666666666666664</ele><time>2026-04-05T14:55:17.999Z</time></trkpt><trkpt lat="43.78783921248162" lon="10.914986319287074"><ele>44.33333333333333</ele><time>2026-04-05T14:55:18.999Z</time></trkpt><trkpt lat="43.78769112535925" lon="10.91493857877187"><ele>44.0</ele><time>2026-04-05T14:55:19.999Z</time></trkpt><trkpt lat="43.78753919793964" lon="10.914906426905308"><ele>43.666666666666664</ele><time>2026-04-05T14:55:20.999Z</time></trkpt><trkpt lat="43.78738416075979" lon="10.914889054406656"><ele>43.333333333333336</ele><time>2026-04-05T14:55:21.999Z</time></trkpt><trkpt lat="43.787224436705735" lon="10.914877988616125"><ele>43.0</ele><time>2026-04-05T14:55:22.999Z</time></trkpt><trkpt lat="43.787061113953726" lon="10.914889895345892"><ele>43.0</ele><time>2026-04-05T14:55:23.999Z</time></trkpt><trkpt lat="43.78689421931587" lon="10.914915168985729"><ele>43.0</ele><time>2026-04-05T14:55:24.999Z</time></trkpt><trkpt lat="43.7867295117932" lon="10.914955348525911"><ele>43.0</ele><time>2026-04-05T14:55:25.999Z</time></trkpt><trkpt lat="43.78656714677209" lon="10.915004477568967"><ele>43.66666666666667</ele><time>2026-04-05T14:55:26.999Z</time></trkpt><trkpt lat="43.78640577311117" lon="10.915063312428167"><ele>44.333333333333336</ele><time>2026-04-05T14:55:27.999Z</time></trkpt><trkpt lat="43.78625031844703" lon="10.9151247869163"><ele>45.0</ele><time>2026-04-05T14:55:28.999Z</time></trkpt><trkpt lat="43.78609579318772" lon="10.915188251155334"><ele>49.33333333333333</ele><time>2026-04-05T14:55:29.999Z</time></trkpt><trkpt lat="43.78594380844592" lon="10.915253364607818"><ele>53.666666666666664</ele><time>2026-04-05T14:55:30.999Z</time></trkpt><trkpt lat="43.78579543294602" lon="10.915314513905425"><ele>58.0</ele><time>2026-04-05T14:55:31.999Z</time></trkpt><trkpt lat="43.785644207177114" lon="10.915376397507277"><ele>58.0</ele><time>2026-04-05T14:55:32.999Z</time></trkpt><trkpt lat="43.78549804029731" lon="10.915434076047706"><ele>58.0</ele><time>2026-04-05T14:55:33.999Z</time></trkpt><trkpt lat="43.78535889095872" lon="10.915496876348916"><ele>58.0</ele><time>2026-04-05T14:55:34.999Z</time></trkpt><trkpt lat="43.78521912070043" lon="10.91555114535"><ele>58.0</ele><time>2026-04-05T14:55:35.999Z</time></trkpt><trkpt lat="43.78507454673377" lon="10.915605637527143"><ele>62.33333333333333</ele><time>2026-04-05T14:55:36.999Z</time></trkpt><trkpt lat="43.78493166352005" lon="10.915672115337404"><ele>66.66666666666667</ele><time>2026-04-05T14:55:37.999Z</time></trkpt><trkpt lat="43.78478522657257" lon="10.915743975587993"><ele>71.0</ele><time>2026-04-05T14:55:38.999Z</time></trkpt><trkpt lat="43.78463969601388" lon="10.91581229582194"><ele>71.0</ele><time>2026-04-05T14:55:39.999Z</time></trkpt><trkpt lat="43.78450241101957" lon="10.915895873455328"><ele>71.0</ele><time>2026-04-05T14:55:40.999Z</time></trkpt><trkpt lat="43.784367823077055" lon="10.915983636691136"><ele>71.0</ele><time>2026-04-05T14:55:41.999Z</time></trkpt><trkpt lat="43.78423344690879" lon="10.916077579840843"><ele>71.0</ele><time>2026-04-05T14:55:42.999Z</time></trkpt><trkpt lat="43.784101850923335" lon="10.916176187889505"><ele>67.66666666666667</ele><time>2026-04-05T14:55:43.999Z</time></trkpt><trkpt lat="43.78396690399154" lon="10.916279225936888"><ele>64.33333333333333</ele><time>2026-04-05T14:55:44.999Z</time></trkpt><trkpt lat="43.783830246157294" lon="10.916384358632893"><ele>61.0</ele><time>2026-04-05T14:55:45.999Z</time></trkpt><trkpt lat="43.783694077588606" lon="10.916488321491592"><ele>61.0</ele><time>2026-04-05T14:55:46.999Z</time></trkpt><trkpt lat="43.78356152578181" lon="10.916594857211097"><ele>61.0</ele><time>2026-04-05T14:55:47.999Z</time></trkpt><trkpt lat="43.78343241298403" lon="10.916699123243747"><ele>61.0</ele><time>2026-04-05T14:55:48.999Z</time></trkpt><trkpt lat="43.783306059419125" lon="10.916799419245665"><ele>61.0</ele><time>2026-04-05T14:55:49.999Z</time></trkpt><trkpt lat="43.78318474615014" lon="10.9168984318824"><ele>59.0</ele><time>2026-04-05T14:55:50.999Z</time></trkpt><trkpt lat="43.78305518205372" lon="10.916991748059024"><ele>57.0</ele><time>2026-04-05T14:55:51.999Z</time></trkpt><trkpt lat="43.78291299942922" lon="10.917070813986708"><ele>55.0</ele><time>2026-04-05T14:55:52.999Z</time></trkpt><trkpt lat="43.782764521206175" lon="10.917142967413163"><ele>55.33333333333333</ele><time>2026-04-05T14:55:53.999Z</time></trkpt><trkpt lat="43.782616166946994" lon="10.917201391869261"><ele>55.66666666666667</ele><time>2026-04-05T14:55:54.999Z</time></trkpt><trkpt lat="43.78246988924701" lon="10.917252067551685"><ele>56.0</ele><time>2026-04-05T14:55:55.999Z</time></trkpt><trkpt lat="43.78232296141408" lon="10.917290957123896"><ele>56.0</ele><time>2026-04-05T14:55:56.999Z</time></trkpt><trkpt lat="43.782172401911076" lon="10.917318472966533"><ele>56.0</ele><time>2026-04-05T14:55:57.999Z</time></trkpt><trkpt lat="43.78202550746021" lon="10.917336362055453"><ele>56.0</ele><time>2026-04-05T14:55:58.999Z</time></trkpt><trkpt lat="43.7818859430388" lon="10.917349487321177"><ele>56.0</ele><time>2026-04-05T14:55:59.999Z</time></trkpt><trkpt lat="43.781756737825745" lon="10.917350945208417"><ele>54.4</ele><time>2026-04-05T14:56:00.999Z</time></trkpt><trkpt lat="43.78163867799683" lon="10.917334242835288"><ele>52.8</ele><time>2026-04-05T14:56:01.999Z</time></trkpt><trkpt lat="43.78152921297176" lon="10.917304294339003"><ele>51.199999999999996</ele><time>2026-04-05T14:56:02.999Z</time></trkpt><trkpt lat="43.78143171098603" lon="10.917260474724085"><ele>49.599999999999994</ele><time>2026-04-05T14:56:03.999Z</time></trkpt><trkpt lat="43.781328164755365" lon="10.91720391104797"><ele>48.0</ele><time>2026-04-05T14:56:04.999Z</time></trkpt><trkpt lat="43.78122477996044" lon="10.917126668788434"><ele>48.0</ele><time>2026-04-05T14:56:05.999Z</time></trkpt><trkpt lat="43.78113524083492" lon="10.917046056252424"><ele>48.0</ele><time>2026-04-05T14:56:06.999Z</time></trkpt><trkpt lat="43.78104981655086" lon="10.91697352538406"><ele>48.0</ele><time>2026-04-05T14:56:07.999Z</time></trkpt><trkpt lat="43.78096096525274" lon="10.916911856263928"><ele>48.0</ele><time>2026-04-05T14:56:08.998Z</time></trkpt><trkpt lat="43.780870730175636" lon="10.91688805103268"><ele>48.0</ele><time>2026-04-05T14:56:09.998Z</time></trkpt><trkpt lat="43.78078063114503" lon="10.91692484757464"><ele>47.0</ele><time>2026-04-05T14:56:10.998Z</time></trkpt><trkpt lat="43.78069968312857" lon="10.917005189719854"><ele>46.0</ele><time>2026-04-05T14:56:11.998Z</time></trkpt><trkpt lat="43.78063445266222" lon="10.917093228186843"><ele>45.0</ele><time>2026-04-05T14:56:12.998Z</time></trkpt><trkpt lat="43.78055441409083" lon="10.917149660215722"><ele>44.0</ele><time>2026-04-05T14:56:13.998Z</time></trkpt><trkpt lat="43.78047474852055" lon="10.91721614517328"><ele>43.0</ele><time>2026-04-05T14:56:14.998Z</time></trkpt><trkpt lat="43.78032495450191" lon="10.917131702740217"><ele>43.0</ele><time>2026-04-05T14:56:15.998Z</time></trkpt><trkpt lat="43.78019495230588" lon="10.917111120095225"><ele>43.0</ele><time>2026-04-05T14:56:16.998Z</time></trkpt><trkpt lat="43.78005829608249" lon="10.917091378716588"><ele>43.0</ele><time>2026-04-05T14:56:17.998Z</time></trkpt><trkpt lat="43.77991616983653" lon="10.917083955049113"><ele>43.0</ele><time>2026-04-05T14:56:18.998Z</time></trkpt><trkpt lat="43.77977470753745" lon="10.917086053811484"><ele>42.0</ele><time>2026-04-05T14:56:19.998Z</time></trkpt><trkpt lat="43.77962327048128" lon="10.917098325151462"><ele>41.0</ele><time>2026-04-05T14:56:20.998Z</time></trkpt><trkpt lat="43.779460514016414" lon="10.917124271459079"><ele>40.0</ele><time>2026-04-05T14:56:21.998Z</time></trkpt><trkpt lat="43.77929605047704" lon="10.917162484633808"><ele>40.0</ele><time>2026-04-05T14:56:22.998Z</time></trkpt><trkpt lat="43.77913172816502" lon="10.917198015834021"><ele>40.0</ele><time>2026-04-05T14:56:23.998Z</time></trkpt><trkpt lat="43.77896864785459" lon="10.9172309716015"><ele>40.0</ele><time>2026-04-05T14:56:24.998Z</time></trkpt><trkpt lat="43.778805043731616" lon="10.917262507586695"><ele>40.0</ele><time>2026-04-05T14:56:25.998Z</time></trkpt><trkpt lat="43.77863349849906" lon="10.917290498753177"><ele>40.0</ele><time>2026-04-05T14:56:26.998Z</time></trkpt><trkpt lat="43.77846291262475" lon="10.91732757526126"><ele>40.0</ele><time>2026-04-05T14:56:27.998Z</time></trkpt><trkpt lat="43.77828912400539" lon="10.917365700007206"><ele>39.66666666666667</ele><time>2026-04-05T14:56:28.998Z</time></trkpt><trkpt lat="43.778113460510184" lon="10.917408605953733"><ele>39.333333333333336</ele><time>2026-04-05T14:56:29.998Z</time></trkpt><trkpt lat="43.77794377135742" lon="10.917452607828304"><ele>39.0</ele><time>2026-04-05T14:56:30.998Z</time></trkpt><trkpt lat="43.777775653870286" lon="10.917493694117526"><ele>39.0</ele><time>2026-04-05T14:56:31.998Z</time></trkpt><trkpt lat="43.777607339950364" lon="10.91753193250379"><ele>39.0</ele><time>2026-04-05T14:56:32.998Z</time></trkpt><trkpt lat="43.77743184230276" lon="10.917567574663073"><ele>39.0</ele><time>2026-04-05T14:56:34Z</time></trkpt><trkpt lat="43.77725753373693" lon="10.917601723297452"><ele>39.0</ele><time>2026-04-05T14:56:35Z</time></trkpt><trkpt lat="43.77708075930763" lon="10.917639548066258"><ele>39.0</ele><time>2026-04-05T14:56:36Z</time></trkpt><trkpt lat="43.776905943917974" lon="10.91768007880015"><ele>39.0</ele><time>2026-04-05T14:56:37Z</time></trkpt><trkpt lat="43.776724243207" lon="10.917719837870733"><ele>39.0</ele><time>2026-04-05T14:56:38Z</time></trkpt><trkpt lat="43.77654434281248" lon="10.917758629730598"><ele>39.0</ele><time>2026-04-05T14:56:39Z</time></trkpt><trkpt lat="43.77637167404893" lon="10.917794436105481"><ele>39.0</ele><time>2026-04-05T14:56:40Z</time></trkpt><trkpt lat="43.77620181406539" lon="10.917827931032337"><ele>39.0</ele><time>2026-04-05T14:56:41Z</time></trkpt><trkpt lat="43.77603454781838" lon="10.917864146893764"><ele>39.0</ele><time>2026-04-05T14:56:42Z</time></trkpt><trkpt lat="43.775868523325585" lon="10.917902777803404"><ele>39.0</ele><time>2026-04-05T14:56:43Z</time></trkpt><trkpt lat="43.77569971045972" lon="10.917941731547511"><ele>38.666666666666664</ele><time>2026-04-05T14:56:44Z</time></trkpt><trkpt lat="43.77553219708109" lon="10.917983059767968"><ele>38.33333333333333</ele><time>2026-04-05T14:56:45Z</time></trkpt><trkpt lat="43.77536927051887" lon="10.918021149238054"><ele>38.0</ele><time>2026-04-05T14:56:46Z</time></trkpt><trkpt lat="43.775206180448336" lon="10.918053807640202"><ele>37.33333333333333</ele><time>2026-04-05T14:56:47Z</time></trkpt><trkpt lat="43.7750455677047" lon="10.918087458517862"><ele>36.666666666666664</ele><time>2026-04-05T14:56:48Z</time></trkpt><trkpt lat="43.774887595995594" lon="10.918120571190029"><ele>36.0</ele><time>2026-04-05T14:56:49Z</time></trkpt><trkpt lat="43.77473117117107" lon="10.9181517785425"><ele>36.0</ele><time>2026-04-05T14:56:50Z</time></trkpt><trkpt lat="43.77458132151046" lon="10.918185168222795"><ele>36.0</ele><time>2026-04-05T14:56:51Z</time></trkpt><trkpt lat="43.77444439636821" lon="10.9182173198426"><ele>36.0</ele><time>2026-04-05T14:56:52Z</time></trkpt><trkpt lat="43.77431444831506" lon="10.918251871651826"><ele>36.0</ele><time>2026-04-05T14:56:53Z</time></trkpt><trkpt lat="43.77419087720246" lon="10.918278960292811"><ele>36.0</ele><time>2026-04-05T14:56:54Z</time></trkpt><trkpt lat="43.77407479906341" lon="10.918303674410321"><ele>36.0</ele><time>2026-04-05T14:56:55Z</time></trkpt><trkpt lat="43.773970320468884" lon="10.918334937581115"><ele>36.0</ele><time>2026-04-05T14:56:56Z</time></trkpt><trkpt lat="43.77386875589167" lon="10.918373767607882"><ele>36.0</ele><time>2026-04-05T14:56:57Z</time></trkpt><trkpt lat="43.773776185271736" lon="10.91841696977471"><ele>36.0</ele><time>2026-04-05T14:56:58Z</time></trkpt><trkpt lat="43.77367714172548" lon="10.918464313596075"><ele>36.0</ele><time>2026-04-05T14:56:59Z</time></trkpt><trkpt lat="43.77356180504616" lon="10.918487297667355"><ele>36.0</ele><time>2026-04-05T14:57:00Z</time></trkpt><trkpt lat="43.77343469012509" lon="10.918503096524555"><ele>36.0</ele><time>2026-04-05T14:57:01Z</time></trkpt><trkpt lat="43.77330496657405" lon="10.918525283517962"><ele>36.0</ele><time>2026-04-05T14:57:02Z</time></trkpt><trkpt lat="43.77317421268537" lon="10.918529459396478"><ele>36.0</ele><time>2026-04-05T14:57:03Z</time></trkpt><trkpt lat="43.773048194684975" lon="10.918508422532247"><ele>36.0</ele><time>2026-04-05T14:57:04Z</time></trkpt><trkpt lat="43.77292240252325" lon="10.918502756472405"><ele>36.0</ele><time>2026-04-05T14:57:05Z</time></trkpt><trkpt lat="43.77279833388175" lon="10.918449312089445"><ele>36.0</ele><time>2026-04-05T14:57:06Z</time></trkpt><trkpt lat="43.77266599581687" lon="10.918431197691271"><ele>36.0</ele><time>2026-04-05T14:57:07Z</time></trkpt><trkpt lat="43.772532052864754" lon="10.918411492968511"><ele>36.0</ele><time>2026-04-05T14:57:08Z</time></trkpt><trkpt lat="43.77239943650903" lon="10.918389592900082"><ele>36.0</ele><time>2026-04-05T14:57:09Z</time></trkpt><trkpt lat="43.77226710727395" lon="10.918368760586615"><ele>36.0</ele><time>2026-04-05T14:57:10Z</time></trkpt><trkpt lat="43.77213539291548" lon="10.918346489442577"><ele>36.0</ele><time>2026-04-05T14:57:11Z</time></trkpt><trkpt lat="43.772001768259734" lon="10.918327957611059"><ele>36.0</ele><time>2026-04-05T14:57:12Z</time></trkpt><trkpt lat="43.77186642355724" lon="10.91830899928655"><ele>36.0</ele><time>2026-04-05T14:57:13Z</time></trkpt><trkpt lat="43.77172918034993" lon="10.918288107504928"><ele>36.0</ele><time>2026-04-05T14:57:14Z</time></trkpt><trkpt lat="43.77158944577964" lon="10.918265409474317"><ele>36.0</ele><time>2026-04-05T14:57:15Z</time></trkpt><trkpt lat="43.77144813009447" lon="10.918243241437875"><ele>36.0</ele><time>2026-04-05T14:57:16Z</time></trkpt><trkpt lat="43.771305081062245" lon="10.918222228881211"><ele>36.0</ele><time>2026-04-05T14:57:17Z</time></trkpt><trkpt lat="43.771159062036105" lon="10.918193990761424"><ele>36.0</ele><time>2026-04-05T14:57:18Z</time></trkpt><trkpt lat="43.77101400367552" lon="10.918174481312102"><ele>37.0</ele><time>2026-04-05T14:57:18.999Z</time></trkpt><trkpt lat="43.770863016235324" lon="10.91815331694111"><ele>38.0</ele><time>2026-04-05T14:57:19.999Z</time></trkpt><trkpt lat="43.770712463307895" lon="10.918131207020924"><ele>39.0</ele><time>2026-04-05T14:57:20.999Z</time></trkpt><trkpt lat="43.77056090816768" lon="10.918104689434093"><ele>39.0</ele><time>2026-04-05T14:57:21.999Z</time></trkpt><trkpt lat="43.770407667865534" lon="10.918079886462248"><ele>39.0</ele><time>2026-04-05T14:57:22.999Z</time></trkpt><trkpt lat="43.770256860388315" lon="10.918054253989343"><ele>39.0</ele><time>2026-04-05T14:57:23.999Z</time></trkpt><trkpt lat="43.770101843867224" lon="10.918030092708818"><ele>38.0</ele><time>2026-04-05T14:57:24.999Z</time></trkpt><trkpt lat="43.76994676711197" lon="10.918004972989255"><ele>37.0</ele><time>2026-04-05T14:57:25.999Z</time></trkpt><trkpt lat="43.76979182912508" lon="10.917980446265881"><ele>36.0</ele><time>2026-04-05T14:57:26.999Z</time></trkpt><trkpt lat="43.76963488198495" lon="10.91795835691903"><ele>36.0</ele><time>2026-04-05T14:57:27.999Z</time></trkpt><trkpt lat="43.769482213999844" lon="10.917930934349407"><ele>36.0</ele><time>2026-04-05T14:57:28.999Z</time></trkpt><trkpt lat="43.76932936381311" lon="10.917905556638296"><ele>36.0</ele><time>2026-04-05T14:57:29.999Z</time></trkpt><trkpt lat="43.769178072456945" lon="10.917880770570218"><ele>35.0</ele><time>2026-04-05T14:57:30.999Z</time></trkpt><trkpt lat="43.76902570966601" lon="10.917854420364506"><ele>34.0</ele><time>2026-04-05T14:57:31.999Z</time></trkpt><trkpt lat="43.76887564483107" lon="10.917830647119192"><ele>33.0</ele><time>2026-04-05T14:57:32.999Z</time></trkpt><trkpt lat="43.76872620072028" lon="10.917810771568243"><ele>33.0</ele><time>2026-04-05T14:57:33.999Z</time></trkpt><trkpt lat="43.76857766568561" lon="10.917790141625806"><ele>33.0</ele><time>2026-04-05T14:57:34.999Z</time></trkpt><trkpt lat="43.768427629790985" lon="10.917767504981242"><ele>33.0</ele><time>2026-04-05T14:57:35.999Z</time></trkpt><trkpt lat="43.76827620033098" lon="10.917744039779505"><ele>33.333333333333336</ele><time>2026-04-05T14:57:36.999Z</time></trkpt><trkpt lat="43.76812466186345" lon="10.917719228819127"><ele>33.66666666666667</ele><time>2026-04-05T14:57:37.999Z</time></trkpt><trkpt lat="43.76797100649119" lon="10.917694767400922"><ele>34.0</ele><time>2026-04-05T14:57:38.999Z</time></trkpt><trkpt lat="43.767818003667884" lon="10.917672969111369"><ele>34.66666666666667</ele><time>2026-04-05T14:57:39.999Z</time></trkpt><trkpt lat="43.76766172784717" lon="10.917652451380716"><ele>35.333333333333336</ele><time>2026-04-05T14:57:40.999Z</time></trkpt><trkpt lat="43.76750703756862" lon="10.917628636486338"><ele>36.0</ele><time>2026-04-05T14:57:41.999Z</time></trkpt><trkpt lat="43.767352017140055" lon="10.917602506548924"><ele>36.0</ele><time>2026-04-05T14:57:42.999Z</time></trkpt><trkpt lat="43.76719559734839" lon="10.91757743235817"><ele>36.0</ele><time>2026-04-05T14:57:43.999Z</time></trkpt><trkpt lat="43.76703955219966" lon="10.917553318646114"><ele>36.0</ele><time>2026-04-05T14:57:44.999Z</time></trkpt><trkpt lat="43.766883416303514" lon="10.91752848360463"><ele>36.0</ele><time>2026-04-05T14:57:45.999Z</time></trkpt><trkpt lat="43.76672866580449" lon="10.917506421786877"><ele>36.0</ele><time>2026-04-05T14:57:46.999Z</time></trkpt><trkpt lat="43.76657529445437" lon="10.917484584213378"><ele>36.0</ele><time>2026-04-05T14:57:47.999Z</time></trkpt><trkpt lat="43.76642259726034" lon="10.917460987407786"><ele>36.0</ele><time>2026-04-05T14:57:48.999Z</time></trkpt><trkpt lat="43.766269239290715" lon="10.917434965660586"><ele>36.0</ele><time>2026-04-05T14:57:49.999Z</time></trkpt><trkpt lat="43.76611554972785" lon="10.917411633698082"><ele>36.0</ele><time>2026-04-05T14:57:50.999Z</time></trkpt><trkpt lat="43.76596004622807" lon="10.917388065854292"><ele>35.333333333333336</ele><time>2026-04-05T14:57:51.999Z</time></trkpt><trkpt lat="43.76580458786401" lon="10.917362411917821"><ele>34.66666666666667</ele><time>2026-04-05T14:57:52.999Z</time></trkpt><trkpt lat="43.76564686576517" lon="10.917339896856987"><ele>34.0</ele><time>2026-04-05T14:57:53.999Z</time></trkpt><trkpt lat="43.76548983695365" lon="10.917314428750878"><ele>34.0</ele><time>2026-04-05T14:57:54.999Z</time></trkpt><trkpt lat="43.765334056291366" lon="10.917284200762664"><ele>34.0</ele><time>2026-04-05T14:57:55.999Z</time></trkpt><trkpt lat="43.76517826078559" lon="10.917259038084394"><ele>34.0</ele><time>2026-04-05T14:57:56.999Z</time></trkpt><trkpt lat="43.76502271141973" lon="10.917236006783583"><ele>34.0</ele><time>2026-04-05T14:57:57.999Z</time></trkpt><trkpt lat="43.764865144065865" lon="10.917212062168414"><ele>34.0</ele><time>2026-04-05T14:57:58.999Z</time></trkpt><trkpt lat="43.76470908017185" lon="10.917187504219678"><ele>34.0</ele><time>2026-04-05T14:57:59.999Z</time></trkpt><trkpt lat="43.76455373191645" lon="10.917157610284551"><ele>34.0</ele><time>2026-04-05T14:58:00.999Z</time></trkpt><trkpt lat="43.76439499349168" lon="10.917130624655433"><ele>34.0</ele><time>2026-04-05T14:58:01.999Z</time></trkpt><trkpt lat="43.76423706611266" lon="10.917088459955757"><ele>34.0</ele><time>2026-04-05T14:58:02.999Z</time></trkpt><trkpt lat="43.764082926729984" lon="10.917029711798472"><ele>34.66666666666667</ele><time>2026-04-05T14:58:03.999Z</time></trkpt><trkpt lat="43.76392976051555" lon="10.916956951864455"><ele>35.333333333333336</ele><time>2026-04-05T14:58:04.999Z</time></trkpt><trkpt lat="43.76377973362904" lon="10.916868935151465"><ele>36.0</ele><time>2026-04-05T14:58:05.999Z</time></trkpt><trkpt lat="43.76363487834023" lon="10.916763768836867"><ele>35.0</ele><time>2026-04-05T14:58:06.999Z</time></trkpt><trkpt lat="43.763497547078245" lon="10.91664176063673"><ele>34.0</ele><time>2026-04-05T14:58:07.999Z</time></trkpt><trkpt lat="43.76336721473174" lon="10.91650726489882"><ele>33.0</ele><time>2026-04-05T14:58:08.999Z</time></trkpt><trkpt lat="43.76324242916529" lon="10.916361415732075"><ele>33.0</ele><time>2026-04-05T14:58:09.999Z</time></trkpt><trkpt lat="43.763124290051486" lon="10.916202199138803"><ele>33.0</ele><time>2026-04-05T14:58:10.999Z</time></trkpt><trkpt lat="43.76301429614131" lon="10.916030280808265"><ele>33.0</ele><time>2026-04-05T14:58:11.999Z</time></trkpt><trkpt lat="43.76290952684176" lon="10.91585511915901"><ele>32.666666666666664</ele><time>2026-04-05T14:58:12.999Z</time></trkpt><trkpt lat="43.76280170217364" lon="10.915680520180196"><ele>32.33333333333333</ele><time>2026-04-05T14:58:13.998Z</time></trkpt><trkpt lat="43.762695985419676" lon="10.915506156952873"><ele>32.0</ele><time>2026-04-05T14:58:14.998Z</time></trkpt><trkpt lat="43.76258942127524" lon="10.915333849534592"><ele>32.33333333333333</ele><time>2026-04-05T14:58:15.998Z</time></trkpt><trkpt lat="43.7624839066048" lon="10.915163925795058"><ele>32.666666666666664</ele><time>2026-04-05T14:58:16.998Z</time></trkpt><trkpt lat="43.76237764119436" lon="10.914995366194907"><ele>33.0</ele><time>2026-04-05T14:58:17.998Z</time></trkpt><trkpt lat="43.76227456181808" lon="10.91482320582286"><ele>33.0</ele><time>2026-04-05T14:58:18.998Z</time></trkpt><trkpt lat="43.762174069689856" lon="10.914651303355983"><ele>33.0</ele><time>2026-04-05T14:58:19.998Z</time></trkpt><trkpt lat="43.7620759009487" lon="10.91448440363379"><ele>33.0</ele><time>2026-04-05T14:58:20.998Z</time></trkpt><trkpt lat="43.76197566396152" lon="10.914319532365903"><ele>32.666666666666664</ele><time>2026-04-05T14:58:21.998Z</time></trkpt><trkpt lat="43.76187658966737" lon="10.914152513974889"><ele>32.33333333333333</ele><time>2026-04-05T14:58:22.998Z</time></trkpt><trkpt lat="43.76177509316617" lon="10.913986594971073"><ele>32.0</ele><time>2026-04-05T14:58:23.998Z</time></trkpt><trkpt lat="43.761674521658215" lon="10.913821442473585"><ele>32.0</ele><time>2026-04-05T14:58:24.998Z</time></trkpt><trkpt lat="43.761571588607374" lon="10.913658361476143"><ele>32.0</ele><time>2026-04-05T14:58:25.998Z</time></trkpt><trkpt lat="43.76147268044141" lon="10.913491046400292"><ele>32.0</ele><time>2026-04-05T14:58:26.998Z</time></trkpt><trkpt lat="43.76137162473589" lon="10.913324939701996"><ele>31.666666666666664</ele><time>2026-04-05T14:58:27.998Z</time></trkpt><trkpt lat="43.76126955856155" lon="10.913162379491512"><ele>31.333333333333336</ele><time>2026-04-05T14:58:28.998Z</time></trkpt><trkpt lat="43.76116914300482" lon="10.912994854646604"><ele>31.0</ele><time>2026-04-05T14:58:29.998Z</time></trkpt><trkpt lat="43.76106805037263" lon="10.912829223850197"><ele>31.0</ele><time>2026-04-05T14:58:30.998Z</time></trkpt><trkpt lat="43.760965426357956" lon="10.912666274642353"><ele>31.0</ele><time>2026-04-05T14:58:31.998Z</time></trkpt><trkpt lat="43.76086379122665" lon="10.912501015730413"><ele>31.0</ele><time>2026-04-05T14:58:32.998Z</time></trkpt><trkpt lat="43.760763271014746" lon="10.91233445117635"><ele>31.0</ele><time>2026-04-05T14:58:33.998Z</time></trkpt><trkpt lat="43.760662405780174" lon="10.912167356310416"><ele>31.0</ele><time>2026-04-05T14:58:34.998Z</time></trkpt><trkpt lat="43.76055956412322" lon="10.91200106412833"><ele>31.0</ele><time>2026-04-05T14:58:35.998Z</time></trkpt><trkpt lat="43.76045910808615" lon="10.911835409782439"><ele>30.666666666666668</ele><time>2026-04-05T14:58:36.998Z</time></trkpt><trkpt lat="43.76035968971285" lon="10.91166604005155"><ele>30.333333333333336</ele><time>2026-04-05T14:58:37.998Z</time></trkpt><trkpt lat="43.760259533188425" lon="10.911502920756178"><ele>30.0</ele><time>2026-04-05T14:58:38.998Z</time></trkpt><trkpt lat="43.76015704297207" lon="10.911337026887841"><ele>30.333333333333336</ele><time>2026-04-05T14:58:40Z</time></trkpt><trkpt lat="43.7600554730107" lon="10.911174860076377"><ele>30.666666666666668</ele><time>2026-04-05T14:58:41Z</time></trkpt><trkpt lat="43.75995416646913" lon="10.91101314353808"><ele>31.0</ele><time>2026-04-05T14:58:42Z</time></trkpt><trkpt lat="43.75985529862418" lon="10.91085221032438"><ele>31.0</ele><time>2026-04-05T14:58:43Z</time></trkpt><trkpt lat="43.75975855038976" lon="10.910690105711828"><ele>31.0</ele><time>2026-04-05T14:58:44Z</time></trkpt><trkpt lat="43.75966408788385" lon="10.910530911871975"><ele>31.0</ele><time>2026-04-05T14:58:45Z</time></trkpt><trkpt lat="43.7595694881534" lon="10.910374921265431"><ele>31.0</ele><time>2026-04-05T14:58:46Z</time></trkpt><trkpt lat="43.75947673866401" lon="10.910218613266245"><ele>31.0</ele><time>2026-04-05T14:58:47Z</time></trkpt><trkpt lat="43.7593866304532" lon="10.91007065894618"><ele>31.0</ele><time>2026-04-05T14:58:48Z</time></trkpt><trkpt lat="43.75930333668511" lon="10.909940553795744"><ele>31.0</ele><time>2026-04-05T14:58:49Z</time></trkpt><trkpt lat="43.75923412608382" lon="10.909825853969274"><ele>31.0</ele><time>2026-04-05T14:58:50Z</time></trkpt><trkpt lat="43.75916916861542" lon="10.909713155825038"><ele>31.0</ele><time>2026-04-05T14:58:51Z</time></trkpt><trkpt lat="43.75909651160782" lon="10.909600404236476"><ele>31.0</ele><time>2026-04-05T14:58:52Z</time></trkpt><trkpt lat="43.75902327351164" lon="10.909483868286202"><ele>31.0</ele><time>2026-04-05T14:58:53Z</time></trkpt><trkpt lat="43.75895107601267" lon="10.90936107893641"><ele>31.0</ele><time>2026-04-05T14:58:54Z</time></trkpt><trkpt lat="43.758877442043534" lon="10.90923510202385"><ele>30.75</ele><time>2026-04-05T14:58:55Z</time></trkpt><trkpt lat="43.75880092477004" lon="10.909111951536984"><ele>30.5</ele><time>2026-04-05T14:58:56Z</time></trkpt><trkpt lat="43.75872408805705" lon="10.908984857173024"><ele>30.25</ele><time>2026-04-05T14:58:57Z</time></trkpt><trkpt lat="43.75864661727014" lon="10.908855006345254"><ele>30.0</ele><time>2026-04-05T14:58:58Z</time></trkpt><trkpt lat="43.75856614573985" lon="10.908721825278395"><ele>30.25</ele><time>2026-04-05T14:58:59Z</time></trkpt><trkpt lat="43.75848562680644" lon="10.908586920894024"><ele>30.5</ele><time>2026-04-05T14:59:00Z</time></trkpt><trkpt lat="43.75840424949392" lon="10.908457052944053"><ele>30.75</ele><time>2026-04-05T14:59:01Z</time></trkpt><trkpt lat="43.758319062803864" lon="10.908305952306542"><ele>31.0</ele><time>2026-04-05T14:59:02Z</time></trkpt><trkpt lat="43.75823075610042" lon="10.908164981162734"><ele>31.0</ele><time>2026-04-05T14:59:03Z</time></trkpt><trkpt lat="43.75814251219532" lon="10.90802240636974"><ele>31.0</ele><time>2026-04-05T14:59:04Z</time></trkpt><trkpt lat="43.75805574582507" lon="10.907882324668261"><ele>31.0</ele><time>2026-04-05T14:59:05Z</time></trkpt><trkpt lat="43.75796523611603" lon="10.907747567896957"><ele>31.0</ele><time>2026-04-05T14:59:06Z</time></trkpt><trkpt lat="43.75786774293354" lon="10.907625961779447"><ele>31.0</ele><time>2026-04-05T14:59:07Z</time></trkpt><trkpt lat="43.75776213639071" lon="10.90752049155208"><ele>31.0</ele><time>2026-04-05T14:59:08Z</time></trkpt><trkpt lat="43.75765186594021" lon="10.90743106058935"><ele>31.0</ele><time>2026-04-05T14:59:09Z</time></trkpt><trkpt lat="43.75754028976488" lon="10.907362979065875"><ele>31.0</ele><time>2026-04-05T14:59:10Z</time></trkpt><trkpt lat="43.757422870307714" lon="10.907299443470526"><ele>30.75</ele><time>2026-04-05T14:59:11Z</time></trkpt><trkpt lat="43.75730573060428" lon="10.907246101894911"><ele>30.5</ele><time>2026-04-05T14:59:12Z</time></trkpt><trkpt lat="43.75719445198296" lon="10.907201594783828"><ele>30.25</ele><time>2026-04-05T14:59:13Z</time></trkpt><trkpt lat="43.75707790237329" lon="10.907154918394182"><ele>30.0</ele><time>2026-04-05T14:59:14Z</time></trkpt><trkpt lat="43.756960614056226" lon="10.90710606411706"><ele>30.25</ele><time>2026-04-05T14:59:15Z</time></trkpt><trkpt lat="43.756843143620365" lon="10.907056676757831"><ele>30.5</ele><time>2026-04-05T14:59:16Z</time></trkpt><trkpt lat="43.756723951921735" lon="10.90700921452141"><ele>30.75</ele><time>2026-04-05T14:59:17Z</time></trkpt><trkpt lat="43.75660265722513" lon="10.906960949262038"><ele>31.0</ele><time>2026-04-05T14:59:18Z</time></trkpt><trkpt lat="43.75648021861335" lon="10.906911205218526"><ele>31.0</ele><time>2026-04-05T14:59:19Z</time></trkpt><trkpt lat="43.75635911399887" lon="10.906860774244455"><ele>31.0</ele><time>2026-04-05T14:59:20Z</time></trkpt><trkpt lat="43.75623657550393" lon="10.906808408422837"><ele>31.0</ele><time>2026-04-05T14:59:21Z</time></trkpt><trkpt lat="43.75611226703168" lon="10.90675683135169"><ele>31.0</ele><time>2026-04-05T14:59:22Z</time></trkpt><trkpt lat="43.7559863533339" lon="10.906706784169195"><ele>30.5</ele><time>2026-04-05T14:59:22.999Z</time></trkpt><trkpt lat="43.75585913897581" lon="10.906657946048"><ele>30.0</ele><time>2026-04-05T14:59:23.999Z</time></trkpt><trkpt lat="43.75573039996035" lon="10.906605880991304"><ele>29.5</ele><time>2026-04-05T14:59:24.999Z</time></trkpt><trkpt lat="43.75560275564604" lon="10.906550674181002"><ele>29.0</ele><time>2026-04-05T14:59:25.999Z</time></trkpt><trkpt lat="43.75547082439068" lon="10.906496704064198"><ele>29.0</ele><time>2026-04-05T14:59:26.999Z</time></trkpt><trkpt lat="43.75533709868799" lon="10.906443018395576"><ele>29.0</ele><time>2026-04-05T14:59:27.999Z</time></trkpt><trkpt lat="43.755205016978415" lon="10.90638573149319"><ele>29.0</ele><time>2026-04-05T14:59:28.999Z</time></trkpt><trkpt lat="43.75507087377901" lon="10.906330564752853"><ele>29.0</ele><time>2026-04-05T14:59:29.999Z</time></trkpt><trkpt lat="43.75493555209746" lon="10.90627609145005"><ele>28.75</ele><time>2026-04-05T14:59:30.999Z</time></trkpt><trkpt lat="43.75480173537701" lon="10.906223671028334"><ele>28.5</ele><time>2026-04-05T14:59:31.999Z</time></trkpt><trkpt lat="43.75466911619414" lon="10.90617072056558"><ele>28.25</ele><time>2026-04-05T14:59:32.999Z</time></trkpt><trkpt lat="43.75453813263408" lon="10.906117211182055"><ele>28.0</ele><time>2026-04-05T14:59:33.999Z</time></trkpt><trkpt lat="43.75440888923762" lon="10.906065417254082"><ele>28.25</ele><time>2026-04-05T14:59:34.999Z</time></trkpt><trkpt lat="43.754280921398404" lon="10.906011971845702"><ele>28.5</ele><time>2026-04-05T14:59:35.999Z</time></trkpt><trkpt lat="43.75415371596734" lon="10.90595576014673"><ele>28.75</ele><time>2026-04-05T14:59:36.999Z</time></trkpt><trkpt lat="43.754027837844575" lon="10.905903954242996"><ele>29.0</ele><time>2026-04-05T14:59:37.999Z</time></trkpt><trkpt lat="43.75390329956793" lon="10.905853507778229"><ele>29.25</ele><time>2026-04-05T14:59:38.999Z</time></trkpt><trkpt lat="43.75377881759574" lon="10.905802606281236"><ele>29.5</ele><time>2026-04-05T14:59:39.999Z</time></trkpt><trkpt lat="43.753651703035835" lon="10.905749889752798"><ele>29.75</ele><time>2026-04-05T14:59:40.999Z</time></trkpt><trkpt lat="43.75352438817465" lon="10.905696538926147"><ele>30.0</ele><time>2026-04-05T14:59:41.999Z</time></trkpt><trkpt lat="43.753395785100075" lon="10.905643438615797"><ele>30.25</ele><time>2026-04-05T14:59:42.999Z</time></trkpt><trkpt lat="43.7532648107178" lon="10.905589387107804"><ele>30.5</ele><time>2026-04-05T14:59:43.999Z</time></trkpt><trkpt lat="43.75313289526552" lon="10.905537081456075"><ele>30.75</ele><time>2026-04-05T14:59:44.999Z</time></trkpt><trkpt lat="43.7530014886834" lon="10.905480943376139"><ele>31.0</ele><time>2026-04-05T14:59:45.999Z</time></trkpt><trkpt lat="43.752868176744215" lon="10.905426008908316"><ele>31.0</ele><time>2026-04-05T14:59:46.999Z</time></trkpt><trkpt lat="43.752736888732116" lon="10.905372046090323"><ele>31.0</ele><time>2026-04-05T14:59:47.999Z</time></trkpt><trkpt lat="43.75260307184519" lon="10.905318239198387"><ele>31.0</ele><time>2026-04-05T14:59:48.999Z</time></trkpt><trkpt lat="43.75247459297237" lon="10.905261621798337"><ele>31.0</ele><time>2026-04-05T14:59:49.999Z</time></trkpt><trkpt lat="43.75234241571356" lon="10.905205298751232"><ele>30.75</ele><time>2026-04-05T14:59:50.999Z</time></trkpt><trkpt lat="43.75220881054705" lon="10.9051542757466"><ele>30.5</ele><time>2026-04-05T14:59:51.999Z</time></trkpt><trkpt lat="43.75207803914803" lon="10.90510331368164"><ele>30.25</ele><time>2026-04-05T14:59:52.999Z</time></trkpt><trkpt lat="43.751949064610734" lon="10.905049387541695"><ele>30.0</ele><time>2026-04-05T14:59:53.999Z</time></trkpt><trkpt lat="43.75182110563225" lon="10.904997405033251"><ele>29.75</ele><time>2026-04-05T14:59:54.999Z</time></trkpt><trkpt lat="43.75169828377751" lon="10.904943636559985"><ele>29.5</ele><time>2026-04-05T14:59:55.999Z</time></trkpt><trkpt lat="43.75157857938477" lon="10.904891175361026"><ele>29.25</ele><time>2026-04-05T14:59:56.999Z</time></trkpt><trkpt lat="43.751469211973294" lon="10.904849962968749"><ele>29.0</ele><time>2026-04-05T14:59:57.999Z</time></trkpt><trkpt lat="43.751361667167615" lon="10.904811745820293"><ele>29.0</ele><time>2026-04-05T14:59:58.999Z</time></trkpt><trkpt lat="43.751253578276305" lon="10.904761579207753"><ele>29.0</ele><time>2026-04-05T14:59:59.999Z</time></trkpt><trkpt lat="43.7511338029603" lon="10.904713989354368"><ele>29.0</ele><time>2026-04-05T15:00:00.999Z</time></trkpt><trkpt lat="43.75101657301677" lon="10.904663140668669"><ele>29.0</ele><time>2026-04-05T15:00:01.999Z</time></trkpt><trkpt lat="43.75089807381459" lon="10.904616846187508"><ele>29.5</ele><time>2026-04-05T15:00:02.999Z</time></trkpt><trkpt lat="43.750780702486644" lon="10.904568750513874"><ele>30.0</ele><time>2026-04-05T15:00:03.999Z</time></trkpt><trkpt lat="43.75065950544" lon="10.90452297045084"><ele>30.5</ele><time>2026-04-05T15:00:04.999Z</time></trkpt><trkpt lat="43.75053447931366" lon="10.90447464669454"><ele>31.0</ele><time>2026-04-05T15:00:05.999Z</time></trkpt><trkpt lat="43.75040804214736" lon="10.904423233666584"><ele>31.0</ele><time>2026-04-05T15:00:06.999Z</time></trkpt><trkpt lat="43.750279190896926" lon="10.904370268541154"><ele>31.0</ele><time>2026-04-05T15:00:07.999Z</time></trkpt><trkpt lat="43.75014954319499" lon="10.90431728550032"><ele>31.0</ele><time>2026-04-05T15:00:08.999Z</time></trkpt><trkpt lat="43.75001967471459" lon="10.904265433424271"><ele>31.0</ele><time>2026-04-05T15:00:09.999Z</time></trkpt><trkpt lat="43.74988970905297" lon="10.904212393669448"><ele>31.25</ele><time>2026-04-05T15:00:10.999Z</time></trkpt><trkpt lat="43.749759685786756" lon="10.904159765758552"><ele>31.5</ele><time>2026-04-05T15:00:11.999Z</time></trkpt><trkpt lat="43.74963058124283" lon="10.904102695977546"><ele>31.75</ele><time>2026-04-05T15:00:12.999Z</time></trkpt><trkpt lat="43.74949870111264" lon="10.904052963728368"><ele>32.0</ele><time>2026-04-05T15:00:13.999Z</time></trkpt><trkpt lat="43.74936782255998" lon="10.904001981894089"><ele>31.400000000000002</ele><time>2026-04-05T15:00:14.999Z</time></trkpt><trkpt lat="43.74924404720373" lon="10.903948293629782"><ele>30.800000000000004</ele><time>2026-04-05T15:00:15.999Z</time></trkpt><trkpt lat="43.7491297424931" lon="10.903905185352114"><ele>30.2</ele><time>2026-04-05T15:00:16.999Z</time></trkpt><trkpt lat="43.74903045365862" lon="10.903868539383303"><ele>29.6</ele><time>2026-04-05T15:00:17.998Z</time></trkpt><trkpt lat="43.748945035388466" lon="10.90383641169853"><ele>29.0</ele><time>2026-04-05T15:00:18.998Z</time></trkpt><trkpt lat="43.74884459401023" lon="10.903796870471629"><ele>29.0</ele><time>2026-04-05T15:00:19.998Z</time></trkpt><trkpt lat="43.74873948107077" lon="10.903749658920812"><ele>29.0</ele><time>2026-04-05T15:00:20.998Z</time></trkpt><trkpt lat="43.748633417571334" lon="10.903704973379899"><ele>29.0</ele><time>2026-04-05T15:00:21.998Z</time></trkpt><trkpt lat="43.74852496824835" lon="10.903662696854589"><ele>29.0</ele><time>2026-04-05T15:00:22.998Z</time></trkpt><trkpt lat="43.748415995633664" lon="10.903620677148167"><ele>29.0</ele><time>2026-04-05T15:00:23.998Z</time></trkpt><trkpt lat="43.74830285270648" lon="10.903572153571405"><ele>29.0</ele><time>2026-04-05T15:00:24.998Z</time></trkpt><trkpt lat="43.748184796787655" lon="10.90352123021605"><ele>29.0</ele><time>2026-04-05T15:00:25.998Z</time></trkpt><trkpt lat="43.74806507694982" lon="10.903474984261464"><ele>29.0</ele><time>2026-04-05T15:00:26.998Z</time></trkpt><trkpt lat="43.747945421567195" lon="10.903425251711797"><ele>29.0</ele><time>2026-04-05T15:00:27.998Z</time></trkpt><trkpt lat="43.74782610698266" lon="10.903372725083237"><ele>29.5</ele><time>2026-04-05T15:00:28.998Z</time></trkpt><trkpt lat="43.747705436863136" lon="10.903317508661107"><ele>30.0</ele><time>2026-04-05T15:00:29.998Z</time></trkpt><trkpt lat="43.74758027893985" lon="10.903266126994634"><ele>30.5</ele><time>2026-04-05T15:00:30.998Z</time></trkpt><trkpt lat="43.74745778175898" lon="10.903215724960704"><ele>31.0</ele><time>2026-04-05T15:00:31.998Z</time></trkpt><trkpt lat="43.74733298648859" lon="10.903166790712623"><ele>31.0</ele><time>2026-04-05T15:00:32.998Z</time></trkpt><trkpt lat="43.74720823749632" lon="10.90311460151592"><ele>31.0</ele><time>2026-04-05T15:00:33.998Z</time></trkpt><trkpt lat="43.74708194907877" lon="10.903061756326283"><ele>31.0</ele><time>2026-04-05T15:00:34.998Z</time></trkpt><trkpt lat="43.746955986008786" lon="10.903009191206989"><ele>31.0</ele><time>2026-04-05T15:00:35.998Z</time></trkpt><trkpt lat="43.74682928268649" lon="10.902955636674372"><ele>30.5</ele><time>2026-04-05T15:00:36.998Z</time></trkpt><trkpt lat="43.74670111070723" lon="10.902902050934987"><ele>30.0</ele><time>2026-04-05T15:00:37.998Z</time></trkpt><trkpt lat="43.74657621101574" lon="10.902848797534693"><ele>29.5</ele><time>2026-04-05T15:00:38.998Z</time></trkpt><trkpt lat="43.74645187612838" lon="10.902800182496486"><ele>29.0</ele><time>2026-04-05T15:00:39.998Z</time></trkpt><trkpt lat="43.74633081506743" lon="10.902754557845443"><ele>29.0</ele><time>2026-04-05T15:00:40.998Z</time></trkpt><trkpt lat="43.74620617010713" lon="10.902705116578478"><ele>29.0</ele><time>2026-04-05T15:00:41.998Z</time></trkpt><trkpt lat="43.746085779562456" lon="10.90265506281622"><ele>29.0</ele><time>2026-04-05T15:00:42.998Z</time></trkpt><trkpt lat="43.74596472827538" lon="10.902607032263049"><ele>29.0</ele><time>2026-04-05T15:00:43.998Z</time></trkpt><trkpt lat="43.74584429830243" lon="10.902560685933853"><ele>29.0</ele><time>2026-04-05T15:00:44.998Z</time></trkpt><trkpt lat="43.74572313348268" lon="10.902508907960952"><ele>29.0</ele><time>2026-04-05T15:00:46Z</time></trkpt><trkpt lat="43.745604606509474" lon="10.902459202309357"><ele>29.0</ele><time>2026-04-05T15:00:47Z</time></trkpt><trkpt lat="43.745492815405164" lon="10.902415376760503"><ele>29.0</ele><time>2026-04-05T15:00:48Z</time></trkpt><trkpt lat="43.745388436793014" lon="10.902374622096078"><ele>29.0</ele><time>2026-04-05T15:00:49Z</time></trkpt><trkpt lat="43.745288674440076" lon="10.902330609224274"><ele>29.0</ele><time>2026-04-05T15:00:50Z</time></trkpt><trkpt lat="43.7451867207076" lon="10.902286624354234"><ele>29.0</ele><time>2026-04-05T15:00:51Z</time></trkpt><trkpt lat="43.74507560775678" lon="10.902240942273513"><ele>29.0</ele><time>2026-04-05T15:00:52Z</time></trkpt><trkpt lat="43.74496305995533" lon="10.902198870053063"><ele>29.0</ele><time>2026-04-05T15:00:53Z</time></trkpt><trkpt lat="43.74484736055748" lon="10.902152339523358"><ele>29.25</ele><time>2026-04-05T15:00:54Z</time></trkpt><trkpt lat="43.74473062306333" lon="10.902107519990645"><ele>29.5</ele><time>2026-04-05T15:00:55Z</time></trkpt><trkpt lat="43.744612167643815" lon="10.902063032693635"><ele>29.75</ele><time>2026-04-05T15:00:56Z</time></trkpt><trkpt lat="43.74449487543255" lon="10.902018790500826"><ele>30.0</ele><time>2026-04-05T15:00:57Z</time></trkpt><trkpt lat="43.744377217275044" lon="10.901972207390314"><ele>29.5</ele><time>2026-04-05T15:00:58Z</time></trkpt><trkpt lat="43.74425974828229" lon="10.901913746008988"><ele>29.0</ele><time>2026-04-05T15:00:59Z</time></trkpt><trkpt lat="43.74414398933823" lon="10.901864541630427"><ele>28.5</ele><time>2026-04-05T15:01:00Z</time></trkpt><trkpt lat="43.7440294799108" lon="10.901820373919985"><ele>28.0</ele><time>2026-04-05T15:01:01Z</time></trkpt><trkpt lat="43.74391389332504" lon="10.901769418908293"><ele>27.75</ele><time>2026-04-05T15:01:02Z</time></trkpt><trkpt lat="43.74379280571809" lon="10.90172660253513"><ele>27.5</ele><time>2026-04-05T15:01:03Z</time></trkpt><trkpt lat="43.74367613482346" lon="10.901680756008506"><ele>27.25</ele><time>2026-04-05T15:01:04Z</time></trkpt><trkpt lat="43.743563761556615" lon="10.901638979429112"><ele>27.0</ele><time>2026-04-05T15:01:05Z</time></trkpt><trkpt lat="43.74345467757844" lon="10.901590505856001"><ele>27.0</ele><time>2026-04-05T15:01:06Z</time></trkpt><trkpt lat="43.74335473253624" lon="10.901554296661333"><ele>27.000000000000004</ele><time>2026-04-05T15:01:07Z</time></trkpt><trkpt lat="43.743262774349205" lon="10.901525013796565"><ele>27.000000000000004</ele><time>2026-04-05T15:01:08Z</time></trkpt><trkpt lat="43.74318133111738" lon="10.901494002286926"><ele>27.0</ele><time>2026-04-05T15:01:09Z</time></trkpt><trkpt lat="43.74311026276049" lon="10.901463042175848"><ele>27.0</ele><time>2026-04-05T15:01:10Z</time></trkpt><trkpt lat="43.74301030770559" lon="10.90138917948713"><ele>27.0</ele><time>2026-04-05T15:01:12Z</time></trkpt><trkpt lat="43.742915910591485" lon="10.90126899716181"><ele>27.000000000000004</ele><time>2026-04-05T15:01:14Z</time></trkpt><trkpt lat="43.74285122780942" lon="10.901211660279788"><ele>27.000000000000004</ele><time>2026-04-05T15:01:15Z</time></trkpt><trkpt lat="43.74277166588206" lon="10.901160060712716"><ele>27.0</ele><time>2026-04-05T15:01:16Z</time></trkpt><trkpt lat="43.74268050631616" lon="10.901167672857982"><ele>27.0</ele><time>2026-04-05T15:01:17Z</time></trkpt><trkpt lat="43.742581650431546" lon="10.901201412722093"><ele>27.400000000000002</ele><time>2026-04-05T15:01:18Z</time></trkpt><trkpt lat="43.74249185802166" lon="10.90123961188725"><ele>27.800000000000004</ele><time>2026-04-05T15:01:19Z</time></trkpt><trkpt lat="43.742405314379965" lon="10.901266636977986"><ele>28.2</ele><time>2026-04-05T15:01:20Z</time></trkpt><trkpt lat="43.7423102401795" lon="10.901293203920776"><ele>28.6</ele><time>2026-04-05T15:01:21Z</time></trkpt><trkpt lat="43.74221354670971" lon="10.901325274450661"><ele>29.0</ele><time>2026-04-05T15:01:22Z</time></trkpt><trkpt lat="43.74211399145105" lon="10.90135672302215"><ele>29.0</ele><time>2026-04-05T15:01:23Z</time></trkpt><trkpt lat="43.74202240230122" lon="10.901420362682648"><ele>29.0</ele><time>2026-04-05T15:01:24Z</time></trkpt><trkpt lat="43.741920475752075" lon="10.901419838502289"><ele>29.0</ele><time>2026-04-05T15:01:25Z</time></trkpt><trkpt lat="43.74182552254478" lon="10.901452299852078"><ele>29.0</ele><time>2026-04-05T15:01:26Z</time></trkpt><trkpt lat="43.741725835777984" lon="10.901484347893524"><ele>29.0</ele><time>2026-04-05T15:01:27Z</time></trkpt><trkpt lat="43.74162292422402" lon="10.901516708217512"><ele>29.0</ele><time>2026-04-05T15:01:27.999Z</time></trkpt><trkpt lat="43.741516550321464" lon="10.901551291215062"><ele>29.0</ele><time>2026-04-05T15:01:28.999Z</time></trkpt><trkpt lat="43.741409455014285" lon="10.901589094602786"><ele>29.0</ele><time>2026-04-05T15:01:29.999Z</time></trkpt><trkpt lat="43.74129319370994" lon="10.901628294514227"><ele>29.0</ele><time>2026-04-05T15:01:30.999Z</time></trkpt><trkpt lat="43.74117167742923" lon="10.9016682602378"><ele>29.25</ele><time>2026-04-05T15:01:31.999Z</time></trkpt><trkpt lat="43.74104627974184" lon="10.90170808321787"><ele>29.5</ele><time>2026-04-05T15:01:32.999Z</time></trkpt><trkpt lat="43.74092464603779" lon="10.901748397898848"><ele>29.75</ele><time>2026-04-05T15:01:33.999Z</time></trkpt><trkpt lat="43.74079893627857" lon="10.901788320529274"><ele>30.0</ele><time>2026-04-05T15:01:34.999Z</time></trkpt><trkpt lat="43.74066298376936" lon="10.901831775246963"><ele>30.0</ele><time>2026-04-05T15:01:35.999Z</time></trkpt><trkpt lat="43.74052560696957" lon="10.901876269110465"><ele>30.0</ele><time>2026-04-05T15:01:36.999Z</time></trkpt><trkpt lat="43.74039608226498" lon="10.901919352657023"><ele>30.0</ele><time>2026-04-05T15:01:37.999Z</time></trkpt><trkpt lat="43.7402719789627" lon="10.901961432571516"><ele>30.0</ele><time>2026-04-05T15:01:38.999Z</time></trkpt><trkpt lat="43.740148715415934" lon="10.902001609602943"><ele>30.75</ele><time>2026-04-05T15:01:39.999Z</time></trkpt><trkpt lat="43.740025866476834" lon="10.902043398048558"><ele>31.5</ele><time>2026-04-05T15:01:40.999Z</time></trkpt><trkpt lat="43.7398977266252" lon="10.902082334737061"><ele>32.25</ele><time>2026-04-05T15:01:41.999Z</time></trkpt><trkpt lat="43.73976892654351" lon="10.902123585408342"><ele>33.0</ele><time>2026-04-05T15:01:42.999Z</time></trkpt><trkpt lat="43.739637115254645" lon="10.902159902074349"><ele>33.0</ele><time>2026-04-05T15:01:43.999Z</time></trkpt><trkpt lat="43.739506610025316" lon="10.902196718256477"><ele>33.0</ele><time>2026-04-05T15:01:44.999Z</time></trkpt><trkpt lat="43.73937484504482" lon="10.902232117987552"><ele>33.0</ele><time>2026-04-05T15:01:45.999Z</time></trkpt><trkpt lat="43.7392412726048" lon="10.902264716618392"><ele>33.0</ele><time>2026-04-05T15:01:46.999Z</time></trkpt><trkpt lat="43.73910852276157" lon="10.9022902888244"><ele>32.25</ele><time>2026-04-05T15:01:47.999Z</time></trkpt><trkpt lat="43.73897458330242" lon="10.902309000687085"><ele>31.5</ele><time>2026-04-05T15:01:48.999Z</time></trkpt><trkpt lat="43.738838463219864" lon="10.902323097140991"><ele>30.75</ele><time>2026-04-05T15:01:49.999Z</time></trkpt><trkpt lat="43.73870292910626" lon="10.902337202691207"><ele>30.0</ele><time>2026-04-05T15:01:50.999Z</time></trkpt><trkpt lat="43.73856484082845" lon="10.902349672107128"><ele>29.5</ele><time>2026-04-05T15:01:51.999Z</time></trkpt><trkpt lat="43.73842786429372" lon="10.902362963786238"><ele>29.0</ele><time>2026-04-05T15:01:52.999Z</time></trkpt><trkpt lat="43.73829311048109" lon="10.902372880365503"><ele>28.5</ele><time>2026-04-05T15:01:53.999Z</time></trkpt><trkpt lat="43.73816056098825" lon="10.902382639052526"><ele>28.0</ele><time>2026-04-05T15:01:54.999Z</time></trkpt><trkpt lat="43.73802802558873" lon="10.902396971638748"><ele>28.0</ele><time>2026-04-05T15:01:55.999Z</time></trkpt><trkpt lat="43.73789782977172" lon="10.902410760492378"><ele>28.0</ele><time>2026-04-05T15:01:56.999Z</time></trkpt><trkpt lat="43.73776771310667" lon="10.902423466592001"><ele>28.0</ele><time>2026-04-05T15:01:57.999Z</time></trkpt><trkpt lat="43.737641245129154" lon="10.902435000218192"><ele>28.0</ele><time>2026-04-05T15:01:58.999Z</time></trkpt><trkpt lat="43.73751770106798" lon="10.902448029429548"><ele>27.799999999999997</ele><time>2026-04-05T15:01:59.999Z</time></trkpt><trkpt lat="43.737398896083036" lon="10.902461647603104"><ele>27.599999999999998</ele><time>2026-04-05T15:02:00.999Z</time></trkpt><trkpt lat="43.73728471108214" lon="10.902472729015775"><ele>27.400000000000002</ele><time>2026-04-05T15:02:01.999Z</time></trkpt><trkpt lat="43.73717554998289" lon="10.902485615833472"><ele>27.200000000000003</ele><time>2026-04-05T15:02:02.999Z</time></trkpt><trkpt lat="43.73707338234103" lon="10.902500757058581"><ele>27.0</ele><time>2026-04-05T15:02:03.999Z</time></trkpt><trkpt lat="43.736981061186576" lon="10.902512117783894"><ele>27.0</ele><time>2026-04-05T15:02:04.999Z</time></trkpt><trkpt lat="43.73689574280437" lon="10.902520937476007"><ele>27.0</ele><time>2026-04-05T15:02:05.999Z</time></trkpt><trkpt lat="43.73681871721879" lon="10.902524668758817"><ele>27.0</ele><time>2026-04-05T15:02:06.999Z</time></trkpt><trkpt lat="43.73674949445082" lon="10.902528385679666"><ele>27.0</ele><time>2026-04-05T15:02:07.999Z</time></trkpt><trkpt lat="43.736686393516365" lon="10.902530786636982"><ele>27.0</ele><time>2026-04-05T15:02:08.999Z</time></trkpt><trkpt lat="43.73660065932924" lon="10.902540108921972"><ele>27.0</ele><time>2026-04-05T15:02:10.999Z</time></trkpt><trkpt lat="43.73652216654514" lon="10.902527189944157"><ele>26.6</ele><time>2026-04-05T15:02:12.999Z</time></trkpt><trkpt lat="43.736446574290824" lon="10.90249940909804"><ele>26.200000000000003</ele><time>2026-04-05T15:02:14.999Z</time></trkpt><trkpt lat="43.73637488100562" lon="10.902452299543741"><ele>25.8</ele><time>2026-04-05T15:02:16.999Z</time></trkpt><trkpt lat="43.73629343179049" lon="10.902364894379877"><ele>25.4</ele><time>2026-04-05T15:02:18.999Z</time></trkpt><trkpt lat="43.73618894049257" lon="10.902288407744214"><ele>25.0</ele><time>2026-04-05T15:02:20.999Z</time></trkpt><trkpt lat="43.73606391096315" lon="10.902311917219484"><ele>25.000000000000004</ele><time>2026-04-05T15:02:22.998Z</time></trkpt><trkpt lat="43.736011196117545" lon="10.902377182875362"><ele>25.0</ele><time>2026-04-05T15:02:23.998Z</time></trkpt><trkpt lat="43.73597374118837" lon="10.902474297950576"><ele>25.0</ele><time>2026-04-05T15:02:24.998Z</time></trkpt><trkpt lat="43.735985884926635" lon="10.902602982298779"><ele>25.0</ele><time>2026-04-05T15:02:25.998Z</time></trkpt><trkpt lat="43.735955967329154" lon="10.902709278103563"><ele>25.000000000000004</ele><time>2026-04-05T15:02:26.998Z</time></trkpt><trkpt lat="43.73590682230564" lon="10.90280665936452"><ele>25.0</ele><time>2026-04-05T15:02:27.998Z</time></trkpt><trkpt lat="43.735860031310686" lon="10.902917932655571"><ele>25.0</ele><time>2026-04-05T15:02:28.998Z</time></trkpt><trkpt lat="43.73579256746604" lon="10.903018301212422"><ele>25.0</ele><time>2026-04-05T15:02:29.998Z</time></trkpt><trkpt lat="43.73572688186522" lon="10.903127944834893"><ele>25.0</ele><time>2026-04-05T15:02:30.998Z</time></trkpt><trkpt lat="43.73565916554941" lon="10.903245068778258"><ele>25.0</ele><time>2026-04-05T15:02:31.998Z</time></trkpt><trkpt lat="43.73559087570777" lon="10.903366867796217"><ele>25.0</ele><time>2026-04-05T15:02:32.998Z</time></trkpt><trkpt lat="43.735516025014306" lon="10.903499450451202"><ele>25.0</ele><time>2026-04-05T15:02:33.998Z</time></trkpt><trkpt lat="43.73545232931938" lon="10.903631702445054"><ele>25.0</ele><time>2026-04-05T15:02:34.998Z</time></trkpt><trkpt lat="43.73537148451893" lon="10.903753111921715"><ele>25.0</ele><time>2026-04-05T15:02:35.998Z</time></trkpt><trkpt lat="43.73529740101004" lon="10.90389295969475"><ele>25.0</ele><time>2026-04-05T15:02:36.998Z</time></trkpt><trkpt lat="43.73522135948994" lon="10.904035833143455"><ele>25.0</ele><time>2026-04-05T15:02:37.998Z</time></trkpt><trkpt lat="43.73514702015225" lon="10.904174754667144"><ele>25.0</ele><time>2026-04-05T15:02:38.998Z</time></trkpt><trkpt lat="43.73507634056864" lon="10.904317147777133"><ele>25.0</ele><time>2026-04-05T15:02:39.998Z</time></trkpt><trkpt lat="43.73500275562444" lon="10.904464211805875"><ele>25.0</ele><time>2026-04-05T15:02:40.998Z</time></trkpt><trkpt lat="43.73492882456342" lon="10.904607948933059"><ele>25.0</ele><time>2026-04-05T15:02:41.998Z</time></trkpt><trkpt lat="43.73485509671995" lon="10.90475209240102"><ele>25.0</ele><time>2026-04-05T15:02:42.998Z</time></trkpt><trkpt lat="43.73477997482535" lon="10.904898998641345"><ele>25.0</ele><time>2026-04-05T15:02:43.998Z</time></trkpt><trkpt lat="43.73470522898761" lon="10.905049666693047"><ele>25.0</ele><time>2026-04-05T15:02:44.998Z</time></trkpt><trkpt lat="43.73462600162223" lon="10.905199612130367"><ele>25.25</ele><time>2026-04-05T15:02:45.998Z</time></trkpt><trkpt lat="43.73454654360258" lon="10.905361586515788"><ele>25.5</ele><time>2026-04-05T15:02:46.998Z</time></trkpt><trkpt lat="43.734469303250904" lon="10.905522050156371"><ele>25.75</ele><time>2026-04-05T15:02:47.998Z</time></trkpt><trkpt lat="43.734390999026594" lon="10.905685832208475"><ele>26.0</ele><time>2026-04-05T15:02:48.998Z</time></trkpt><trkpt lat="43.73430320350641" lon="10.905850901960319"><ele>26.0</ele><time>2026-04-05T15:02:49.998Z</time></trkpt><trkpt lat="43.73422102444915" lon="10.906018961118368"><ele>26.0</ele><time>2026-04-05T15:02:50.998Z</time></trkpt><trkpt lat="43.73413823324442" lon="10.906189009322272"><ele>26.0</ele><time>2026-04-05T15:02:52Z</time></trkpt><trkpt lat="43.734059986631216" lon="10.906351613483293"><ele>26.0</ele><time>2026-04-05T15:02:53Z</time></trkpt><trkpt lat="43.733977607803304" lon="10.906508862135402"><ele>26.0</ele><time>2026-04-05T15:02:54Z</time></trkpt><trkpt lat="43.73389602734365" lon="10.90667342508408"><ele>26.0</ele><time>2026-04-05T15:02:55Z</time></trkpt><trkpt lat="43.733813724819555" lon="10.906835720352449"><ele>26.0</ele><time>2026-04-05T15:02:56Z</time></trkpt><trkpt lat="43.73373520949002" lon="10.906990960804825"><ele>26.0</ele><time>2026-04-05T15:02:57Z</time></trkpt><trkpt lat="43.73365785931658" lon="10.907144564739147"><ele>25.5</ele><time>2026-04-05T15:02:58Z</time></trkpt><trkpt lat="43.73358093133742" lon="10.907297836059692"><ele>25.0</ele><time>2026-04-05T15:02:59Z</time></trkpt><trkpt lat="43.733507433425146" lon="10.907445186652396"><ele>24.5</ele><time>2026-04-05T15:03:00Z</time></trkpt><trkpt lat="43.73343867435574" lon="10.907586294498499"><ele>24.0</ele><time>2026-04-05T15:03:01Z</time></trkpt><trkpt lat="43.73336912749972" lon="10.907722253515626"><ele>24.0</ele><time>2026-04-05T15:03:02Z</time></trkpt><trkpt lat="43.73329894166371" lon="10.907859469174474"><ele>24.0</ele><time>2026-04-05T15:03:03Z</time></trkpt><trkpt lat="43.73322656550176" lon="10.90799628534542"><ele>24.0</ele><time>2026-04-05T15:03:04Z</time></trkpt><trkpt lat="43.73315584345803" lon="10.908137384626505"><ele>24.0</ele><time>2026-04-05T15:03:05Z</time></trkpt><trkpt lat="43.73308839987807" lon="10.908267210176085"><ele>24.0</ele><time>2026-04-05T15:03:06Z</time></trkpt><trkpt lat="43.733021879850305" lon="10.90839818228312"><ele>24.0</ele><time>2026-04-05T15:03:07Z</time></trkpt><trkpt lat="43.7329551614256" lon="10.90852767189106"><ele>24.0</ele><time>2026-04-05T15:03:08Z</time></trkpt><trkpt lat="43.732890615945315" lon="10.908662886029578"><ele>24.0</ele><time>2026-04-05T15:03:09Z</time></trkpt><trkpt lat="43.73282540762048" lon="10.908804443617319"><ele>23.75</ele><time>2026-04-05T15:03:10Z</time></trkpt><trkpt lat="43.732761627641835" lon="10.908948633874749"><ele>23.5</ele><time>2026-04-05T15:03:11Z</time></trkpt><trkpt lat="43.732700435648816" lon="10.909089193025316"><ele>23.25</ele><time>2026-04-05T15:03:12Z</time></trkpt><trkpt lat="43.732633868181246" lon="10.909228399152138"><ele>23.0</ele><time>2026-04-05T15:03:13Z</time></trkpt><trkpt lat="43.73258553654612" lon="10.909384914437588"><ele>23.0</ele><time>2026-04-05T15:03:14Z</time></trkpt><trkpt lat="43.73254029325696" lon="10.909546365124683"><ele>23.0</ele><time>2026-04-05T15:03:15Z</time></trkpt><trkpt lat="43.73250039751646" lon="10.909709958104843"><ele>23.0</ele><time>2026-04-05T15:03:16Z</time></trkpt><trkpt lat="43.732464023348626" lon="10.909872711535886"><ele>23.0</ele><time>2026-04-05T15:03:17Z</time></trkpt><trkpt lat="43.73242949044106" lon="10.910030631959806"><ele>22.799999999999997</ele><time>2026-04-05T15:03:18Z</time></trkpt><trkpt lat="43.73240066678362" lon="10.910182577938441"><ele>22.6</ele><time>2026-04-05T15:03:19Z</time></trkpt><trkpt lat="43.732373013406814" lon="10.910333974199736"><ele>22.4</ele><time>2026-04-05T15:03:20Z</time></trkpt><trkpt lat="43.73234851563245" lon="10.910478863968246"><ele>22.200000000000003</ele><time>2026-04-05T15:03:21Z</time></trkpt><trkpt lat="43.73232134222858" lon="10.910628121254307"><ele>22.0</ele><time>2026-04-05T15:03:22Z</time></trkpt><trkpt lat="43.7322940119774" lon="10.910769262930602"><ele>22.0</ele><time>2026-04-05T15:03:23Z</time></trkpt><trkpt lat="43.7322664380758" lon="10.91091575185577"><ele>22.0</ele><time>2026-04-05T15:03:24Z</time></trkpt><trkpt lat="43.73223784696445" lon="10.911070039909523"><ele>22.0</ele><time>2026-04-05T15:03:25Z</time></trkpt><trkpt lat="43.732212209241936" lon="10.911229771087905"><ele>22.0</ele><time>2026-04-05T15:03:26Z</time></trkpt><trkpt lat="43.73218428808114" lon="10.91138697592258"><ele>22.0</ele><time>2026-04-05T15:03:27Z</time></trkpt><trkpt lat="43.732155131354986" lon="10.911545462908995"><ele>22.0</ele><time>2026-04-05T15:03:28Z</time></trkpt><trkpt lat="43.732128435601155" lon="10.911700619710295"><ele>22.0</ele><time>2026-04-05T15:03:29Z</time></trkpt><trkpt lat="43.73210145338575" lon="10.911852062354674"><ele>22.0</ele><time>2026-04-05T15:03:30Z</time></trkpt><trkpt lat="43.7320733022174" lon="10.91200261645223"><ele>22.0</ele><time>2026-04-05T15:03:31Z</time></trkpt><trkpt lat="43.732048006992876" lon="10.912149453388793"><ele>22.0</ele><time>2026-04-05T15:03:32Z</time></trkpt><trkpt lat="43.73202453915441" lon="10.912295847641651"><ele>22.0</ele><time>2026-04-05T15:03:33Z</time></trkpt><trkpt lat="43.732001285522685" lon="10.91244419193288"><ele>22.0</ele><time>2026-04-05T15:03:33.999Z</time></trkpt><trkpt lat="43.7319728272464" lon="10.912599037300243"><ele>22.0</ele><time>2026-04-05T15:03:34.999Z</time></trkpt><trkpt lat="43.731945172561204" lon="10.912757292810118"><ele>22.0</ele><time>2026-04-05T15:03:35.999Z</time></trkpt><trkpt lat="43.73191764570774" lon="10.912913097305593"><ele>22.0</ele><time>2026-04-05T15:03:36.999Z</time></trkpt><trkpt lat="43.73188915468517" lon="10.913070663599877"><ele>22.0</ele><time>2026-04-05T15:03:37.999Z</time></trkpt><trkpt lat="43.73186159152144" lon="10.913230303050481"><ele>22.0</ele><time>2026-04-05T15:03:38.999Z</time></trkpt><trkpt lat="43.73183515296844" lon="10.91338928841383"><ele>22.0</ele><time>2026-04-05T15:03:39.999Z</time></trkpt><trkpt lat="43.73180925489615" lon="10.913546351281257"><ele>22.0</ele><time>2026-04-05T15:03:40.999Z</time></trkpt><trkpt lat="43.73178252467069" lon="10.91370356959052"><ele>22.0</ele><time>2026-04-05T15:03:41.999Z</time></trkpt><trkpt lat="43.731755087729084" lon="10.91386106325141"><ele>22.0</ele><time>2026-04-05T15:03:42.999Z</time></trkpt><trkpt lat="43.73172918351956" lon="10.91401763992245"><ele>22.0</ele><time>2026-04-05T15:03:43.999Z</time></trkpt><trkpt lat="43.73170371459033" lon="10.91417427662904"><ele>22.0</ele><time>2026-04-05T15:03:44.999Z</time></trkpt><trkpt lat="43.73167712722336" lon="10.914329773660661"><ele>22.0</ele><time>2026-04-05T15:03:45.999Z</time></trkpt><trkpt lat="43.73165160179758" lon="10.914483384805811"><ele>22.0</ele><time>2026-04-05T15:03:46.999Z</time></trkpt><trkpt lat="43.73162988503635" lon="10.91463287272865"><ele>22.200000000000003</ele><time>2026-04-05T15:03:47.999Z</time></trkpt><trkpt lat="43.73160928034322" lon="10.914777806231287"><ele>22.4</ele><time>2026-04-05T15:03:48.999Z</time></trkpt><trkpt lat="43.73158966188796" lon="10.91492560644387"><ele>22.6</ele><time>2026-04-05T15:03:49.999Z</time></trkpt><trkpt lat="43.731573283681556" lon="10.915077317881469"><ele>22.799999999999997</ele><time>2026-04-05T15:03:50.999Z</time></trkpt><trkpt lat="43.731559611400314" lon="10.915239662518315"><ele>23.0</ele><time>2026-04-05T15:03:51.999Z</time></trkpt><trkpt lat="43.731551180397496" lon="10.915400676501903"><ele>23.25</ele><time>2026-04-05T15:03:52.999Z</time></trkpt><trkpt lat="43.73154016068677" lon="10.91555983283636"><ele>23.5</ele><time>2026-04-05T15:03:53.999Z</time></trkpt><trkpt lat="43.73152276210332" lon="10.9157213514671"><ele>23.75</ele><time>2026-04-05T15:03:54.999Z</time></trkpt><trkpt lat="43.731516249446436" lon="10.915873954064637"><ele>24.0</ele><time>2026-04-05T15:03:55.999Z</time></trkpt><trkpt lat="43.73151207667696" lon="10.916025372714321"><ele>24.6</ele><time>2026-04-05T15:03:56.999Z</time></trkpt><trkpt lat="43.73150776979593" lon="10.916176395623545"><ele>25.2</ele><time>2026-04-05T15:03:57.999Z</time></trkpt><trkpt lat="43.73150504894571" lon="10.91631919424523"><ele>25.800000000000004</ele><time>2026-04-05T15:03:58.999Z</time></trkpt><trkpt lat="43.73150309940956" lon="10.91644650089038"><ele>26.400000000000002</ele><time>2026-04-05T15:03:59.999Z</time></trkpt><trkpt lat="43.73150004549933" lon="10.916552795619888"><ele>27.0</ele><time>2026-04-05T15:04:00.999Z</time></trkpt><trkpt lat="43.731491346440244" lon="10.916740452087053"><ele>27.0</ele><time>2026-04-05T15:04:02.999Z</time></trkpt><trkpt lat="43.73148806891867" lon="10.916841324717016"><ele>27.000000000000004</ele><time>2026-04-05T15:04:03.999Z</time></trkpt><trkpt lat="43.73148408749221" lon="10.916948324583473"><ele>27.000000000000004</ele><time>2026-04-05T15:04:04.999Z</time></trkpt><trkpt lat="43.731479491371346" lon="10.917070800141596"><ele>27.0</ele><time>2026-04-05T15:04:05.999Z</time></trkpt><trkpt lat="43.73147351894229" lon="10.917202803551415"><ele>27.0</ele><time>2026-04-05T15:04:06.999Z</time></trkpt><trkpt lat="43.731469256901434" lon="10.917363220446683"><ele>27.0</ele><time>2026-04-05T15:04:07.999Z</time></trkpt><trkpt lat="43.73146235745851" lon="10.91753249674242"><ele>27.0</ele><time>2026-04-05T15:04:08.999Z</time></trkpt><trkpt lat="43.731463539596184" lon="10.91771896775539"><ele>27.0</ele><time>2026-04-05T15:04:09.999Z</time></trkpt><trkpt lat="43.73145633370168" lon="10.917905060218121"><ele>27.0</ele><time>2026-04-05T15:04:10.999Z</time></trkpt><trkpt lat="43.731453608668374" lon="10.918098952452914"><ele>27.25</ele><time>2026-04-05T15:04:11.999Z</time></trkpt><trkpt lat="43.73144831190502" lon="10.918270908534158"><ele>27.5</ele><time>2026-04-05T15:04:12.999Z</time></trkpt><trkpt lat="43.731444637103586" lon="10.918440939648528"><ele>27.75</ele><time>2026-04-05T15:04:13.999Z</time></trkpt><trkpt lat="43.731439461560235" lon="10.918609480353773"><ele>28.0</ele><time>2026-04-05T15:04:14.999Z</time></trkpt><trkpt lat="43.73143465353125" lon="10.91877416782881"><ele>28.0</ele><time>2026-04-05T15:04:15.999Z</time></trkpt><trkpt lat="43.73143270290332" lon="10.918932059388657"><ele>28.0</ele><time>2026-04-05T15:04:16.999Z</time></trkpt><trkpt lat="43.731428805050506" lon="10.919092764944184"><ele>28.0</ele><time>2026-04-05T15:04:17.999Z</time></trkpt><trkpt lat="43.7314252190435" lon="10.919254087411428"><ele>28.0</ele><time>2026-04-05T15:04:18.999Z</time></trkpt><trkpt lat="43.731416830034725" lon="10.919413581164642"><ele>28.25</ele><time>2026-04-05T15:04:19.999Z</time></trkpt><trkpt lat="43.73141931478481" lon="10.91956979135352"><ele>28.5</ele><time>2026-04-05T15:04:20.999Z</time></trkpt><trkpt lat="43.73141293550893" lon="10.91973231638116"><ele>28.75</ele><time>2026-04-05T15:04:21.999Z</time></trkpt><trkpt lat="43.73140793268843" lon="10.919893911675638"><ele>29.0</ele><time>2026-04-05T15:04:22.999Z</time></trkpt><trkpt lat="43.73140328425096" lon="10.92005555978199"><ele>29.25</ele><time>2026-04-05T15:04:23.999Z</time></trkpt><trkpt lat="43.731397585119936" lon="10.920217001044767"><ele>29.5</ele><time>2026-04-05T15:04:24.999Z</time></trkpt><trkpt lat="43.7313923298772" lon="10.920376481455854"><ele>29.75</ele><time>2026-04-05T15:04:25.999Z</time></trkpt><trkpt lat="43.73139028625156" lon="10.920534800453646"><ele>30.0</ele><time>2026-04-05T15:04:26.999Z</time></trkpt><trkpt lat="43.731387479921636" lon="10.920696792520038"><ele>30.0</ele><time>2026-04-05T15:04:27.998Z</time></trkpt><trkpt lat="43.73138452213879" lon="10.9208623821247"><ele>30.0</ele><time>2026-04-05T15:04:28.998Z</time></trkpt><trkpt lat="43.73137914737934" lon="10.921028062223703"><ele>30.0</ele><time>2026-04-05T15:04:29.998Z</time></trkpt><trkpt lat="43.73137453794874" lon="10.92120017032235"><ele>30.0</ele><time>2026-04-05T15:04:30.998Z</time></trkpt><trkpt lat="43.7313723557098" lon="10.921365573049293"><ele>31.0</ele><time>2026-04-05T15:04:31.998Z</time></trkpt><trkpt lat="43.73135636463679" lon="10.9215314391707"><ele>32.0</ele><time>2026-04-05T15:04:32.998Z</time></trkpt><trkpt lat="43.73134514037739" lon="10.921691815564447"><ele>33.0</ele><time>2026-04-05T15:04:33.998Z</time></trkpt><trkpt lat="43.73133207617992" lon="10.921853086132934"><ele>34.0</ele><time>2026-04-05T15:04:34.998Z</time></trkpt><trkpt lat="43.73131338594111" lon="10.92201970333727"><ele>34.2</ele><time>2026-04-05T15:04:35.998Z</time></trkpt><trkpt lat="43.73129302605101" lon="10.922167529309565"><ele>34.4</ele><time>2026-04-05T15:04:36.998Z</time></trkpt><trkpt lat="43.731271251404735" lon="10.922313538318477"><ele>34.6</ele><time>2026-04-05T15:04:37.998Z</time></trkpt><trkpt lat="43.731252849400846" lon="10.922447179959816"><ele>34.8</ele><time>2026-04-05T15:04:38.998Z</time></trkpt><trkpt lat="43.73123369683499" lon="10.922575606059276"><ele>35.0</ele><time>2026-04-05T15:04:39.998Z</time></trkpt><trkpt lat="43.731213524429094" lon="10.922705343620247"><ele>34.4</ele><time>2026-04-05T15:04:40.998Z</time></trkpt><trkpt lat="43.731188486812314" lon="10.922828141743686"><ele>33.8</ele><time>2026-04-05T15:04:41.998Z</time></trkpt><trkpt lat="43.73116057672869" lon="10.92295136084634"><ele>33.2</ele><time>2026-04-05T15:04:42.998Z</time></trkpt><trkpt lat="43.73113223213109" lon="10.923079702353657"><ele>32.6</ele><time>2026-04-05T15:04:43.998Z</time></trkpt><trkpt lat="43.73110563837913" lon="10.923201938965232"><ele>32.0</ele><time>2026-04-05T15:04:44.998Z</time></trkpt><trkpt lat="43.73107760086031" lon="10.92332829845336"><ele>31.0</ele><time>2026-04-05T15:04:45.998Z</time></trkpt><trkpt lat="43.7310537072906" lon="10.923463372650648"><ele>30.000000000000004</ele><time>2026-04-05T15:04:46.998Z</time></trkpt><trkpt lat="43.73102500592251" lon="10.923596821579753"><ele>29.000000000000004</ele><time>2026-04-05T15:04:47.998Z</time></trkpt><trkpt lat="43.73099245319031" lon="10.92372826239758"><ele>28.0</ele><time>2026-04-05T15:04:48.998Z</time></trkpt><trkpt lat="43.73096004383631" lon="10.923863147069515"><ele>27.0</ele><time>2026-04-05T15:04:49.998Z</time></trkpt><trkpt lat="43.73092846999282" lon="10.923997717098418"><ele>27.0</ele><time>2026-04-05T15:04:50.998Z</time></trkpt><trkpt lat="43.73089574933418" lon="10.924128165629874"><ele>27.000000000000004</ele><time>2026-04-05T15:04:51.998Z</time></trkpt><trkpt lat="43.73086439690013" lon="10.924263924296916"><ele>27.000000000000004</ele><time>2026-04-05T15:04:52.998Z</time></trkpt><trkpt lat="43.73083140757647" lon="10.92440201047367"><ele>27.0</ele><time>2026-04-05T15:04:53.998Z</time></trkpt><trkpt lat="43.730798728827004" lon="10.924544221186418"><ele>27.0</ele><time>2026-04-05T15:04:54.998Z</time></trkpt><trkpt lat="43.73076687146049" lon="10.924689382848298"><ele>26.5</ele><time>2026-04-05T15:04:55.998Z</time></trkpt><trkpt lat="43.730732566772126" lon="10.924832500950858"><ele>26.0</ele><time>2026-04-05T15:04:56.998Z</time></trkpt><trkpt lat="43.73069913004964" lon="10.924989530714083"><ele>25.5</ele><time>2026-04-05T15:04:58Z</time></trkpt><trkpt lat="43.73066382845323" lon="10.925143477506985"><ele>25.0</ele><time>2026-04-05T15:04:59Z</time></trkpt><trkpt lat="43.73062971644817" lon="10.925289338806794"><ele>25.0</ele><time>2026-04-05T15:05:00Z</time></trkpt><trkpt lat="43.73059989104536" lon="10.925432210962015"><ele>25.0</ele><time>2026-04-05T15:05:01Z</time></trkpt><trkpt lat="43.73056999244988" lon="10.925570118590384"><ele>25.0</ele><time>2026-04-05T15:05:02Z</time></trkpt><trkpt lat="43.730537267919196" lon="10.925709544705132"><ele>25.0</ele><time>2026-04-05T15:05:03Z</time></trkpt><trkpt lat="43.730505388894244" lon="10.92585235971025"><ele>25.0</ele><time>2026-04-05T15:05:04Z</time></trkpt><trkpt lat="43.73046848639194" lon="10.926003681515356"><ele>25.0</ele><time>2026-04-05T15:05:05Z</time></trkpt><trkpt lat="43.730431629929015" lon="10.926149934792402"><ele>25.0</ele><time>2026-04-05T15:05:06Z</time></trkpt><trkpt lat="43.73039987245172" lon="10.926290347049614"><ele>25.0</ele><time>2026-04-05T15:05:07Z</time></trkpt><trkpt lat="43.73036982345694" lon="10.926431254734862"><ele>25.0</ele><time>2026-04-05T15:05:08Z</time></trkpt><trkpt lat="43.73033827883359" lon="10.926568762030882"><ele>25.0</ele><time>2026-04-05T15:05:09Z</time></trkpt><trkpt lat="43.73030778359236" lon="10.92670257762415"><ele>24.8</ele><time>2026-04-05T15:05:10Z</time></trkpt><trkpt lat="43.730277167226646" lon="10.926838174819261"><ele>24.6</ele><time>2026-04-05T15:05:11Z</time></trkpt><trkpt lat="43.73025065049083" lon="10.926956510925356"><ele>24.4</ele><time>2026-04-05T15:05:12Z</time></trkpt><trkpt lat="43.73022278804742" lon="10.927081876349293"><ele>24.2</ele><time>2026-04-05T15:05:13Z</time></trkpt><trkpt lat="43.73019303294321" lon="10.927213763741996"><ele>24.0</ele><time>2026-04-05T15:05:14Z</time></trkpt><trkpt lat="43.73016450342208" lon="10.927344177062418"><ele>24.0</ele><time>2026-04-05T15:05:15Z</time></trkpt><trkpt lat="43.730134510445964" lon="10.927468566677524"><ele>24.0</ele><time>2026-04-05T15:05:16Z</time></trkpt><trkpt lat="43.730103150463975" lon="10.927590736925076"><ele>24.0</ele><time>2026-04-05T15:05:17Z</time></trkpt><trkpt lat="43.73007488158882" lon="10.927718661571486"><ele>24.0</ele><time>2026-04-05T15:05:18Z</time></trkpt><trkpt lat="43.730045969270435" lon="10.927842203513862"><ele>24.0</ele><time>2026-04-05T15:05:19Z</time></trkpt><trkpt lat="43.73001862710549" lon="10.927952474219296"><ele>24.166666666666668</ele><time>2026-04-05T15:05:20Z</time></trkpt><trkpt lat="43.72999673610206" lon="10.92805293316975"><ele>24.333333333333336</ele><time>2026-04-05T15:05:21Z</time></trkpt><trkpt lat="43.729973564497634" lon="10.928151884490775"><ele>24.5</ele><time>2026-04-05T15:05:22Z</time></trkpt><trkpt lat="43.729947824539366" lon="10.928251487887625"><ele>24.666666666666668</ele><time>2026-04-05T15:05:23Z</time></trkpt><trkpt lat="43.72990636885704" lon="10.92840994999236"><ele>24.833333333333336</ele><time>2026-04-05T15:05:25Z</time></trkpt><trkpt lat="43.72985006574819" lon="10.928505097539961"><ele>25.0</ele><time>2026-04-05T15:05:27Z</time></trkpt><trkpt lat="43.72978636772198" lon="10.928581532059384"><ele>25.000000000000004</ele><time>2026-04-05T15:05:36Z</time></trkpt><trkpt lat="43.729712961766964" lon="10.928638923671627"><ele>25.0</ele><time>2026-04-05T15:05:37.999Z</time></trkpt><trkpt lat="43.72964194567952" lon="10.928739423094713"><ele>25.0</ele><time>2026-04-05T15:05:39.999Z</time></trkpt><trkpt lat="43.729645481839405" lon="10.928905503948043"><ele>25.0</ele><time>2026-04-05T15:05:41.999Z</time></trkpt><trkpt lat="43.7296736651226" lon="10.928985432285646"><ele>25.000000000000004</ele><time>2026-04-05T15:05:42.999Z</time></trkpt><trkpt lat="43.72969799875359" lon="10.929069615053363"><ele>25.0</ele><time>2026-04-05T15:05:43.999Z</time></trkpt><trkpt lat="43.72971029437749" lon="10.929164846245758"><ele>25.000000000000004</ele><time>2026-04-05T15:05:44.999Z</time></trkpt><trkpt lat="43.72970230933885" lon="10.929265096199027"><ele>25.0</ele><time>2026-04-05T15:05:45.999Z</time></trkpt><trkpt lat="43.72968849669734" lon="10.929365793865363"><ele>25.0</ele><time>2026-04-05T15:05:46.999Z</time></trkpt><trkpt lat="43.72966921867468" lon="10.929471352818927"><ele>25.0</ele><time>2026-04-05T15:05:47.999Z</time></trkpt><trkpt lat="43.72964795334806" lon="10.929579132203186"><ele>25.000000000000004</ele><time>2026-04-05T15:05:48.999Z</time></trkpt><trkpt lat="43.7296222058385" lon="10.92968332840507"><ele>25.0</ele><time>2026-04-05T15:05:49.999Z</time></trkpt><trkpt lat="43.72959945990139" lon="10.929794924639001"><ele>25.000000000000004</ele><time>2026-04-05T15:05:50.999Z</time></trkpt><trkpt lat="43.729578143130595" lon="10.929913162288047"><ele>25.0</ele><time>2026-04-05T15:05:51.999Z</time></trkpt><trkpt lat="43.729559775668136" lon="10.930022133543737"><ele>25.0</ele><time>2026-04-05T15:05:52.999Z</time></trkpt><trkpt lat="43.72953884461231" lon="10.930131336669692"><ele>25.0</ele><time>2026-04-05T15:05:53.999Z</time></trkpt><trkpt lat="43.72951589814266" lon="10.930240963740886"><ele>25.000000000000004</ele><time>2026-04-05T15:05:54.999Z</time></trkpt><trkpt lat="43.72949667663011" lon="10.930345455103142"><ele>25.0</ele><time>2026-04-05T15:05:55.999Z</time></trkpt><trkpt lat="43.72947590243483" lon="10.930453181485525"><ele>25.166666666666668</ele><time>2026-04-05T15:05:56.999Z</time></trkpt><trkpt lat="43.729453600691215" lon="10.930566464657412"><ele>25.333333333333336</ele><time>2026-04-05T15:05:57.999Z</time></trkpt><trkpt lat="43.729433588062236" lon="10.930672451810075"><ele>25.5</ele><time>2026-04-05T15:05:58.999Z</time></trkpt><trkpt lat="43.72941349642904" lon="10.930776356314029"><ele>25.666666666666664</ele><time>2026-04-05T15:05:59.999Z</time></trkpt><trkpt lat="43.729392562946735" lon="10.930882090639187"><ele>25.833333333333332</ele><time>2026-04-05T15:06:00.999Z</time></trkpt><trkpt lat="43.729378650391205" lon="10.930982628910202"><ele>26.0</ele><time>2026-04-05T15:06:01.999Z</time></trkpt><trkpt lat="43.72936615145379" lon="10.931085825713216"><ele>26.166666666666664</ele><time>2026-04-05T15:06:02.999Z</time></trkpt><trkpt lat="43.72935769557831" lon="10.931187257454123"><ele>26.333333333333332</ele><time>2026-04-05T15:06:03.999Z</time></trkpt><trkpt lat="43.7293535821598" lon="10.931293358470345"><ele>26.5</ele><time>2026-04-05T15:06:04.999Z</time></trkpt><trkpt lat="43.72934679458216" lon="10.93139360187715"><ele>26.666666666666664</ele><time>2026-04-05T15:06:05.999Z</time></trkpt><trkpt lat="43.7293329451857" lon="10.93149817006486"><ele>26.833333333333332</ele><time>2026-04-05T15:06:06.999Z</time></trkpt><trkpt lat="43.729303419104376" lon="10.931597260345935"><ele>27.0</ele><time>2026-04-05T15:06:07.999Z</time></trkpt><trkpt lat="43.72927797581508" lon="10.931706127955003"><ele>27.0</ele><time>2026-04-05T15:06:08.999Z</time></trkpt><trkpt lat="43.72926851862907" lon="10.93182428672825"><ele>27.0</ele><time>2026-04-05T15:06:09.999Z</time></trkpt><trkpt lat="43.729259456983094" lon="10.931934765800577"><ele>27.0</ele><time>2026-04-05T15:06:10.999Z</time></trkpt><trkpt lat="43.72924238304945" lon="10.932043035993162"><ele>27.0</ele><time>2026-04-05T15:06:11.999Z</time></trkpt><trkpt lat="43.72921025491245" lon="10.932150850773988"><ele>27.0</ele><time>2026-04-05T15:06:12.999Z</time></trkpt><trkpt lat="43.72917597844713" lon="10.932257885994764"><ele>27.0</ele><time>2026-04-05T15:06:13.999Z</time></trkpt><trkpt lat="43.72915001849864" lon="10.932361669913254"><ele>27.0</ele><time>2026-04-05T15:06:14.999Z</time></trkpt><trkpt lat="43.729124737105096" lon="10.932468800349739"><ele>27.0</ele><time>2026-04-05T15:06:15.999Z</time></trkpt><trkpt lat="43.72910027081916" lon="10.932573036476711"><ele>27.0</ele><time>2026-04-05T15:06:16.999Z</time></trkpt><trkpt lat="43.72907728843317" lon="10.932675335794086"><ele>27.0</ele><time>2026-04-05T15:06:17.999Z</time></trkpt><trkpt lat="43.72905530073389" lon="10.932778902085929"><ele>27.0</ele><time>2026-04-05T15:06:18.999Z</time></trkpt><trkpt lat="43.72903218074099" lon="10.932889625435113"><ele>27.0</ele><time>2026-04-05T15:06:19.999Z</time></trkpt><trkpt lat="43.729007375482574" lon="10.932996935231017"><ele>27.0</ele><time>2026-04-05T15:06:20.999Z</time></trkpt><trkpt lat="43.72898458647605" lon="10.9330950700084"><ele>27.0</ele><time>2026-04-05T15:06:21.999Z</time></trkpt><trkpt lat="43.72896349306426" lon="10.933199036980449"><ele>27.0</ele><time>2026-04-05T15:06:22.999Z</time></trkpt><trkpt lat="43.728938390543654" lon="10.933302094270058"><ele>27.0</ele><time>2026-04-05T15:06:23.999Z</time></trkpt><trkpt lat="43.72891206743656" lon="10.933400096942469"><ele>27.0</ele><time>2026-04-05T15:06:24.999Z</time></trkpt><trkpt lat="43.72888450904048" lon="10.933496740418125"><ele>27.0</ele><time>2026-04-05T15:06:25.999Z</time></trkpt><trkpt lat="43.72886014253373" lon="10.933591091452751"><ele>27.166666666666668</ele><time>2026-04-05T15:06:26.999Z</time></trkpt><trkpt lat="43.728835022376906" lon="10.93368639344483"><ele>27.333333333333336</ele><time>2026-04-05T15:06:27.999Z</time></trkpt><trkpt lat="43.728808590889265" lon="10.933777255501456"><ele>27.5</ele><time>2026-04-05T15:06:28.999Z</time></trkpt><trkpt lat="43.72878135431577" lon="10.933874055493938"><ele>27.666666666666668</ele><time>2026-04-05T15:06:29.999Z</time></trkpt><trkpt lat="43.728756403809406" lon="10.933966047581025"><ele>27.833333333333336</ele><time>2026-04-05T15:06:30.999Z</time></trkpt><trkpt lat="43.728731828057086" lon="10.93405076529462"><ele>28.0</ele><time>2026-04-05T15:06:31.999Z</time></trkpt><trkpt lat="43.728687271130894" lon="10.934222378459776"><ele>28.285714285714285</ele><time>2026-04-05T15:06:33.998Z</time></trkpt><trkpt lat="43.72866360214088" lon="10.934318998417472"><ele>28.57142857142857</ele><time>2026-04-05T15:06:34.998Z</time></trkpt><trkpt lat="43.728639357486635" lon="10.934412389613483"><ele>28.857142857142858</ele><time>2026-04-05T15:06:35.998Z</time></trkpt><trkpt lat="43.728619043680126" lon="10.934501559117797"><ele>29.142857142857142</ele><time>2026-04-05T15:06:36.998Z</time></trkpt><trkpt lat="43.72859071569479" lon="10.934595728899707"><ele>29.428571428571427</ele><time>2026-04-05T15:06:37.998Z</time></trkpt><trkpt lat="43.72856205929581" lon="10.93468618780503"><ele>29.714285714285715</ele><time>2026-04-05T15:06:38.998Z</time></trkpt><trkpt lat="43.728535939402256" lon="10.934768145883789"><ele>30.0</ele><time>2026-04-05T15:06:39.998Z</time></trkpt><trkpt lat="43.72851143845755" lon="10.934849403843424"><ele>30.0</ele><time>2026-04-05T15:06:40.998Z</time></trkpt><trkpt lat="43.728460515382196" lon="10.935013251770512"><ele>30.0</ele><time>2026-04-05T15:06:42.998Z</time></trkpt><trkpt lat="43.728431934983156" lon="10.935101591115329"><ele>30.0</ele><time>2026-04-05T15:06:43.998Z</time></trkpt><trkpt lat="43.72838181534782" lon="10.93526737829307"><ele>30.0</ele><time>2026-04-05T15:06:45.998Z</time></trkpt><trkpt lat="43.72834942759061" lon="10.935354549155822"><ele>30.0</ele><time>2026-04-05T15:06:46.998Z</time></trkpt><trkpt lat="43.72831860631523" lon="10.935436593903423"><ele>29.666666666666668</ele><time>2026-04-05T15:06:47.998Z</time></trkpt><trkpt lat="43.728286819219946" lon="10.93552166436128"><ele>29.333333333333336</ele><time>2026-04-05T15:06:48.998Z</time></trkpt><trkpt lat="43.72825380317437" lon="10.935614809331877"><ele>29.0</ele><time>2026-04-05T15:06:49.998Z</time></trkpt><trkpt lat="43.728219640603974" lon="10.93571305955567"><ele>28.666666666666668</ele><time>2026-04-05T15:06:50.998Z</time></trkpt><trkpt lat="43.728191023082815" lon="10.935814440343222"><ele>28.333333333333336</ele><time>2026-04-05T15:06:51.998Z</time></trkpt><trkpt lat="43.72815875081442" lon="10.935915504176986"><ele>28.0</ele><time>2026-04-05T15:06:52.998Z</time></trkpt><trkpt lat="43.72812711261758" lon="10.936023987244818"><ele>28.000000000000004</ele><time>2026-04-05T15:06:53.998Z</time></trkpt><trkpt lat="43.728095887017254" lon="10.936132197122431"><ele>28.0</ele><time>2026-04-05T15:06:54.998Z</time></trkpt><trkpt lat="43.72806344893272" lon="10.936236567182148"><ele>28.0</ele><time>2026-04-05T15:06:55.998Z</time></trkpt><trkpt lat="43.72803288513393" lon="10.936338252558217"><ele>28.0</ele><time>2026-04-05T15:06:56.998Z</time></trkpt><trkpt lat="43.727999081037495" lon="10.936445472752942"><ele>28.000000000000004</ele><time>2026-04-05T15:06:57.998Z</time></trkpt><trkpt lat="43.72796438785763" lon="10.936552541671945"><ele>28.0</ele><time>2026-04-05T15:06:58.998Z</time></trkpt><trkpt lat="43.72793099036839" lon="10.936667031013435"><ele>28.4</ele><time>2026-04-05T15:06:59.998Z</time></trkpt><trkpt lat="43.72789451610746" lon="10.936786043637989"><ele>28.799999999999997</ele><time>2026-04-05T15:07:00.998Z</time></trkpt><trkpt lat="43.72785696627582" lon="10.936906453082095"><ele>29.2</ele><time>2026-04-05T15:07:01.998Z</time></trkpt><trkpt lat="43.72781870479464" lon="10.937028034712844"><ele>29.6</ele><time>2026-04-05T15:07:02.998Z</time></trkpt><trkpt lat="43.72778396736579" lon="10.937142597886393"><ele>30.0</ele><time>2026-04-05T15:07:04Z</time></trkpt><trkpt lat="43.72775215642483" lon="10.937250153533858"><ele>29.666666666666668</ele><time>2026-04-05T15:07:05Z</time></trkpt><trkpt lat="43.72772152681035" lon="10.937361963030318"><ele>29.333333333333336</ele><time>2026-04-05T15:07:06Z</time></trkpt><trkpt lat="43.727694829726474" lon="10.937465021369709"><ele>29.0</ele><time>2026-04-05T15:07:07Z</time></trkpt><trkpt lat="43.727664396606464" lon="10.93756672633075"><ele>28.666666666666668</ele><time>2026-04-05T15:07:08Z</time></trkpt><trkpt lat="43.727637227512545" lon="10.937660805915424"><ele>28.333333333333336</ele><time>2026-04-05T15:07:09Z</time></trkpt><trkpt lat="43.727610385205814" lon="10.93773976244865"><ele>28.0</ele><time>2026-04-05T15:07:10Z</time></trkpt><trkpt lat="43.72756475721613" lon="10.937862571531046"><ele>27.599999999999998</ele><time>2026-04-05T15:07:12Z</time></trkpt><trkpt lat="43.72749728443349" lon="10.937963797104198"><ele>27.199999999999996</ele><time>2026-04-05T15:07:14Z</time></trkpt><trkpt lat="43.72742053053895" lon="10.938088289827489"><ele>26.8</ele><time>2026-04-05T15:07:16Z</time></trkpt><trkpt lat="43.727392486427625" lon="10.938166610020879"><ele>26.4</ele><time>2026-04-05T15:07:17Z</time></trkpt><trkpt lat="43.727365728026506" lon="10.938341375508163"><ele>26.0</ele><time>2026-04-05T15:07:19Z</time></trkpt><trkpt lat="43.72736662459295" lon="10.938436091870773"><ele>25.999999999999996</ele><time>2026-04-05T15:07:20Z</time></trkpt><trkpt lat="43.72735688356634" lon="10.938539134281866"><ele>26.0</ele><time>2026-04-05T15:07:21Z</time></trkpt><trkpt lat="43.72733146577621" lon="10.938648763311738"><ele>26.0</ele><time>2026-04-05T15:07:22Z</time></trkpt><trkpt lat="43.72729583138902" lon="10.938765713939503"><ele>26.0</ele><time>2026-04-05T15:07:23Z</time></trkpt><trkpt lat="43.727254519749344" lon="10.938889425335287"><ele>25.999999999999996</ele><time>2026-04-05T15:07:24Z</time></trkpt><trkpt lat="43.727213790058656" lon="10.93901036721967"><ele>26.0</ele><time>2026-04-05T15:07:25Z</time></trkpt><trkpt lat="43.72717888645635" lon="10.939134436527834"><ele>25.999999999999996</ele><time>2026-04-05T15:07:26Z</time></trkpt><trkpt lat="43.72714269884455" lon="10.939248268683356"><ele>26.0</ele><time>2026-04-05T15:07:27Z</time></trkpt><trkpt lat="43.727106531430366" lon="10.939351187696618"><ele>26.0</ele><time>2026-04-05T15:07:28Z</time></trkpt><trkpt lat="43.727068179530114" lon="10.939451502222635"><ele>26.0</ele><time>2026-04-05T15:07:29Z</time></trkpt><trkpt lat="43.727023708928726" lon="10.939521435159971"><ele>25.999999999999996</ele><time>2026-04-05T15:07:30Z</time></trkpt><trkpt lat="43.72700694582275" lon="10.939631801895821"><ele>26.0</ele><time>2026-04-05T15:07:32Z</time></trkpt><trkpt lat="43.72700719092015" lon="10.939751703506861"><ele>26.0</ele><time>2026-04-05T15:09:27Z</time></trkpt><trkpt lat="43.726986968149916" lon="10.939876817938798"><ele>26.0</ele><time>2026-04-05T15:09:29Z</time></trkpt><trkpt lat="43.726929044073785" lon="10.9400320806165"><ele>26.0</ele><time>2026-04-05T15:09:31Z</time></trkpt><trkpt lat="43.72689567705391" lon="10.940127844767735"><ele>26.0</ele><time>2026-04-05T15:09:32Z</time></trkpt><trkpt lat="43.72686281522375" lon="10.940232401544634"><ele>26.0</ele><time>2026-04-05T15:09:33Z</time></trkpt><trkpt lat="43.726831324028694" lon="10.940343576345029"><ele>25.999999999999996</ele><time>2026-04-05T15:09:34Z</time></trkpt><trkpt lat="43.726795922203706" lon="10.940453927519007"><ele>26.0</ele><time>2026-04-05T15:09:35Z</time></trkpt><trkpt lat="43.726761938535084" lon="10.940565031107955"><ele>26.0</ele><time>2026-04-05T15:09:36Z</time></trkpt><trkpt lat="43.72672829210512" lon="10.940675150940422"><ele>26.0</ele><time>2026-04-05T15:09:37Z</time></trkpt><trkpt lat="43.72669712172708" lon="10.940789865766176"><ele>25.999999999999996</ele><time>2026-04-05T15:09:38Z</time></trkpt><trkpt lat="43.726663727509845" lon="10.940904398545404"><ele>26.0</ele><time>2026-04-05T15:09:39Z</time></trkpt><trkpt lat="43.72662395559241" lon="10.941016403956482"><ele>26.0</ele><time>2026-04-05T15:09:40Z</time></trkpt><trkpt lat="43.72658660373287" lon="10.941129814868887"><ele>26.0</ele><time>2026-04-05T15:09:41Z</time></trkpt><trkpt lat="43.72655117223282" lon="10.941242227067184"><ele>26.0</ele><time>2026-04-05T15:09:42Z</time></trkpt><trkpt lat="43.72651477094462" lon="10.941361081917787"><ele>26.0</ele><time>2026-04-05T15:09:42.999Z</time></trkpt><trkpt lat="43.726479073458364" lon="10.941483627487758"><ele>26.0</ele><time>2026-04-05T15:09:43.999Z</time></trkpt><trkpt lat="43.72644150682872" lon="10.941610101497053"><ele>26.200000000000003</ele><time>2026-04-05T15:09:44.999Z</time></trkpt><trkpt lat="43.72640280843003" lon="10.941737903746741"><ele>26.400000000000002</ele><time>2026-04-05T15:09:45.999Z</time></trkpt><trkpt lat="43.72636157287015" lon="10.941859581966998"><ele>26.6</ele><time>2026-04-05T15:09:46.999Z</time></trkpt><trkpt lat="43.7263238870773" lon="10.941979548435054"><ele>26.8</ele><time>2026-04-05T15:09:47.999Z</time></trkpt><trkpt lat="43.726292749738015" lon="10.942092749412783"><ele>27.0</ele><time>2026-04-05T15:09:48.999Z</time></trkpt><trkpt lat="43.72626557563469" lon="10.94219230122456"><ele>27.0</ele><time>2026-04-05T15:09:49.999Z</time></trkpt><trkpt lat="43.72623894590828" lon="10.942281914091108"><ele>27.0</ele><time>2026-04-05T15:09:50.999Z</time></trkpt><trkpt lat="43.72619964300284" lon="10.942401356186956"><ele>27.0</ele><time>2026-04-05T15:09:52.999Z</time></trkpt><trkpt lat="43.72610603237293" lon="10.942681406750651"><ele>27.0</ele><time>2026-04-05T15:10:03.999Z</time></trkpt><trkpt lat="43.726063494869095" lon="10.942816031373553"><ele>27.0</ele><time>2026-04-05T15:10:05.999Z</time></trkpt><trkpt lat="43.7259962272461" lon="10.942962053218517"><ele>27.000000000000004</ele><time>2026-04-05T15:10:07.999Z</time></trkpt><trkpt lat="43.725956255418154" lon="10.943117556727174"><ele>27.000000000000004</ele><time>2026-04-05T15:10:09.999Z</time></trkpt><trkpt lat="43.725956859164285" lon="10.943225625776655"><ele>27.0</ele><time>2026-04-05T15:10:10.999Z</time></trkpt><trkpt lat="43.72594292499622" lon="10.943332656774626"><ele>27.0</ele><time>2026-04-05T15:10:11.999Z</time></trkpt><trkpt lat="43.725913748432106" lon="10.943432253570782"><ele>27.0</ele><time>2026-04-05T15:10:12.999Z</time></trkpt><trkpt lat="43.725872131279296" lon="10.943547352627151"><ele>27.000000000000004</ele><time>2026-04-05T15:10:13.999Z</time></trkpt><trkpt lat="43.72583043616551" lon="10.943663776569055"><ele>27.000000000000004</ele><time>2026-04-05T15:10:14.999Z</time></trkpt><trkpt lat="43.72579475276358" lon="10.943778259000128"><ele>27.0</ele><time>2026-04-05T15:10:15.999Z</time></trkpt><trkpt lat="43.7257601108947" lon="10.943898880903514"><ele>27.0</ele><time>2026-04-05T15:10:16.999Z</time></trkpt><trkpt lat="43.72572226793505" lon="10.944022389465882"><ele>27.0</ele><time>2026-04-05T15:10:17.999Z</time></trkpt><trkpt lat="43.7256823366131" lon="10.944147545146215"><ele>27.000000000000004</ele><time>2026-04-05T15:10:18.999Z</time></trkpt><trkpt lat="43.725641458414366" lon="10.944280154260516"><ele>27.000000000000004</ele><time>2026-04-05T15:10:19.999Z</time></trkpt><trkpt lat="43.725600211573" lon="10.944404591630667"><ele>27.0</ele><time>2026-04-05T15:10:20.999Z</time></trkpt><trkpt lat="43.72555364089527" lon="10.94452926638507"><ele>27.0</ele><time>2026-04-05T15:10:21.999Z</time></trkpt><trkpt lat="43.72549860933751" lon="10.944643801854488"><ele>27.200000000000003</ele><time>2026-04-05T15:10:22.999Z</time></trkpt><trkpt lat="43.725438846093034" lon="10.944750466595936"><ele>27.400000000000002</ele><time>2026-04-05T15:10:23.999Z</time></trkpt><trkpt lat="43.725374865905735" lon="10.944851316415004"><ele>27.599999999999998</ele><time>2026-04-05T15:10:24.999Z</time></trkpt><trkpt lat="43.72530753643342" lon="10.944937738720093"><ele>27.799999999999997</ele><time>2026-04-05T15:10:25.999Z</time></trkpt><trkpt lat="43.725241502736026" lon="10.945007228420744"><ele>28.0</ele><time>2026-04-05T15:10:26.999Z</time></trkpt><trkpt lat="43.725150744649646" lon="10.945093539359679"><ele>28.0</ele><time>2026-04-05T15:10:28.999Z</time></trkpt><trkpt lat="43.72509814240909" lon="10.94514718355297"><ele>28.0</ele><time>2026-04-05T15:10:30.999Z</time></trkpt><trkpt lat="43.72504525578021" lon="10.94519970993834"><ele>28.0</ele><time>2026-04-05T15:10:32.999Z</time></trkpt><trkpt lat="43.72499010199553" lon="10.945253508452799"><ele>28.0</ele><time>2026-04-05T15:10:34.999Z</time></trkpt><trkpt lat="43.72492306222482" lon="10.945329139819783"><ele>28.0</ele><time>2026-04-05T15:10:37.999Z</time></trkpt><trkpt lat="43.72485374260655" lon="10.945401923228173"><ele>28.0</ele><time>2026-04-05T15:10:45.998Z</time></trkpt><trkpt lat="43.724796858612564" lon="10.945442114652375"><ele>28.0</ele><time>2026-04-05T15:10:47.998Z</time></trkpt><trkpt lat="43.72470566398311" lon="10.945528287972817"><ele>28.0</ele><time>2026-04-05T15:10:49.998Z</time></trkpt><trkpt lat="43.724660733008314" lon="10.94560275772591"><ele>27.999999999999996</ele><time>2026-04-05T15:10:50.998Z</time></trkpt><trkpt lat="43.72459916807235" lon="10.945689632408087"><ele>27.999999999999996</ele><time>2026-04-05T15:10:51.998Z</time></trkpt><trkpt lat="43.724518065320396" lon="10.9457723252556"><ele>28.0</ele><time>2026-04-05T15:10:52.998Z</time></trkpt><trkpt lat="43.724424884833354" lon="10.94586305119255"><ele>28.0</ele><time>2026-04-05T15:10:53.998Z</time></trkpt><trkpt lat="43.72432815477332" lon="10.94596032121479"><ele>26.799999999999997</ele><time>2026-04-05T15:10:54.998Z</time></trkpt><trkpt lat="43.72423538723104" lon="10.946047939766574"><ele>25.599999999999998</ele><time>2026-04-05T15:10:55.998Z</time></trkpt><trkpt lat="43.72415133736517" lon="10.946133817002911"><ele>24.4</ele><time>2026-04-05T15:10:56.998Z</time></trkpt><trkpt lat="43.72407664841506" lon="10.946210757740463"><ele>23.200000000000003</ele><time>2026-04-05T15:10:57.998Z</time></trkpt><trkpt lat="43.72400978515731" lon="10.94628161788196"><ele>22.0</ele><time>2026-04-05T15:10:58.998Z</time></trkpt><trkpt lat="43.72394705645545" lon="10.946346924655318"><ele>22.0</ele><time>2026-04-05T15:10:59.998Z</time></trkpt><trkpt lat="43.72385169901661" lon="10.946440708387591"><ele>22.0</ele><time>2026-04-05T15:11:01.998Z</time></trkpt><trkpt lat="43.723793496745294" lon="10.946481624425774"><ele>22.0</ele><time>2026-04-05T15:11:02.998Z</time></trkpt><trkpt lat="43.72366789668204" lon="10.946478368911004"><ele>22.0</ele><time>2026-04-05T15:11:04.998Z</time></trkpt><trkpt lat="43.72357287694104" lon="10.94652761133844"><ele>22.0</ele><time>2026-04-05T15:11:06.998Z</time></trkpt><trkpt lat="43.7235517591289" lon="10.946648881102885"><ele>22.8</ele><time>2026-04-05T15:11:08.998Z</time></trkpt><trkpt lat="43.72359831178533" lon="10.94676518343625"><ele>23.6</ele><time>2026-04-05T15:11:10.998Z</time></trkpt><trkpt lat="43.723696094844804" lon="10.946829047290375"><ele>24.400000000000002</ele><time>2026-04-05T15:11:12.998Z</time></trkpt><trkpt lat="43.72375805541829" lon="10.946856501157468"><ele>25.200000000000003</ele><time>2026-04-05T15:11:13.998Z</time></trkpt><trkpt lat="43.723872418006344" lon="10.946948131810018"><ele>26.0</ele><time>2026-04-05T15:11:16Z</time></trkpt><trkpt lat="43.72393231803356" lon="10.947016744217384"><ele>25.999999999999996</ele><time>2026-04-05T15:11:17Z</time></trkpt><trkpt lat="43.723994263897005" lon="10.94709011897458"><ele>26.0</ele><time>2026-04-05T15:11:18Z</time></trkpt><trkpt lat="43.72405629260145" lon="10.947181032438413"><ele>26.0</ele><time>2026-04-05T15:11:19Z</time></trkpt><trkpt lat="43.72410325544238" lon="10.947286568972727"><ele>26.0</ele><time>2026-04-05T15:11:20Z</time></trkpt><trkpt lat="43.72414730901784" lon="10.947389374658242"><ele>25.999999999999996</ele><time>2026-04-05T15:11:21Z</time></trkpt><trkpt lat="43.72419883548072" lon="10.947495911139711"><ele>26.0</ele><time>2026-04-05T15:11:22Z</time></trkpt><trkpt lat="43.7242546875489" lon="10.947608712870714"><ele>26.0</ele><time>2026-04-05T15:11:23Z</time></trkpt><trkpt lat="43.72431215311726" lon="10.947720404853758"><ele>26.0</ele><time>2026-04-05T15:11:24Z</time></trkpt><trkpt lat="43.724365209004766" lon="10.947836250597502"><ele>26.0</ele><time>2026-04-05T15:11:25Z</time></trkpt><trkpt lat="43.72442127980186" lon="10.947950455642186"><ele>26.0</ele><time>2026-04-05T15:11:26Z</time></trkpt><trkpt lat="43.724479057821256" lon="10.948072078760871"><ele>26.0</ele><time>2026-04-05T15:11:27Z</time></trkpt><trkpt lat="43.7245363344211" lon="10.948192123231678"><ele>26.200000000000003</ele><time>2026-04-05T15:11:28Z</time></trkpt><trkpt lat="43.724583063784955" lon="10.948317185360562"><ele>26.400000000000002</ele><time>2026-04-05T15:11:29Z</time></trkpt><trkpt lat="43.72462361098423" lon="10.948452117250083"><ele>26.6</ele><time>2026-04-05T15:11:30Z</time></trkpt><trkpt lat="43.72465295399279" lon="10.948594613958228"><ele>26.8</ele><time>2026-04-05T15:11:31Z</time></trkpt><trkpt lat="43.724669882580834" lon="10.948737055230026"><ele>27.0</ele><time>2026-04-05T15:11:32Z</time></trkpt><trkpt lat="43.724676085666005" lon="10.94889065421821"><ele>27.0</ele><time>2026-04-05T15:11:33Z</time></trkpt><trkpt lat="43.72467039981097" lon="10.949040230884785"><ele>27.000000000000004</ele><time>2026-04-05T15:11:34Z</time></trkpt><trkpt lat="43.724649267513705" lon="10.949182168821123"><ele>27.000000000000004</ele><time>2026-04-05T15:11:35Z</time></trkpt><trkpt lat="43.72462514534815" lon="10.949324795461742"><ele>27.0</ele><time>2026-04-05T15:11:36Z</time></trkpt><trkpt lat="43.724596050750755" lon="10.949463785545047"><ele>27.0</ele><time>2026-04-05T15:11:37Z</time></trkpt><trkpt lat="43.72456198554695" lon="10.949611539525835"><ele>27.200000000000003</ele><time>2026-04-05T15:11:38Z</time></trkpt><trkpt lat="43.72452655876611" lon="10.94976657427986"><ele>27.400000000000002</ele><time>2026-04-05T15:11:39Z</time></trkpt><trkpt lat="43.724491347187595" lon="10.949916070679539"><ele>27.599999999999998</ele><time>2026-04-05T15:11:40Z</time></trkpt><trkpt lat="43.72445361939408" lon="10.950056631093217"><ele>27.799999999999997</ele><time>2026-04-05T15:11:41Z</time></trkpt><trkpt lat="43.7244148815324" lon="10.95019567544959"><ele>28.0</ele><time>2026-04-05T15:11:42Z</time></trkpt><trkpt lat="43.72437594000337" lon="10.95033719401685"><ele>28.0</ele><time>2026-04-05T15:11:43Z</time></trkpt><trkpt lat="43.724336388044684" lon="10.950469977475045"><ele>27.999999999999996</ele><time>2026-04-05T15:11:44Z</time></trkpt><trkpt lat="43.72430244471428" lon="10.950596493601035"><ele>27.999999999999996</ele><time>2026-04-05T15:11:45Z</time></trkpt><trkpt lat="43.724266774888186" lon="10.950712149212954"><ele>28.0</ele><time>2026-04-05T15:11:46Z</time></trkpt><trkpt lat="43.724230821288614" lon="10.950824187286397"><ele>28.0</ele><time>2026-04-05T15:11:47Z</time></trkpt><trkpt lat="43.72419688918349" lon="10.95092174057597"><ele>27.857142857142858</ele><time>2026-04-05T15:11:48Z</time></trkpt><trkpt lat="43.724166456217425" lon="10.95100869193948"><ele>27.714285714285715</ele><time>2026-04-05T15:11:49Z</time></trkpt><trkpt lat="43.72413010288326" lon="10.951094382212558"><ele>27.57142857142857</ele><time>2026-04-05T15:11:50Z</time></trkpt><trkpt lat="43.72407004463581" lon="10.951163766629488"><ele>27.42857142857143</ele><time>2026-04-05T15:11:51Z</time></trkpt><trkpt lat="43.72400917351398" lon="10.951227575920202"><ele>27.285714285714285</ele><time>2026-04-05T15:11:52Z</time></trkpt><trkpt lat="43.72397942742738" lon="10.951305901356193"><ele>27.142857142857142</ele><time>2026-04-05T15:11:53Z</time></trkpt><trkpt lat="43.72396194372324" lon="10.951423704952973"><ele>27.0</ele><time>2026-04-05T15:11:54Z</time></trkpt><trkpt lat="43.72396802662609" lon="10.951554592200319"><ele>26.75</ele><time>2026-04-05T15:11:55Z</time></trkpt><trkpt lat="43.72396648294804" lon="10.951714635529427"><ele>26.5</ele><time>2026-04-05T15:11:56Z</time></trkpt><trkpt lat="43.7239603292075" lon="10.951868262513806"><ele>26.25</ele><time>2026-04-05T15:11:57Z</time></trkpt><trkpt lat="43.723901436920606" lon="10.952042359578014"><ele>26.0</ele><time>2026-04-05T15:11:57.999Z</time></trkpt><trkpt lat="43.723852855895245" lon="10.952219360487799"><ele>26.0</ele><time>2026-04-05T15:11:58.999Z</time></trkpt><trkpt lat="43.723809280070334" lon="10.952393336699698"><ele>26.0</ele><time>2026-04-05T15:11:59.999Z</time></trkpt><trkpt lat="43.72378460609729" lon="10.952573288615476"><ele>26.0</ele><time>2026-04-05T15:12:00.999Z</time></trkpt><trkpt lat="43.72377274523279" lon="10.952756153610922"><ele>26.0</ele><time>2026-04-05T15:12:01.999Z</time></trkpt><trkpt lat="43.72377022829011" lon="10.952942086356975"><ele>25.75</ele><time>2026-04-05T15:12:02.999Z</time></trkpt><trkpt lat="43.72379146513486" lon="10.953122899551769"><ele>25.5</ele><time>2026-04-05T15:12:03.999Z</time></trkpt><trkpt lat="43.72382455219097" lon="10.95330541111876"><ele>25.25</ele><time>2026-04-05T15:12:04.999Z</time></trkpt><trkpt lat="43.72386933826835" lon="10.95347909728946"><ele>25.0</ele><time>2026-04-05T15:12:05.999Z</time></trkpt><trkpt lat="43.72392400965197" lon="10.953647241513332"><ele>25.5</ele><time>2026-04-05T15:12:06.999Z</time></trkpt><trkpt lat="43.7239868224988" lon="10.953810538654354"><ele>26.0</ele><time>2026-04-05T15:12:07.999Z</time></trkpt><trkpt lat="43.72405573470098" lon="10.95396911388298"><ele>26.5</ele><time>2026-04-05T15:12:08.999Z</time></trkpt><trkpt lat="43.7241197294086" lon="10.95411975387155"><ele>27.0</ele><time>2026-04-05T15:12:09.999Z</time></trkpt><trkpt lat="43.72419713830088" lon="10.954261450886621"><ele>27.0</ele><time>2026-04-05T15:12:10.999Z</time></trkpt><trkpt lat="43.72425265610107" lon="10.954398863448363"><ele>27.0</ele><time>2026-04-05T15:12:11.999Z</time></trkpt><trkpt lat="43.72431006309417" lon="10.95452689303865"><ele>27.0</ele><time>2026-04-05T15:12:12.999Z</time></trkpt><trkpt lat="43.724362058324154" lon="10.954666192849906"><ele>27.0</ele><time>2026-04-05T15:12:13.999Z</time></trkpt><trkpt lat="43.72442502438978" lon="10.954804038246573"><ele>27.0</ele><time>2026-04-05T15:12:14.999Z</time></trkpt><trkpt lat="43.724497610569905" lon="10.954952561428003"><ele>27.0</ele><time>2026-04-05T15:12:15.999Z</time></trkpt><trkpt lat="43.72455895330224" lon="10.955110011532634"><ele>27.0</ele><time>2026-04-05T15:12:16.999Z</time></trkpt><trkpt lat="43.72459642193776" lon="10.955275201562879"><ele>27.0</ele><time>2026-04-05T15:12:17.999Z</time></trkpt><trkpt lat="43.72461586479943" lon="10.955450588841453"><ele>27.0</ele><time>2026-04-05T15:12:18.999Z</time></trkpt><trkpt lat="43.72461145023924" lon="10.955626000070755"><ele>27.0</ele><time>2026-04-05T15:12:19.999Z</time></trkpt><trkpt lat="43.7245867354839" lon="10.955796886671232"><ele>27.0</ele><time>2026-04-05T15:12:20.999Z</time></trkpt><trkpt lat="43.724539854852864" lon="10.955963500057372"><ele>27.0</ele><time>2026-04-05T15:12:21.999Z</time></trkpt><trkpt lat="43.7244914503149" lon="10.956123615564712"><ele>27.25</ele><time>2026-04-05T15:12:22.999Z</time></trkpt><trkpt lat="43.72442986579416" lon="10.956288181569565"><ele>27.5</ele><time>2026-04-05T15:12:23.999Z</time></trkpt><trkpt lat="43.72435834680465" lon="10.956433142676554"><ele>27.75</ele><time>2026-04-05T15:12:24.999Z</time></trkpt><trkpt lat="43.72426929698592" lon="10.956561338605425"><ele>28.0</ele><time>2026-04-05T15:12:25.999Z</time></trkpt><trkpt lat="43.72417977871421" lon="10.956682871548871"><ele>27.75</ele><time>2026-04-05T15:12:26.999Z</time></trkpt><trkpt lat="43.72408996926411" lon="10.956795668610587"><ele>27.5</ele><time>2026-04-05T15:12:27.999Z</time></trkpt><trkpt lat="43.7239898945455" lon="10.956892986060511"><ele>27.25</ele><time>2026-04-05T15:12:28.999Z</time></trkpt><trkpt lat="43.72387955986618" lon="10.95697198842183"><ele>27.0</ele><time>2026-04-05T15:12:29.999Z</time></trkpt><trkpt lat="43.723760667949044" lon="10.957035785797132"><ele>27.0</ele><time>2026-04-05T15:12:30.999Z</time></trkpt><trkpt lat="43.72364135541735" lon="10.957076794476382"><ele>27.0</ele><time>2026-04-05T15:12:31.999Z</time></trkpt><trkpt lat="43.72352323688968" lon="10.957118389753756"><ele>27.0</ele><time>2026-04-05T15:12:32.999Z</time></trkpt><trkpt lat="43.72341326009034" lon="10.957158847892149"><ele>27.0</ele><time>2026-04-05T15:12:33.999Z</time></trkpt><trkpt lat="43.72331213191102" lon="10.957189101358644"><ele>27.166666666666668</ele><time>2026-04-05T15:12:34.999Z</time></trkpt><trkpt lat="43.723217446671796" lon="10.957211735737133"><ele>27.333333333333336</ele><time>2026-04-05T15:12:35.999Z</time></trkpt><trkpt lat="43.7231346337696" lon="10.957237318935553"><ele>27.5</ele><time>2026-04-05T15:12:36.999Z</time></trkpt><trkpt lat="43.723052834238175" lon="10.957261511295151"><ele>27.666666666666668</ele><time>2026-04-05T15:12:37.999Z</time></trkpt><trkpt lat="43.72296972996238" lon="10.957286608561196"><ele>27.833333333333336</ele><time>2026-04-05T15:12:38.999Z</time></trkpt><trkpt lat="43.72289193217155" lon="10.95731069356172"><ele>28.0</ele><time>2026-04-05T15:12:39.999Z</time></trkpt><trkpt lat="43.72281972405358" lon="10.95733364843527"><ele>28.000000000000004</ele><time>2026-04-05T15:12:40.999Z</time></trkpt><trkpt lat="43.7227539808436" lon="10.957354297622038"><ele>28.0</ele><time>2026-04-05T15:12:41.999Z</time></trkpt><trkpt lat="43.722654936963345" lon="10.957387008416386"><ele>28.0</ele><time>2026-04-05T15:12:43.999Z</time></trkpt><trkpt lat="43.72259215197456" lon="10.957409868424529"><ele>28.0</ele><time>2026-04-05T15:12:45.999Z</time></trkpt><trkpt lat="43.72251135761899" lon="10.9574498373856"><ele>28.000000000000004</ele><time>2026-04-05T15:12:53.999Z</time></trkpt><trkpt lat="43.722408206019324" lon="10.957479619339322"><ele>28.0</ele><time>2026-04-05T15:12:55.998Z</time></trkpt><trkpt lat="43.72228789049049" lon="10.95751326973124"><ele>28.000000000000004</ele><time>2026-04-05T15:12:57.998Z</time></trkpt><trkpt lat="43.722220038559186" lon="10.957534680850108"><ele>28.0</ele><time>2026-04-05T15:12:58.998Z</time></trkpt><trkpt lat="43.72214649908932" lon="10.957557141261455"><ele>28.0</ele><time>2026-04-05T15:12:59.998Z</time></trkpt><trkpt lat="43.7220615675031" lon="10.957587195267783"><ele>28.0</ele><time>2026-04-05T15:13:00.998Z</time></trkpt><trkpt lat="43.72197093341169" lon="10.95761946233939"><ele>28.000000000000004</ele><time>2026-04-05T15:13:01.998Z</time></trkpt><trkpt lat="43.721878843394364" lon="10.957652327054998"><ele>28.0</ele><time>2026-04-05T15:13:02.998Z</time></trkpt><trkpt lat="43.7217875986343" lon="10.957683033318595"><ele>28.2</ele><time>2026-04-05T15:13:03.998Z</time></trkpt><trkpt lat="43.721699377620965" lon="10.957711221509927"><ele>28.4</ele><time>2026-04-05T15:13:04.998Z</time></trkpt><trkpt lat="43.72160997314965" lon="10.957745132044488"><ele>28.599999999999998</ele><time>2026-04-05T15:13:05.998Z</time></trkpt><trkpt lat="43.72152260868192" lon="10.957778693603984"><ele>28.799999999999997</ele><time>2026-04-05T15:13:06.998Z</time></trkpt><trkpt lat="43.72142457235042" lon="10.95784406204559"><ele>29.0</ele><time>2026-04-05T15:13:07.998Z</time></trkpt><trkpt lat="43.721341450864834" lon="10.957910965127542"><ele>28.999999999999996</ele><time>2026-04-05T15:13:08.998Z</time></trkpt><trkpt lat="43.721270026036976" lon="10.957973954460478"><ele>29.0</ele><time>2026-04-05T15:13:09.998Z</time></trkpt><trkpt lat="43.721203795766314" lon="10.958036254541788"><ele>29.0</ele><time>2026-04-05T15:13:10.998Z</time></trkpt><trkpt lat="43.72114429838886" lon="10.958094306889496"><ele>29.0</ele><time>2026-04-05T15:13:11.998Z</time></trkpt><trkpt lat="43.72108301248491" lon="10.95814603975689"><ele>28.999999999999996</ele><time>2026-04-05T15:13:12.998Z</time></trkpt><trkpt lat="43.721013916765585" lon="10.958193301114356"><ele>29.0</ele><time>2026-04-05T15:13:13.998Z</time></trkpt><trkpt lat="43.72094897794208" lon="10.958221146584995"><ele>28.833333333333332</ele><time>2026-04-05T15:13:14.998Z</time></trkpt><trkpt lat="43.72089240612392" lon="10.958268185389487"><ele>28.666666666666664</ele><time>2026-04-05T15:13:15.998Z</time></trkpt><trkpt lat="43.72085518517044" lon="10.958338453847734"><ele>28.5</ele><time>2026-04-05T15:13:16.998Z</time></trkpt><trkpt lat="43.72084174973238" lon="10.958435572103449"><ele>28.333333333333336</ele><time>2026-04-05T15:13:17.998Z</time></trkpt><trkpt lat="43.72085107095623" lon="10.95855680961441"><ele>28.166666666666668</ele><time>2026-04-05T15:13:18.998Z</time></trkpt><trkpt lat="43.72088405148746" lon="10.958662741004886"><ele>28.0</ele><time>2026-04-05T15:13:19.998Z</time></trkpt><trkpt lat="43.72089300160215" lon="10.958783924869572"><ele>28.000000000000004</ele><time>2026-04-05T15:13:20.998Z</time></trkpt><trkpt lat="43.720894118981725" lon="10.958910522108756"><ele>28.0</ele><time>2026-04-05T15:13:22Z</time></trkpt><trkpt lat="43.72090260016966" lon="10.959025766021075"><ele>28.0</ele><time>2026-04-05T15:13:23Z</time></trkpt><trkpt lat="43.7209110766459" lon="10.959141923280159"><ele>28.0</ele><time>2026-04-05T15:13:24Z</time></trkpt><trkpt lat="43.72092765819465" lon="10.95927314917008"><ele>28.000000000000004</ele><time>2026-04-05T15:13:25Z</time></trkpt><trkpt lat="43.72094042144914" lon="10.959391640084913"><ele>28.0</ele><time>2026-04-05T15:13:26Z</time></trkpt><trkpt lat="43.72095039622127" lon="10.959505183980543"><ele>28.0</ele><time>2026-04-05T15:13:27Z</time></trkpt><trkpt lat="43.72096909505026" lon="10.959619922673413"><ele>27.999999999999996</ele><time>2026-04-05T15:13:28Z</time></trkpt><trkpt lat="43.72098461143197" lon="10.95973694769159"><ele>27.999999999999996</ele><time>2026-04-05T15:13:29Z</time></trkpt><trkpt lat="43.7209974874286" lon="10.95986197599023"><ele>28.0</ele><time>2026-04-05T15:13:30Z</time></trkpt><trkpt lat="43.72100787254462" lon="10.9599948489784"><ele>28.0</ele><time>2026-04-05T15:13:31Z</time></trkpt><trkpt lat="43.72101611593183" lon="10.960128616992645"><ele>28.0</ele><time>2026-04-05T15:13:32Z</time></trkpt><trkpt lat="43.72101947221638" lon="10.960267297983634"><ele>27.999999999999996</ele><time>2026-04-05T15:13:33Z</time></trkpt><trkpt lat="43.72102043325765" lon="10.960411375904693"><ele>27.999999999999996</ele><time>2026-04-05T15:13:34Z</time></trkpt><trkpt lat="43.72101933773755" lon="10.960552735109415"><ele>28.0</ele><time>2026-04-05T15:13:35Z</time></trkpt><trkpt lat="43.721007717231174" lon="10.960699913946089"><ele>28.0</ele><time>2026-04-05T15:13:36Z</time></trkpt><trkpt lat="43.72098913093383" lon="10.960841213742953"><ele>28.0</ele><time>2026-04-05T15:13:37Z</time></trkpt><trkpt lat="43.72096434128513" lon="10.960980153623334"><ele>27.999999999999996</ele><time>2026-04-05T15:13:38Z</time></trkpt><trkpt lat="43.72094221089675" lon="10.961123944768053"><ele>27.999999999999996</ele><time>2026-04-05T15:13:39Z</time></trkpt><trkpt lat="43.72092307230196" lon="10.961272476612978"><ele>28.0</ele><time>2026-04-05T15:13:40Z</time></trkpt><trkpt lat="43.72090488528121" lon="10.961422921134227"><ele>28.0</ele><time>2026-04-05T15:13:41Z</time></trkpt><trkpt lat="43.72088293525288" lon="10.961584727327564"><ele>27.799999999999997</ele><time>2026-04-05T15:13:42Z</time></trkpt><trkpt lat="43.72086404450367" lon="10.961743766120692"><ele>27.599999999999998</ele><time>2026-04-05T15:13:43Z</time></trkpt><trkpt lat="43.720846332296226" lon="10.961897734710051"><ele>27.400000000000002</ele><time>2026-04-05T15:13:44Z</time></trkpt><trkpt lat="43.72082952336746" lon="10.962044096336662"><ele>27.200000000000003</ele><time>2026-04-05T15:13:45Z</time></trkpt><trkpt lat="43.72081377395748" lon="10.962192958736185"><ele>27.0</ele><time>2026-04-05T15:13:46Z</time></trkpt><trkpt lat="43.72079894118534" lon="10.962338760762247"><ele>27.0</ele><time>2026-04-05T15:13:47Z</time></trkpt><trkpt lat="43.720787735442606" lon="10.96249296783711"><ele>27.0</ele><time>2026-04-05T15:13:48Z</time></trkpt><trkpt lat="43.720777622004775" lon="10.962642844384645"><ele>27.0</ele><time>2026-04-05T15:13:49Z</time></trkpt><trkpt lat="43.72076769614627" lon="10.962805687209833"><ele>27.0</ele><time>2026-04-05T15:13:50Z</time></trkpt><trkpt lat="43.72076677718158" lon="10.962972235588607"><ele>26.8</ele><time>2026-04-05T15:13:51Z</time></trkpt><trkpt lat="43.720773452474965" lon="10.963138224927896"><ele>26.6</ele><time>2026-04-05T15:13:52Z</time></trkpt><trkpt lat="43.72078871830523" lon="10.963281921799114"><ele>26.400000000000002</ele><time>2026-04-05T15:13:53Z</time></trkpt><trkpt lat="43.72080480908114" lon="10.963416960682855"><ele>26.200000000000003</ele><time>2026-04-05T15:13:54Z</time></trkpt><trkpt lat="43.72081986435258" lon="10.963563313629303"><ele>26.0</ele><time>2026-04-05T15:13:55Z</time></trkpt><trkpt lat="43.720830370905304" lon="10.96371710354537"><ele>26.0</ele><time>2026-04-05T15:13:56Z</time></trkpt><trkpt lat="43.72084743418549" lon="10.963876395606642"><ele>26.0</ele><time>2026-04-05T15:13:57Z</time></trkpt><trkpt lat="43.72086321904919" lon="10.964018309145127"><ele>26.0</ele><time>2026-04-05T15:13:58Z</time></trkpt><trkpt lat="43.72087872378001" lon="10.964151243480474"><ele>26.0</ele><time>2026-04-05T15:13:59Z</time></trkpt><trkpt lat="43.72089171743923" lon="10.964290702892475"><ele>26.0</ele><time>2026-04-05T15:14:00Z</time></trkpt><trkpt lat="43.720908020849826" lon="10.964435459148257"><ele>26.200000000000003</ele><time>2026-04-05T15:14:01Z</time></trkpt><trkpt lat="43.72092759913266" lon="10.964576656826518"><ele>26.400000000000002</ele><time>2026-04-05T15:14:02Z</time></trkpt><trkpt lat="43.72094293947905" lon="10.96472434697745"><ele>26.6</ele><time>2026-04-05T15:14:03Z</time></trkpt><trkpt lat="43.72095803027266" lon="10.964871303430577"><ele>26.8</ele><time>2026-04-05T15:14:04Z</time></trkpt><trkpt lat="43.72097822406596" lon="10.965008882686828"><ele>27.0</ele><time>2026-04-05T15:14:05Z</time></trkpt><trkpt lat="43.720999486162704" lon="10.965140237192935"><ele>27.0</ele><time>2026-04-05T15:14:06Z</time></trkpt><trkpt lat="43.72101303277791" lon="10.965270762300682"><ele>27.000000000000004</ele><time>2026-04-05T15:14:06.999Z</time></trkpt><trkpt lat="43.721022150378694" lon="10.965400497346382"><ele>27.000000000000004</ele><time>2026-04-05T15:14:07.999Z</time></trkpt><trkpt lat="43.72102703098221" lon="10.965527754545175"><ele>27.0</ele><time>2026-04-05T15:14:08.999Z</time></trkpt><trkpt lat="43.72103256203283" lon="10.965660484480848"><ele>27.0</ele><time>2026-04-05T15:14:09.999Z</time></trkpt><trkpt lat="43.72101717715272" lon="10.965793103010192"><ele>27.0</ele><time>2026-04-05T15:14:10.999Z</time></trkpt><trkpt lat="43.7209737693764" lon="10.965915184496042"><ele>27.000000000000004</ele><time>2026-04-05T15:14:11.999Z</time></trkpt><trkpt lat="43.720921775152114" lon="10.966020157278033"><ele>27.000000000000004</ele><time>2026-04-05T15:14:12.999Z</time></trkpt><trkpt lat="43.72087164474287" lon="10.966130258692589"><ele>27.0</ele><time>2026-04-05T15:14:13.999Z</time></trkpt><trkpt lat="43.72084420475269" lon="10.966255120703893"><ele>27.0</ele><time>2026-04-05T15:14:14.999Z</time></trkpt><trkpt lat="43.7208413210503" lon="10.96637053383028"><ele>27.0</ele><time>2026-04-05T15:14:15.999Z</time></trkpt><trkpt lat="43.72086819251579" lon="10.966482253491131"><ele>27.000000000000004</ele><time>2026-04-05T15:14:16.999Z</time></trkpt><trkpt lat="43.720934847285605" lon="10.966576838478291"><ele>27.000000000000004</ele><time>2026-04-05T15:14:17.999Z</time></trkpt><trkpt lat="43.721024052188724" lon="10.966654998906767"><ele>27.0</ele><time>2026-04-05T15:14:18.999Z</time></trkpt><trkpt lat="43.72110542105713" lon="10.96676548223625"><ele>27.0</ele><time>2026-04-05T15:14:19.999Z</time></trkpt><trkpt lat="43.721177803582485" lon="10.966865557773756"><ele>26.333333333333336</ele><time>2026-04-05T15:14:20.999Z</time></trkpt><trkpt lat="43.7211810468001" lon="10.967097870491706"><ele>25.666666666666668</ele><time>2026-04-05T15:14:21.999Z</time></trkpt><trkpt lat="43.72121036301893" lon="10.967296231051535"><ele>25.0</ele><time>2026-04-05T15:14:22.999Z</time></trkpt><trkpt lat="43.72124028757742" lon="10.967504137169774"><ele>25.333333333333336</ele><time>2026-04-05T15:14:23.999Z</time></trkpt><trkpt lat="43.72126437441594" lon="10.967722995394281"><ele>25.666666666666664</ele><time>2026-04-05T15:14:24.999Z</time></trkpt><trkpt lat="43.721287898869974" lon="10.967950444082447"><ele>26.0</ele><time>2026-04-05T15:14:25.999Z</time></trkpt><trkpt lat="43.721316135210095" lon="10.968180168696748"><ele>26.0</ele><time>2026-04-05T15:14:26.999Z</time></trkpt><trkpt lat="43.721342092192316" lon="10.968395739619803"><ele>26.0</ele><time>2026-04-05T15:14:27.999Z</time></trkpt><trkpt lat="43.72136615679641" lon="10.968599464595526"><ele>26.0</ele><time>2026-04-05T15:14:28.999Z</time></trkpt><trkpt lat="43.72138607424217" lon="10.968795385661513"><ele>26.0</ele><time>2026-04-05T15:14:29.999Z</time></trkpt><trkpt lat="43.72140142687286" lon="10.968997094760695"><ele>26.0</ele><time>2026-04-05T15:14:30.999Z</time></trkpt><trkpt lat="43.721423105681176" lon="10.969185631287624"><ele>26.0</ele><time>2026-04-05T15:14:31.999Z</time></trkpt><trkpt lat="43.72142997203501" lon="10.969376838706758"><ele>26.0</ele><time>2026-04-05T15:14:32.999Z</time></trkpt><trkpt lat="43.721461654724976" lon="10.969556900810835"><ele>25.75</ele><time>2026-04-05T15:14:33.999Z</time></trkpt><trkpt lat="43.721480156191824" lon="10.969733643794692"><ele>25.5</ele><time>2026-04-05T15:14:34.999Z</time></trkpt><trkpt lat="43.72149752198282" lon="10.969909930337765"><ele>25.25</ele><time>2026-04-05T15:14:35.999Z</time></trkpt><trkpt lat="43.72151237607969" lon="10.970074291960142"><ele>25.0</ele><time>2026-04-05T15:14:36.999Z</time></trkpt><trkpt lat="43.72152459692726" lon="10.97022128220343"><ele>25.000000000000004</ele><time>2026-04-05T15:14:37.999Z</time></trkpt><trkpt lat="43.721535523806544" lon="10.97035802773724"><ele>25.0</ele><time>2026-04-05T15:14:38.999Z</time></trkpt><trkpt lat="43.7215446491272" lon="10.970482264117301"><ele>25.0</ele><time>2026-04-05T15:14:39.999Z</time></trkpt><trkpt lat="43.721547697038304" lon="10.970582494917712"><ele>25.0</ele><time>2026-04-05T15:14:40.999Z</time></trkpt><trkpt lat="43.721548242967486" lon="10.970675414159025"><ele>25.000000000000004</ele><time>2026-04-05T15:14:41.999Z</time></trkpt><trkpt lat="43.721538989756134" lon="10.970781559131854"><ele>25.0</ele><time>2026-04-05T15:14:42.999Z</time></trkpt><trkpt lat="43.721516287513545" lon="10.970885051611292"><ele>25.000000000000004</ele><time>2026-04-05T15:14:43.999Z</time></trkpt><trkpt lat="43.72149939367346" lon="10.970972663914203"><ele>25.0</ele><time>2026-04-05T15:14:44.999Z</time></trkpt><trkpt lat="43.72149378418657" lon="10.971062693775378"><ele>25.0</ele><time>2026-04-05T15:14:45.999Z</time></trkpt><trkpt lat="43.72150744383585" lon="10.971166820790206"><ele>25.0</ele><time>2026-04-05T15:14:46.999Z</time></trkpt><trkpt lat="43.721548908394055" lon="10.97128101824562"><ele>25.000000000000004</ele><time>2026-04-05T15:14:47.999Z</time></trkpt><trkpt lat="43.72160493619514" lon="10.97140393921236"><ele>25.0</ele><time>2026-04-05T15:14:48.999Z</time></trkpt><trkpt lat="43.721645350685414" lon="10.971527128093182"><ele>25.0</ele><time>2026-04-05T15:14:49.999Z</time></trkpt><trkpt lat="43.72166952231142" lon="10.971679233721682"><ele>25.0</ele><time>2026-04-05T15:14:50.999Z</time></trkpt><trkpt lat="43.7216911369278" lon="10.971854914140028"><ele>25.0</ele><time>2026-04-05T15:14:51.999Z</time></trkpt><trkpt lat="43.721688412693155" lon="10.97205620877423"><ele>25.0</ele><time>2026-04-05T15:14:52.999Z</time></trkpt><trkpt lat="43.72170997913201" lon="10.97226054213446"><ele>25.0</ele><time>2026-04-05T15:14:53.999Z</time></trkpt><trkpt lat="43.72173279665095" lon="10.972476729076956"><ele>25.0</ele><time>2026-04-05T15:14:54.999Z</time></trkpt><trkpt lat="43.72177003119143" lon="10.972701108499942"><ele>25.0</ele><time>2026-04-05T15:14:55.999Z</time></trkpt><trkpt lat="43.72178036811723" lon="10.972930024506523"><ele>25.0</ele><time>2026-04-05T15:14:56.999Z</time></trkpt><trkpt lat="43.72178836111036" lon="10.973142258905957"><ele>25.0</ele><time>2026-04-05T15:14:57.999Z</time></trkpt><trkpt lat="43.72178669599866" lon="10.973346689682064"><ele>25.0</ele><time>2026-04-05T15:14:58.999Z</time></trkpt><trkpt lat="43.72177059868964" lon="10.973543512999642"><ele>25.0</ele><time>2026-04-05T15:14:59.999Z</time></trkpt><trkpt lat="43.721739556148755" lon="10.973726057948083"><ele>25.25</ele><time>2026-04-05T15:15:00.999Z</time></trkpt><trkpt lat="43.72169617875487" lon="10.973890773951844"><ele>25.5</ele><time>2026-04-05T15:15:01.999Z</time></trkpt><trkpt lat="43.72163729461977" lon="10.974033995831904"><ele>25.75</ele><time>2026-04-05T15:15:02.998Z</time></trkpt><trkpt lat="43.72156632269933" lon="10.974170846966315"><ele>26.0</ele><time>2026-04-05T15:15:03.998Z</time></trkpt><trkpt lat="43.721499199728136" lon="10.974312442968596"><ele>26.0</ele><time>2026-04-05T15:15:04.998Z</time></trkpt><trkpt lat="43.721455302494206" lon="10.974468824061116"><ele>26.0</ele><time>2026-04-05T15:15:05.998Z</time></trkpt><trkpt lat="43.721439215574776" lon="10.974651955066838"><ele>26.0</ele><time>2026-04-05T15:15:06.998Z</time></trkpt><trkpt lat="43.721431655805446" lon="10.974841378447243"><ele>26.0</ele><time>2026-04-05T15:15:07.998Z</time></trkpt><trkpt lat="43.72141261430989" lon="10.975033984720074"><ele>26.25</ele><time>2026-04-05T15:15:08.998Z</time></trkpt><trkpt lat="43.72138228619913" lon="10.975224287353264"><ele>26.5</ele><time>2026-04-05T15:15:09.998Z</time></trkpt><trkpt lat="43.72134749595272" lon="10.97540961425053"><ele>26.75</ele><time>2026-04-05T15:15:10.998Z</time></trkpt><trkpt lat="43.72131168957421" lon="10.97559724893488"><ele>27.0</ele><time>2026-04-05T15:15:11.998Z</time></trkpt><trkpt lat="43.72126909377278" lon="10.975769755866548"><ele>26.5</ele><time>2026-04-05T15:15:12.998Z</time></trkpt><trkpt lat="43.721218385522704" lon="10.975941633873381"><ele>26.0</ele><time>2026-04-05T15:15:13.998Z</time></trkpt><trkpt lat="43.72116944896474" lon="10.976111471522508"><ele>25.5</ele><time>2026-04-05T15:15:14.998Z</time></trkpt><trkpt lat="43.72111985180981" lon="10.97628248523059"><ele>25.0</ele><time>2026-04-05T15:15:15.998Z</time></trkpt><trkpt lat="43.721072110208794" lon="10.97645748940805"><ele>25.0</ele><time>2026-04-05T15:15:16.998Z</time></trkpt><trkpt lat="43.72102096127773" lon="10.97663660563125"><ele>25.0</ele><time>2026-04-05T15:15:17.998Z</time></trkpt><trkpt lat="43.720964855624565" lon="10.9768172267537"><ele>25.0</ele><time>2026-04-05T15:15:18.998Z</time></trkpt><trkpt lat="43.72091080922968" lon="10.977005937305302"><ele>25.0</ele><time>2026-04-05T15:15:19.998Z</time></trkpt><trkpt lat="43.72085699144911" lon="10.977204696201907"><ele>25.333333333333336</ele><time>2026-04-05T15:15:20.998Z</time></trkpt><trkpt lat="43.72080989060646" lon="10.977408047730878"><ele>25.666666666666664</ele><time>2026-04-05T15:15:21.998Z</time></trkpt><trkpt lat="43.720765409946964" lon="10.977617453895693"><ele>26.0</ele><time>2026-04-05T15:15:22.998Z</time></trkpt><trkpt lat="43.720725029200764" lon="10.977828818367893"><ele>26.333333333333332</ele><time>2026-04-05T15:15:23.998Z</time></trkpt><trkpt lat="43.720690393283014" lon="10.978046916081112"><ele>26.666666666666664</ele><time>2026-04-05T15:15:24.998Z</time></trkpt><trkpt lat="43.72066449334922" lon="10.978266676470666"><ele>27.0</ele><time>2026-04-05T15:15:25.998Z</time></trkpt><trkpt lat="43.72064732093242" lon="10.978486456470046"><ele>27.0</ele><time>2026-04-05T15:15:26.998Z</time></trkpt><trkpt lat="43.72062721907065" lon="10.978706253604262"><ele>27.0</ele><time>2026-04-05T15:15:28Z</time></trkpt><trkpt lat="43.72061143202626" lon="10.978916864172954"><ele>27.0</ele><time>2026-04-05T15:15:29Z</time></trkpt><trkpt lat="43.72060084077444" lon="10.979115008504618"><ele>27.0</ele><time>2026-04-05T15:15:30Z</time></trkpt><trkpt lat="43.72059441967817" lon="10.979290195260377"><ele>27.0</ele><time>2026-04-05T15:15:31Z</time></trkpt><trkpt lat="43.7205784899888" lon="10.979490621426958"><ele>27.0</ele><time>2026-04-05T15:15:32Z</time></trkpt><trkpt lat="43.72057876331319" lon="10.979679857906907"><ele>27.0</ele><time>2026-04-05T15:15:33Z</time></trkpt><trkpt lat="43.720596447384985" lon="10.979873985864861"><ele>27.333333333333336</ele><time>2026-04-05T15:15:34Z</time></trkpt><trkpt lat="43.720628024811255" lon="10.980083562848424"><ele>27.666666666666668</ele><time>2026-04-05T15:15:35Z</time></trkpt><trkpt lat="43.7206609239029" lon="10.98030101521621"><ele>28.0</ele><time>2026-04-05T15:15:36Z</time></trkpt><trkpt lat="43.720702383690615" lon="10.980524924303996"><ele>28.0</ele><time>2026-04-05T15:15:37Z</time></trkpt><trkpt lat="43.720755358818025" lon="10.980752758588118"><ele>28.0</ele><time>2026-04-05T15:15:38Z</time></trkpt><trkpt lat="43.72082475903557" lon="10.980965419214384"><ele>28.0</ele><time>2026-04-05T15:15:39Z</time></trkpt><trkpt lat="43.72089204068249" lon="10.981180850530672"><ele>27.75</ele><time>2026-04-05T15:15:40Z</time></trkpt><trkpt lat="43.720989960063136" lon="10.981358205519088"><ele>27.5</ele><time>2026-04-05T15:15:41Z</time></trkpt><trkpt lat="43.72107369257448" lon="10.98152501928332"><ele>27.25</ele><time>2026-04-05T15:15:42Z</time></trkpt><trkpt lat="43.72114526841508" lon="10.981669810727084"><ele>27.0</ele><time>2026-04-05T15:15:43Z</time></trkpt><trkpt lat="43.72120620015689" lon="10.981807966243561"><ele>26.6</ele><time>2026-04-05T15:15:44Z</time></trkpt><trkpt lat="43.72124863287728" lon="10.981949328207204"><ele>26.200000000000003</ele><time>2026-04-05T15:15:45Z</time></trkpt><trkpt lat="43.721266056348156" lon="10.982069450350462"><ele>25.8</ele><time>2026-04-05T15:15:46Z</time></trkpt><trkpt lat="43.721264350157405" lon="10.982183334865564"><ele>25.4</ele><time>2026-04-05T15:15:47Z</time></trkpt><trkpt lat="43.72123681006328" lon="10.98230885285167"><ele>25.0</ele><time>2026-04-05T15:15:48Z</time></trkpt><trkpt lat="43.72118606521456" lon="10.98242930197168"><ele>25.2</ele><time>2026-04-05T15:15:49Z</time></trkpt><trkpt lat="43.721131579374784" lon="10.982558807362471"><ele>25.4</ele><time>2026-04-05T15:15:50Z</time></trkpt><trkpt lat="43.72110576686076" lon="10.982695486089035"><ele>25.6</ele><time>2026-04-05T15:15:51Z</time></trkpt><trkpt lat="43.721115774068444" lon="10.98282656883441"><ele>25.8</ele><time>2026-04-05T15:15:52Z</time></trkpt><trkpt lat="43.72115757925928" lon="10.982942198434932"><ele>26.0</ele><time>2026-04-05T15:15:53Z</time></trkpt><trkpt lat="43.72122674504706" lon="10.983020953443202"><ele>26.0</ele><time>2026-04-05T15:15:54Z</time></trkpt><trkpt lat="43.721317442616865" lon="10.983064093730817"><ele>26.0</ele><time>2026-04-05T15:15:55Z</time></trkpt><trkpt lat="43.7214272388204" lon="10.983057784939673"><ele>26.0</ele><time>2026-04-05T15:15:56Z</time></trkpt><trkpt lat="43.72154276486262" lon="10.983021187679801"><ele>26.0</ele><time>2026-04-05T15:15:57Z</time></trkpt><trkpt lat="43.72165399163051" lon="10.982974946883735"><ele>26.0</ele><time>2026-04-05T15:15:58Z</time></trkpt><trkpt lat="43.72176571545664" lon="10.982956069805079"><ele>26.0</ele><time>2026-04-05T15:15:59Z</time></trkpt><trkpt lat="43.72189250789025" lon="10.9829936859897"><ele>26.0</ele><time>2026-04-05T15:16:00Z</time></trkpt><trkpt lat="43.72201605503297" lon="10.983086067737526"><ele>26.0</ele><time>2026-04-05T15:16:01Z</time></trkpt><trkpt lat="43.72211592086318" lon="10.983241759656194"><ele>26.0</ele><time>2026-04-05T15:16:02Z</time></trkpt><trkpt lat="43.722226088873214" lon="10.983386129859316"><ele>26.0</ele><time>2026-04-05T15:16:03Z</time></trkpt><trkpt lat="43.72234184515291" lon="10.98353629063962"><ele>26.0</ele><time>2026-04-05T15:16:04Z</time></trkpt><trkpt lat="43.722462628927666" lon="10.98369325864272"><ele>26.0</ele><time>2026-04-05T15:16:05Z</time></trkpt><trkpt lat="43.722588560186374" lon="10.983856835085483"><ele>26.0</ele><time>2026-04-05T15:16:06Z</time></trkpt><trkpt lat="43.722714515425565" lon="10.98402361685651"><ele>26.0</ele><time>2026-04-05T15:16:07Z</time></trkpt><trkpt lat="43.72283820265826" lon="10.984185079434496"><ele>26.0</ele><time>2026-04-05T15:16:08Z</time></trkpt><trkpt lat="43.72296054132116" lon="10.984344763299106"><ele>26.0</ele><time>2026-04-05T15:16:09Z</time></trkpt><trkpt lat="43.723082220793756" lon="10.984503586726392"><ele>26.0</ele><time>2026-04-05T15:16:10Z</time></trkpt><trkpt lat="43.72320213414977" lon="10.984662084528962"><ele>26.0</ele><time>2026-04-05T15:16:11Z</time></trkpt><trkpt lat="43.72332780458759" lon="10.984811019094286"><ele>26.0</ele><time>2026-04-05T15:16:12Z</time></trkpt><trkpt lat="43.72343506946116" lon="10.984982789612676"><ele>26.0</ele><time>2026-04-05T15:16:12.999Z</time></trkpt><trkpt lat="43.723527703869216" lon="10.985169942117393"><ele>26.0</ele><time>2026-04-05T15:16:13.999Z</time></trkpt><trkpt lat="43.72359715632872" lon="10.985370894390726"><ele>25.75</ele><time>2026-04-05T15:16:14.999Z</time></trkpt><trkpt lat="43.72363279779221" lon="10.985570666901564"><ele>25.5</ele><time>2026-04-05T15:16:15.999Z</time></trkpt><trkpt lat="43.723689037641925" lon="10.98574528978415"><ele>25.25</ele><time>2026-04-05T15:16:16.999Z</time></trkpt><trkpt lat="43.723722878850516" lon="10.985912466856773"><ele>25.0</ele><time>2026-04-05T15:16:17.999Z</time></trkpt><trkpt lat="43.72376621892076" lon="10.986063723574562"><ele>24.8</ele><time>2026-04-05T15:16:18.999Z</time></trkpt><trkpt lat="43.723819537090854" lon="10.986197834244479"><ele>24.6</ele><time>2026-04-05T15:16:19.999Z</time></trkpt><trkpt lat="43.72387986200192" lon="10.98632365821867"><ele>24.4</ele><time>2026-04-05T15:16:20.999Z</time></trkpt><trkpt lat="43.72394943463841" lon="10.9864482730827"><ele>24.2</ele><time>2026-04-05T15:16:21.999Z</time></trkpt><trkpt lat="43.72402439509473" lon="10.98656683717089"><ele>24.0</ele><time>2026-04-05T15:16:22.999Z</time></trkpt><trkpt lat="43.72410396917999" lon="10.986666745501116"><ele>24.2</ele><time>2026-04-05T15:16:23.999Z</time></trkpt><trkpt lat="43.7241870970053" lon="10.986767397067245"><ele>24.4</ele><time>2026-04-05T15:16:24.999Z</time></trkpt><trkpt lat="43.724279962164935" lon="10.986852466984425"><ele>24.6</ele><time>2026-04-05T15:16:25.999Z</time></trkpt><trkpt lat="43.72437516718305" lon="10.98693136544829"><ele>24.8</ele><time>2026-04-05T15:16:26.999Z</time></trkpt><trkpt lat="43.72446754122389" lon="10.987014807212214"><ele>25.0</ele><time>2026-04-05T15:16:27.999Z</time></trkpt><trkpt lat="43.72455678586292" lon="10.98709795935008"><ele>25.4</ele><time>2026-04-05T15:16:28.999Z</time></trkpt><trkpt lat="43.7246476550592" lon="10.987185771560936"><ele>25.8</ele><time>2026-04-05T15:16:29.999Z</time></trkpt><trkpt lat="43.72473792748201" lon="10.987275726647736"><ele>26.200000000000003</ele><time>2026-04-05T15:16:30.999Z</time></trkpt><trkpt lat="43.72483073891062" lon="10.98737059083644"><ele>26.6</ele><time>2026-04-05T15:16:31.999Z</time></trkpt><trkpt lat="43.7249151345397" lon="10.987468769953207"><ele>27.0</ele><time>2026-04-05T15:16:32.999Z</time></trkpt><trkpt lat="43.7249923267562" lon="10.98757686044683"><ele>27.0</ele><time>2026-04-05T15:16:33.999Z</time></trkpt><trkpt lat="43.72507543528189" lon="10.987686595634267"><ele>27.0</ele><time>2026-04-05T15:16:34.999Z</time></trkpt><trkpt lat="43.72516050047771" lon="10.987798546563388"><ele>27.0</ele><time>2026-04-05T15:16:35.999Z</time></trkpt><trkpt lat="43.725242082697406" lon="10.987919016819616"><ele>27.0</ele><time>2026-04-05T15:16:36.999Z</time></trkpt><trkpt lat="43.72532538686652" lon="10.988033057353478"><ele>27.0</ele><time>2026-04-05T15:16:37.999Z</time></trkpt><trkpt lat="43.72541112339489" lon="10.988148314752122"><ele>27.0</ele><time>2026-04-05T15:16:38.999Z</time></trkpt><trkpt lat="43.72549424801194" lon="10.988259268662278"><ele>27.0</ele><time>2026-04-05T15:16:39.999Z</time></trkpt><trkpt lat="43.7255779749537" lon="10.988368945977426"><ele>27.0</ele><time>2026-04-05T15:16:40.999Z</time></trkpt><trkpt lat="43.7256634860484" lon="10.988476417673196"><ele>27.0</ele><time>2026-04-05T15:16:41.999Z</time></trkpt><trkpt lat="43.72575067131741" lon="10.988584521662728"><ele>27.0</ele><time>2026-04-05T15:16:42.999Z</time></trkpt><trkpt lat="43.72583757927845" lon="10.988689405334325"><ele>27.0</ele><time>2026-04-05T15:16:43.999Z</time></trkpt><trkpt lat="43.72592793010343" lon="10.988793707912462"><ele>27.0</ele><time>2026-04-05T15:16:44.999Z</time></trkpt><trkpt lat="43.726017204709066" lon="10.988902483480498"><ele>26.75</ele><time>2026-04-05T15:16:45.999Z</time></trkpt><trkpt lat="43.726107636204524" lon="10.989019704605626"><ele>26.5</ele><time>2026-04-05T15:16:46.999Z</time></trkpt><trkpt lat="43.72619689438249" lon="10.989138778764978"><ele>26.25</ele><time>2026-04-05T15:16:47.999Z</time></trkpt><trkpt lat="43.72629069100338" lon="10.989254747322681"><ele>26.0</ele><time>2026-04-05T15:16:48.999Z</time></trkpt><trkpt lat="43.726378968381795" lon="10.989371544617082"><ele>26.0</ele><time>2026-04-05T15:16:49.999Z</time></trkpt><trkpt lat="43.72646611098584" lon="10.989484706566323"><ele>26.0</ele><time>2026-04-05T15:16:50.999Z</time></trkpt><trkpt lat="43.72655131474983" lon="10.989599792302215"><ele>26.0</ele><time>2026-04-05T15:16:51.999Z</time></trkpt><trkpt lat="43.72663010817748" lon="10.989723738591831"><ele>26.0</ele><time>2026-04-05T15:16:52.999Z</time></trkpt><trkpt lat="43.72671214307248" lon="10.989841220503097"><ele>26.0</ele><time>2026-04-05T15:16:53.999Z</time></trkpt><trkpt lat="43.72678932553917" lon="10.989954772873386"><ele>26.0</ele><time>2026-04-05T15:16:54.999Z</time></trkpt><trkpt lat="43.72686452561652" lon="10.990067965513427"><ele>26.0</ele><time>2026-04-05T15:16:55.999Z</time></trkpt><trkpt lat="43.726930272489014" lon="10.99018944084323"><ele>26.0</ele><time>2026-04-05T15:16:56.999Z</time></trkpt><trkpt lat="43.726979545015226" lon="10.990326610110504"><ele>26.0</ele><time>2026-04-05T15:16:57.999Z</time></trkpt><trkpt lat="43.72700320707272" lon="10.990478131796928"><ele>25.5</ele><time>2026-04-05T15:16:58.999Z</time></trkpt><trkpt lat="43.72701465403483" lon="10.990639514073562"><ele>25.0</ele><time>2026-04-05T15:16:59.999Z</time></trkpt><trkpt lat="43.72701608418866" lon="10.990802544985538"><ele>24.5</ele><time>2026-04-05T15:17:00.999Z</time></trkpt><trkpt lat="43.72701311715289" lon="10.99096133736236"><ele>24.0</ele><time>2026-04-05T15:17:01.999Z</time></trkpt><trkpt lat="43.727013837334475" lon="10.991117115502066"><ele>23.799999999999997</ele><time>2026-04-05T15:17:02.999Z</time></trkpt><trkpt lat="43.72701777368219" lon="10.991271324487357"><ele>23.599999999999998</ele><time>2026-04-05T15:17:03.999Z</time></trkpt><trkpt lat="43.727037692755594" lon="10.991420993351051"><ele>23.4</ele><time>2026-04-05T15:17:04.999Z</time></trkpt><trkpt lat="43.727060350624214" lon="10.991572989086178"><ele>23.2</ele><time>2026-04-05T15:17:05.999Z</time></trkpt><trkpt lat="43.72708466021336" lon="10.991723160602156"><ele>23.0</ele><time>2026-04-05T15:17:06.999Z</time></trkpt><trkpt lat="43.72710897888419" lon="10.991870207662489"><ele>23.2</ele><time>2026-04-05T15:17:07.998Z</time></trkpt><trkpt lat="43.727133727851424" lon="10.992015646470222"><ele>23.4</ele><time>2026-04-05T15:17:08.998Z</time></trkpt><trkpt lat="43.7271580439703" lon="10.992163742324015"><ele>23.599999999999998</ele><time>2026-04-05T15:17:09.998Z</time></trkpt><trkpt lat="43.72718165993619" lon="10.99231052017617"><ele>23.799999999999997</ele><time>2026-04-05T15:17:10.998Z</time></trkpt><trkpt lat="43.72720629587581" lon="10.992455342429327"><ele>24.0</ele><time>2026-04-05T15:17:11.998Z</time></trkpt><trkpt lat="43.72723038594212" lon="10.992601350780065"><ele>24.0</ele><time>2026-04-05T15:17:12.998Z</time></trkpt><trkpt lat="43.727255055402736" lon="10.992746510098412"><ele>24.0</ele><time>2026-04-05T15:17:13.998Z</time></trkpt><trkpt lat="43.72728056903491" lon="10.992893181979492"><ele>24.0</ele><time>2026-04-05T15:17:14.998Z</time></trkpt><trkpt lat="43.727304033866915" lon="10.993038693133686"><ele>24.0</ele><time>2026-04-05T15:17:15.998Z</time></trkpt><trkpt lat="43.72733410293237" lon="10.993187484810534"><ele>24.0</ele><time>2026-04-05T15:17:16.998Z</time></trkpt><trkpt lat="43.7273600113144" lon="10.993333374822376"><ele>24.4</ele><time>2026-04-05T15:17:17.998Z</time></trkpt><trkpt lat="43.72738586592654" lon="10.993483202511857"><ele>24.799999999999997</ele><time>2026-04-05T15:17:18.998Z</time></trkpt><trkpt lat="43.727411199561885" lon="10.993631387167522"><ele>25.200000000000003</ele><time>2026-04-05T15:17:19.998Z</time></trkpt><trkpt lat="43.72743587521567" lon="10.993779639660822"><ele>25.6</ele><time>2026-04-05T15:17:20.998Z</time></trkpt><trkpt lat="43.727460829616795" lon="10.993929558672392"><ele>26.0</ele><time>2026-04-05T15:17:21.998Z</time></trkpt><trkpt lat="43.72748573335971" lon="10.994078773006098"><ele>26.200000000000003</ele><time>2026-04-05T15:17:22.998Z</time></trkpt><trkpt lat="43.727512139487715" lon="10.994226822913879"><ele>26.400000000000002</ele><time>2026-04-05T15:17:23.998Z</time></trkpt><trkpt lat="43.72753684050085" lon="10.994376174349393"><ele>26.6</ele><time>2026-04-05T15:17:24.998Z</time></trkpt><trkpt lat="43.727563045384784" lon="10.994525255650933"><ele>26.8</ele><time>2026-04-05T15:17:25.998Z</time></trkpt><trkpt lat="43.72758827160033" lon="10.994674177143173"><ele>27.0</ele><time>2026-04-05T15:17:26.998Z</time></trkpt><trkpt lat="43.72761446897493" lon="10.994822102735794"><ele>27.0</ele><time>2026-04-05T15:17:27.998Z</time></trkpt><trkpt lat="43.72764029446593" lon="10.994970815048871"><ele>27.000000000000004</ele><time>2026-04-05T15:17:28.998Z</time></trkpt><trkpt lat="43.72766719189898" lon="10.995119164452957"><ele>27.000000000000004</ele><time>2026-04-05T15:17:29.998Z</time></trkpt><trkpt lat="43.727694163511295" lon="10.99526900948065"><ele>27.0</ele><time>2026-04-05T15:17:30.998Z</time></trkpt><trkpt lat="43.72772078773438" lon="10.99541946914206"><ele>27.0</ele><time>2026-04-05T15:17:31.998Z</time></trkpt><trkpt lat="43.727747094039394" lon="10.99557060093038"><ele>27.200000000000003</ele><time>2026-04-05T15:17:32.998Z</time></trkpt><trkpt lat="43.72777217040322" lon="10.995713916295108"><ele>27.400000000000002</ele><time>2026-04-05T15:17:34Z</time></trkpt><trkpt lat="43.7277944109656" lon="10.995852049449379"><ele>27.599999999999998</ele><time>2026-04-05T15:17:35Z</time></trkpt><trkpt lat="43.727817354141266" lon="10.995992433288908"><ele>27.799999999999997</ele><time>2026-04-05T15:17:36Z</time></trkpt><trkpt lat="43.727842299670144" lon="10.996128846515116"><ele>28.0</ele><time>2026-04-05T15:17:37Z</time></trkpt><trkpt lat="43.72786464166083" lon="10.996261465113262"><ele>28.0</ele><time>2026-04-05T15:17:38Z</time></trkpt><trkpt lat="43.7278898445622" lon="10.996397271771679"><ele>27.999999999999996</ele><time>2026-04-05T15:17:39Z</time></trkpt><trkpt lat="43.72791443215611" lon="10.996531927416367"><ele>27.999999999999996</ele><time>2026-04-05T15:17:40Z</time></trkpt><trkpt lat="43.72793840964404" lon="10.996666118375478"><ele>28.0</ele><time>2026-04-05T15:17:41Z</time></trkpt><trkpt lat="43.72796237442971" lon="10.996804133373985"><ele>28.0</ele><time>2026-04-05T15:17:42Z</time></trkpt><trkpt lat="43.72798719469161" lon="10.996947405448902"><ele>28.0</ele><time>2026-04-05T15:17:43Z</time></trkpt><trkpt lat="43.727996134303496" lon="10.997096814862417"><ele>27.999999999999996</ele><time>2026-04-05T15:17:44Z</time></trkpt><trkpt lat="43.72802102299451" lon="10.997241754757317"><ele>27.999999999999996</ele><time>2026-04-05T15:17:45Z</time></trkpt><trkpt lat="43.72804472896168" lon="10.997388574011074"><ele>28.0</ele><time>2026-04-05T15:17:46Z</time></trkpt><trkpt lat="43.72806853511194" lon="10.997536797253012"><ele>28.0</ele><time>2026-04-05T15:17:47Z</time></trkpt><trkpt lat="43.728109154590236" lon="10.9976781639244"><ele>28.0</ele><time>2026-04-05T15:17:48Z</time></trkpt><trkpt lat="43.72813334933821" lon="10.99782770306193"><ele>28.0</ele><time>2026-04-05T15:17:49Z</time></trkpt><trkpt lat="43.72816033512336" lon="10.997979837876375"><ele>28.0</ele><time>2026-04-05T15:17:50Z</time></trkpt><trkpt lat="43.728169174637884" lon="10.998138041094345"><ele>28.0</ele><time>2026-04-05T15:17:51Z</time></trkpt><trkpt lat="43.72819367635009" lon="10.99828992446879"><ele>28.0</ele><time>2026-04-05T15:17:52Z</time></trkpt><trkpt lat="43.72821833226794" lon="10.998443244768826"><ele>28.0</ele><time>2026-04-05T15:17:53Z</time></trkpt><trkpt lat="43.72824422778606" lon="10.998596300958283"><ele>28.0</ele><time>2026-04-05T15:17:54Z</time></trkpt><trkpt lat="43.7282692332724" lon="10.998746419064679"><ele>28.0</ele><time>2026-04-05T15:17:55Z</time></trkpt><trkpt lat="43.7282946788999" lon="10.998899179682969"><ele>28.0</ele><time>2026-04-05T15:17:56Z</time></trkpt><trkpt lat="43.728319580907936" lon="10.999048676597033"><ele>27.999999999999996</ele><time>2026-04-05T15:17:57Z</time></trkpt><trkpt lat="43.72834425603754" lon="10.999198299482822"><ele>27.999999999999996</ele><time>2026-04-05T15:17:58Z</time></trkpt><trkpt lat="43.72836925971566" lon="10.999347579408507"><ele>28.0</ele><time>2026-04-05T15:17:59Z</time></trkpt><trkpt lat="43.72839431716569" lon="10.999497180554206"><ele>28.0</ele><time>2026-04-05T15:18:00Z</time></trkpt><trkpt lat="43.728419738220204" lon="10.999645331696122"><ele>28.0</ele><time>2026-04-05T15:18:01Z</time></trkpt><trkpt lat="43.72844530097532" lon="10.999790799664774"><ele>27.999999999999996</ele><time>2026-04-05T15:18:02Z</time></trkpt><trkpt lat="43.72847034911793" lon="10.99993548477464"><ele>27.999999999999996</ele><time>2026-04-05T15:18:03Z</time></trkpt><trkpt lat="43.72849432427046" lon="11.000073716226586"><ele>28.0</ele><time>2026-04-05T15:18:04Z</time></trkpt><trkpt lat="43.72853480803767" lon="11.000197266048835"><ele>28.0</ele><time>2026-04-05T15:18:05Z</time></trkpt><trkpt lat="43.72855474688759" lon="11.000311004926255"><ele>28.000000000000004</ele><time>2026-04-05T15:18:06Z</time></trkpt><trkpt lat="43.72857321118286" lon="11.000424516753439"><ele>28.0</ele><time>2026-04-05T15:18:07Z</time></trkpt><trkpt lat="43.72859218426645" lon="11.000530561433763"><ele>28.0</ele><time>2026-04-05T15:18:08Z</time></trkpt><trkpt lat="43.72860760630989" lon="11.000624954875232"><ele>28.0</ele><time>2026-04-05T15:18:09Z</time></trkpt><trkpt lat="43.72860582912687" lon="11.000756886326014"><ele>28.000000000000004</ele><time>2026-04-05T15:18:11Z</time></trkpt><trkpt lat="43.72857602037015" lon="11.000909770583583"><ele>28.0</ele><time>2026-04-05T15:18:13Z</time></trkpt><trkpt lat="43.72854667989848" lon="11.000987321667413"><ele>28.000000000000004</ele><time>2026-04-05T15:18:14Z</time></trkpt><trkpt lat="43.72852726919856" lon="11.001081269356193"><ele>28.0</ele><time>2026-04-05T15:18:15Z</time></trkpt><trkpt lat="43.72852318002164" lon="11.0011816696054"><ele>28.0</ele><time>2026-04-05T15:18:16Z</time></trkpt><trkpt lat="43.72851510094918" lon="11.001296253484384"><ele>28.0</ele><time>2026-04-05T15:18:16.999Z</time></trkpt><trkpt lat="43.72848332888721" lon="11.001416922888627"><ele>28.000000000000004</ele><time>2026-04-05T15:18:17.999Z</time></trkpt><trkpt lat="43.72844015687311" lon="11.001537078265029"><ele>28.0</ele><time>2026-04-05T15:18:18.999Z</time></trkpt><trkpt lat="43.72838964727008" lon="11.001666672268748"><ele>28.0</ele><time>2026-04-05T15:18:19.999Z</time></trkpt><trkpt lat="43.728354166457216" lon="11.001792204665728"><ele>27.999999999999996</ele><time>2026-04-05T15:18:20.999Z</time></trkpt><trkpt lat="43.72832576991994" lon="11.001919265941497"><ele>27.999999999999996</ele><time>2026-04-05T15:18:21.999Z</time></trkpt><trkpt lat="43.728308260637476" lon="11.002060524541948"><ele>28.0</ele><time>2026-04-05T15:18:22.999Z</time></trkpt><trkpt lat="43.728290527358" lon="11.002194940458839"><ele>28.0</ele><time>2026-04-05T15:18:23.999Z</time></trkpt><trkpt lat="43.72827471814063" lon="11.00233337443388"><ele>28.0</ele><time>2026-04-05T15:18:24.999Z</time></trkpt><trkpt lat="43.728258846544115" lon="11.00246838911025"><ele>27.999999999999996</ele><time>2026-04-05T15:18:25.999Z</time></trkpt><trkpt lat="43.72824163362857" lon="11.002606798786594"><ele>27.999999999999996</ele><time>2026-04-05T15:18:26.999Z</time></trkpt><trkpt lat="43.72822436002291" lon="11.002747719504601"><ele>28.0</ele><time>2026-04-05T15:18:27.999Z</time></trkpt><trkpt lat="43.72820378771667" lon="11.002893149461412"><ele>28.0</ele><time>2026-04-05T15:18:28.999Z</time></trkpt><trkpt lat="43.72817947981951" lon="11.003040305074022"><ele>28.2</ele><time>2026-04-05T15:18:29.999Z</time></trkpt><trkpt lat="43.728158761000074" lon="11.003192934424295"><ele>28.4</ele><time>2026-04-05T15:18:30.999Z</time></trkpt><trkpt lat="43.72813993896072" lon="11.003351895630427"><ele>28.599999999999998</ele><time>2026-04-05T15:18:31.999Z</time></trkpt><trkpt lat="43.72811987129786" lon="11.003501472900135"><ele>28.799999999999997</ele><time>2026-04-05T15:18:32.999Z</time></trkpt><trkpt lat="43.72809927056229" lon="11.003649678374147"><ele>29.0</ele><time>2026-04-05T15:18:33.999Z</time></trkpt><trkpt lat="43.728078916243774" lon="11.00380361088376"><ele>30.0</ele><time>2026-04-05T15:18:34.999Z</time></trkpt><trkpt lat="43.72805712377732" lon="11.003958725752467"><ele>31.0</ele><time>2026-04-05T15:18:35.999Z</time></trkpt><trkpt lat="43.728029731648526" lon="11.004117242697962"><ele>32.0</ele><time>2026-04-05T15:18:36.999Z</time></trkpt><trkpt lat="43.728007071013295" lon="11.004274282510227"><ele>33.0</ele><time>2026-04-05T15:18:37.999Z</time></trkpt><trkpt lat="43.72798796449394" lon="11.004427996893758"><ele>33.25</ele><time>2026-04-05T15:18:38.999Z</time></trkpt><trkpt lat="43.72796594295631" lon="11.004580121495023"><ele>33.5</ele><time>2026-04-05T15:18:39.999Z</time></trkpt><trkpt lat="43.727940704837074" lon="11.004733053437421"><ele>33.75</ele><time>2026-04-05T15:18:40.999Z</time></trkpt><trkpt lat="43.72791440805399" lon="11.004890613518683"><ele>34.0</ele><time>2026-04-05T15:18:41.999Z</time></trkpt><trkpt lat="43.72788937756121" lon="11.005055279846943"><ele>34.0</ele><time>2026-04-05T15:18:42.999Z</time></trkpt><trkpt lat="43.727865919217244" lon="11.00522027050168"><ele>34.0</ele><time>2026-04-05T15:18:43.999Z</time></trkpt><trkpt lat="43.72784107138085" lon="11.005377893585433"><ele>34.0</ele><time>2026-04-05T15:18:44.999Z</time></trkpt><trkpt lat="43.72781601149793" lon="11.005535678919134"><ele>34.0</ele><time>2026-04-05T15:18:45.999Z</time></trkpt><trkpt lat="43.72779344300824" lon="11.005688522937723"><ele>34.75</ele><time>2026-04-05T15:18:46.999Z</time></trkpt><trkpt lat="43.72777443172524" lon="11.00584315991552"><ele>35.5</ele><time>2026-04-05T15:18:47.999Z</time></trkpt><trkpt lat="43.72775847025446" lon="11.005998722788872"><ele>36.25</ele><time>2026-04-05T15:18:48.999Z</time></trkpt><trkpt lat="43.72774260119662" lon="11.006157207599484"><ele>37.0</ele><time>2026-04-05T15:18:49.999Z</time></trkpt><trkpt lat="43.72772812598604" lon="11.006313185952484"><ele>36.75</ele><time>2026-04-05T15:18:50.999Z</time></trkpt><trkpt lat="43.72771406048707" lon="11.006465716755658"><ele>36.5</ele><time>2026-04-05T15:18:51.999Z</time></trkpt><trkpt lat="43.727694095930836" lon="11.006622555295555"><ele>36.25</ele><time>2026-04-05T15:18:52.999Z</time></trkpt><trkpt lat="43.72767586700896" lon="11.006779849515945"><ele>36.0</ele><time>2026-04-05T15:18:53.999Z</time></trkpt><trkpt lat="43.727656102841976" lon="11.006933847233093"><ele>36.0</ele><time>2026-04-05T15:18:54.999Z</time></trkpt><trkpt lat="43.727636511237485" lon="11.007089080536996"><ele>36.0</ele><time>2026-04-05T15:18:55.999Z</time></trkpt><trkpt lat="43.7276158345647" lon="11.007242527757354"><ele>36.0</ele><time>2026-04-05T15:18:56.999Z</time></trkpt><trkpt lat="43.72759619663317" lon="11.007393280513947"><ele>36.0</ele><time>2026-04-05T15:18:57.999Z</time></trkpt><trkpt lat="43.727574763645855" lon="11.007550062545125"><ele>36.25</ele><time>2026-04-05T15:18:58.999Z</time></trkpt><trkpt lat="43.727552570824194" lon="11.007703805426226"><ele>36.5</ele><time>2026-04-05T15:18:59.999Z</time></trkpt><trkpt lat="43.727530097711586" lon="11.007856646717533"><ele>36.75</ele><time>2026-04-05T15:19:00.999Z</time></trkpt><trkpt lat="43.72750329483158" lon="11.008008149373978"><ele>37.0</ele><time>2026-04-05T15:19:01.999Z</time></trkpt><trkpt lat="43.727478773067595" lon="11.00816091517391"><ele>37.0</ele><time>2026-04-05T15:19:02.999Z</time></trkpt><trkpt lat="43.727450821883416" lon="11.008310557277749"><ele>37.0</ele><time>2026-04-05T15:19:03.999Z</time></trkpt><trkpt lat="43.72742254930275" lon="11.008460868450252"><ele>37.0</ele><time>2026-04-05T15:19:04.999Z</time></trkpt><trkpt lat="43.72739248005323" lon="11.008607260475658"><ele>37.0</ele><time>2026-04-05T15:19:05.999Z</time></trkpt><trkpt lat="43.72736133197194" lon="11.008746214657704"><ele>37.0</ele><time>2026-04-05T15:19:06.999Z</time></trkpt><trkpt lat="43.72732807234696" lon="11.008881690760342"><ele>37.4</ele><time>2026-04-05T15:19:07.999Z</time></trkpt><trkpt lat="43.727297669807676" lon="11.009017342977613"><ele>37.800000000000004</ele><time>2026-04-05T15:19:08.999Z</time></trkpt><trkpt lat="43.72726143691004" lon="11.009145564244177"><ele>38.2</ele><time>2026-04-05T15:19:09.999Z</time></trkpt><trkpt lat="43.727225061095695" lon="11.009265299486183"><ele>38.6</ele><time>2026-04-05T15:19:10.999Z</time></trkpt><trkpt lat="43.72718928388551" lon="11.009370998160504"><ele>39.0</ele><time>2026-04-05T15:19:11.998Z</time></trkpt><trkpt lat="43.72715156847873" lon="11.009472019729909"><ele>39.0</ele><time>2026-04-05T15:19:12.998Z</time></trkpt><trkpt lat="43.72711554114757" lon="11.009564177977362"><ele>39.0</ele><time>2026-04-05T15:19:13.998Z</time></trkpt><trkpt lat="43.72707572524888" lon="11.009644757761993"><ele>39.0</ele><time>2026-04-05T15:19:14.998Z</time></trkpt><trkpt lat="43.72697817626932" lon="11.009744945550985"><ele>39.0</ele><time>2026-04-05T15:19:16.998Z</time></trkpt><trkpt lat="43.72692320833802" lon="11.009791614563921"><ele>39.0</ele><time>2026-04-05T15:19:17.998Z</time></trkpt><trkpt lat="43.726857471799946" lon="11.009936078718829"><ele>39.166666666666664</ele><time>2026-04-05T15:19:19.998Z</time></trkpt><trkpt lat="43.7268529448641" lon="11.010033086581846"><ele>39.333333333333336</ele><time>2026-04-05T15:19:20.998Z</time></trkpt><trkpt lat="43.72686274904482" lon="11.010135022769154"><ele>39.5</ele><time>2026-04-05T15:19:21.998Z</time></trkpt><trkpt lat="43.72687502926503" lon="11.010240823132783"><ele>39.66666666666667</ele><time>2026-04-05T15:19:22.998Z</time></trkpt><trkpt lat="43.726879597513246" lon="11.010363299183394"><ele>39.833333333333336</ele><time>2026-04-05T15:19:23.998Z</time></trkpt><trkpt lat="43.72687110205019" lon="11.01048876664394"><ele>40.0</ele><time>2026-04-05T15:19:24.998Z</time></trkpt><trkpt lat="43.72685319438882" lon="11.01061096666537"><ele>40.0</ele><time>2026-04-05T15:19:25.998Z</time></trkpt><trkpt lat="43.72682696299994" lon="11.010737163259634"><ele>40.0</ele><time>2026-04-05T15:19:26.998Z</time></trkpt><trkpt lat="43.72679935606152" lon="11.01085597174961"><ele>40.0</ele><time>2026-04-05T15:19:27.998Z</time></trkpt><trkpt lat="43.72676982930124" lon="11.010978580402304"><ele>40.0</ele><time>2026-04-05T15:19:28.998Z</time></trkpt><trkpt lat="43.72673745255049" lon="11.011098595771179"><ele>40.0</ele><time>2026-04-05T15:19:29.998Z</time></trkpt><trkpt lat="43.72670490900921" lon="11.01122816085812"><ele>40.0</ele><time>2026-04-05T15:19:30.998Z</time></trkpt><trkpt lat="43.72667152840351" lon="11.01135923211324"><ele>40.0</ele><time>2026-04-05T15:19:31.998Z</time></trkpt><trkpt lat="43.72663623510312" lon="11.011495909446618"><ele>40.0</ele><time>2026-04-05T15:19:32.998Z</time></trkpt><trkpt lat="43.72659981735249" lon="11.011634032265595"><ele>40.0</ele><time>2026-04-05T15:19:33.998Z</time></trkpt><trkpt lat="43.7265612504489" lon="11.011778588053723"><ele>40.0</ele><time>2026-04-05T15:19:34.998Z</time></trkpt><trkpt lat="43.72652243045241" lon="11.01192070327466"><ele>40.2</ele><time>2026-04-05T15:19:35.998Z</time></trkpt><trkpt lat="43.72647099309711" lon="11.012056102994098"><ele>40.4</ele><time>2026-04-05T15:19:36.998Z</time></trkpt><trkpt lat="43.7264340674574" lon="11.012197550249303"><ele>40.599999999999994</ele><time>2026-04-05T15:19:37.998Z</time></trkpt><trkpt lat="43.72639564073503" lon="11.012335086095408"><ele>40.8</ele><time>2026-04-05T15:19:38.998Z</time></trkpt><trkpt lat="43.726360348815895" lon="11.01247448135724"><ele>41.0</ele><time>2026-04-05T15:19:40Z</time></trkpt><trkpt lat="43.726323980108596" lon="11.012610463762678"><ele>41.0</ele><time>2026-04-05T15:19:41Z</time></trkpt><trkpt lat="43.72628938156912" lon="11.012742702182004"><ele>41.0</ele><time>2026-04-05T15:19:42Z</time></trkpt><trkpt lat="43.726253002666525" lon="11.012874487187121"><ele>41.0</ele><time>2026-04-05T15:19:43Z</time></trkpt><trkpt lat="43.726217798422596" lon="11.012999814555537"><ele>41.0</ele><time>2026-04-05T15:19:44Z</time></trkpt><trkpt lat="43.72618240873575" lon="11.013121971209982"><ele>41.0</ele><time>2026-04-05T15:19:45Z</time></trkpt><trkpt lat="43.72615045433138" lon="11.013230222680559"><ele>41.83333333333333</ele><time>2026-04-05T15:19:46Z</time></trkpt><trkpt lat="43.72611659795775" lon="11.013327316853722"><ele>42.666666666666664</ele><time>2026-04-05T15:19:47Z</time></trkpt><trkpt lat="43.7260797596699" lon="11.013420656134192"><ele>43.5</ele><time>2026-04-05T15:19:48Z</time></trkpt><trkpt lat="43.72604140806313" lon="11.013498927024111"><ele>44.333333333333336</ele><time>2026-04-05T15:19:49Z</time></trkpt><trkpt lat="43.72598887656074" lon="11.013603244335002"><ele>45.16666666666667</ele><time>2026-04-05T15:19:51Z</time></trkpt><trkpt lat="43.725921393901274" lon="11.013674396483921"><ele>46.0</ele><time>2026-04-05T15:19:53Z</time></trkpt><trkpt lat="43.725830713985765" lon="11.013744017592082"><ele>46.8</ele><time>2026-04-05T15:19:55Z</time></trkpt><trkpt lat="43.72574326091593" lon="11.013834587423188"><ele>47.599999999999994</ele><time>2026-04-05T15:19:57Z</time></trkpt><trkpt lat="43.72571450614009" lon="11.01398595186057"><ele>48.4</ele><time>2026-04-05T15:19:59Z</time></trkpt><trkpt lat="43.72572788512912" lon="11.014075701547968"><ele>49.2</ele><time>2026-04-05T15:20:00Z</time></trkpt><trkpt lat="43.72577026013697" lon="11.014165692578352"><ele>50.0</ele><time>2026-04-05T15:20:01Z</time></trkpt><trkpt lat="43.72582325917405" lon="11.01426693316049"><ele>50.2</ele><time>2026-04-05T15:20:02Z</time></trkpt><trkpt lat="43.72586697833365" lon="11.014391000222595"><ele>50.4</ele><time>2026-04-05T15:20:03Z</time></trkpt><trkpt lat="43.72589736323397" lon="11.014519905433891"><ele>50.599999999999994</ele><time>2026-04-05T15:20:04Z</time></trkpt><trkpt lat="43.72591474834014" lon="11.014645753637295"><ele>50.8</ele><time>2026-04-05T15:20:05Z</time></trkpt><trkpt lat="43.725925936564146" lon="11.01477712861013"><ele>51.0</ele><time>2026-04-05T15:20:06Z</time></trkpt><trkpt lat="43.72592553441948" lon="11.014916342702898"><ele>51.25</ele><time>2026-04-05T15:20:07Z</time></trkpt><trkpt lat="43.725929048223264" lon="11.015066193251105"><ele>51.5</ele><time>2026-04-05T15:20:08Z</time></trkpt><trkpt lat="43.72594238418572" lon="11.015226341130408"><ele>51.75</ele><time>2026-04-05T15:20:09Z</time></trkpt><trkpt lat="43.725956627083626" lon="11.015387836957352"><ele>52.0</ele><time>2026-04-05T15:20:10Z</time></trkpt><trkpt lat="43.725976646045424" lon="11.015546942374352"><ele>52.0</ele><time>2026-04-05T15:20:11Z</time></trkpt><trkpt lat="43.72600437542655" lon="11.015711329329026"><ele>52.0</ele><time>2026-04-05T15:20:12Z</time></trkpt><trkpt lat="43.72603556843883" lon="11.01587083397868"><ele>52.0</ele><time>2026-04-05T15:20:13Z</time></trkpt><trkpt lat="43.72607746987832" lon="11.016029970639472"><ele>52.0</ele><time>2026-04-05T15:20:14Z</time></trkpt><trkpt lat="43.726121093591054" lon="11.016191819668904"><ele>51.0</ele><time>2026-04-05T15:20:15Z</time></trkpt><trkpt lat="43.72617048689856" lon="11.016349007381002"><ele>50.0</ele><time>2026-04-05T15:20:16Z</time></trkpt><trkpt lat="43.72621429527789" lon="11.016513944164872"><ele>49.0</ele><time>2026-04-05T15:20:17Z</time></trkpt><trkpt lat="43.7262744576321" lon="11.016667717591295"><ele>48.0</ele><time>2026-04-05T15:20:18Z</time></trkpt><trkpt lat="43.72633584899244" lon="11.016816181188645"><ele>48.0</ele><time>2026-04-05T15:20:19Z</time></trkpt><trkpt lat="43.72639467045789" lon="11.016955289146427"><ele>48.0</ele><time>2026-04-05T15:20:20Z</time></trkpt><trkpt lat="43.72645404160765" lon="11.017088632441894"><ele>48.0</ele><time>2026-04-05T15:20:21Z</time></trkpt><trkpt lat="43.72650784372318" lon="11.017216413239382"><ele>48.0</ele><time>2026-04-05T15:20:22Z</time></trkpt><trkpt lat="43.72655777650302" lon="11.017335813031767"><ele>48.0</ele><time>2026-04-05T15:20:22.999Z</time></trkpt><trkpt lat="43.72660697377642" lon="11.017450213809827"><ele>48.0</ele><time>2026-04-05T15:20:23.999Z</time></trkpt><trkpt lat="43.72665455035805" lon="11.017553612555208"><ele>48.0</ele><time>2026-04-05T15:20:24.999Z</time></trkpt><trkpt lat="43.7267018413208" lon="11.017655565644267"><ele>48.0</ele><time>2026-04-05T15:20:25.999Z</time></trkpt><trkpt lat="43.726738580802355" lon="11.017747453323897"><ele>48.0</ele><time>2026-04-05T15:20:26.999Z</time></trkpt><trkpt lat="43.726760386581304" lon="11.017861541231383"><ele>48.0</ele><time>2026-04-05T15:20:27.999Z</time></trkpt><trkpt lat="43.72676718569296" lon="11.017967485267178"><ele>48.0</ele><time>2026-04-05T15:20:28.999Z</time></trkpt><trkpt lat="43.726766059190844" lon="11.01806594506165"><ele>48.0</ele><time>2026-04-05T15:20:29.999Z</time></trkpt><trkpt lat="43.72679112770034" lon="11.01823362277803"><ele>48.0</ele><time>2026-04-05T15:20:31.999Z</time></trkpt><trkpt lat="43.72682940930414" lon="11.018307855019868"><ele>48.0</ele><time>2026-04-05T15:20:32.999Z</time></trkpt><trkpt lat="43.72688906597698" lon="11.018370694952605"><ele>48.0</ele><time>2026-04-05T15:20:33.999Z</time></trkpt><trkpt lat="43.726967433998944" lon="11.018425819687973"><ele>48.0</ele><time>2026-04-05T15:20:34.999Z</time></trkpt><trkpt lat="43.72704240654144" lon="11.018473461537612"><ele>48.0</ele><time>2026-04-05T15:20:35.999Z</time></trkpt><trkpt lat="43.72710386619892" lon="11.018578360023715"><ele>46.0</ele><time>2026-04-05T15:20:36.999Z</time></trkpt><trkpt lat="43.72714601652307" lon="11.018704062317328"><ele>44.0</ele><time>2026-04-05T15:20:37.999Z</time></trkpt><trkpt lat="43.72719587827933" lon="11.018821853508047"><ele>42.0</ele><time>2026-04-05T15:20:38.999Z</time></trkpt><trkpt lat="43.727246685183715" lon="11.018941877315074"><ele>40.0</ele><time>2026-04-05T15:20:39.999Z</time></trkpt><trkpt lat="43.72730143199606" lon="11.019071208663176"><ele>38.0</ele><time>2026-04-05T15:20:40.999Z</time></trkpt><trkpt lat="43.72736106310505" lon="11.01921207824086"><ele>36.5</ele><time>2026-04-05T15:20:41.999Z</time></trkpt><trkpt lat="43.72742131141823" lon="11.019354405514697"><ele>35.0</ele><time>2026-04-05T15:20:42.999Z</time></trkpt><trkpt lat="43.72747877863382" lon="11.019490162047916"><ele>33.5</ele><time>2026-04-05T15:20:43.999Z</time></trkpt><trkpt lat="43.727535642294264" lon="11.019624492815469"><ele>32.0</ele><time>2026-04-05T15:20:44.999Z</time></trkpt><trkpt lat="43.72759524030916" lon="11.019765282890484"><ele>32.0</ele><time>2026-04-05T15:20:45.999Z</time></trkpt><trkpt lat="43.727655653997886" lon="11.019907999900028"><ele>32.0</ele><time>2026-04-05T15:20:46.999Z</time></trkpt><trkpt lat="43.72773122046057" lon="11.020039222932077"><ele>32.0</ele><time>2026-04-05T15:20:47.999Z</time></trkpt><trkpt lat="43.72778966403305" lon="11.020183419731408"><ele>32.0</ele><time>2026-04-05T15:20:48.999Z</time></trkpt><trkpt lat="43.727851801220176" lon="11.020325151442767"><ele>31.5</ele><time>2026-04-05T15:20:49.999Z</time></trkpt><trkpt lat="43.72791355435587" lon="11.020466111122158"><ele>31.0</ele><time>2026-04-05T15:20:50.999Z</time></trkpt><trkpt lat="43.727956960881826" lon="11.020622675440507"><ele>30.5</ele><time>2026-04-05T15:20:51.999Z</time></trkpt><trkpt lat="43.72801706162291" lon="11.020764952488433"><ele>30.0</ele><time>2026-04-05T15:20:52.999Z</time></trkpt><trkpt lat="43.72807571206891" lon="11.020903729554409"><ele>30.0</ele><time>2026-04-05T15:20:53.999Z</time></trkpt><trkpt lat="43.72813376929865" lon="11.021040982796631"><ele>30.0</ele><time>2026-04-05T15:20:54.999Z</time></trkpt><trkpt lat="43.728190959500296" lon="11.021176186260208"><ele>30.0</ele><time>2026-04-05T15:20:55.999Z</time></trkpt><trkpt lat="43.72824535501511" lon="11.021303551035963"><ele>30.0</ele><time>2026-04-05T15:20:56.999Z</time></trkpt><trkpt lat="43.72829632919799" lon="11.021422233756944"><ele>30.0</ele><time>2026-04-05T15:20:57.999Z</time></trkpt><trkpt lat="43.72835855843638" lon="11.02152271834595"><ele>30.0</ele><time>2026-04-05T15:20:58.999Z</time></trkpt><trkpt lat="43.72839914742589" lon="11.021624320784316"><ele>30.0</ele><time>2026-04-05T15:20:59.999Z</time></trkpt><trkpt lat="43.728437025507866" lon="11.021736447560315"><ele>30.0</ele><time>2026-04-05T15:21:00.999Z</time></trkpt><trkpt lat="43.72846974150157" lon="11.021849935582708"><ele>30.0</ele><time>2026-04-05T15:21:01.999Z</time></trkpt><trkpt lat="43.72848794754608" lon="11.021962852472994"><ele>30.0</ele><time>2026-04-05T15:21:02.999Z</time></trkpt><trkpt lat="43.728513294491314" lon="11.02207423884846"><ele>30.0</ele><time>2026-04-05T15:21:03.999Z</time></trkpt><trkpt lat="43.728565703486495" lon="11.022193782142361"><ele>30.0</ele><time>2026-04-05T15:21:04.999Z</time></trkpt><trkpt lat="43.728649375721275" lon="11.022311585251384"><ele>30.0</ele><time>2026-04-05T15:21:05.999Z</time></trkpt><trkpt lat="43.728745363488436" lon="11.02241973852425"><ele>30.0</ele><time>2026-04-05T15:21:06.999Z</time></trkpt><trkpt lat="43.7288416527186" lon="11.022545095734921"><ele>30.0</ele><time>2026-04-05T15:21:07.999Z</time></trkpt><trkpt lat="43.72892204973926" lon="11.022711034189115"><ele>30.0</ele><time>2026-04-05T15:21:08.999Z</time></trkpt><trkpt lat="43.7290261861996" lon="11.022867406597259"><ele>30.0</ele><time>2026-04-05T15:21:09.999Z</time></trkpt><trkpt lat="43.72914143091016" lon="11.023011627468009"><ele>30.0</ele><time>2026-04-05T15:21:10.999Z</time></trkpt><trkpt lat="43.72926437761945" lon="11.02314803598649"><ele>30.0</ele><time>2026-04-05T15:21:11.999Z</time></trkpt><trkpt lat="43.72939345931395" lon="11.023269788767042"><ele>30.0</ele><time>2026-04-05T15:21:12.999Z</time></trkpt><trkpt lat="43.729528274843595" lon="11.023383160707498"><ele>30.0</ele><time>2026-04-05T15:21:13.999Z</time></trkpt><trkpt lat="43.72966756278736" lon="11.023487846674445"><ele>30.0</ele><time>2026-04-05T15:21:14.999Z</time></trkpt><trkpt lat="43.72980773583031" lon="11.023582779416861"><ele>30.0</ele><time>2026-04-05T15:21:15.999Z</time></trkpt><trkpt lat="43.72994939421077" lon="11.023665878752386"><ele>30.0</ele><time>2026-04-05T15:21:16.998Z</time></trkpt><trkpt lat="43.730092473224715" lon="11.023734068487505"><ele>30.25</ele><time>2026-04-05T15:21:17.998Z</time></trkpt><trkpt lat="43.73023100383404" lon="11.023791264723483"><ele>30.5</ele><time>2026-04-05T15:21:18.998Z</time></trkpt><trkpt lat="43.73036903608707" lon="11.02384738750841"><ele>30.75</ele><time>2026-04-05T15:21:19.998Z</time></trkpt><trkpt lat="43.73050718843526" lon="11.02390212167289"><ele>31.0</ele><time>2026-04-05T15:21:20.998Z</time></trkpt><trkpt lat="43.73064923842049" lon="11.02395845617185"><ele>31.0</ele><time>2026-04-05T15:21:21.998Z</time></trkpt><trkpt lat="43.73079116228224" lon="11.02401603378627"><ele>31.0</ele><time>2026-04-05T15:21:22.998Z</time></trkpt><trkpt lat="43.73093195089192" lon="11.024071659330993"><ele>31.0</ele><time>2026-04-05T15:21:23.998Z</time></trkpt><trkpt lat="43.73107439445542" lon="11.024127220093549"><ele>31.0</ele><time>2026-04-05T15:21:24.998Z</time></trkpt><trkpt lat="43.73121674427526" lon="11.02418354805341"><ele>32.75</ele><time>2026-04-05T15:21:25.998Z</time></trkpt><trkpt lat="43.7313598471559" lon="11.024240726929445"><ele>34.5</ele><time>2026-04-05T15:21:26.998Z</time></trkpt><trkpt lat="43.731501891215714" lon="11.024296850499864"><ele>36.25</ele><time>2026-04-05T15:21:27.998Z</time></trkpt><trkpt lat="43.73164134624909" lon="11.02435298610836"><ele>38.0</ele><time>2026-04-05T15:21:28.998Z</time></trkpt><trkpt lat="43.73178186575442" lon="11.024409667831458"><ele>42.0</ele><time>2026-04-05T15:21:29.998Z</time></trkpt><trkpt lat="43.73192471869438" lon="11.02446720215502"><ele>46.0</ele><time>2026-04-05T15:21:30.998Z</time></trkpt><trkpt lat="43.73206611788642" lon="11.024524232325508"><ele>50.0</ele><time>2026-04-05T15:21:31.998Z</time></trkpt><trkpt lat="43.73221012991244" lon="11.024582441263187"><ele>54.0</ele><time>2026-04-05T15:21:32.998Z</time></trkpt><trkpt lat="43.73235574405388" lon="11.024641295222091"><ele>54.0</ele><time>2026-04-05T15:21:33.998Z</time></trkpt><trkpt lat="43.7325040240286" lon="11.024701227565139"><ele>54.0</ele><time>2026-04-05T15:21:35.017Z</time></trkpt><trkpt lat="43.73264951627625" lon="11.024759690563465"><ele>54.0</ele><time>2026-04-05T15:21:36.019Z</time></trkpt><trkpt lat="43.73279495653334" lon="11.024817821029728"><ele>54.0</ele><time>2026-04-05T15:21:37.018Z</time></trkpt><trkpt lat="43.732940386338726" lon="11.024875947322114"><ele>54.0</ele><time>2026-04-05T15:21:38.019Z</time></trkpt><trkpt lat="43.73366936114033" lon="11.025105994205013"><ele>54.0</ele><time>2026-04-05T15:21:42.998Z</time></trkpt><trkpt lat="43.733811530892574" lon="11.025160253727401"><ele>54.0</ele><time>2026-04-05T15:21:43.998Z</time></trkpt><trkpt lat="43.7339458183737" lon="11.025268267811308"><ele>54.0</ele><time>2026-04-05T15:21:44.998Z</time></trkpt><trkpt lat="43.73409748496326" lon="11.0253430874566"><ele>54.0</ele><time>2026-04-05T15:21:45.998Z</time></trkpt><trkpt lat="43.73421170802671" lon="11.02539331412653"><ele>54.0</ele><time>2026-04-05T15:21:46.998Z</time></trkpt><trkpt lat="43.734345803982926" lon="11.025449441262923"><ele>54.0</ele><time>2026-04-05T15:21:48.017Z</time></trkpt><trkpt lat="43.7350472622027" lon="11.025736564780608"><ele>52.75</ele><time>2026-04-05T15:21:52.998Z</time></trkpt><trkpt lat="43.735192284294584" lon="11.025797236264765"><ele>51.5</ele><time>2026-04-05T15:21:54Z</time></trkpt><trkpt lat="43.73533171275041" lon="11.025843146495207"><ele>50.25</ele><time>2026-04-05T15:21:55Z</time></trkpt><trkpt lat="43.735462699240806" lon="11.025919327418103"><ele>49.0</ele><time>2026-04-05T15:21:56Z</time></trkpt><trkpt lat="43.73560564389968" lon="11.0259923047922"><ele>49.0</ele><time>2026-04-05T15:21:57Z</time></trkpt><trkpt lat="43.73574033378993" lon="11.026083791555736"><ele>49.0</ele><time>2026-04-05T15:21:58Z</time></trkpt><trkpt lat="43.73588439944073" lon="11.026173099016354"><ele>49.0</ele><time>2026-04-05T15:21:59Z</time></trkpt><trkpt lat="43.73601313994033" lon="11.026282105469797"><ele>48.75</ele><time>2026-04-05T15:22:00Z</time></trkpt><trkpt lat="43.73613765278117" lon="11.026396040313069"><ele>48.5</ele><time>2026-04-05T15:22:01Z</time></trkpt><trkpt lat="43.73624886477883" lon="11.0265174013864"><ele>48.25</ele><time>2026-04-05T15:22:02Z</time></trkpt><trkpt lat="43.73635464090176" lon="11.026645957139625"><ele>48.0</ele><time>2026-04-05T15:22:03Z</time></trkpt><trkpt lat="43.7364583274169" lon="11.026783811448043"><ele>48.0</ele><time>2026-04-05T15:22:04Z</time></trkpt><trkpt lat="43.73655921078048" lon="11.026928690801627"><ele>48.0</ele><time>2026-04-05T15:22:05Z</time></trkpt><trkpt lat="43.73666008106023" lon="11.027079046569414"><ele>48.0</ele><time>2026-04-05T15:22:06Z</time></trkpt><trkpt lat="43.736760504279054" lon="11.027231303510037"><ele>48.0</ele><time>2026-04-05T15:22:07Z</time></trkpt><trkpt lat="43.736864637192916" lon="11.027389308654527"><ele>47.333333333333336</ele><time>2026-04-05T15:22:08Z</time></trkpt><trkpt lat="43.73697613431446" lon="11.027529673094815"><ele>46.66666666666667</ele><time>2026-04-05T15:22:09Z</time></trkpt><trkpt lat="43.73706695284294" lon="11.027698522247551"><ele>46.0</ele><time>2026-04-05T15:22:10Z</time></trkpt><trkpt lat="43.737167895922916" lon="11.02786101060623"><ele>46.0</ele><time>2026-04-05T15:22:11Z</time></trkpt><trkpt lat="43.737270498022795" lon="11.028022988450799"><ele>46.0</ele><time>2026-04-05T15:22:12Z</time></trkpt><trkpt lat="43.737375712125896" lon="11.028186619258351"><ele>46.0</ele><time>2026-04-05T15:22:13Z</time></trkpt><trkpt lat="43.73748631118418" lon="11.028352805238338"><ele>45.333333333333336</ele><time>2026-04-05T15:22:14Z</time></trkpt><trkpt lat="43.73760377489402" lon="11.028514358596073"><ele>44.666666666666664</ele><time>2026-04-05T15:22:15Z</time></trkpt><trkpt lat="43.73772801445716" lon="11.02867730448373"><ele>44.0</ele><time>2026-04-05T15:22:16Z</time></trkpt><trkpt lat="43.737858172023756" lon="11.028842813772506"><ele>43.666666666666664</ele><time>2026-04-05T15:22:17Z</time></trkpt><trkpt lat="43.73799683918545" lon="11.029005971938592"><ele>43.333333333333336</ele><time>2026-04-05T15:22:18Z</time></trkpt><trkpt lat="43.73814555076391" lon="11.02915821945388"><ele>43.0</ele><time>2026-04-05T15:22:19Z</time></trkpt><trkpt lat="43.73830153116878" lon="11.029301078099536"><ele>43.0</ele><time>2026-04-05T15:22:20Z</time></trkpt><trkpt lat="43.73846514938862" lon="11.029437761627149"><ele>43.0</ele><time>2026-04-05T15:22:21Z</time></trkpt><trkpt lat="43.73863889135759" lon="11.02955834857499"><ele>43.0</ele><time>2026-04-05T15:22:22Z</time></trkpt><trkpt lat="43.73881057298376" lon="11.029672313425612"><ele>42.66666666666667</ele><time>2026-04-05T15:22:23Z</time></trkpt><trkpt lat="43.73898713653515" lon="11.029790730473096"><ele>42.333333333333336</ele><time>2026-04-05T15:22:24Z</time></trkpt><trkpt lat="43.73916573976637" lon="11.029907629009331"><ele>42.0</ele><time>2026-04-05T15:22:25Z</time></trkpt><trkpt lat="43.739343217048635" lon="11.030025001906338"><ele>42.0</ele><time>2026-04-05T15:22:26Z</time></trkpt><trkpt lat="43.73952440398955" lon="11.03014143266965"><ele>42.0</ele><time>2026-04-05T15:22:27Z</time></trkpt><trkpt lat="43.73970674197994" lon="11.030259394503965"><ele>42.0</ele><time>2026-04-05T15:22:28Z</time></trkpt><trkpt lat="43.739887682774174" lon="11.030375924343238"><ele>42.0</ele><time>2026-04-05T15:22:29Z</time></trkpt><trkpt lat="43.74006792365244" lon="11.030496047527802"><ele>42.0</ele><time>2026-04-05T15:22:30Z</time></trkpt><trkpt lat="43.74025055963786" lon="11.030615964511044"><ele>42.0</ele><time>2026-04-05T15:22:31Z</time></trkpt><trkpt lat="43.740432996756304" lon="11.030738889790907"><ele>41.333333333333336</ele><time>2026-04-05T15:22:32Z</time></trkpt><trkpt lat="43.740615087246496" lon="11.030852776455793"><ele>40.66666666666667</ele><time>2026-04-05T15:22:33Z</time></trkpt><trkpt lat="43.740805772964215" lon="11.030961493367807"><ele>40.0</ele><time>2026-04-05T15:22:34Z</time></trkpt><trkpt lat="43.74099616620357" lon="11.03105764951043"><ele>38.333333333333336</ele><time>2026-04-05T15:22:35Z</time></trkpt><trkpt lat="43.741189991844735" lon="11.0311423878924"><ele>36.666666666666664</ele><time>2026-04-05T15:22:35.999Z</time></trkpt><trkpt lat="43.741385834436045" lon="11.0312098397016"><ele>35.0</ele><time>2026-04-05T15:22:36.999Z</time></trkpt><trkpt lat="43.74158428044705" lon="11.031258403468671"><ele>35.0</ele><time>2026-04-05T15:22:37.999Z</time></trkpt><trkpt lat="43.741784396833964" lon="11.03129218002521"><ele>35.0</ele><time>2026-04-05T15:22:38.999Z</time></trkpt><trkpt lat="43.741985017338656" lon="11.03131642140869"><ele>35.0</ele><time>2026-04-05T15:22:39.999Z</time></trkpt><trkpt lat="43.74218354894555" lon="11.03133284366733"><ele>35.0</ele><time>2026-04-05T15:22:40.999Z</time></trkpt><trkpt lat="43.74238561013415" lon="11.031350818762183"><ele>35.0</ele><time>2026-04-05T15:22:41.999Z</time></trkpt><trkpt lat="43.74258976707281" lon="11.031370217428853"><ele>35.0</ele><time>2026-04-05T15:22:42.999Z</time></trkpt><trkpt lat="43.74279079427411" lon="11.031391475796042"><ele>34.33333333333333</ele><time>2026-04-05T15:22:43.999Z</time></trkpt><trkpt lat="43.74298924355088" lon="11.03141783319553"><ele>33.666666666666664</ele><time>2026-04-05T15:22:44.999Z</time></trkpt><trkpt lat="43.743189111739085" lon="11.031453673989501"><ele>33.0</ele><time>2026-04-05T15:22:45.999Z</time></trkpt><trkpt lat="43.743389855115005" lon="11.031502278914756"><ele>32.0</ele><time>2026-04-05T15:22:46.999Z</time></trkpt><trkpt lat="43.743594914985955" lon="11.031561353710796"><ele>31.0</ele><time>2026-04-05T15:22:47.999Z</time></trkpt><trkpt lat="43.74379610194113" lon="11.031632123493754"><ele>30.0</ele><time>2026-04-05T15:22:48.999Z</time></trkpt><trkpt lat="43.74399889995307" lon="11.031702017662537"><ele>32.0</ele><time>2026-04-05T15:22:49.999Z</time></trkpt><trkpt lat="43.744198108292515" lon="11.031758104755927"><ele>34.0</ele><time>2026-04-05T15:22:50.999Z</time></trkpt><trkpt lat="43.74440406836433" lon="11.031848623305818"><ele>36.0</ele><time>2026-04-05T15:22:51.999Z</time></trkpt><trkpt lat="43.74460629567207" lon="11.031928865437772"><ele>36.0</ele><time>2026-04-05T15:22:52.999Z</time></trkpt><trkpt lat="43.74480065907445" lon="11.032024152475946"><ele>36.0</ele><time>2026-04-05T15:22:53.999Z</time></trkpt><trkpt lat="43.74498920891903" lon="11.0321289800237"><ele>36.0</ele><time>2026-04-05T15:22:54.999Z</time></trkpt><trkpt lat="43.74517355689282" lon="11.032252476317014"><ele>35.0</ele><time>2026-04-05T15:22:55.999Z</time></trkpt><trkpt lat="43.74535555150266" lon="11.03240072263336"><ele>34.0</ele><time>2026-04-05T15:22:56.999Z</time></trkpt><trkpt lat="43.74554201332289" lon="11.03256285084813"><ele>33.0</ele><time>2026-04-05T15:22:57.999Z</time></trkpt><trkpt lat="43.74572434451933" lon="11.032730567678959"><ele>31.0</ele><time>2026-04-05T15:22:58.999Z</time></trkpt><trkpt lat="43.74590522679029" lon="11.03289427840582"><ele>29.0</ele><time>2026-04-05T15:22:59.999Z</time></trkpt><trkpt lat="43.74606253669851" lon="11.03308011015596"><ele>27.0</ele><time>2026-04-05T15:23:00.999Z</time></trkpt><trkpt lat="43.746216952161866" lon="11.033248271124208"><ele>29.333333333333336</ele><time>2026-04-05T15:23:01.999Z</time></trkpt><trkpt lat="43.746373583643" lon="11.033401331314165"><ele>31.666666666666668</ele><time>2026-04-05T15:23:02.999Z</time></trkpt><trkpt lat="43.746541125696275" lon="11.033531931035846"><ele>34.0</ele><time>2026-04-05T15:23:03.999Z</time></trkpt><trkpt lat="43.7467295900427" lon="11.033639205304915"><ele>32.66666666666667</ele><time>2026-04-05T15:23:04.999Z</time></trkpt><trkpt lat="43.74691946556647" lon="11.033719679737656"><ele>31.333333333333336</ele><time>2026-04-05T15:23:05.999Z</time></trkpt><trkpt lat="43.747116218324415" lon="11.033775698896324"><ele>30.0</ele><time>2026-04-05T15:23:06.999Z</time></trkpt><trkpt lat="43.7473164243245" lon="11.033845058290353"><ele>30.0</ele><time>2026-04-05T15:23:07.999Z</time></trkpt><trkpt lat="43.74752525709032" lon="11.033857229415895"><ele>30.0</ele><time>2026-04-05T15:23:08.999Z</time></trkpt><trkpt lat="43.747734563142394" lon="11.033884089283006"><ele>30.0</ele><time>2026-04-05T15:23:09.999Z</time></trkpt><trkpt lat="43.747943460751415" lon="11.033901900511395"><ele>30.0</ele><time>2026-04-05T15:23:10.999Z</time></trkpt><trkpt lat="43.748154381083346" lon="11.0339322497212"><ele>30.0</ele><time>2026-04-05T15:23:11.999Z</time></trkpt><trkpt lat="43.74836331983065" lon="11.033920836875517"><ele>30.0</ele><time>2026-04-05T15:23:12.999Z</time></trkpt><trkpt lat="43.74857211705292" lon="11.033887837798906"><ele>30.0</ele><time>2026-04-05T15:23:13.999Z</time></trkpt><trkpt lat="43.74877234703414" lon="11.033819838243511"><ele>30.0</ele><time>2026-04-05T15:23:14.999Z</time></trkpt><trkpt lat="43.748969840567824" lon="11.03376433291536"><ele>30.0</ele><time>2026-04-05T15:23:15.999Z</time></trkpt><trkpt lat="43.74917774777337" lon="11.033702588429227"><ele>31.0</ele><time>2026-04-05T15:23:16.999Z</time></trkpt><trkpt lat="43.74938430508084" lon="11.033639223718172"><ele>32.0</ele><time>2026-04-05T15:23:17.999Z</time></trkpt><trkpt lat="43.74959282841373" lon="11.033581302633106"><ele>33.0</ele><time>2026-04-05T15:23:18.999Z</time></trkpt><trkpt lat="43.74980295134514" lon="11.033524104930896"><ele>33.0</ele><time>2026-04-05T15:23:19.999Z</time></trkpt><trkpt lat="43.75000581341414" lon="11.033453515298318"><ele>33.0</ele><time>2026-04-05T15:23:20.999Z</time></trkpt><trkpt lat="43.750217582225034" lon="11.033399268351124"><ele>33.0</ele><time>2026-04-05T15:23:21.999Z</time></trkpt><trkpt lat="43.750422798620306" lon="11.03328408320832"><ele>32.0</ele><time>2026-04-05T15:23:22.999Z</time></trkpt><trkpt lat="43.75062189633321" lon="11.033176039762044"><ele>31.0</ele><time>2026-04-05T15:23:23.999Z</time></trkpt><trkpt lat="43.7508242349458" lon="11.033063630555453"><ele>30.0</ele><time>2026-04-05T15:23:24.999Z</time></trkpt><trkpt lat="43.75102329449111" lon="11.032942823204051"><ele>31.666666666666664</ele><time>2026-04-05T15:23:25.999Z</time></trkpt><trkpt lat="43.75123094716054" lon="11.03285076211672"><ele>33.33333333333333</ele><time>2026-04-05T15:23:26.999Z</time></trkpt><trkpt lat="43.75142381689061" lon="11.032723224489876"><ele>35.0</ele><time>2026-04-05T15:23:27.999Z</time></trkpt><trkpt lat="43.751624463876766" lon="11.032623235052553"><ele>35.0</ele><time>2026-04-05T15:23:28.998Z</time></trkpt><trkpt lat="43.7518235364042" lon="11.032522180050114"><ele>35.0</ele><time>2026-04-05T15:23:29.998Z</time></trkpt><trkpt lat="43.75202212310956" lon="11.032426093580147"><ele>35.0</ele><time>2026-04-05T15:23:30.998Z</time></trkpt><trkpt lat="43.752230936056925" lon="11.032371706560632"><ele>34.0</ele><time>2026-04-05T15:23:31.998Z</time></trkpt><trkpt lat="43.75243985251311" lon="11.032305050371194"><ele>33.0</ele><time>2026-04-05T15:23:32.998Z</time></trkpt><trkpt lat="43.75263787683462" lon="11.032206751261784"><ele>32.0</ele><time>2026-04-05T15:23:33.998Z</time></trkpt><trkpt lat="43.75283209076447" lon="11.032094868216035"><ele>34.0</ele><time>2026-04-05T15:23:34.998Z</time></trkpt><trkpt lat="43.75302673442082" lon="11.03197167187973"><ele>36.0</ele><time>2026-04-05T15:23:35.998Z</time></trkpt><trkpt lat="43.753209498109534" lon="11.03181044393292"><ele>38.0</ele><time>2026-04-05T15:23:36.998Z</time></trkpt><trkpt lat="43.75339578846698" lon="11.03165994493333"><ele>36.666666666666664</ele><time>2026-04-05T15:23:37.998Z</time></trkpt><trkpt lat="43.75357209356593" lon="11.031502250970545"><ele>35.333333333333336</ele><time>2026-04-05T15:23:38.998Z</time></trkpt><trkpt lat="43.75373368500603" lon="11.031362897595162"><ele>34.0</ele><time>2026-04-05T15:23:39.998Z</time></trkpt><trkpt lat="43.75389329579627" lon="11.031225238646934"><ele>34.0</ele><time>2026-04-05T15:23:40.998Z</time></trkpt><trkpt lat="43.75404285541609" lon="11.031095416352882"><ele>34.0</ele><time>2026-04-05T15:23:41.998Z</time></trkpt><trkpt lat="43.75418609050217" lon="11.030967621812856"><ele>34.0</ele><time>2026-04-05T15:23:42.998Z</time></trkpt><trkpt lat="43.754329922816886" lon="11.030840165676095"><ele>33.333333333333336</ele><time>2026-04-05T15:23:43.998Z</time></trkpt><trkpt lat="43.75446348972929" lon="11.030726980844635"><ele>32.666666666666664</ele><time>2026-04-05T15:23:44.998Z</time></trkpt><trkpt lat="43.7545886989103" lon="11.030617553653801"><ele>32.0</ele><time>2026-04-05T15:23:45.998Z</time></trkpt><trkpt lat="43.754725850498296" lon="11.030517746221735"><ele>32.0</ele><time>2026-04-05T15:23:46.998Z</time></trkpt><trkpt lat="43.75489020980117" lon="11.030474725244307"><ele>32.0</ele><time>2026-04-05T15:23:47.998Z</time></trkpt><trkpt lat="43.75505129205409" lon="11.030438865877521"><ele>32.0</ele><time>2026-04-05T15:23:48.998Z</time></trkpt><trkpt lat="43.75522250806943" lon="11.030410578883176"><ele>32.0</ele><time>2026-04-05T15:23:49.998Z</time></trkpt><trkpt lat="43.755397146602405" lon="11.030385511555055"><ele>32.0</ele><time>2026-04-05T15:23:50.998Z</time></trkpt><trkpt lat="43.7555756977292" lon="11.030359882621937"><ele>32.0</ele><time>2026-04-05T15:23:51.998Z</time></trkpt><trkpt lat="43.7557633009364" lon="11.030332954363544"><ele>32.0</ele><time>2026-04-05T15:23:52.998Z</time></trkpt><trkpt lat="43.75594607687339" lon="11.030239742898193"><ele>32.0</ele><time>2026-04-05T15:23:53.998Z</time></trkpt><trkpt lat="43.75613690747571" lon="11.030192252383396"><ele>32.0</ele><time>2026-04-05T15:23:54.998Z</time></trkpt><trkpt lat="43.75633155387973" lon="11.030139796098789"><ele>32.666666666666664</ele><time>2026-04-05T15:23:55.998Z</time></trkpt><trkpt lat="43.75652845236613" lon="11.03008864211713"><ele>33.333333333333336</ele><time>2026-04-05T15:23:56.998Z</time></trkpt><trkpt lat="43.75672417013697" lon="11.030041444524095"><ele>34.0</ele><time>2026-04-05T15:23:57.998Z</time></trkpt><trkpt lat="43.7569191793172" lon="11.02998991108099"><ele>33.333333333333336</ele><time>2026-04-05T15:23:58.998Z</time></trkpt><trkpt lat="43.757115983479395" lon="11.029939421997941"><ele>32.666666666666664</ele><time>2026-04-05T15:24:00Z</time></trkpt><trkpt lat="43.75731041389878" lon="11.02989215527568"><ele>32.0</ele><time>2026-04-05T15:24:01Z</time></trkpt><trkpt lat="43.75750258645791" lon="11.02984506871935"><ele>32.0</ele><time>2026-04-05T15:24:02Z</time></trkpt><trkpt lat="43.75769036594091" lon="11.029815851632511"><ele>32.0</ele><time>2026-04-05T15:24:03Z</time></trkpt><trkpt lat="43.75787844723772" lon="11.02976935877133"><ele>32.0</ele><time>2026-04-05T15:24:04Z</time></trkpt><trkpt lat="43.75807164910966" lon="11.02971934566098"><ele>31.666666666666664</ele><time>2026-04-05T15:24:05Z</time></trkpt><trkpt lat="43.75826806162431" lon="11.029679193516872"><ele>31.333333333333336</ele><time>2026-04-05T15:24:06Z</time></trkpt><trkpt lat="43.7584616801745" lon="11.02964019861321"><ele>31.0</ele><time>2026-04-05T15:24:07Z</time></trkpt><trkpt lat="43.75866130445995" lon="11.02961076721696"><ele>32.0</ele><time>2026-04-05T15:24:08Z</time></trkpt><trkpt lat="43.75885783150832" lon="11.029596034335805"><ele>33.0</ele><time>2026-04-05T15:24:09Z</time></trkpt><trkpt lat="43.759056085559244" lon="11.029585602665657"><ele>34.0</ele><time>2026-04-05T15:24:10Z</time></trkpt><trkpt lat="43.75925741016979" lon="11.029573555237798"><ele>33.66666666666667</ele><time>2026-04-05T15:24:11Z</time></trkpt><trkpt lat="43.75945419968915" lon="11.02955954490892"><ele>33.333333333333336</ele><time>2026-04-05T15:24:12Z</time></trkpt><trkpt lat="43.75965210884018" lon="11.02954927280899"><ele>33.0</ele><time>2026-04-05T15:24:13Z</time></trkpt><trkpt lat="43.75985213650642" lon="11.02955338387649"><ele>33.0</ele><time>2026-04-05T15:24:14Z</time></trkpt><trkpt lat="43.76004307843103" lon="11.029555735208236"><ele>33.0</ele><time>2026-04-05T15:24:15Z</time></trkpt><trkpt lat="43.76023825464024" lon="11.029572808275466"><ele>33.0</ele><time>2026-04-05T15:24:16Z</time></trkpt><trkpt lat="43.76044009342802" lon="11.029597881375887"><ele>33.0</ele><time>2026-04-05T15:24:17Z</time></trkpt><trkpt lat="43.76064536993663" lon="11.029631037747274"><ele>33.0</ele><time>2026-04-05T15:24:18Z</time></trkpt><trkpt lat="43.76085317468005" lon="11.029679953477663"><ele>33.0</ele><time>2026-04-05T15:24:19Z</time></trkpt><trkpt lat="43.7610532426834" lon="11.029743648913039"><ele>32.666666666666664</ele><time>2026-04-05T15:24:20Z</time></trkpt><trkpt lat="43.76125794633725" lon="11.029805978962955"><ele>32.33333333333333</ele><time>2026-04-05T15:24:21Z</time></trkpt><trkpt lat="43.7614547088866" lon="11.02987400147087"><ele>32.0</ele><time>2026-04-05T15:24:22Z</time></trkpt><trkpt lat="43.76164215053167" lon="11.029935483992611"><ele>33.0</ele><time>2026-04-05T15:24:23Z</time></trkpt><trkpt lat="43.761821246420716" lon="11.029994514183429"><ele>34.0</ele><time>2026-04-05T15:24:24Z</time></trkpt><trkpt lat="43.76199708704071" lon="11.030050119772833"><ele>35.0</ele><time>2026-04-05T15:24:25Z</time></trkpt><trkpt lat="43.762170184537" lon="11.030111648172085"><ele>35.0</ele><time>2026-04-05T15:24:26Z</time></trkpt><trkpt lat="43.76232603789491" lon="11.030183166463228"><ele>35.0</ele><time>2026-04-05T15:24:27Z</time></trkpt><trkpt lat="43.76247776285996" lon="11.030273658223017"><ele>35.0</ele><time>2026-04-05T15:24:28Z</time></trkpt><trkpt lat="43.76262259927285" lon="11.030384258753058"><ele>34.0</ele><time>2026-04-05T15:24:29Z</time></trkpt><trkpt lat="43.76276654489809" lon="11.030503686828336"><ele>33.0</ele><time>2026-04-05T15:24:30Z</time></trkpt><trkpt lat="43.76291775099649" lon="11.030629839519326"><ele>32.0</ele><time>2026-04-05T15:24:31Z</time></trkpt><trkpt lat="43.7630530816474" lon="11.030764716099362"><ele>34.0</ele><time>2026-04-05T15:24:32Z</time></trkpt><trkpt lat="43.76319303728075" lon="11.03091242969454"><ele>36.0</ele><time>2026-04-05T15:24:33Z</time></trkpt><trkpt lat="43.76332662153525" lon="11.031073428863538"><ele>38.0</ele><time>2026-04-05T15:24:34Z</time></trkpt><trkpt lat="43.7634568913279" lon="11.031236116811739"><ele>37.0</ele><time>2026-04-05T15:24:35Z</time></trkpt><trkpt lat="43.76357946533244" lon="11.031407549598937"><ele>36.0</ele><time>2026-04-05T15:24:36Z</time></trkpt><trkpt lat="43.76369404155502" lon="11.031571938626936"><ele>35.0</ele><time>2026-04-05T15:24:37Z</time></trkpt><trkpt lat="43.76380723141523" lon="11.031722699917399"><ele>35.0</ele><time>2026-04-05T15:24:38Z</time></trkpt><trkpt lat="43.76391655589669" lon="11.031871394951544"><ele>35.0</ele><time>2026-04-05T15:24:39Z</time></trkpt><trkpt lat="43.76400757011496" lon="11.032012606463738"><ele>35.0</ele><time>2026-04-05T15:24:39.999Z</time></trkpt><trkpt lat="43.764083300035644" lon="11.032156275201618"><ele>35.0</ele><time>2026-04-05T15:24:40.999Z</time></trkpt><trkpt lat="43.76416665004362" lon="11.032306953648227"><ele>35.0</ele><time>2026-04-05T15:24:41.999Z</time></trkpt><trkpt lat="43.76424290999811" lon="11.032453487972404"><ele>35.0</ele><time>2026-04-05T15:24:42.999Z</time></trkpt><trkpt lat="43.76432158424215" lon="11.032590385231783"><ele>35.0</ele><time>2026-04-05T15:24:43.999Z</time></trkpt><trkpt lat="43.76439101578942" lon="11.032719915455422"><ele>35.0</ele><time>2026-04-05T15:24:44.999Z</time></trkpt><trkpt lat="43.7644555122978" lon="11.032836637157427"><ele>35.0</ele><time>2026-04-05T15:24:45.999Z</time></trkpt><trkpt lat="43.76451390611449" lon="11.032944608389803"><ele>35.0</ele><time>2026-04-05T15:24:46.999Z</time></trkpt><trkpt lat="43.764567301218314" lon="11.033045321239346"><ele>35.0</ele><time>2026-04-05T15:24:47.999Z</time></trkpt><trkpt lat="43.76461597657541" lon="11.033135567965072"><ele>35.0</ele><time>2026-04-05T15:24:48.999Z</time></trkpt><trkpt lat="43.764655797170114" lon="11.033218758946193"><ele>35.0</ele><time>2026-04-05T15:24:49.999Z</time></trkpt><trkpt lat="43.764691720565565" lon="11.03329680498696"><ele>35.0</ele><time>2026-04-05T15:24:50.999Z</time></trkpt><trkpt lat="43.76479156648482" lon="11.033386395724982"><ele>35.0</ele><time>2026-04-05T15:24:52.999Z</time></trkpt><trkpt lat="43.76487906361273" lon="11.033316268121617"><ele>35.0</ele><time>2026-04-05T15:24:54.999Z</time></trkpt><trkpt lat="43.764955047184834" lon="11.033215019892102"><ele>35.0</ele><time>2026-04-05T15:24:56.999Z</time></trkpt><trkpt lat="43.76502985231611" lon="11.03312457585595"><ele>35.0</ele><time>2026-04-05T15:24:58.999Z</time></trkpt><trkpt lat="43.76508938286709" lon="11.033072055849571"><ele>35.0</ele><time>2026-04-05T15:24:59.999Z</time></trkpt><trkpt lat="43.76517678615805" lon="11.032981278165709"><ele>34.33333333333333</ele><time>2026-04-05T15:25:01.999Z</time></trkpt><trkpt lat="43.765234800571506" lon="11.032919213708087"><ele>33.666666666666664</ele><time>2026-04-05T15:25:02.999Z</time></trkpt><trkpt lat="43.765297266030736" lon="11.032859955613347"><ele>33.0</ele><time>2026-04-05T15:25:03.999Z</time></trkpt><trkpt lat="43.765361506654095" lon="11.032820615248653"><ele>32.333333333333336</ele><time>2026-04-05T15:25:04.999Z</time></trkpt><trkpt lat="43.76545414769543" lon="11.032738309323111"><ele>31.666666666666668</ele><time>2026-04-05T15:25:06.999Z</time></trkpt><trkpt lat="43.76555022287189" lon="11.032725740972635"><ele>31.0</ele><time>2026-04-05T15:25:08.999Z</time></trkpt><trkpt lat="43.76560070568084" lon="11.0328003552036"><ele>31.0</ele><time>2026-04-05T15:25:09.999Z</time></trkpt><trkpt lat="43.76563405655966" lon="11.032907399681267"><ele>31.0</ele><time>2026-04-05T15:25:10.999Z</time></trkpt><trkpt lat="43.76567143625789" lon="11.03302599508814"><ele>31.0</ele><time>2026-04-05T15:25:11.999Z</time></trkpt><trkpt lat="43.76571720293305" lon="11.033164218973496"><ele>31.0</ele><time>2026-04-05T15:25:12.999Z</time></trkpt><trkpt lat="43.765768545324356" lon="11.033314712118269"><ele>31.0</ele><time>2026-04-05T15:25:13.999Z</time></trkpt><trkpt lat="43.76582597515795" lon="11.033467880438769"><ele>30.75</ele><time>2026-04-05T15:25:14.999Z</time></trkpt><trkpt lat="43.76588509479317" lon="11.033633862374419"><ele>30.5</ele><time>2026-04-05T15:25:15.999Z</time></trkpt><trkpt lat="43.76593792487895" lon="11.033803058336922"><ele>30.25</ele><time>2026-04-05T15:25:16.999Z</time></trkpt><trkpt lat="43.765985667124006" lon="11.033961113447067"><ele>30.0</ele><time>2026-04-05T15:25:17.999Z</time></trkpt><trkpt lat="43.766031952489" lon="11.034114345419402"><ele>29.833333333333332</ele><time>2026-04-05T15:25:18.999Z</time></trkpt><trkpt lat="43.76607185668583" lon="11.034248624595765"><ele>29.666666666666664</ele><time>2026-04-05T15:25:19.999Z</time></trkpt><trkpt lat="43.766107949435266" lon="11.034370638543477"><ele>29.5</ele><time>2026-04-05T15:25:20.999Z</time></trkpt><trkpt lat="43.76614875430153" lon="11.034470005252548"><ele>29.333333333333332</ele><time>2026-04-05T15:25:21.999Z</time></trkpt><trkpt lat="43.76617410350693" lon="11.034563681286047"><ele>29.166666666666664</ele><time>2026-04-05T15:25:22.999Z</time></trkpt><trkpt lat="43.766217176494656" lon="11.034641254334748"><ele>29.0</ele><time>2026-04-05T15:25:23.999Z</time></trkpt><trkpt lat="43.76628649026789" lon="11.034680995425086"><ele>29.0</ele><time>2026-04-05T15:25:24.999Z</time></trkpt><trkpt lat="43.76637318708095" lon="11.034651224965865"><ele>29.0</ele><time>2026-04-05T15:25:25.999Z</time></trkpt><trkpt lat="43.76645371913402" lon="11.034592056299141"><ele>29.0</ele><time>2026-04-05T15:25:26.999Z</time></trkpt><trkpt lat="43.7665444664288" lon="11.034533952675726"><ele>29.0</ele><time>2026-04-05T15:25:27.999Z</time></trkpt><trkpt lat="43.766644238952985" lon="11.034470070383513"><ele>29.0</ele><time>2026-04-05T15:25:28.999Z</time></trkpt><trkpt lat="43.7667473904337" lon="11.034406247241991"><ele>29.0</ele><time>2026-04-05T15:25:29.999Z</time></trkpt><trkpt lat="43.76685511036075" lon="11.034338415623647"><ele>29.0</ele><time>2026-04-05T15:25:30.999Z</time></trkpt><trkpt lat="43.76695869305961" lon="11.034271103650912"><ele>29.0</ele><time>2026-04-05T15:25:31.999Z</time></trkpt><trkpt lat="43.767059328609044" lon="11.03420902002794"><ele>29.0</ele><time>2026-04-05T15:25:32.998Z</time></trkpt><trkpt lat="43.76715533979057" lon="11.034148509733154"><ele>29.0</ele><time>2026-04-05T15:25:33.998Z</time></trkpt><trkpt lat="43.76724002813798" lon="11.03409438758304"><ele>30.999999999999996</ele><time>2026-04-05T15:25:34.998Z</time></trkpt><trkpt lat="43.76731555605814" lon="11.034046119630824"><ele>33.0</ele><time>2026-04-05T15:25:35.998Z</time></trkpt><trkpt lat="43.7673849318556" lon="11.034001372814874"><ele>35.0</ele><time>2026-04-05T15:25:36.998Z</time></trkpt><trkpt lat="43.76749370547388" lon="11.03393091628641"><ele>37.0</ele><time>2026-04-05T15:25:38.998Z</time></trkpt><trkpt lat="43.7675554232618" lon="11.033901327767216"><ele>39.0</ele><time>2026-04-05T15:25:39.998Z</time></trkpt><trkpt lat="43.767637138519014" lon="11.033887345327956"><ele>41.0</ele><time>2026-04-05T15:25:40.998Z</time></trkpt><trkpt lat="43.76770957353484" lon="11.033905381838007"><ele>43.83333333333333</ele><time>2026-04-05T15:25:41.998Z</time></trkpt><trkpt lat="43.7677807051718" lon="11.033937145017147"><ele>46.666666666666664</ele><time>2026-04-05T15:25:42.998Z</time></trkpt><trkpt lat="43.76784447512783" lon="11.033977519961828"><ele>49.5</ele><time>2026-04-05T15:25:43.998Z</time></trkpt><trkpt lat="43.76792575467497" lon="11.033988874789161"><ele>52.33333333333333</ele><time>2026-04-05T15:25:44.998Z</time></trkpt><trkpt lat="43.76801411487768" lon="11.033931091608231"><ele>55.166666666666664</ele><time>2026-04-05T15:25:45.998Z</time></trkpt><trkpt lat="43.768068572349115" lon="11.03381103283975"><ele>58.0</ele><time>2026-04-05T15:25:46.998Z</time></trkpt><trkpt lat="43.768129993831636" lon="11.033722989101987"><ele>57.99999999999999</ele><time>2026-04-05T15:25:47.998Z</time></trkpt><trkpt lat="43.76818385492097" lon="11.033636947591505"><ele>58.0</ele><time>2026-04-05T15:25:48.998Z</time></trkpt><trkpt lat="43.76823204860783" lon="11.03354656373345"><ele>58.0</ele><time>2026-04-05T15:25:49.998Z</time></trkpt><trkpt lat="43.768280025140925" lon="11.033461475142609"><ele>58.0</ele><time>2026-04-05T15:25:50.998Z</time></trkpt><trkpt lat="43.76833087708912" lon="11.033375938928213"><ele>57.99999999999999</ele><time>2026-04-05T15:25:51.998Z</time></trkpt><trkpt lat="43.76838249816758" lon="11.033289323107734"><ele>58.0</ele><time>2026-04-05T15:25:52.998Z</time></trkpt><trkpt lat="43.768431620066046" lon="11.03319903632346"><ele>58.166666666666664</ele><time>2026-04-05T15:25:53.998Z</time></trkpt><trkpt lat="43.768486198933495" lon="11.033118520507857"><ele>58.33333333333333</ele><time>2026-04-05T15:25:54.998Z</time></trkpt><trkpt lat="43.76854661614902" lon="11.03303851745958"><ele>58.5</ele><time>2026-04-05T15:25:55.998Z</time></trkpt><trkpt lat="43.7686185237643" lon="11.032974280694217"><ele>58.66666666666667</ele><time>2026-04-05T15:25:56.998Z</time></trkpt><trkpt lat="43.768710463220636" lon="11.032945430617415"><ele>58.833333333333336</ele><time>2026-04-05T15:25:57.998Z</time></trkpt><trkpt lat="43.76880045366676" lon="11.03290862014002"><ele>59.0</ele><time>2026-04-05T15:25:58.998Z</time></trkpt><trkpt lat="43.7688965276951" lon="11.032891043524113"><ele>62.5</ele><time>2026-04-05T15:25:59.998Z</time></trkpt><trkpt lat="43.76900451161218" lon="11.03289115320643"><ele>66.0</ele><time>2026-04-05T15:26:00.998Z</time></trkpt><trkpt lat="43.7691150638075" lon="11.032917216468297"><ele>69.5</ele><time>2026-04-05T15:26:01.998Z</time></trkpt><trkpt lat="43.76923657554219" lon="11.032948761592413"><ele>73.0</ele><time>2026-04-05T15:26:02.998Z</time></trkpt><trkpt lat="43.76936290248941" lon="11.032984903653816"><ele>76.0</ele><time>2026-04-05T15:26:03.998Z</time></trkpt><trkpt lat="43.76949420693861" lon="11.033024596434329"><ele>79.0</ele><time>2026-04-05T15:26:04.998Z</time></trkpt><trkpt lat="43.769628373646974" lon="11.033068139822388"><ele>82.0</ele><time>2026-04-05T15:26:06Z</time></trkpt><trkpt lat="43.76977074251312" lon="11.033104843432442"><ele>85.0</ele><time>2026-04-05T15:26:07Z</time></trkpt><trkpt lat="43.769911480254514" lon="11.033100604691157"><ele>85.0</ele><time>2026-04-05T15:26:08Z</time></trkpt><trkpt lat="43.77005751193286" lon="11.033136830569928"><ele>85.0</ele><time>2026-04-05T15:26:09Z</time></trkpt><trkpt lat="43.770204526977416" lon="11.0331555240102"><ele>85.0</ele><time>2026-04-05T15:26:10Z</time></trkpt><trkpt lat="43.77035407536826" lon="11.033165838497972"><ele>85.0</ele><time>2026-04-05T15:26:11Z</time></trkpt><trkpt lat="43.770498791284886" lon="11.033149539066544"><ele>87.75</ele><time>2026-04-05T15:26:12Z</time></trkpt><trkpt lat="43.77064228794634" lon="11.033170842861015"><ele>90.5</ele><time>2026-04-05T15:26:13Z</time></trkpt><trkpt lat="43.77078128915492" lon="11.033196497108715"><ele>93.25</ele><time>2026-04-05T15:26:14Z</time></trkpt><trkpt lat="43.77091249402916" lon="11.033275683099857"><ele>96.0</ele><time>2026-04-05T15:26:15Z</time></trkpt><trkpt lat="43.77104825547026" lon="11.033340402781423"><ele>97.75</ele><time>2026-04-05T15:26:16Z</time></trkpt><trkpt lat="43.7711742383939" lon="11.033392605652054"><ele>99.5</ele><time>2026-04-05T15:26:17Z</time></trkpt><trkpt lat="43.77129995654022" lon="11.033452298823125"><ele>101.25</ele><time>2026-04-05T15:26:18Z</time></trkpt><trkpt lat="43.771417927378494" lon="11.033536973803894"><ele>103.0</ele><time>2026-04-05T15:26:19Z</time></trkpt><trkpt lat="43.77150604455471" lon="11.03366423887933"><ele>103.0</ele><time>2026-04-05T15:26:20Z</time></trkpt><trkpt lat="43.771581297405845" lon="11.033820817690458"><ele>103.0</ele><time>2026-04-05T15:26:21Z</time></trkpt><trkpt lat="43.771677719757115" lon="11.033955475565211"><ele>103.0</ele><time>2026-04-05T15:26:22Z</time></trkpt><trkpt lat="43.77180300466703" lon="11.034032435394924"><ele>103.0</ele><time>2026-04-05T15:26:23Z</time></trkpt><trkpt lat="43.771917374846204" lon="11.034116467309332"><ele>105.0</ele><time>2026-04-05T15:26:24Z</time></trkpt><trkpt lat="43.772051718750866" lon="11.034145565060781"><ele>107.0</ele><time>2026-04-05T15:26:25Z</time></trkpt><trkpt lat="43.77219094467234" lon="11.034145762644346"><ele>109.0</ele><time>2026-04-05T15:26:26Z</time></trkpt><trkpt lat="43.772333202608166" lon="11.034136728611669"><ele>111.0</ele><time>2026-04-05T15:26:27Z</time></trkpt><trkpt lat="43.77247623139438" lon="11.034127913796718"><ele>112.5</ele><time>2026-04-05T15:26:28Z</time></trkpt><trkpt lat="43.77261836877213" lon="11.034119153918974"><ele>114.0</ele><time>2026-04-05T15:26:29Z</time></trkpt><trkpt lat="43.7727604897875" lon="11.03411039504778"><ele>115.5</ele><time>2026-04-05T15:26:30Z</time></trkpt><trkpt lat="43.77289631334889" lon="11.034098857210315"><ele>117.0</ele><time>2026-04-05T15:26:31Z</time></trkpt><trkpt lat="43.7730155688507" lon="11.034076812302974"><ele>120.75</ele><time>2026-04-05T15:26:32Z</time></trkpt><trkpt lat="43.77312200028917" lon="11.03399457142115"><ele>124.5</ele><time>2026-04-05T15:26:33Z</time></trkpt><trkpt lat="43.77322463156215" lon="11.033899276290127"><ele>128.25</ele><time>2026-04-05T15:26:34Z</time></trkpt><trkpt lat="43.773340246932776" lon="11.033827632798301"><ele>132.0</ele><time>2026-04-05T15:26:35Z</time></trkpt><trkpt lat="43.77345666958333" lon="11.033736478521952"><ele>131.75</ele><time>2026-04-05T15:26:36Z</time></trkpt><trkpt lat="43.77356837810198" lon="11.033620798330091"><ele>131.5</ele><time>2026-04-05T15:26:37Z</time></trkpt><trkpt lat="43.77369319991398" lon="11.033520468899075"><ele>131.25</ele><time>2026-04-05T15:26:38Z</time></trkpt><trkpt lat="43.773820395835536" lon="11.033422207857168"><ele>131.0</ele><time>2026-04-05T15:26:39Z</time></trkpt><trkpt lat="43.77394365348576" lon="11.033325101082326"><ele>134.75</ele><time>2026-04-05T15:26:40Z</time></trkpt><trkpt lat="43.77406482031535" lon="11.033226777300998"><ele>138.5</ele><time>2026-04-05T15:26:41Z</time></trkpt><trkpt lat="43.77418367039491" lon="11.033126069787091"><ele>142.25</ele><time>2026-04-05T15:26:42Z</time></trkpt><trkpt lat="43.7743065691261" lon="11.033047434570456"><ele>146.0</ele><time>2026-04-05T15:26:43Z</time></trkpt><trkpt lat="43.77441515747235" lon="11.032932258128103"><ele>146.25</ele><time>2026-04-05T15:26:44Z</time></trkpt><trkpt lat="43.774534816043676" lon="11.03283340608076"><ele>146.5</ele><time>2026-04-05T15:26:45Z</time></trkpt><trkpt lat="43.774656209409834" lon="11.032736456476389"><ele>146.75</ele><time>2026-04-05T15:26:46Z</time></trkpt><trkpt lat="43.77477848225924" lon="11.03263650802059"><ele>147.0</ele><time>2026-04-05T15:26:46.999Z</time></trkpt><trkpt lat="43.774907404946994" lon="11.032558424281707"><ele>147.25</ele><time>2026-04-05T15:26:47.999Z</time></trkpt><trkpt lat="43.77502137207528" lon="11.032439851657188"><ele>147.5</ele><time>2026-04-05T15:26:48.999Z</time></trkpt><trkpt lat="43.77514885136105" lon="11.032360267422527"><ele>147.75</ele><time>2026-04-05T15:26:49.999Z</time></trkpt><trkpt lat="43.775269519882166" lon="11.03226176512767"><ele>148.0</ele><time>2026-04-05T15:26:50.999Z</time></trkpt><trkpt lat="43.775382702477735" lon="11.03216770715921"><ele>149.0</ele><time>2026-04-05T15:26:51.999Z</time></trkpt><trkpt lat="43.77548739690232" lon="11.03208169723241"><ele>150.0</ele><time>2026-04-05T15:26:52.999Z</time></trkpt><trkpt lat="43.77559275609135" lon="11.031994009819105"><ele>151.0</ele><time>2026-04-05T15:26:53.999Z</time></trkpt><trkpt lat="43.77571158695659" lon="11.031993910227989"><ele>152.0</ele><time>2026-04-05T15:26:54.999Z</time></trkpt><trkpt lat="43.775837353533554" lon="11.031991431813426"><ele>152.0</ele><time>2026-04-05T15:26:55.999Z</time></trkpt><trkpt lat="43.77596672323208" lon="11.031990837111916"><ele>152.0</ele><time>2026-04-05T15:26:56.999Z</time></trkpt><trkpt lat="43.77610321464246" lon="11.031990953681296"><ele>152.0</ele><time>2026-04-05T15:26:57.999Z</time></trkpt><trkpt lat="43.77624269390796" lon="11.031992803788317"><ele>152.0</ele><time>2026-04-05T15:26:58.999Z</time></trkpt><trkpt lat="43.77639015915459" lon="11.031996757669207"><ele>154.33333333333331</ele><time>2026-04-05T15:26:59.999Z</time></trkpt><trkpt lat="43.77654156123077" lon="11.032002813390385"><ele>156.66666666666666</ele><time>2026-04-05T15:27:00.999Z</time></trkpt><trkpt lat="43.77669711438367" lon="11.032006239979175"><ele>159.0</ele><time>2026-04-05T15:27:01.999Z</time></trkpt><trkpt lat="43.77685221538466" lon="11.032003044150095"><ele>164.66666666666666</ele><time>2026-04-05T15:27:02.999Z</time></trkpt><trkpt lat="43.77700672575047" lon="11.031988841623848"><ele>170.33333333333331</ele><time>2026-04-05T15:27:03.999Z</time></trkpt><trkpt lat="43.777159530929566" lon="11.031974538060883"><ele>176.0</ele><time>2026-04-05T15:27:04.999Z</time></trkpt><trkpt lat="43.7773100474357" lon="11.031956663097999"><ele>176.0</ele><time>2026-04-05T15:27:05.999Z</time></trkpt><trkpt lat="43.777458468280166" lon="11.031926947486927"><ele>176.0</ele><time>2026-04-05T15:27:06.999Z</time></trkpt><trkpt lat="43.777602043051836" lon="11.031897097235271"><ele>176.0</ele><time>2026-04-05T15:27:07.999Z</time></trkpt><trkpt lat="43.77773978006944" lon="11.03186645547956"><ele>176.0</ele><time>2026-04-05T15:27:08.999Z</time></trkpt><trkpt lat="43.77786968894181" lon="11.031837555217653"><ele>178.60000000000002</ele><time>2026-04-05T15:27:09.999Z</time></trkpt><trkpt lat="43.77799219053003" lon="11.031812141816841"><ele>181.2</ele><time>2026-04-05T15:27:10.999Z</time></trkpt><trkpt lat="43.778111731761854" lon="11.03179118703235"><ele>183.8</ele><time>2026-04-05T15:27:11.999Z</time></trkpt><trkpt lat="43.77821360250268" lon="11.031778034789989"><ele>186.39999999999998</ele><time>2026-04-05T15:27:12.999Z</time></trkpt><trkpt lat="43.778307138570845" lon="11.031784880446882"><ele>189.0</ele><time>2026-04-05T15:27:13.999Z</time></trkpt><trkpt lat="43.77841881487599" lon="11.031799621198774"><ele>188.75</ele><time>2026-04-05T15:27:14.999Z</time></trkpt><trkpt lat="43.778528945287256" lon="11.031862306977354"><ele>188.5</ele><time>2026-04-05T15:27:15.999Z</time></trkpt><trkpt lat="43.77861993166242" lon="11.031982212203093"><ele>188.25</ele><time>2026-04-05T15:27:16.999Z</time></trkpt><trkpt lat="43.778723952424734" lon="11.032075069542453"><ele>188.0</ele><time>2026-04-05T15:27:17.999Z</time></trkpt><trkpt lat="43.77882754117328" lon="11.032161867159466"><ele>188.0</ele><time>2026-04-05T15:27:18.999Z</time></trkpt><trkpt lat="43.77893176968816" lon="11.032258521570219"><ele>188.0</ele><time>2026-04-05T15:27:19.999Z</time></trkpt><trkpt lat="43.77903205685461" lon="11.032363207729059"><ele>188.0</ele><time>2026-04-05T15:27:20.999Z</time></trkpt><trkpt lat="43.77912335466718" lon="11.032477345868378"><ele>188.0</ele><time>2026-04-05T15:27:21.999Z</time></trkpt><trkpt lat="43.77919642744347" lon="11.03260814005479"><ele>191.25</ele><time>2026-04-05T15:27:22.999Z</time></trkpt><trkpt lat="43.779257843970086" lon="11.032754594593507"><ele>194.5</ele><time>2026-04-05T15:27:23.999Z</time></trkpt><trkpt lat="43.77931742514974" lon="11.032905043108906"><ele>197.75</ele><time>2026-04-05T15:27:24.999Z</time></trkpt><trkpt lat="43.77937684791149" lon="11.033056374218722"><ele>201.0</ele><time>2026-04-05T15:27:25.999Z</time></trkpt><trkpt lat="43.77943327072291" lon="11.033200066382118"><ele>204.25</ele><time>2026-04-05T15:27:26.999Z</time></trkpt><trkpt lat="43.77949113618265" lon="11.033355085261894"><ele>207.5</ele><time>2026-04-05T15:27:27.999Z</time></trkpt><trkpt lat="43.7795498892682" lon="11.033510485748891"><ele>210.75</ele><time>2026-04-05T15:27:28.999Z</time></trkpt><trkpt lat="43.77961655882619" lon="11.033679649943176"><ele>214.0</ele><time>2026-04-05T15:27:29.999Z</time></trkpt><trkpt lat="43.77968671861596" lon="11.033853102213676"><ele>214.0</ele><time>2026-04-05T15:27:30.999Z</time></trkpt><trkpt lat="43.77976145097899" lon="11.034031275566353"><ele>214.0</ele><time>2026-04-05T15:27:31.999Z</time></trkpt><trkpt lat="43.779853334960634" lon="11.034204225454152"><ele>214.0</ele><time>2026-04-05T15:27:32.999Z</time></trkpt><trkpt lat="43.779927639043606" lon="11.034391390274582"><ele>215.25</ele><time>2026-04-05T15:27:33.999Z</time></trkpt><trkpt lat="43.780004586005965" lon="11.034569950874769"><ele>216.5</ele><time>2026-04-05T15:27:34.999Z</time></trkpt><trkpt lat="43.78009190818908" lon="11.034733856814343"><ele>217.75</ele><time>2026-04-05T15:27:35.999Z</time></trkpt><trkpt lat="43.78018944595723" lon="11.034876237834972"><ele>219.0</ele><time>2026-04-05T15:27:36.999Z</time></trkpt><trkpt lat="43.780275468464566" lon="11.035034785309236"><ele>219.75</ele><time>2026-04-05T15:27:37.999Z</time></trkpt><trkpt lat="43.780373515061385" lon="11.035150703174258"><ele>220.5</ele><time>2026-04-05T15:27:38.999Z</time></trkpt><trkpt lat="43.780459698800186" lon="11.035288108914871"><ele>221.25</ele><time>2026-04-05T15:27:39.998Z</time></trkpt><trkpt lat="43.78058586962226" lon="11.035368277540236"><ele>222.0</ele><time>2026-04-05T15:27:40.998Z</time></trkpt><trkpt lat="43.78069041033841" lon="11.035483356287397"><ele>222.0</ele><time>2026-04-05T15:27:41.998Z</time></trkpt><trkpt lat="43.78080470549821" lon="11.035598860441116"><ele>222.0</ele><time>2026-04-05T15:27:42.998Z</time></trkpt><trkpt lat="43.78093039974953" lon="11.035695035066825"><ele>222.0</ele><time>2026-04-05T15:27:43.998Z</time></trkpt><trkpt lat="43.781035310700034" lon="11.035823310354548"><ele>222.0</ele><time>2026-04-05T15:27:44.998Z</time></trkpt><trkpt lat="43.78114856491364" lon="11.035889876384227"><ele>226.0</ele><time>2026-04-05T15:27:45.998Z</time></trkpt><trkpt lat="43.78123821472897" lon="11.035955549059112"><ele>230.0</ele><time>2026-04-05T15:27:46.998Z</time></trkpt><trkpt lat="43.78131584285767" lon="11.036017051524322"><ele>234.0</ele><time>2026-04-05T15:27:47.998Z</time></trkpt><trkpt lat="43.78141002431145" lon="11.036047603278737"><ele>238.0</ele><time>2026-04-05T15:27:48.998Z</time></trkpt><trkpt lat="43.78151363845967" lon="11.036010152107378"><ele>242.0</ele><time>2026-04-05T15:27:49.998Z</time></trkpt><trkpt lat="43.78161532095571" lon="11.03597955298052"><ele>242.0</ele><time>2026-04-05T15:27:50.998Z</time></trkpt><trkpt lat="43.78171399107729" lon="11.035993387616006"><ele>242.0</ele><time>2026-04-05T15:27:51.998Z</time></trkpt><trkpt lat="43.781816068394065" lon="11.0359941988531"><ele>242.0</ele><time>2026-04-05T15:27:52.998Z</time></trkpt><trkpt lat="43.781912930446644" lon="11.035996795943081"><ele>242.0</ele><time>2026-04-05T15:27:53.998Z</time></trkpt><trkpt lat="43.78200388106386" lon="11.036000655933393"><ele>242.0</ele><time>2026-04-05T15:27:54.998Z</time></trkpt><trkpt lat="43.78211043701301" lon="11.036035763669556"><ele>245.0</ele><time>2026-04-05T15:27:56.998Z</time></trkpt><trkpt lat="43.78222284915533" lon="11.036178758257902"><ele>248.0</ele><time>2026-04-05T15:27:58.998Z</time></trkpt><trkpt lat="43.78227858079346" lon="11.036297692697234"><ele>251.0</ele><time>2026-04-05T15:27:59.998Z</time></trkpt><trkpt lat="43.78232608738462" lon="11.036411429505524"><ele>254.0</ele><time>2026-04-05T15:28:00.998Z</time></trkpt><trkpt lat="43.78239727331902" lon="11.036506605350077"><ele>257.0</ele><time>2026-04-05T15:28:01.998Z</time></trkpt><trkpt lat="43.782481160683986" lon="11.03658358054801"><ele>257.0</ele><time>2026-04-05T15:28:02.998Z</time></trkpt><trkpt lat="43.78256079768958" lon="11.036635744622313"><ele>257.0</ele><time>2026-04-05T15:28:03.998Z</time></trkpt><trkpt lat="43.78262081987508" lon="11.036674167527"><ele>257.0</ele><time>2026-04-05T15:28:04.998Z</time></trkpt><trkpt lat="43.782695530135484" lon="11.036738281671177"><ele>257.0</ele><time>2026-04-05T15:28:06.998Z</time></trkpt><trkpt lat="43.7827778167726" lon="11.036819472315026"><ele>257.0</ele><time>2026-04-05T15:28:09.998Z</time></trkpt><trkpt lat="43.78285185763064" lon="11.036887515068292"><ele>257.0</ele><time>2026-04-05T15:28:12Z</time></trkpt><trkpt lat="43.782915232870856" lon="11.036973975219997"><ele>257.0</ele><time>2026-04-05T15:28:23Z</time></trkpt><trkpt lat="43.782890540622844" lon="11.037132345688462"><ele>257.0</ele><time>2026-04-05T15:28:25Z</time></trkpt><trkpt lat="43.78286112556217" lon="11.03724574513422"><ele>257.0</ele><time>2026-04-05T15:28:27Z</time></trkpt><trkpt lat="43.782846382229344" lon="11.037385974746869"><ele>257.0</ele><time>2026-04-05T15:28:29Z</time></trkpt><trkpt lat="43.782830364135904" lon="11.037543425049005"><ele>257.0</ele><time>2026-04-05T15:28:31Z</time></trkpt><trkpt lat="43.7828264462726" lon="11.037646749375995"><ele>255.50000000000003</ele><time>2026-04-05T15:28:32Z</time></trkpt><trkpt lat="43.782815467190545" lon="11.037754540370075"><ele>254.0</ele><time>2026-04-05T15:28:33Z</time></trkpt><trkpt lat="43.78280706985579" lon="11.03786462185758"><ele>252.5</ele><time>2026-04-05T15:28:34Z</time></trkpt><trkpt lat="43.78279613366882" lon="11.037982612467852"><ele>251.0</ele><time>2026-04-05T15:28:35Z</time></trkpt><trkpt lat="43.78278753511587" lon="11.038086914358004"><ele>249.50000000000003</ele><time>2026-04-05T15:28:36Z</time></trkpt><trkpt lat="43.78277271496685" lon="11.038198129894553"><ele>248.0</ele><time>2026-04-05T15:28:37Z</time></trkpt><trkpt lat="43.782765598443824" lon="11.038291777618008"><ele>245.2</ele><time>2026-04-05T15:28:38Z</time></trkpt><trkpt lat="43.78275768735004" lon="11.03838239684157"><ele>242.4</ele><time>2026-04-05T15:28:39Z</time></trkpt><trkpt lat="43.7827425766064" lon="11.038492028631142"><ele>239.59999999999997</ele><time>2026-04-05T15:28:40Z</time></trkpt><trkpt lat="43.782719809835264" lon="11.03861658510627"><ele>236.79999999999998</ele><time>2026-04-05T15:28:41Z</time></trkpt><trkpt lat="43.78271790777008" lon="11.038766279882957"><ele>234.0</ele><time>2026-04-05T15:28:42Z</time></trkpt><trkpt lat="43.78269513863346" lon="11.038919689534998"><ele>234.25</ele><time>2026-04-05T15:28:43Z</time></trkpt><trkpt lat="43.78267839932643" lon="11.039089599354044"><ele>234.5</ele><time>2026-04-05T15:28:44Z</time></trkpt><trkpt lat="43.78266441906878" lon="11.03926366277499"><ele>234.75</ele><time>2026-04-05T15:28:45Z</time></trkpt><trkpt lat="43.78265106132561" lon="11.039440204283162"><ele>235.0</ele><time>2026-04-05T15:28:46Z</time></trkpt><trkpt lat="43.78263242954705" lon="11.039600660534129"><ele>235.5</ele><time>2026-04-05T15:28:47Z</time></trkpt><trkpt lat="43.78261478535701" lon="11.039743981726982"><ele>236.0</ele><time>2026-04-05T15:28:48Z</time></trkpt><trkpt lat="43.782599306765874" lon="11.039900376565384"><ele>236.5</ele><time>2026-04-05T15:28:49Z</time></trkpt><trkpt lat="43.78258796144286" lon="11.04006404852151"><ele>237.0</ele><time>2026-04-05T15:28:50Z</time></trkpt><trkpt lat="43.7825602397708" lon="11.040223544549342"><ele>238.39999999999998</ele><time>2026-04-05T15:28:51Z</time></trkpt><trkpt lat="43.7825468905977" lon="11.040377890531033"><ele>239.79999999999998</ele><time>2026-04-05T15:28:52Z</time></trkpt><trkpt lat="43.782530385802076" lon="11.040520592197"><ele>241.2</ele><time>2026-04-05T15:28:52.999Z</time></trkpt><trkpt lat="43.782510789387615" lon="11.040666575183032"><ele>242.6</ele><time>2026-04-05T15:28:53.999Z</time></trkpt><trkpt lat="43.78249521206342" lon="11.040796936686906"><ele>244.0</ele><time>2026-04-05T15:28:54.999Z</time></trkpt><trkpt lat="43.78248167517073" lon="11.040912347005817"><ele>244.33333333333331</ele><time>2026-04-05T15:28:55.999Z</time></trkpt><trkpt lat="43.78247683647786" lon="11.041020973188559"><ele>244.66666666666666</ele><time>2026-04-05T15:28:56.999Z</time></trkpt><trkpt lat="43.782485158517865" lon="11.041127409039705"><ele>245.0</ele><time>2026-04-05T15:28:57.999Z</time></trkpt><trkpt lat="43.782535773508236" lon="11.041239245482068"><ele>245.33333333333331</ele><time>2026-04-05T15:28:58.999Z</time></trkpt><trkpt lat="43.78261667753689" lon="11.041324976246624"><ele>245.66666666666666</ele><time>2026-04-05T15:28:59.999Z</time></trkpt><trkpt lat="43.78268517292462" lon="11.041410580730236"><ele>246.0</ele><time>2026-04-05T15:29:00.999Z</time></trkpt><trkpt lat="43.782708845526294" lon="11.041542023930644"><ele>242.5</ele><time>2026-04-05T15:29:01.999Z</time></trkpt><trkpt lat="43.782687576776915" lon="11.041699520801286"><ele>239.0</ele><time>2026-04-05T15:29:02.999Z</time></trkpt><trkpt lat="43.78270080506489" lon="11.041853047944175"><ele>235.5</ele><time>2026-04-05T15:29:03.999Z</time></trkpt><trkpt lat="43.78276356979702" lon="11.042001863401712"><ele>232.0</ele><time>2026-04-05T15:29:04.999Z</time></trkpt><trkpt lat="43.782862028375014" lon="11.042121049356558"><ele>232.0</ele><time>2026-04-05T15:29:05.999Z</time></trkpt><trkpt lat="43.78297165466472" lon="11.042231747051881"><ele>232.0</ele><time>2026-04-05T15:29:06.999Z</time></trkpt><trkpt lat="43.78308510989047" lon="11.042346822648044"><ele>232.0</ele><time>2026-04-05T15:29:07.999Z</time></trkpt><trkpt lat="43.783205165847015" lon="11.04246859330723"><ele>232.0</ele><time>2026-04-05T15:29:08.999Z</time></trkpt><trkpt lat="43.78332356511872" lon="11.042587579756702"><ele>233.5</ele><time>2026-04-05T15:29:09.999Z</time></trkpt><trkpt lat="43.783432864469745" lon="11.042694888660108"><ele>235.0</ele><time>2026-04-05T15:29:10.999Z</time></trkpt><trkpt lat="43.78354567709535" lon="11.042774368347592"><ele>236.5</ele><time>2026-04-05T15:29:11.999Z</time></trkpt><trkpt lat="43.78363551559827" lon="11.042875252630154"><ele>238.0</ele><time>2026-04-05T15:29:12.999Z</time></trkpt><trkpt lat="43.7837406645965" lon="11.042919729018049"><ele>237.0</ele><time>2026-04-05T15:29:13.999Z</time></trkpt><trkpt lat="43.78383663278296" lon="11.042986548060549"><ele>236.0</ele><time>2026-04-05T15:29:14.999Z</time></trkpt><trkpt lat="43.78392963138486" lon="11.043066349361233"><ele>235.0</ele><time>2026-04-05T15:29:15.999Z</time></trkpt><trkpt lat="43.78400051661189" lon="11.043184760262598"><ele>234.0</ele><time>2026-04-05T15:29:16.999Z</time></trkpt><trkpt lat="43.784069761004446" lon="11.043291558734296"><ele>233.0</ele><time>2026-04-05T15:29:17.999Z</time></trkpt><trkpt lat="43.78413056833877" lon="11.043388267591542"><ele>233.0</ele><time>2026-04-05T15:29:18.999Z</time></trkpt><trkpt lat="43.78418951602358" lon="11.04346116798579"><ele>233.0</ele><time>2026-04-05T15:29:19.999Z</time></trkpt><trkpt lat="43.78423428965727" lon="11.043541128601332"><ele>233.0</ele><time>2026-04-05T15:29:20.999Z</time></trkpt><trkpt lat="43.78431739276737" lon="11.043649091685916"><ele>233.0</ele><time>2026-04-05T15:29:22.999Z</time></trkpt><trkpt lat="43.78442665756898" lon="11.043623059288167"><ele>233.0</ele><time>2026-04-05T15:29:24.999Z</time></trkpt><trkpt lat="43.78443712035905" lon="11.043506314114804"><ele>230.4</ele><time>2026-04-05T15:29:25.999Z</time></trkpt><trkpt lat="43.78436097959098" lon="11.043384621957532"><ele>227.8</ele><time>2026-04-05T15:29:26.999Z</time></trkpt><trkpt lat="43.784314574607514" lon="11.043274170264498"><ele>225.2</ele><time>2026-04-05T15:29:27.999Z</time></trkpt><trkpt lat="43.784260458435604" lon="11.043145938889348"><ele>222.6</ele><time>2026-04-05T15:29:28.999Z</time></trkpt><trkpt lat="43.78421422588153" lon="11.04302070906072"><ele>220.0</ele><time>2026-04-05T15:29:29.999Z</time></trkpt><trkpt lat="43.784156744182155" lon="11.042910907989324"><ele>220.0</ele><time>2026-04-05T15:29:30.999Z</time></trkpt><trkpt lat="43.784068731115184" lon="11.042816016240685"><ele>220.0</ele><time>2026-04-05T15:29:31.999Z</time></trkpt><trkpt lat="43.783967736883206" lon="11.042733236892877"><ele>220.0</ele><time>2026-04-05T15:29:32.999Z</time></trkpt><trkpt lat="43.78386545389157" lon="11.042633601378977"><ele>220.0</ele><time>2026-04-05T15:29:33.999Z</time></trkpt><trkpt lat="43.78376807809695" lon="11.042534407666796"><ele>219.4</ele><time>2026-04-05T15:29:34.999Z</time></trkpt><trkpt lat="43.78367842144266" lon="11.042445967435992"><ele>218.8</ele><time>2026-04-05T15:29:35.999Z</time></trkpt><trkpt lat="43.783597596800156" lon="11.042354600643579"><ele>218.2</ele><time>2026-04-05T15:29:36.999Z</time></trkpt><trkpt lat="43.78353678541377" lon="11.042250709336892"><ele>217.6</ele><time>2026-04-05T15:29:37.999Z</time></trkpt><trkpt lat="43.78350141561322" lon="11.042123893143412"><ele>217.0</ele><time>2026-04-05T15:29:38.999Z</time></trkpt><trkpt lat="43.783499059692794" lon="11.041985840612062"><ele>217.0</ele><time>2026-04-05T15:29:39.999Z</time></trkpt><trkpt lat="43.78352984974964" lon="11.041848212479838"><ele>217.0</ele><time>2026-04-05T15:29:40.999Z</time></trkpt><trkpt lat="43.783611187678375" lon="11.041758110656632"><ele>217.0</ele><time>2026-04-05T15:29:41.999Z</time></trkpt><trkpt lat="43.783699207360876" lon="11.041683449343907"><ele>217.0</ele><time>2026-04-05T15:29:42.999Z</time></trkpt><trkpt lat="43.78379881868647" lon="11.041615444151716"><ele>217.0</ele><time>2026-04-05T15:29:43.999Z</time></trkpt><trkpt lat="43.78391793587465" lon="11.041582864639446"><ele>216.75</ele><time>2026-04-05T15:29:44.998Z</time></trkpt><trkpt lat="43.78403756637239" lon="11.041583114591662"><ele>216.5</ele><time>2026-04-05T15:29:45.998Z</time></trkpt><trkpt lat="43.78415534750832" lon="11.041587542953843"><ele>216.25</ele><time>2026-04-05T15:29:46.998Z</time></trkpt><trkpt lat="43.7842712984883" lon="11.041586507909923"><ele>216.0</ele><time>2026-04-05T15:29:47.998Z</time></trkpt><trkpt lat="43.78438506021326" lon="11.041564083296812"><ele>216.0</ele><time>2026-04-05T15:29:48.998Z</time></trkpt><trkpt lat="43.784512246367356" lon="11.041497388751605"><ele>216.0</ele><time>2026-04-05T15:29:49.998Z</time></trkpt><trkpt lat="43.78463606991004" lon="11.041429588477833"><ele>216.0</ele><time>2026-04-05T15:29:50.998Z</time></trkpt><trkpt lat="43.784765524895526" lon="11.041380489644583"><ele>216.0</ele><time>2026-04-05T15:29:51.998Z</time></trkpt><trkpt lat="43.78489258407521" lon="11.041341610997144"><ele>216.0</ele><time>2026-04-05T15:29:52.998Z</time></trkpt><trkpt lat="43.78501530357817" lon="11.041317636668193"><ele>216.0</ele><time>2026-04-05T15:29:53.998Z</time></trkpt><trkpt lat="43.78513410377668" lon="11.041304150723551"><ele>216.0</ele><time>2026-04-05T15:29:54.998Z</time></trkpt><trkpt lat="43.78525221157657" lon="11.041300181660331"><ele>216.0</ele><time>2026-04-05T15:29:55.998Z</time></trkpt><trkpt lat="43.785365773264935" lon="11.041300181663305"><ele>213.8</ele><time>2026-04-05T15:29:56.998Z</time></trkpt><trkpt lat="43.78546885590347" lon="11.041302657561946"><ele>211.60000000000002</ele><time>2026-04-05T15:29:57.998Z</time></trkpt><trkpt lat="43.78556501947174" lon="11.04130395936523"><ele>209.4</ele><time>2026-04-05T15:29:58.998Z</time></trkpt><trkpt lat="43.7856601981787" lon="11.041271011835752"><ele>207.2</ele><time>2026-04-05T15:29:59.998Z</time></trkpt><trkpt lat="43.78573973817298" lon="11.041137690298362"><ele>205.0</ele><time>2026-04-05T15:30:00.998Z</time></trkpt><trkpt lat="43.78581607420981" lon="11.041019446586853"><ele>205.0</ele><time>2026-04-05T15:30:01.998Z</time></trkpt><trkpt lat="43.7858833719509" lon="11.04090776277708"><ele>205.0</ele><time>2026-04-05T15:30:02.998Z</time></trkpt><trkpt lat="43.785948268873106" lon="11.040801939111441"><ele>205.0</ele><time>2026-04-05T15:30:03.998Z</time></trkpt><trkpt lat="43.78601286131563" lon="11.040705350850251"><ele>205.0</ele><time>2026-04-05T15:30:04.998Z</time></trkpt><trkpt lat="43.78607977602478" lon="11.04062274435856"><ele>205.0</ele><time>2026-04-05T15:30:05.998Z</time></trkpt><trkpt lat="43.78615600184607" lon="11.040557709826052"><ele>200.66666666666666</ele><time>2026-04-05T15:30:06.998Z</time></trkpt><trkpt lat="43.78624532149534" lon="11.040550392014968"><ele>196.33333333333331</ele><time>2026-04-05T15:30:07.998Z</time></trkpt><trkpt lat="43.786319320987175" lon="11.040558110273231"><ele>192.0</ele><time>2026-04-05T15:30:08.998Z</time></trkpt><trkpt lat="43.78638930903735" lon="11.04058993048167"><ele>187.66666666666666</ele><time>2026-04-05T15:30:09.998Z</time></trkpt><trkpt lat="43.78643852894003" lon="11.04065641764572"><ele>183.33333333333331</ele><time>2026-04-05T15:30:10.998Z</time></trkpt><trkpt lat="43.786497969804884" lon="11.040726198953935"><ele>179.0</ele><time>2026-04-05T15:30:11.998Z</time></trkpt><trkpt lat="43.78655844162408" lon="11.040788151137127"><ele>179.66666666666666</ele><time>2026-04-05T15:30:12.998Z</time></trkpt><trkpt lat="43.78662251686591" lon="11.040843784854323"><ele>180.33333333333331</ele><time>2026-04-05T15:30:13.998Z</time></trkpt><trkpt lat="43.78670172356776" lon="11.040886533181334"><ele>181.0</ele><time>2026-04-05T15:30:14.998Z</time></trkpt><trkpt lat="43.78679110315199" lon="11.040908640512402"><ele>181.66666666666666</ele><time>2026-04-05T15:30:15.998Z</time></trkpt><trkpt lat="43.786882513507805" lon="11.040918622827078"><ele>182.33333333333334</ele><time>2026-04-05T15:30:16.998Z</time></trkpt><trkpt lat="43.78696749459306" lon="11.040915281720169"><ele>183.0</ele><time>2026-04-05T15:30:18Z</time></trkpt><trkpt lat="43.78704705429752" lon="11.040910468682542"><ele>183.0</ele><time>2026-04-05T15:30:19Z</time></trkpt><trkpt lat="43.78711985912345" lon="11.040904612483162"><ele>183.0</ele><time>2026-04-05T15:30:20Z</time></trkpt><trkpt lat="43.78718580803865" lon="11.04090954296696"><ele>183.0</ele><time>2026-04-05T15:30:21Z</time></trkpt><trkpt lat="43.78725261014907" lon="11.040925631113707"><ele>183.0</ele><time>2026-04-05T15:30:22Z</time></trkpt><trkpt lat="43.78731519193513" lon="11.040957944227307"><ele>183.0</ele><time>2026-04-05T15:30:23Z</time></trkpt><trkpt lat="43.78740467499725" lon="11.041072936303093"><ele>183.0</ele><time>2026-04-05T15:30:25Z</time></trkpt><trkpt lat="43.7874387705799" lon="11.041146858258683"><ele>183.0</ele><time>2026-04-05T15:30:26Z</time></trkpt><trkpt lat="43.787468674653546" lon="11.041228232077804"><ele>183.0</ele><time>2026-04-05T15:30:27Z</time></trkpt><trkpt lat="43.78749228518208" lon="11.04138683806028"><ele>183.0</ele><time>2026-04-05T15:30:29Z</time></trkpt><trkpt lat="43.78746683966067" lon="11.041483109015136"><ele>183.0</ele><time>2026-04-05T15:30:30Z</time></trkpt><trkpt lat="43.78743385287259" lon="11.041571381715102"><ele>183.0</ele><time>2026-04-05T15:30:31Z</time></trkpt><trkpt lat="43.78739107979511" lon="11.041657529823816"><ele>183.0</ele><time>2026-04-05T15:30:32Z</time></trkpt><trkpt lat="43.78733349511837" lon="11.041726260867387"><ele>183.33333333333334</ele><time>2026-04-05T15:30:33Z</time></trkpt><trkpt lat="43.78726218344749" lon="11.041775763222846"><ele>183.66666666666666</ele><time>2026-04-05T15:30:34Z</time></trkpt><trkpt lat="43.7871846310841" lon="11.041805760443916"><ele>184.0</ele><time>2026-04-05T15:30:35Z</time></trkpt><trkpt lat="43.78710096904996" lon="11.041824664438202"><ele>184.33333333333331</ele><time>2026-04-05T15:30:36Z</time></trkpt><trkpt lat="43.78701260142145" lon="11.041843994306312"><ele>184.66666666666666</ele><time>2026-04-05T15:30:37Z</time></trkpt><trkpt lat="43.78693094269864" lon="11.041863882034885"><ele>185.0</ele><time>2026-04-05T15:30:38Z</time></trkpt><trkpt lat="43.78685215276166" lon="11.041891531567293"><ele>186.14285714285714</ele><time>2026-04-05T15:30:39Z</time></trkpt><trkpt lat="43.78678255044113" lon="11.041930950559312"><ele>187.28571428571428</ele><time>2026-04-05T15:30:40Z</time></trkpt><trkpt lat="43.786715828932884" lon="11.041979629096128"><ele>188.42857142857144</ele><time>2026-04-05T15:30:41Z</time></trkpt><trkpt lat="43.78665787023136" lon="11.042037025792304"><ele>189.57142857142856</ele><time>2026-04-05T15:30:42Z</time></trkpt><trkpt lat="43.7866043225238" lon="11.042100399127225"><ele>190.71428571428572</ele><time>2026-04-05T15:30:43Z</time></trkpt><trkpt lat="43.786555250520905" lon="11.0421715537374"><ele>191.85714285714286</ele><time>2026-04-05T15:30:44Z</time></trkpt><trkpt lat="43.78650992529204" lon="11.042241157098458"><ele>193.0</ele><time>2026-04-05T15:30:45Z</time></trkpt><trkpt lat="43.78645664176353" lon="11.042300076825502"><ele>192.99999999999997</ele><time>2026-04-05T15:30:46Z</time></trkpt><trkpt lat="43.7863937950664" lon="11.042356013735338"><ele>193.0</ele><time>2026-04-05T15:30:47Z</time></trkpt><trkpt lat="43.78632884482582" lon="11.042395699945475"><ele>193.0</ele><time>2026-04-05T15:30:48Z</time></trkpt><trkpt lat="43.7862600063126" lon="11.042424911910235"><ele>193.0</ele><time>2026-04-05T15:30:49Z</time></trkpt><trkpt lat="43.786187648559874" lon="11.042452137403993"><ele>192.99999999999997</ele><time>2026-04-05T15:30:50Z</time></trkpt><trkpt lat="43.78612036792599" lon="11.042479508844442"><ele>193.0</ele><time>2026-04-05T15:30:51Z</time></trkpt><trkpt lat="43.785993878845304" lon="11.042524702689525"><ele>191.16666666666666</ele><time>2026-04-05T15:30:53Z</time></trkpt><trkpt lat="43.78592990956971" lon="11.042547773510595"><ele>189.33333333333331</ele><time>2026-04-05T15:30:54Z</time></trkpt><trkpt lat="43.785866100763755" lon="11.04256542057362"><ele>187.5</ele><time>2026-04-05T15:30:55Z</time></trkpt><trkpt lat="43.78580086334094" lon="11.042576229762524"><ele>185.66666666666666</ele><time>2026-04-05T15:30:56Z</time></trkpt><trkpt lat="43.785736344455486" lon="11.042584765063845"><ele>183.83333333333331</ele><time>2026-04-05T15:30:57Z</time></trkpt><trkpt lat="43.785614077296835" lon="11.042590802731315"><ele>182.0</ele><time>2026-04-05T15:30:58.999Z</time></trkpt><trkpt lat="43.78550146797858" lon="11.042597260843237"><ele>182.0</ele><time>2026-04-05T15:31:00.999Z</time></trkpt><trkpt lat="43.785398260779324" lon="11.04263178015062"><ele>182.0</ele><time>2026-04-05T15:31:02.999Z</time></trkpt><trkpt lat="43.78534657677425" lon="11.042747810828747"><ele>182.0</ele><time>2026-04-05T15:31:04.999Z</time></trkpt><trkpt lat="43.7853742961569" lon="11.042895190527368"><ele>182.0</ele><time>2026-04-05T15:31:06.999Z</time></trkpt><trkpt lat="43.78545718477276" lon="11.042950440912637"><ele>182.0</ele><time>2026-04-05T15:31:07.999Z</time></trkpt><trkpt lat="43.78551576772242" lon="11.042988076369925"><ele>182.0</ele><time>2026-04-05T15:31:08.999Z</time></trkpt><trkpt lat="43.785580273695274" lon="11.043027494345571"><ele>182.0</ele><time>2026-04-05T15:31:09.999Z</time></trkpt><trkpt lat="43.785641479654934" lon="11.043069839425087"><ele>182.0</ele><time>2026-04-05T15:31:10.999Z</time></trkpt><trkpt lat="43.78571120725141" lon="11.043101595492852"><ele>182.0</ele><time>2026-04-05T15:31:11.999Z</time></trkpt><trkpt lat="43.78580366594531" lon="11.043193543309417"><ele>182.0</ele><time>2026-04-05T15:31:13.999Z</time></trkpt><trkpt lat="43.785877061337345" lon="11.043247617726552"><ele>182.0</ele><time>2026-04-05T15:31:14.999Z</time></trkpt><trkpt lat="43.78595311068718" lon="11.043292523315571"><ele>179.83333333333331</ele><time>2026-04-05T15:31:15.999Z</time></trkpt><trkpt lat="43.786031211499754" lon="11.043335668313748"><ele>177.66666666666666</ele><time>2026-04-05T15:31:16.999Z</time></trkpt><trkpt lat="43.786094507004364" lon="11.043355900869374"><ele>175.5</ele><time>2026-04-05T15:31:17.999Z</time></trkpt><trkpt lat="43.78617344788283" lon="11.043375775501174"><ele>173.33333333333334</ele><time>2026-04-05T15:31:18.999Z</time></trkpt><trkpt lat="43.78625261150293" lon="11.043370811986536"><ele>171.16666666666669</ele><time>2026-04-05T15:31:19.999Z</time></trkpt><trkpt lat="43.78632866760281" lon="11.043407854866258"><ele>169.0</ele><time>2026-04-05T15:31:20.999Z</time></trkpt><trkpt lat="43.78640628393785" lon="11.043427190923753"><ele>169.0</ele><time>2026-04-05T15:31:21.999Z</time></trkpt><trkpt lat="43.786491518106146" lon="11.043442181201089"><ele>169.0</ele><time>2026-04-05T15:31:22.999Z</time></trkpt><trkpt lat="43.786565294010416" lon="11.043449203643231"><ele>169.0</ele><time>2026-04-05T15:31:23.999Z</time></trkpt><trkpt lat="43.78664242579494" lon="11.04346156243451"><ele>169.0</ele><time>2026-04-05T15:31:24.999Z</time></trkpt><trkpt lat="43.78671193988855" lon="11.043484615422487"><ele>169.0</ele><time>2026-04-05T15:31:25.999Z</time></trkpt><trkpt lat="43.78677948124094" lon="11.043508350738374"><ele>169.0</ele><time>2026-04-05T15:31:26.999Z</time></trkpt><trkpt lat="43.78686064826687" lon="11.043519072660795"><ele>167.57142857142858</ele><time>2026-04-05T15:31:27.999Z</time></trkpt><trkpt lat="43.78693043128657" lon="11.043527424455467"><ele>166.14285714285714</ele><time>2026-04-05T15:31:28.999Z</time></trkpt><trkpt lat="43.787003098809194" lon="11.043547738061486"><ele>164.71428571428572</ele><time>2026-04-05T15:31:29.999Z</time></trkpt><trkpt lat="43.787069463770074" lon="11.043568471576148"><ele>163.28571428571428</ele><time>2026-04-05T15:31:30.999Z</time></trkpt><trkpt lat="43.78713268153428" lon="11.043612741583601"><ele>161.85714285714286</ele><time>2026-04-05T15:31:31.999Z</time></trkpt><trkpt lat="43.787189223664384" lon="11.04367716019469"><ele>160.42857142857142</ele><time>2026-04-05T15:31:32.999Z</time></trkpt><trkpt lat="43.787220581578325" lon="11.04375344415829"><ele>159.0</ele><time>2026-04-05T15:31:33.999Z</time></trkpt><trkpt lat="43.78724535264293" lon="11.043837150200805"><ele>159.0</ele><time>2026-04-05T15:31:34.999Z</time></trkpt><trkpt lat="43.78727436086133" lon="11.043933173106597"><ele>159.0</ele><time>2026-04-05T15:31:35.999Z</time></trkpt><trkpt lat="43.78729591659362" lon="11.044020549248305"><ele>159.0</ele><time>2026-04-05T15:31:36.999Z</time></trkpt><trkpt lat="43.787315321055004" lon="11.044122962696552"><ele>159.0</ele><time>2026-04-05T15:31:37.999Z</time></trkpt><trkpt lat="43.78733346906951" lon="11.044234887832172"><ele>159.0</ele><time>2026-04-05T15:31:38.999Z</time></trkpt><trkpt lat="43.78736123297634" lon="11.044339521277921"><ele>159.0</ele><time>2026-04-05T15:31:39.999Z</time></trkpt><trkpt lat="43.78741013929207" lon="11.044431334514439"><ele>159.0</ele><time>2026-04-05T15:31:40.999Z</time></trkpt><trkpt lat="43.78746271788814" lon="11.04450357736137"><ele>159.0</ele><time>2026-04-05T15:31:41.999Z</time></trkpt><trkpt lat="43.78753366426062" lon="11.044576791532815"><ele>159.0</ele><time>2026-04-05T15:31:42.999Z</time></trkpt><trkpt lat="43.78761257584744" lon="11.044634759637276"><ele>159.0</ele><time>2026-04-05T15:31:43.999Z</time></trkpt><trkpt lat="43.78767974264104" lon="11.044678753911828"><ele>159.0</ele><time>2026-04-05T15:31:44.999Z</time></trkpt><trkpt lat="43.78779204664455" lon="11.044748253036047"><ele>159.0</ele><time>2026-04-05T15:31:46.999Z</time></trkpt><trkpt lat="43.78785546351157" lon="11.044788505155765"><ele>157.57142857142856</ele><time>2026-04-05T15:31:47.999Z</time></trkpt><trkpt lat="43.78791389256807" lon="11.04482559144883"><ele>156.14285714285717</ele><time>2026-04-05T15:31:48.999Z</time></trkpt><trkpt lat="43.78798488095667" lon="11.044868954729786"><ele>154.71428571428572</ele><time>2026-04-05T15:31:49.999Z</time></trkpt><trkpt lat="43.78804449189507" lon="11.044903476687331"><ele>153.28571428571428</ele><time>2026-04-05T15:31:50.998Z</time></trkpt><trkpt lat="43.788124146137314" lon="11.04494499359092"><ele>151.85714285714283</ele><time>2026-04-05T15:31:51.998Z</time></trkpt><trkpt lat="43.78820103605995" lon="11.04495945175264"><ele>150.42857142857142</ele><time>2026-04-05T15:31:52.998Z</time></trkpt><trkpt lat="43.78827068934718" lon="11.044999903311075"><ele>149.0</ele><time>2026-04-05T15:31:53.998Z</time></trkpt><trkpt lat="43.788340808034576" lon="11.045029707652265"><ele>149.0</ele><time>2026-04-05T15:31:54.998Z</time></trkpt><trkpt lat="43.78841522175988" lon="11.045057903019114"><ele>149.0</ele><time>2026-04-05T15:31:55.998Z</time></trkpt><trkpt lat="43.78848648817393" lon="11.045097650608033"><ele>149.0</ele><time>2026-04-05T15:31:56.998Z</time></trkpt><trkpt lat="43.78856108871386" lon="11.045139673991038"><ele>149.0</ele><time>2026-04-05T15:31:57.998Z</time></trkpt><trkpt lat="43.788630573474116" lon="11.0452201857983"><ele>149.0</ele><time>2026-04-05T15:31:58.998Z</time></trkpt><trkpt lat="43.78869827241973" lon="11.045285337780282"><ele>149.0</ele><time>2026-04-05T15:31:59.998Z</time></trkpt><trkpt lat="43.788758590670945" lon="11.045341358183263"><ele>147.33333333333331</ele><time>2026-04-05T15:32:00.998Z</time></trkpt><trkpt lat="43.78881691912336" lon="11.045418337432183"><ele>145.66666666666666</ele><time>2026-04-05T15:32:01.998Z</time></trkpt><trkpt lat="43.78888140773525" lon="11.045498796374414"><ele>144.0</ele><time>2026-04-05T15:32:02.998Z</time></trkpt><trkpt lat="43.78893939822408" lon="11.045575324261293"><ele>142.33333333333334</ele><time>2026-04-05T15:32:03.998Z</time></trkpt><trkpt lat="43.78900496736384" lon="11.045651821451445"><ele>140.66666666666669</ele><time>2026-04-05T15:32:04.998Z</time></trkpt><trkpt lat="43.78906708934165" lon="11.045735115666188"><ele>139.0</ele><time>2026-04-05T15:32:05.998Z</time></trkpt><trkpt lat="43.78914583741224" lon="11.045813957940549"><ele>139.0</ele><time>2026-04-05T15:32:06.998Z</time></trkpt><trkpt lat="43.78921281096473" lon="11.045894284577681"><ele>139.0</ele><time>2026-04-05T15:32:07.998Z</time></trkpt><trkpt lat="43.78927441676228" lon="11.045956101724833"><ele>139.0</ele><time>2026-04-05T15:32:08.998Z</time></trkpt><trkpt lat="43.7893493113264" lon="11.046014178514644"><ele>139.0</ele><time>2026-04-05T15:32:09.998Z</time></trkpt><trkpt lat="43.78943036221812" lon="11.04606298646575"><ele>139.0</ele><time>2026-04-05T15:32:10.998Z</time></trkpt><trkpt lat="43.789504944818226" lon="11.046103082705635"><ele>139.0</ele><time>2026-04-05T15:32:11.998Z</time></trkpt><trkpt lat="43.78956936598781" lon="11.046151162892194"><ele>134.66666666666669</ele><time>2026-04-05T15:32:12.998Z</time></trkpt><trkpt lat="43.789632100526106" lon="11.046194146790468"><ele>130.33333333333334</ele><time>2026-04-05T15:32:13.998Z</time></trkpt><trkpt lat="43.7896952926314" lon="11.04623041712409"><ele>126.0</ele><time>2026-04-05T15:32:14.998Z</time></trkpt><trkpt lat="43.78974479885507" lon="11.046286703272909"><ele>121.66666666666666</ele><time>2026-04-05T15:32:15.998Z</time></trkpt><trkpt lat="43.789772713507396" lon="11.046433939249175"><ele>117.33333333333333</ele><time>2026-04-05T15:32:17.998Z</time></trkpt><trkpt lat="43.78969404492759" lon="11.046553117252797"><ele>113.0</ele><time>2026-04-05T15:32:19.998Z</time></trkpt><trkpt lat="43.78962059386315" lon="11.046573495140246"><ele>113.0</ele><time>2026-04-05T15:32:20.998Z</time></trkpt><trkpt lat="43.78954568320102" lon="11.046578574116955"><ele>113.00000000000001</ele><time>2026-04-05T15:32:21.998Z</time></trkpt><trkpt lat="43.78947506864549" lon="11.046589418360417"><ele>113.00000000000001</ele><time>2026-04-05T15:32:22.998Z</time></trkpt><trkpt lat="43.78941215619031" lon="11.046582699853948"><ele>113.0</ele><time>2026-04-05T15:32:24Z</time></trkpt><trkpt lat="43.78929206346471" lon="11.046580038515616"><ele>113.0</ele><time>2026-04-05T15:32:26Z</time></trkpt><trkpt lat="43.78919292056064" lon="11.046686005590786"><ele>117.16666666666666</ele><time>2026-04-05T15:32:28Z</time></trkpt><trkpt lat="43.789175947143" lon="11.046777485766098"><ele>121.33333333333333</ele><time>2026-04-05T15:32:29Z</time></trkpt><trkpt lat="43.789179664192396" lon="11.046874124849278"><ele>125.5</ele><time>2026-04-05T15:32:30Z</time></trkpt><trkpt lat="43.78916285371048" lon="11.046974493220691"><ele>129.66666666666666</ele><time>2026-04-05T15:32:31Z</time></trkpt><trkpt lat="43.789160206036335" lon="11.047095177810997"><ele>133.83333333333334</ele><time>2026-04-05T15:32:32Z</time></trkpt><trkpt lat="43.789143873812215" lon="11.047209781602088"><ele>138.0</ele><time>2026-04-05T15:32:33Z</time></trkpt><trkpt lat="43.78912849005498" lon="11.047328830901636"><ele>138.0</ele><time>2026-04-05T15:32:34Z</time></trkpt><trkpt lat="43.78911795475529" lon="11.047435230152484"><ele>138.0</ele><time>2026-04-05T15:32:35Z</time></trkpt><trkpt lat="43.789114321375024" lon="11.047609197315227"><ele>138.0</ele><time>2026-04-05T15:32:37Z</time></trkpt><trkpt lat="43.789108863716194" lon="11.047702431375221"><ele>138.0</ele><time>2026-04-05T15:32:38Z</time></trkpt><trkpt lat="43.78909405515089" lon="11.04780162729328"><ele>138.0</ele><time>2026-04-05T15:32:39Z</time></trkpt><trkpt lat="43.78905542735632" lon="11.04790530739115"><ele>138.0</ele><time>2026-04-05T15:32:40Z</time></trkpt><trkpt lat="43.78899722683826" lon="11.047998425637072"><ele>136.0</ele><time>2026-04-05T15:32:41Z</time></trkpt><trkpt lat="43.78892894924991" lon="11.04809079209375"><ele>134.0</ele><time>2026-04-05T15:32:42Z</time></trkpt><trkpt lat="43.78885699861462" lon="11.048157446414502"><ele>132.0</ele><time>2026-04-05T15:32:43Z</time></trkpt><trkpt lat="43.78880806032208" lon="11.048245398609707"><ele>130.0</ele><time>2026-04-05T15:32:44Z</time></trkpt><trkpt lat="43.78875416910758" lon="11.048306587906707"><ele>128.0</ele><time>2026-04-05T15:32:45Z</time></trkpt><trkpt lat="43.788701665314505" lon="11.048369344288618"><ele>126.0</ele><time>2026-04-05T15:32:46Z</time></trkpt><trkpt lat="43.788613257130855" lon="11.048450081754646"><ele>125.0</ele><time>2026-04-05T15:32:48Z</time></trkpt><trkpt lat="43.788536288664375" lon="11.048526313655072"><ele>124.0</ele><time>2026-04-05T15:32:50Z</time></trkpt><trkpt lat="43.788439653937424" lon="11.048632303019836"><ele>123.0</ele><time>2026-04-05T15:32:52Z</time></trkpt><trkpt lat="43.788384971148645" lon="11.048690025399164"><ele>122.0</ele><time>2026-04-05T15:32:53Z</time></trkpt><trkpt lat="43.788286448430284" lon="11.048784767207351"><ele>121.0</ele><time>2026-04-05T15:32:55Z</time></trkpt><trkpt lat="43.7882337078944" lon="11.048920964204301"><ele>121.00000000000001</ele><time>2026-04-05T15:32:57Z</time></trkpt><trkpt lat="43.78820371254991" lon="11.049066639045979"><ele>121.0</ele><time>2026-04-05T15:32:59Z</time></trkpt><trkpt lat="43.7882113963782" lon="11.049228355257451"><ele>121.0</ele><time>2026-04-05T15:33:01Z</time></trkpt><trkpt lat="43.78825797001475" lon="11.049301167525178"><ele>121.0</ele><time>2026-04-05T15:33:02Z</time></trkpt><trkpt lat="43.788322228223024" lon="11.049349465853116"><ele>121.00000000000001</ele><time>2026-04-05T15:33:03Z</time></trkpt><trkpt lat="43.78839767086164" lon="11.049362709914867"><ele>121.0</ele><time>2026-04-05T15:33:03.999Z</time></trkpt><trkpt lat="43.78846546095495" lon="11.049366682530106"><ele>113.8</ele><time>2026-04-05T15:33:04.999Z</time></trkpt><trkpt lat="43.788532137824795" lon="11.049358510182525"><ele>106.6</ele><time>2026-04-05T15:33:05.999Z</time></trkpt><trkpt lat="43.78863843005141" lon="11.049342456590482"><ele>99.4</ele><time>2026-04-05T15:33:07.999Z</time></trkpt><trkpt lat="43.788721808772166" lon="11.049339546710279"><ele>92.2</ele><time>2026-04-05T15:33:09.999Z</time></trkpt><trkpt lat="43.78878871590194" lon="11.049394890976455"><ele>85.0</ele><time>2026-04-05T15:33:11.999Z</time></trkpt><trkpt lat="43.788729533305066" lon="11.049554671398235"><ele>85.0</ele><time>2026-04-05T15:33:13.999Z</time></trkpt><trkpt lat="43.78868928211898" lon="11.049634769730192"><ele>85.0</ele><time>2026-04-05T15:33:14.999Z</time></trkpt><trkpt lat="43.788656493512704" lon="11.049783892783061"><ele>85.0</ele><time>2026-04-05T15:33:16.999Z</time></trkpt><trkpt lat="43.78867393527268" lon="11.049869762339588"><ele>85.0</ele><time>2026-04-05T15:33:17.999Z</time></trkpt><trkpt lat="43.78871750698247" lon="11.049937603404496"><ele>85.0</ele><time>2026-04-05T15:33:18.999Z</time></trkpt><trkpt lat="43.78877663504431" lon="11.050005457950823"><ele>85.0</ele><time>2026-04-05T15:33:19.999Z</time></trkpt><trkpt lat="43.7888498640233" lon="11.050033448269692"><ele>83.33333333333333</ele><time>2026-04-05T15:33:20.999Z</time></trkpt><trkpt lat="43.78891189864156" lon="11.050068941561147"><ele>81.66666666666666</ele><time>2026-04-05T15:33:21.999Z</time></trkpt><trkpt lat="43.78896773722144" lon="11.050110017157554"><ele>80.0</ele><time>2026-04-05T15:33:22.999Z</time></trkpt><trkpt lat="43.789048380676846" lon="11.050244952646127"><ele>78.33333333333333</ele><time>2026-04-05T15:33:24.999Z</time></trkpt><trkpt lat="43.78907832053487" lon="11.050328927424495"><ele>76.66666666666667</ele><time>2026-04-05T15:33:25.999Z</time></trkpt><trkpt lat="43.78910761010887" lon="11.050414137635928"><ele>75.0</ele><time>2026-04-05T15:33:26.999Z</time></trkpt><trkpt lat="43.789145426736596" lon="11.050520602317281"><ele>75.0</ele><time>2026-04-05T15:33:27.999Z</time></trkpt><trkpt lat="43.789199395097874" lon="11.050600887708288"><ele>75.0</ele><time>2026-04-05T15:33:28.999Z</time></trkpt><trkpt lat="43.789219480725414" lon="11.050700353265011"><ele>75.0</ele><time>2026-04-05T15:33:29.999Z</time></trkpt><trkpt lat="43.789245815534876" lon="11.05078967913801"><ele>75.0</ele><time>2026-04-05T15:33:30.999Z</time></trkpt><trkpt lat="43.78926679068044" lon="11.050877896184485"><ele>75.0</ele><time>2026-04-05T15:33:31.999Z</time></trkpt><trkpt lat="43.78929082534772" lon="11.050980022219369"><ele>75.0</ele><time>2026-04-05T15:33:32.999Z</time></trkpt><trkpt lat="43.789316402870874" lon="11.051091607171166"><ele>74.28571428571428</ele><time>2026-04-05T15:33:33.999Z</time></trkpt><trkpt lat="43.789340285429155" lon="11.051198733962027"><ele>73.57142857142857</ele><time>2026-04-05T15:33:34.999Z</time></trkpt><trkpt lat="43.789378635860345" lon="11.051293653316236"><ele>72.85714285714286</ele><time>2026-04-05T15:33:35.999Z</time></trkpt><trkpt lat="43.78939897433374" lon="11.05140105907857"><ele>72.14285714285714</ele><time>2026-04-05T15:33:36.999Z</time></trkpt><trkpt lat="43.789413600019465" lon="11.051504560298055"><ele>71.42857142857143</ele><time>2026-04-05T15:33:37.999Z</time></trkpt><trkpt lat="43.78943599265443" lon="11.051592643495033"><ele>70.71428571428571</ele><time>2026-04-05T15:33:38.999Z</time></trkpt><trkpt lat="43.78944368711533" lon="11.05168262749018"><ele>70.0</ele><time>2026-04-05T15:33:39.999Z</time></trkpt><trkpt lat="43.789431377644505" lon="11.051780305239822"><ele>68.16666666666666</ele><time>2026-04-05T15:33:40.999Z</time></trkpt><trkpt lat="43.78939446561011" lon="11.051870775467968"><ele>66.33333333333333</ele><time>2026-04-05T15:33:41.999Z</time></trkpt><trkpt lat="43.78933487030906" lon="11.051956329760111"><ele>64.5</ele><time>2026-04-05T15:33:42.999Z</time></trkpt><trkpt lat="43.78926249550034" lon="11.052022543003714"><ele>62.66666666666667</ele><time>2026-04-05T15:33:43.999Z</time></trkpt><trkpt lat="43.78918444701792" lon="11.052084486466473"><ele>60.833333333333336</ele><time>2026-04-05T15:33:44.999Z</time></trkpt><trkpt lat="43.78910448513117" lon="11.052148211316943"><ele>59.0</ele><time>2026-04-05T15:33:45.999Z</time></trkpt><trkpt lat="43.789023102706736" lon="11.052214958257526"><ele>59.0</ele><time>2026-04-05T15:33:46.999Z</time></trkpt><trkpt lat="43.78893614031922" lon="11.052276430634219"><ele>59.00000000000001</ele><time>2026-04-05T15:33:47.999Z</time></trkpt><trkpt lat="43.78885267603229" lon="11.052325837770557"><ele>59.00000000000001</ele><time>2026-04-05T15:33:48.999Z</time></trkpt><trkpt lat="43.78877253160987" lon="11.05236640571964"><ele>59.0</ele><time>2026-04-05T15:33:49.999Z</time></trkpt><trkpt lat="43.78869494056365" lon="11.052413109636293"><ele>59.0</ele><time>2026-04-05T15:33:50.999Z</time></trkpt><trkpt lat="43.78860588060524" lon="11.052477113696458"><ele>56.66666666666667</ele><time>2026-04-05T15:33:51.999Z</time></trkpt><trkpt lat="43.78852484660808" lon="11.052541237071365"><ele>54.333333333333336</ele><time>2026-04-05T15:33:52.999Z</time></trkpt><trkpt lat="43.78844742606744" lon="11.052604388928208"><ele>52.0</ele><time>2026-04-05T15:33:53.999Z</time></trkpt><trkpt lat="43.788377635164586" lon="11.052673230682204"><ele>49.66666666666667</ele><time>2026-04-05T15:33:54.999Z</time></trkpt><trkpt lat="43.78831975406867" lon="11.052738483934954"><ele>47.333333333333336</ele><time>2026-04-05T15:33:55.999Z</time></trkpt><trkpt lat="43.788243138454185" lon="11.052827930676369"><ele>45.0</ele><time>2026-04-05T15:33:57.998Z</time></trkpt><trkpt lat="43.788194612378405" lon="11.052892391307365"><ele>44.8</ele><time>2026-04-05T15:33:59.998Z</time></trkpt><trkpt lat="43.78816969760131" lon="11.052983013480443"><ele>44.6</ele><time>2026-04-05T15:34:05.998Z</time></trkpt><trkpt lat="43.78811560482869" lon="11.053083550383176"><ele>44.400000000000006</ele><time>2026-04-05T15:34:10.998Z</time></trkpt><trkpt lat="43.7882092211424" lon="11.053201623170416"><ele>44.2</ele><time>2026-04-05T15:34:11.998Z</time></trkpt><trkpt lat="43.788261536201254" lon="11.053294083525342"><ele>44.0</ele><time>2026-04-05T15:34:12.998Z</time></trkpt><trkpt lat="43.78829081551593" lon="11.053415352960705"><ele>42.25</ele><time>2026-04-05T15:34:13.998Z</time></trkpt><trkpt lat="43.78833297334321" lon="11.053543641399347"><ele>40.5</ele><time>2026-04-05T15:34:14.998Z</time></trkpt><trkpt lat="43.788384271125025" lon="11.053686761052468"><ele>38.75</ele><time>2026-04-05T15:34:15.998Z</time></trkpt><trkpt lat="43.78842894786734" lon="11.053842315157748"><ele>37.0</ele><time>2026-04-05T15:34:16.998Z</time></trkpt><trkpt lat="43.78847188263855" lon="11.054004546838193"><ele>39.75</ele><time>2026-04-05T15:34:17.998Z</time></trkpt><trkpt lat="43.78851287397493" lon="11.054181593847387"><ele>42.5</ele><time>2026-04-05T15:34:18.998Z</time></trkpt><trkpt lat="43.78855461370823" lon="11.054364038654482"><ele>45.25</ele><time>2026-04-05T15:34:19.998Z</time></trkpt><trkpt lat="43.78859719705604" lon="11.054549005938657"><ele>48.0</ele><time>2026-04-05T15:34:20.998Z</time></trkpt><trkpt lat="43.788630991365835" lon="11.054740794844609"><ele>48.0</ele><time>2026-04-05T15:34:21.998Z</time></trkpt><trkpt lat="43.788677522562494" lon="11.05491971578313"><ele>48.0</ele><time>2026-04-05T15:34:22.998Z</time></trkpt><trkpt lat="43.788704936596474" lon="11.055093962376002"><ele>48.0</ele><time>2026-04-05T15:34:23.998Z</time></trkpt><trkpt lat="43.78871827761709" lon="11.055244641335824"><ele>48.0</ele><time>2026-04-05T15:34:24.998Z</time></trkpt><trkpt lat="43.78871252259765" lon="11.055408670542402"><ele>47.75</ele><time>2026-04-05T15:34:25.998Z</time></trkpt><trkpt lat="43.78866879981719" lon="11.055564337225062"><ele>47.5</ele><time>2026-04-05T15:34:26.998Z</time></trkpt><trkpt lat="43.788587337740175" lon="11.055694749965735"><ele>47.25</ele><time>2026-04-05T15:34:27.998Z</time></trkpt><trkpt lat="43.78847819444876" lon="11.055807176282741"><ele>47.0</ele><time>2026-04-05T15:34:28.998Z</time></trkpt><trkpt lat="43.78836346995155" lon="11.05592816585621"><ele>47.0</ele><time>2026-04-05T15:34:30Z</time></trkpt><trkpt lat="43.78824949482257" lon="11.056052691909452"><ele>47.0</ele><time>2026-04-05T15:34:31Z</time></trkpt><trkpt lat="43.78812927447594" lon="11.056181807153829"><ele>47.0</ele><time>2026-04-05T15:34:32Z</time></trkpt><trkpt lat="43.788017725769066" lon="11.056301629499304"><ele>47.0</ele><time>2026-04-05T15:34:33Z</time></trkpt><trkpt lat="43.787909106143736" lon="11.056426131458165"><ele>47.0</ele><time>2026-04-05T15:34:34Z</time></trkpt><trkpt lat="43.78781113988976" lon="11.0565510634672"><ele>47.0</ele><time>2026-04-05T15:34:35Z</time></trkpt><trkpt lat="43.78774486139483" lon="11.056695663327432"><ele>47.0</ele><time>2026-04-05T15:34:36Z</time></trkpt><trkpt lat="43.787704988135005" lon="11.056866931560332"><ele>47.0</ele><time>2026-04-05T15:34:37Z</time></trkpt><trkpt lat="43.78767447458989" lon="11.05703467056751"><ele>47.0</ele><time>2026-04-05T15:34:38Z</time></trkpt><trkpt lat="43.7876533340578" lon="11.057179498032367"><ele>47.0</ele><time>2026-04-05T15:34:39Z</time></trkpt><trkpt lat="43.787637632023696" lon="11.057322538777452"><ele>47.0</ele><time>2026-04-05T15:34:40Z</time></trkpt><trkpt lat="43.78761482562526" lon="11.057448489918874"><ele>47.0</ele><time>2026-04-05T15:34:41Z</time></trkpt><trkpt lat="43.78762092416066" lon="11.057569889505293"><ele>47.0</ele><time>2026-04-05T15:34:42Z</time></trkpt><trkpt lat="43.78765102564248" lon="11.057683050031136"><ele>49.5</ele><time>2026-04-05T15:34:43Z</time></trkpt><trkpt lat="43.78768534602003" lon="11.057790369870668"><ele>52.0</ele><time>2026-04-05T15:34:44Z</time></trkpt><trkpt lat="43.787731139766784" lon="11.057892765517032"><ele>54.5</ele><time>2026-04-05T15:34:45Z</time></trkpt><trkpt lat="43.7877706107133" lon="11.057996278664463"><ele>57.0</ele><time>2026-04-05T15:34:46Z</time></trkpt><trkpt lat="43.78785706406076" lon="11.058054986558693"><ele>59.50000000000001</ele><time>2026-04-05T15:34:47Z</time></trkpt><trkpt lat="43.78793704765239" lon="11.058116434054895"><ele>62.0</ele><time>2026-04-05T15:34:48Z</time></trkpt><trkpt lat="43.788026796024916" lon="11.058162703441582"><ele>62.0</ele><time>2026-04-05T15:34:49Z</time></trkpt><trkpt lat="43.788119001452664" lon="11.05818619380883"><ele>62.0</ele><time>2026-04-05T15:34:50Z</time></trkpt><trkpt lat="43.788210003367375" lon="11.05819035715701"><ele>62.0</ele><time>2026-04-05T15:34:51Z</time></trkpt><trkpt lat="43.78830504706316" lon="11.058204500610382"><ele>62.0</ele><time>2026-04-05T15:34:52Z</time></trkpt><trkpt lat="43.78839145749208" lon="11.058154132801258"><ele>62.0</ele><time>2026-04-05T15:34:53Z</time></trkpt><trkpt lat="43.78847405031076" lon="11.058105246062816"><ele>61.833333333333336</ele><time>2026-04-05T15:34:54Z</time></trkpt><trkpt lat="43.788541085491595" lon="11.05803210235611"><ele>61.66666666666667</ele><time>2026-04-05T15:34:55Z</time></trkpt><trkpt lat="43.78860039846515" lon="11.057957102384595"><ele>61.5</ele><time>2026-04-05T15:34:56Z</time></trkpt><trkpt lat="43.788645647418655" lon="11.057887301327904"><ele>61.33333333333333</ele><time>2026-04-05T15:34:57Z</time></trkpt><trkpt lat="43.78868976602232" lon="11.057812498831284"><ele>61.166666666666664</ele><time>2026-04-05T15:34:58Z</time></trkpt><trkpt lat="43.78876033719813" lon="11.057679645693367"><ele>61.0</ele><time>2026-04-05T15:35:00Z</time></trkpt><trkpt lat="43.78883220645543" lon="11.057552217456141"><ele>62.0</ele><time>2026-04-05T15:35:01.999Z</time></trkpt><trkpt lat="43.78891859883641" lon="11.057411127446375"><ele>62.99999999999999</ele><time>2026-04-05T15:35:03.999Z</time></trkpt><trkpt lat="43.788980898857915" lon="11.05733975877626"><ele>63.99999999999999</ele><time>2026-04-05T15:35:04.999Z</time></trkpt><trkpt lat="43.78909334441567" lon="11.057239433714859"><ele>65.0</ele><time>2026-04-05T15:35:06.999Z</time></trkpt><trkpt lat="43.78916602498995" lon="11.057231105713441"><ele>66.0</ele><time>2026-04-05T15:35:07.999Z</time></trkpt><trkpt lat="43.78923142246103" lon="11.057197694663222"><ele>66.0</ele><time>2026-04-05T15:35:08.999Z</time></trkpt><trkpt lat="43.78929569273115" lon="11.05718159665689"><ele>66.0</ele><time>2026-04-05T15:35:09.999Z</time></trkpt><trkpt lat="43.78936378943718" lon="11.057161560664767"><ele>66.0</ele><time>2026-04-05T15:35:10.999Z</time></trkpt><trkpt lat="43.78947398371726" lon="11.057181629001875"><ele>66.0</ele><time>2026-04-05T15:35:12.999Z</time></trkpt><trkpt lat="43.78955724069691" lon="11.05718658075083"><ele>66.0</ele><time>2026-04-05T15:35:21.999Z</time></trkpt><trkpt lat="43.78963160255447" lon="11.057212709797826"><ele>66.0</ele><time>2026-04-05T15:35:23.999Z</time></trkpt><trkpt lat="43.789721909313386" lon="11.0572718262146"><ele>65.83333333333333</ele><time>2026-04-05T15:35:25.999Z</time></trkpt><trkpt lat="43.789798637219164" lon="11.057310658834213"><ele>65.66666666666667</ele><time>2026-04-05T15:35:27.999Z</time></trkpt><trkpt lat="43.78985797205609" lon="11.057345324459506"><ele>65.5</ele><time>2026-04-05T15:35:31.999Z</time></trkpt><trkpt lat="43.78994874082874" lon="11.057402198725567"><ele>65.33333333333334</ele><time>2026-04-05T15:37:20.999Z</time></trkpt><trkpt lat="43.790009446485456" lon="11.057453689538699"><ele>65.16666666666667</ele><time>2026-04-05T15:37:21.999Z</time></trkpt><trkpt lat="43.79008035186465" lon="11.057509281885942"><ele>65.0</ele><time>2026-04-05T15:37:22.999Z</time></trkpt><trkpt lat="43.79015886363278" lon="11.057552257853017"><ele>65.6</ele><time>2026-04-05T15:37:23.999Z</time></trkpt><trkpt lat="43.7902528599773" lon="11.057572821391355"><ele>66.2</ele><time>2026-04-05T15:37:24.999Z</time></trkpt><trkpt lat="43.79034607115491" lon="11.057572155841504"><ele>66.8</ele><time>2026-04-05T15:37:25.999Z</time></trkpt><trkpt lat="43.79044401075221" lon="11.057517532092854"><ele>67.4</ele><time>2026-04-05T15:37:26.999Z</time></trkpt><trkpt lat="43.79053238886589" lon="11.057491409585799"><ele>68.0</ele><time>2026-04-05T15:37:27.999Z</time></trkpt><trkpt lat="43.79062575842275" lon="11.05747451628001"><ele>68.0</ele><time>2026-04-05T15:37:28.999Z</time></trkpt><trkpt lat="43.79072021301129" lon="11.057465473299988"><ele>68.0</ele><time>2026-04-05T15:37:29.999Z</time></trkpt><trkpt lat="43.790812455677695" lon="11.057469221272841"><ele>68.0</ele><time>2026-04-05T15:37:30.999Z</time></trkpt><trkpt lat="43.79091906329338" lon="11.057522399746139"><ele>68.0</ele><time>2026-04-05T15:37:31.999Z</time></trkpt><trkpt lat="43.791015946942984" lon="11.057582216741682"><ele>68.0</ele><time>2026-04-05T15:37:32.999Z</time></trkpt><trkpt lat="43.79109784020939" lon="11.057643962995265"><ele>69.4</ele><time>2026-04-05T15:37:33.999Z</time></trkpt><trkpt lat="43.79118442434694" lon="11.057704751957333"><ele>70.8</ele><time>2026-04-05T15:37:34.999Z</time></trkpt><trkpt lat="43.7912814790538" lon="11.057748914616678"><ele>72.2</ele><time>2026-04-05T15:37:35.999Z</time></trkpt><trkpt lat="43.791384802361534" lon="11.057785682149685"><ele>73.6</ele><time>2026-04-05T15:37:36.999Z</time></trkpt><trkpt lat="43.79150272607345" lon="11.057806871959686"><ele>75.0</ele><time>2026-04-05T15:37:37.999Z</time></trkpt><trkpt lat="43.79162082357972" lon="11.057822738584754"><ele>75.0</ele><time>2026-04-05T15:37:38.999Z</time></trkpt><trkpt lat="43.791743212051756" lon="11.057833113856319"><ele>75.0</ele><time>2026-04-05T15:37:39.999Z</time></trkpt><trkpt lat="43.79184305069797" lon="11.05786738633551"><ele>75.0</ele><time>2026-04-05T15:37:40.999Z</time></trkpt><trkpt lat="43.79196197133921" lon="11.057882493415704"><ele>75.0</ele><time>2026-04-05T15:37:41.999Z</time></trkpt><trkpt lat="43.79205691876578" lon="11.057910648179593"><ele>75.0</ele><time>2026-04-05T15:37:42.999Z</time></trkpt><trkpt lat="43.79214863416427" lon="11.057987207018018"><ele>73.5</ele><time>2026-04-05T15:37:43.999Z</time></trkpt><trkpt lat="43.792219479392394" lon="11.058135427816735"><ele>72.0</ele><time>2026-04-05T15:37:44.999Z</time></trkpt><trkpt lat="43.79231808851751" lon="11.058267614699052"><ele>70.5</ele><time>2026-04-05T15:37:45.999Z</time></trkpt><trkpt lat="43.79240430135794" lon="11.058381079324366"><ele>69.0</ele><time>2026-04-05T15:37:46.999Z</time></trkpt><trkpt lat="43.79248052791169" lon="11.058513065721021"><ele>68.5</ele><time>2026-04-05T15:37:47.999Z</time></trkpt><trkpt lat="43.79255327371512" lon="11.058650587196281"><ele>68.0</ele><time>2026-04-05T15:37:48.999Z</time></trkpt><trkpt lat="43.792616832701526" lon="11.058804566856763"><ele>67.5</ele><time>2026-04-05T15:37:49.999Z</time></trkpt><trkpt lat="43.79267600900407" lon="11.058960752199377"><ele>67.0</ele><time>2026-04-05T15:37:50.999Z</time></trkpt><trkpt lat="43.79272918507649" lon="11.059116395800766"><ele>66.5</ele><time>2026-04-05T15:37:51.999Z</time></trkpt><trkpt lat="43.792792529935" lon="11.059260889854684"><ele>66.0</ele><time>2026-04-05T15:37:52.999Z</time></trkpt><trkpt lat="43.7928615967913" lon="11.059403268242171"><ele>65.5</ele><time>2026-04-05T15:37:53.999Z</time></trkpt><trkpt lat="43.79292611892003" lon="11.059547718302172"><ele>65.0</ele><time>2026-04-05T15:37:54.999Z</time></trkpt><trkpt lat="43.79298679380754" lon="11.059700263562958"><ele>65.0</ele><time>2026-04-05T15:37:55.999Z</time></trkpt><trkpt lat="43.793041846356324" lon="11.059858710932348"><ele>65.0</ele><time>2026-04-05T15:37:56.999Z</time></trkpt><trkpt lat="43.79307822095683" lon="11.0600248274813"><ele>65.0</ele><time>2026-04-05T15:37:57.999Z</time></trkpt><trkpt lat="43.79310428152066" lon="11.060193880761801"><ele>65.0</ele><time>2026-04-05T15:37:58.999Z</time></trkpt><trkpt lat="43.79314371734116" lon="11.060360964574842"><ele>65.25</ele><time>2026-04-05T15:37:59.999Z</time></trkpt><trkpt lat="43.79319975013917" lon="11.06051934228321"><ele>65.5</ele><time>2026-04-05T15:38:00.999Z</time></trkpt><trkpt lat="43.793260467178946" lon="11.060658571550363"><ele>65.75</ele><time>2026-04-05T15:38:01.999Z</time></trkpt><trkpt lat="43.79330455449449" lon="11.0608060220443"><ele>66.0</ele><time>2026-04-05T15:38:02.999Z</time></trkpt><trkpt lat="43.793357118633075" lon="11.060939944480884"><ele>65.2</ele><time>2026-04-05T15:38:03.999Z</time></trkpt><trkpt lat="43.79340097881795" lon="11.061058951962362"><ele>64.39999999999999</ele><time>2026-04-05T15:38:04.999Z</time></trkpt><trkpt lat="43.79342210720358" lon="11.061185771544574"><ele>63.6</ele><time>2026-04-05T15:38:05.999Z</time></trkpt><trkpt lat="43.79343234224769" lon="11.061316183857246"><ele>62.8</ele><time>2026-04-05T15:38:06.999Z</time></trkpt><trkpt lat="43.793431741783664" lon="11.061477841817949"><ele>62.0</ele><time>2026-04-05T15:38:07.999Z</time></trkpt><trkpt lat="43.79341951877447" lon="11.061611094542283"><ele>61.6</ele><time>2026-04-05T15:38:08.999Z</time></trkpt><trkpt lat="43.793403871877516" lon="11.06175839343303"><ele>61.2</ele><time>2026-04-05T15:38:09.999Z</time></trkpt><trkpt lat="43.7933932638969" lon="11.061892877514682"><ele>60.8</ele><time>2026-04-05T15:38:10.998Z</time></trkpt><trkpt lat="43.79337211370279" lon="11.06201730878523"><ele>60.4</ele><time>2026-04-05T15:38:11.998Z</time></trkpt><trkpt lat="43.793402351440854" lon="11.062143681957489"><ele>60.0</ele><time>2026-04-05T15:38:12.998Z</time></trkpt><trkpt lat="43.79344905630959" lon="11.0622605244072"><ele>60.0</ele><time>2026-04-05T15:38:13.998Z</time></trkpt><trkpt lat="43.793512458596304" lon="11.062369560857555"><ele>60.0</ele><time>2026-04-05T15:38:14.998Z</time></trkpt><trkpt lat="43.79358187802962" lon="11.062467032302342"><ele>60.0</ele><time>2026-04-05T15:38:15.998Z</time></trkpt><trkpt lat="43.793642819252874" lon="11.06256914296606"><ele>60.0</ele><time>2026-04-05T15:38:16.998Z</time></trkpt><trkpt lat="43.79368863705637" lon="11.062683091445594"><ele>60.0</ele><time>2026-04-05T15:38:17.998Z</time></trkpt><trkpt lat="43.79372586616949" lon="11.062795284886905"><ele>60.0</ele><time>2026-04-05T15:38:18.998Z</time></trkpt><trkpt lat="43.793735480025575" lon="11.062926904471274"><ele>60.0</ele><time>2026-04-05T15:38:19.998Z</time></trkpt><trkpt lat="43.79374373096289" lon="11.063039390933437"><ele>60.0</ele><time>2026-04-05T15:38:20.998Z</time></trkpt><trkpt lat="43.79373411001712" lon="11.063150528836442"><ele>60.0</ele><time>2026-04-05T15:38:21.998Z</time></trkpt><trkpt lat="43.79368838595688" lon="11.063279257183225"><ele>60.0</ele><time>2026-04-05T15:38:22.998Z</time></trkpt><trkpt lat="43.79362382310915" lon="11.063403393219359"><ele>60.0</ele><time>2026-04-05T15:38:23.998Z</time></trkpt><trkpt lat="43.793551100458345" lon="11.063531210079937"><ele>60.0</ele><time>2026-04-05T15:38:24.998Z</time></trkpt><trkpt lat="43.793479789228144" lon="11.063654536601835"><ele>60.0</ele><time>2026-04-05T15:38:25.998Z</time></trkpt><trkpt lat="43.79340251458831" lon="11.06377859392407"><ele>60.0</ele><time>2026-04-05T15:38:26.998Z</time></trkpt><trkpt lat="43.79332252094584" lon="11.063888697935335"><ele>59.75</ele><time>2026-04-05T15:38:27.998Z</time></trkpt><trkpt lat="43.79324167901246" lon="11.063991168705535"><ele>59.5</ele><time>2026-04-05T15:38:28.998Z</time></trkpt><trkpt lat="43.79315102976441" lon="11.06409860551259"><ele>59.25</ele><time>2026-04-05T15:38:29.998Z</time></trkpt><trkpt lat="43.79304197077142" lon="11.064174867684217"><ele>59.0</ele><time>2026-04-05T15:38:30.998Z</time></trkpt><trkpt lat="43.79294800798708" lon="11.064265091901651"><ele>59.0</ele><time>2026-04-05T15:38:31.998Z</time></trkpt><trkpt lat="43.79285285077774" lon="11.064357755987436"><ele>59.0</ele><time>2026-04-05T15:38:32.998Z</time></trkpt><trkpt lat="43.79276072081811" lon="11.064467761036703"><ele>59.0</ele><time>2026-04-05T15:38:33.998Z</time></trkpt><trkpt lat="43.79266122093674" lon="11.06458567602792"><ele>59.0</ele><time>2026-04-05T15:38:34.998Z</time></trkpt><trkpt lat="43.79257801728833" lon="11.064712960063437"><ele>59.0</ele><time>2026-04-05T15:38:35.998Z</time></trkpt><trkpt lat="43.792510639556205" lon="11.0648708002306"><ele>59.0</ele><time>2026-04-05T15:38:36.998Z</time></trkpt><trkpt lat="43.79245659132777" lon="11.065041864572617"><ele>59.0</ele><time>2026-04-05T15:38:37.998Z</time></trkpt><trkpt lat="43.792434351109634" lon="11.065211609188365"><ele>59.0</ele><time>2026-04-05T15:38:38.998Z</time></trkpt><trkpt lat="43.79241525577635" lon="11.065380904032633"><ele>59.0</ele><time>2026-04-05T15:38:39.998Z</time></trkpt><trkpt lat="43.792379084729184" lon="11.065557255784093"><ele>59.0</ele><time>2026-04-05T15:38:40.998Z</time></trkpt><trkpt lat="43.792333467588804" lon="11.065752836949102"><ele>59.0</ele><time>2026-04-05T15:38:41.999Z</time></trkpt><trkpt lat="43.79229575458929" lon="11.065926879686977"><ele>59.0</ele><time>2026-04-05T15:38:42.999Z</time></trkpt><trkpt lat="43.792263731195725" lon="11.066093550507079"><ele>58.800000000000004</ele><time>2026-04-05T15:38:43.999Z</time></trkpt><trkpt lat="43.79223598500041" lon="11.066246112607915"><ele>58.60000000000001</ele><time>2026-04-05T15:38:44.999Z</time></trkpt><trkpt lat="43.79221334819855" lon="11.066383408730957"><ele>58.4</ele><time>2026-04-05T15:38:45.999Z</time></trkpt><trkpt lat="43.79220353582184" lon="11.066511819080917"><ele>58.2</ele><time>2026-04-05T15:38:46.999Z</time></trkpt><trkpt lat="43.79220528088658" lon="11.06663070002005"><ele>58.0</ele><time>2026-04-05T15:38:47.999Z</time></trkpt><trkpt lat="43.792221139737116" lon="11.06673124168275"><ele>57.666666666666664</ele><time>2026-04-05T15:38:48.999Z</time></trkpt><trkpt lat="43.7922258412754" lon="11.06684055580269"><ele>57.33333333333333</ele><time>2026-04-05T15:38:49.999Z</time></trkpt><trkpt lat="43.79219015228991" lon="11.066939624134955"><ele>57.0</ele><time>2026-04-05T15:38:51Z</time></trkpt><trkpt lat="43.79212085490245" lon="11.066999749037784"><ele>56.66666666666667</ele><time>2026-04-05T15:38:52Z</time></trkpt><trkpt lat="43.792027791352915" lon="11.067011678267608"><ele>56.333333333333336</ele><time>2026-04-05T15:38:53Z</time></trkpt><trkpt lat="43.79192362672641" lon="11.067001302562353"><ele>56.0</ele><time>2026-04-05T15:38:54Z</time></trkpt><trkpt lat="43.791815017588846" lon="11.067010190708462"><ele>55.199999999999996</ele><time>2026-04-05T15:38:55Z</time></trkpt><trkpt lat="43.79171086049687" lon="11.067015807189724"><ele>54.39999999999999</ele><time>2026-04-05T15:38:56Z</time></trkpt><trkpt lat="43.79161107338503" lon="11.067018701130424"><ele>53.6</ele><time>2026-04-05T15:38:57Z</time></trkpt><trkpt lat="43.7915075803438" lon="11.067022871048458"><ele>52.8</ele><time>2026-04-05T15:38:58Z</time></trkpt><trkpt lat="43.79140889639895" lon="11.067020617065543"><ele>52.0</ele><time>2026-04-05T15:38:59Z</time></trkpt><trkpt lat="43.791318725522935" lon="11.067016927534425"><ele>52.0</ele><time>2026-04-05T15:39:00Z</time></trkpt><trkpt lat="43.7912157296353" lon="11.067018527911461"><ele>52.0</ele><time>2026-04-05T15:39:01Z</time></trkpt><trkpt lat="43.79112013246373" lon="11.067020374340672"><ele>52.0</ele><time>2026-04-05T15:39:01.999Z</time></trkpt><trkpt lat="43.79103174792024" lon="11.06701602584594"><ele>52.0</ele><time>2026-04-05T15:39:02.999Z</time></trkpt><trkpt lat="43.79094155027696" lon="11.067016422934413"><ele>52.0</ele><time>2026-04-05T15:39:03.999Z</time></trkpt><trkpt lat="43.79086072530454" lon="11.067020593743779"><ele>50.99999999999999</ele><time>2026-04-05T15:39:04.999Z</time></trkpt><trkpt lat="43.79078510621859" lon="11.067025433440223"><ele>50.0</ele><time>2026-04-05T15:39:05.999Z</time></trkpt><trkpt lat="43.790700571712975" lon="11.067016096399872"><ele>49.0</ele><time>2026-04-05T15:39:06.999Z</time></trkpt><trkpt lat="43.79060609112867" lon="11.067011818289387"><ele>48.0</ele><time>2026-04-05T15:39:07.999Z</time></trkpt><trkpt lat="43.790518227239055" lon="11.06701649504326"><ele>47.0</ele><time>2026-04-05T15:39:08.999Z</time></trkpt><trkpt lat="43.790436742677976" lon="11.066983120524576"><ele>46.0</ele><time>2026-04-05T15:39:09.999Z</time></trkpt><trkpt lat="43.790359977053186" lon="11.066904961672856"><ele>46.0</ele><time>2026-04-05T15:39:10.999Z</time></trkpt><trkpt lat="43.79031467305069" lon="11.06678684861727"><ele>46.0</ele><time>2026-04-05T15:39:11.999Z</time></trkpt><trkpt lat="43.790298788437596" lon="11.066661204866492"><ele>46.0</ele><time>2026-04-05T15:39:12.999Z</time></trkpt><trkpt lat="43.79030498159569" lon="11.066561940010208"><ele>46.0</ele><time>2026-04-05T15:39:13.999Z</time></trkpt><trkpt lat="43.79036649290517" lon="11.06641794017606"><ele>46.0</ele><time>2026-04-05T15:39:15.999Z</time></trkpt><trkpt lat="43.79040842237667" lon="11.066307682554056"><ele>45.833333333333336</ele><time>2026-04-05T15:39:16.999Z</time></trkpt><trkpt lat="43.79045849654112" lon="11.066202185278705"><ele>45.66666666666667</ele><time>2026-04-05T15:39:17.999Z</time></trkpt><trkpt lat="43.79049751424787" lon="11.066105596602883"><ele>45.5</ele><time>2026-04-05T15:39:18.999Z</time></trkpt><trkpt lat="43.79053521790967" lon="11.066003738397868"><ele>45.333333333333336</ele><time>2026-04-05T15:39:19.999Z</time></trkpt><trkpt lat="43.790585433959215" lon="11.065908051499326"><ele>45.166666666666664</ele><time>2026-04-05T15:39:20.999Z</time></trkpt><trkpt lat="43.790637961779254" lon="11.065787663798595"><ele>45.0</ele><time>2026-04-05T15:39:21.999Z</time></trkpt><trkpt lat="43.790694336118534" lon="11.065659861515044"><ele>44.4</ele><time>2026-04-05T15:39:22.999Z</time></trkpt><trkpt lat="43.79074412830232" lon="11.065531765003612"><ele>43.8</ele><time>2026-04-05T15:39:23.999Z</time></trkpt><trkpt lat="43.79079348347058" lon="11.065401379434626"><ele>43.2</ele><time>2026-04-05T15:39:24.999Z</time></trkpt><trkpt lat="43.790844910804346" lon="11.065272948734469"><ele>42.6</ele><time>2026-04-05T15:39:25.999Z</time></trkpt><trkpt lat="43.790899104827936" lon="11.065156625949387"><ele>42.0</ele><time>2026-04-05T15:39:26.999Z</time></trkpt><trkpt lat="43.79094427238905" lon="11.065028599338588"><ele>41.5</ele><time>2026-04-05T15:39:27.999Z</time></trkpt><trkpt lat="43.79098738995752" lon="11.064915354686303"><ele>41.0</ele><time>2026-04-05T15:39:28.999Z</time></trkpt><trkpt lat="43.791029580705064" lon="11.064816442579861"><ele>40.5</ele><time>2026-04-05T15:39:29.999Z</time></trkpt><trkpt lat="43.79106706166284" lon="11.064722955786632"><ele>40.0</ele><time>2026-04-05T15:39:30.999Z</time></trkpt><trkpt lat="43.79110120099419" lon="11.064637835919843"><ele>39.5</ele><time>2026-04-05T15:39:31.999Z</time></trkpt><trkpt lat="43.79114511838519" lon="11.064552560877049"><ele>39.0</ele><time>2026-04-05T15:39:32.999Z</time></trkpt><trkpt lat="43.791184030719556" lon="11.06448367455986"><ele>40.4</ele><time>2026-04-05T15:39:33.999Z</time></trkpt><trkpt lat="43.791319192830606" lon="11.064582124964383"><ele>41.8</ele><time>2026-04-05T15:39:35.999Z</time></trkpt><trkpt lat="43.79139059155287" lon="11.064635448490517"><ele>43.199999999999996</ele><time>2026-04-05T15:39:36.999Z</time></trkpt><trkpt lat="43.79145660699422" lon="11.064686423949563"><ele>44.599999999999994</ele><time>2026-04-05T15:39:37.999Z</time></trkpt><trkpt lat="43.79154604450974" lon="11.064768567617728"><ele>46.0</ele><time>2026-04-05T15:39:39.999Z</time></trkpt><trkpt lat="43.79151409827709" lon="11.064876005024477"><ele>46.599999999999994</ele><time>2026-04-05T15:39:41.999Z</time></trkpt><trkpt lat="43.79148077782119" lon="11.064993227004214"><ele>47.2</ele><time>2026-04-05T15:39:45.999Z</time></trkpt><trkpt lat="43.791450684768776" lon="11.06509909361335"><ele>47.8</ele><time>2026-04-05T15:39:47.999Z</time></trkpt><trkpt lat="43.79155939790545" lon="11.065156285143086"><ele>48.400000000000006</ele><time>2026-04-05T15:39:55.999Z</time></trkpt><trkpt lat="43.791628090338776" lon="11.06505238104723"><ele>49.0</ele><time>2026-04-05T15:40:20.998Z</time></trkpt><trkpt lat="43.79169140713521" lon="11.065045997477917"><ele>49.0</ele><time>2026-04-05T15:40:50Z</time></trkpt></trkseg></trk></gpx>